<?xml version="1.0" encoding="UTF-8" standalone="no" ?>
<gpx xmlns="http://www.topografix.com/GPX/1/1" xmlns:xsi="http://www.w3.org/2001/XMLSchema-instance" xsi:schemaLocation="http://www.topografix.com/GPX/1/1 http://www.topografix.com/GPX/1/1/gpx.xsd" version="1.1" creator="VisuGPX - https://www.visugpx.com">
  <metadata>
    <name>Main cassée</name>
  </metadata>
  <trk>
    <name><![CDATA[Main cassée]]></name>
    <trkseg>
      <trkpt lat="49.48191" lon="1.10554">
        <ele>164.6</ele>
        <time>2022-04-30T11:35:07Z</time>
      </trkpt>
      <trkpt lat="49.48188" lon="1.10562">
        <ele>164.6</ele>
        <time>2022-04-30T11:35:08Z</time>
      </trkpt>
      <trkpt lat="49.48186" lon="1.1057">
        <ele>164.7</ele>
        <time>2022-04-30T11:35:09Z</time>
      </trkpt>
      <trkpt lat="49.48183" lon="1.10581">
        <ele>164.8</ele>
        <time>2022-04-30T11:35:10Z</time>
      </trkpt>
      <trkpt lat="49.48182" lon="1.10585">
        <ele>164.9</ele>
        <time>2022-04-30T11:35:11Z</time>
      </trkpt>
      <trkpt lat="49.48182" lon="1.10587">
        <ele>164.9</ele>
        <time>2022-04-30T11:35:12Z</time>
      </trkpt>
      <trkpt lat="49.48183" lon="1.10589">
        <ele>165</ele>
        <time>2022-04-30T11:35:13Z</time>
      </trkpt>
      <trkpt lat="49.48183" lon="1.10591">
        <ele>165</ele>
        <time>2022-04-30T11:35:14Z</time>
      </trkpt>
      <trkpt lat="49.48183" lon="1.10594">
        <ele>165</ele>
        <time>2022-04-30T11:35:15Z</time>
      </trkpt>
      <trkpt lat="49.48183" lon="1.10595">
        <ele>165</ele>
        <time>2022-04-30T11:35:16Z</time>
      </trkpt>
      <trkpt lat="49.48183" lon="1.10596">
        <ele>165.1</ele>
        <time>2022-04-30T11:35:17Z</time>
      </trkpt>
      <trkpt lat="49.48183" lon="1.10597">
        <ele>165.1</ele>
        <time>2022-04-30T11:35:18Z</time>
      </trkpt>
      <trkpt lat="49.48182" lon="1.10602">
        <ele>165.1</ele>
        <time>2022-04-30T11:35:19Z</time>
      </trkpt>
      <trkpt lat="49.48182" lon="1.10604">
        <ele>165.1</ele>
        <time>2022-04-30T11:35:20Z</time>
      </trkpt>
      <trkpt lat="49.4818" lon="1.10609">
        <ele>165.1</ele>
        <time>2022-04-30T11:35:21Z</time>
      </trkpt>
      <trkpt lat="49.4818" lon="1.10614">
        <ele>165.2</ele>
        <time>2022-04-30T11:35:22Z</time>
      </trkpt>
      <trkpt lat="49.4818" lon="1.10616">
        <ele>165.2</ele>
        <time>2022-04-30T11:35:23Z</time>
      </trkpt>
      <trkpt lat="49.48181" lon="1.10619">
        <ele>165.2</ele>
        <time>2022-04-30T11:35:24Z</time>
      </trkpt>
      <trkpt lat="49.48182" lon="1.10621">
        <ele>165.2</ele>
        <time>2022-04-30T11:35:25Z</time>
      </trkpt>
      <trkpt lat="49.48184" lon="1.10622">
        <ele>165.2</ele>
        <time>2022-04-30T11:35:26Z</time>
      </trkpt>
      <trkpt lat="49.48185" lon="1.10623">
        <ele>165.2</ele>
        <time>2022-04-30T11:35:27Z</time>
      </trkpt>
      <trkpt lat="49.48188" lon="1.10624">
        <ele>165.1</ele>
        <time>2022-04-30T11:35:28Z</time>
      </trkpt>
      <trkpt lat="49.48189" lon="1.10624">
        <ele>165.1</ele>
        <time>2022-04-30T11:35:29Z</time>
      </trkpt>
      <trkpt lat="49.48193" lon="1.10623">
        <ele>165</ele>
        <time>2022-04-30T11:35:30Z</time>
      </trkpt>
      <trkpt lat="49.48198" lon="1.10622">
        <ele>165</ele>
        <time>2022-04-30T11:35:31Z</time>
      </trkpt>
      <trkpt lat="49.48201" lon="1.10621">
        <ele>165</ele>
        <time>2022-04-30T11:35:32Z</time>
      </trkpt>
      <trkpt lat="49.48206" lon="1.10622">
        <ele>165</ele>
        <time>2022-04-30T11:35:33Z</time>
      </trkpt>
      <trkpt lat="49.48207" lon="1.10621">
        <ele>164.9</ele>
        <time>2022-04-30T11:35:34Z</time>
      </trkpt>
      <trkpt lat="49.48211" lon="1.10622">
        <ele>164.9</ele>
        <time>2022-04-30T11:35:35Z</time>
      </trkpt>
      <trkpt lat="49.48214" lon="1.10621">
        <ele>164.9</ele>
        <time>2022-04-30T11:35:36Z</time>
      </trkpt>
      <trkpt lat="49.48217" lon="1.10621">
        <ele>164.9</ele>
        <time>2022-04-30T11:35:37Z</time>
      </trkpt>
      <trkpt lat="49.48221" lon="1.1062">
        <ele>164.9</ele>
        <time>2022-04-30T11:35:38Z</time>
      </trkpt>
      <trkpt lat="49.48226" lon="1.1062">
        <ele>164.9</ele>
        <time>2022-04-30T11:35:39Z</time>
      </trkpt>
      <trkpt lat="49.4823" lon="1.1062">
        <ele>164.8</ele>
        <time>2022-04-30T11:35:40Z</time>
      </trkpt>
      <trkpt lat="49.48234" lon="1.1062">
        <ele>164.8</ele>
        <time>2022-04-30T11:35:41Z</time>
      </trkpt>
      <trkpt lat="49.48238" lon="1.10619">
        <ele>164.8</ele>
        <time>2022-04-30T11:35:42Z</time>
      </trkpt>
      <trkpt lat="49.48242" lon="1.10619">
        <ele>164.8</ele>
        <time>2022-04-30T11:35:43Z</time>
      </trkpt>
      <trkpt lat="49.48245" lon="1.10619">
        <ele>164.7</ele>
        <time>2022-04-30T11:35:44Z</time>
      </trkpt>
      <trkpt lat="49.4825" lon="1.10618">
        <ele>164.7</ele>
        <time>2022-04-30T11:35:45Z</time>
      </trkpt>
      <trkpt lat="49.48255" lon="1.10618">
        <ele>164.7</ele>
        <time>2022-04-30T11:35:46Z</time>
      </trkpt>
      <trkpt lat="49.4826" lon="1.10617">
        <ele>164.7</ele>
        <time>2022-04-30T11:35:47Z</time>
      </trkpt>
      <trkpt lat="49.48265" lon="1.10617">
        <ele>164.6</ele>
        <time>2022-04-30T11:35:48Z</time>
      </trkpt>
      <trkpt lat="49.48275" lon="1.10617">
        <ele>164.5</ele>
        <time>2022-04-30T11:35:49Z</time>
      </trkpt>
      <trkpt lat="49.48279" lon="1.10615">
        <ele>164.5</ele>
        <time>2022-04-30T11:35:50Z</time>
      </trkpt>
      <trkpt lat="49.48281" lon="1.10615">
        <ele>164.5</ele>
        <time>2022-04-30T11:35:51Z</time>
      </trkpt>
      <trkpt lat="49.48287" lon="1.10614">
        <ele>164.4</ele>
        <time>2022-04-30T11:35:52Z</time>
      </trkpt>
      <trkpt lat="49.48292" lon="1.10611">
        <ele>164.4</ele>
        <time>2022-04-30T11:35:53Z</time>
      </trkpt>
      <trkpt lat="49.48299" lon="1.106">
        <ele>164.4</ele>
        <time>2022-04-30T11:35:54Z</time>
      </trkpt>
      <trkpt lat="49.48298" lon="1.10594">
        <ele>164.4</ele>
        <time>2022-04-30T11:35:55Z</time>
      </trkpt>
      <trkpt lat="49.48296" lon="1.10585">
        <ele>164.5</ele>
        <time>2022-04-30T11:35:56Z</time>
      </trkpt>
      <trkpt lat="49.48292" lon="1.10576">
        <ele>164.6</ele>
        <time>2022-04-30T11:35:57Z</time>
      </trkpt>
      <trkpt lat="49.48292" lon="1.10566">
        <ele>164.6</ele>
        <time>2022-04-30T11:35:58Z</time>
      </trkpt>
      <trkpt lat="49.48292" lon="1.10555">
        <ele>164.7</ele>
        <time>2022-04-30T11:35:59Z</time>
      </trkpt>
      <trkpt lat="49.48292" lon="1.10544">
        <ele>164.7</ele>
        <time>2022-04-30T11:36:00Z</time>
      </trkpt>
      <trkpt lat="49.48292" lon="1.10533">
        <ele>164.7</ele>
        <time>2022-04-30T11:36:01Z</time>
      </trkpt>
      <trkpt lat="49.48292" lon="1.10523">
        <ele>164.7</ele>
        <time>2022-04-30T11:36:02Z</time>
      </trkpt>
      <trkpt lat="49.48292" lon="1.10511">
        <ele>164.7</ele>
        <time>2022-04-30T11:36:03Z</time>
      </trkpt>
      <trkpt lat="49.48292" lon="1.10499">
        <ele>164.7</ele>
        <time>2022-04-30T11:36:04Z</time>
      </trkpt>
      <trkpt lat="49.48293" lon="1.10488">
        <ele>164.7</ele>
        <time>2022-04-30T11:36:05Z</time>
      </trkpt>
      <trkpt lat="49.48293" lon="1.10476">
        <ele>164.6</ele>
        <time>2022-04-30T11:36:06Z</time>
      </trkpt>
      <trkpt lat="49.48293" lon="1.10465">
        <ele>164.6</ele>
        <time>2022-04-30T11:36:07Z</time>
      </trkpt>
      <trkpt lat="49.48293" lon="1.10454">
        <ele>164.5</ele>
        <time>2022-04-30T11:36:08Z</time>
      </trkpt>
      <trkpt lat="49.48293" lon="1.10442">
        <ele>164.3</ele>
        <time>2022-04-30T11:36:09Z</time>
      </trkpt>
      <trkpt lat="49.48293" lon="1.10431">
        <ele>164.2</ele>
        <time>2022-04-30T11:36:10Z</time>
      </trkpt>
      <trkpt lat="49.48293" lon="1.10419">
        <ele>164</ele>
        <time>2022-04-30T11:36:11Z</time>
      </trkpt>
      <trkpt lat="49.48292" lon="1.10408">
        <ele>163.9</ele>
        <time>2022-04-30T11:36:12Z</time>
      </trkpt>
      <trkpt lat="49.48292" lon="1.10395">
        <ele>163.7</ele>
        <time>2022-04-30T11:36:13Z</time>
      </trkpt>
      <trkpt lat="49.48291" lon="1.10383">
        <ele>163.6</ele>
        <time>2022-04-30T11:36:14Z</time>
      </trkpt>
      <trkpt lat="49.48292" lon="1.10371">
        <ele>163.5</ele>
        <time>2022-04-30T11:36:15Z</time>
      </trkpt>
      <trkpt lat="49.48291" lon="1.10359">
        <ele>163.3</ele>
        <time>2022-04-30T11:36:16Z</time>
      </trkpt>
      <trkpt lat="49.48291" lon="1.10347">
        <ele>163.2</ele>
        <time>2022-04-30T11:36:17Z</time>
      </trkpt>
      <trkpt lat="49.48289" lon="1.10334">
        <ele>163</ele>
        <time>2022-04-30T11:36:18Z</time>
      </trkpt>
      <trkpt lat="49.48289" lon="1.10321">
        <ele>162.8</ele>
        <time>2022-04-30T11:36:19Z</time>
      </trkpt>
      <trkpt lat="49.48289" lon="1.10307">
        <ele>162.6</ele>
        <time>2022-04-30T11:36:20Z</time>
      </trkpt>
      <trkpt lat="49.48289" lon="1.10294">
        <ele>162.4</ele>
        <time>2022-04-30T11:36:21Z</time>
      </trkpt>
      <trkpt lat="49.48289" lon="1.1028">
        <ele>162.3</ele>
        <time>2022-04-30T11:36:22Z</time>
      </trkpt>
      <trkpt lat="49.48289" lon="1.10267">
        <ele>162.1</ele>
        <time>2022-04-30T11:36:23Z</time>
      </trkpt>
      <trkpt lat="49.48289" lon="1.10254">
        <ele>162</ele>
        <time>2022-04-30T11:36:24Z</time>
      </trkpt>
      <trkpt lat="49.48288" lon="1.10241">
        <ele>161.8</ele>
        <time>2022-04-30T11:36:25Z</time>
      </trkpt>
      <trkpt lat="49.48288" lon="1.10228">
        <ele>161.7</ele>
        <time>2022-04-30T11:36:26Z</time>
      </trkpt>
      <trkpt lat="49.48288" lon="1.10215">
        <ele>161.6</ele>
        <time>2022-04-30T11:36:27Z</time>
      </trkpt>
      <trkpt lat="49.48287" lon="1.10201">
        <ele>161.5</ele>
        <time>2022-04-30T11:36:28Z</time>
      </trkpt>
      <trkpt lat="49.48287" lon="1.10189">
        <ele>161.4</ele>
        <time>2022-04-30T11:36:29Z</time>
      </trkpt>
      <trkpt lat="49.48287" lon="1.10175">
        <ele>161.2</ele>
        <time>2022-04-30T11:36:30Z</time>
      </trkpt>
      <trkpt lat="49.48287" lon="1.10162">
        <ele>161.1</ele>
        <time>2022-04-30T11:36:31Z</time>
      </trkpt>
      <trkpt lat="49.48286" lon="1.1015">
        <ele>161</ele>
        <time>2022-04-30T11:36:32Z</time>
      </trkpt>
      <trkpt lat="49.48286" lon="1.10138">
        <ele>160.9</ele>
        <time>2022-04-30T11:36:33Z</time>
      </trkpt>
      <trkpt lat="49.48286" lon="1.10125">
        <ele>160.8</ele>
        <time>2022-04-30T11:36:34Z</time>
      </trkpt>
      <trkpt lat="49.48285" lon="1.10113">
        <ele>160.7</ele>
        <time>2022-04-30T11:36:35Z</time>
      </trkpt>
      <trkpt lat="49.48284" lon="1.101">
        <ele>160.5</ele>
        <time>2022-04-30T11:36:36Z</time>
      </trkpt>
      <trkpt lat="49.48284" lon="1.10087">
        <ele>160.3</ele>
        <time>2022-04-30T11:36:37Z</time>
      </trkpt>
      <trkpt lat="49.48284" lon="1.10075">
        <ele>160.2</ele>
        <time>2022-04-30T11:36:38Z</time>
      </trkpt>
      <trkpt lat="49.48284" lon="1.10062">
        <ele>160</ele>
        <time>2022-04-30T11:36:39Z</time>
      </trkpt>
      <trkpt lat="49.48284" lon="1.10049">
        <ele>159.9</ele>
        <time>2022-04-30T11:36:40Z</time>
      </trkpt>
      <trkpt lat="49.48283" lon="1.10036">
        <ele>159.7</ele>
        <time>2022-04-30T11:36:41Z</time>
      </trkpt>
      <trkpt lat="49.48283" lon="1.10024">
        <ele>159.5</ele>
        <time>2022-04-30T11:36:42Z</time>
      </trkpt>
      <trkpt lat="49.48282" lon="1.10011">
        <ele>159.3</ele>
        <time>2022-04-30T11:36:43Z</time>
      </trkpt>
      <trkpt lat="49.48281" lon="1.09999">
        <ele>159.1</ele>
        <time>2022-04-30T11:36:44Z</time>
      </trkpt>
      <trkpt lat="49.48281" lon="1.09986">
        <ele>158.9</ele>
        <time>2022-04-30T11:36:45Z</time>
      </trkpt>
      <trkpt lat="49.4828" lon="1.09974">
        <ele>158.7</ele>
        <time>2022-04-30T11:36:46Z</time>
      </trkpt>
      <trkpt lat="49.4828" lon="1.09962">
        <ele>158.5</ele>
        <time>2022-04-30T11:36:47Z</time>
      </trkpt>
      <trkpt lat="49.48279" lon="1.0995">
        <ele>158.4</ele>
        <time>2022-04-30T11:36:48Z</time>
      </trkpt>
      <trkpt lat="49.48279" lon="1.09939">
        <ele>158.3</ele>
        <time>2022-04-30T11:36:49Z</time>
      </trkpt>
      <trkpt lat="49.48279" lon="1.0993">
        <ele>158.2</ele>
        <time>2022-04-30T11:36:50Z</time>
      </trkpt>
      <trkpt lat="49.4828" lon="1.09924">
        <ele>158.2</ele>
        <time>2022-04-30T11:36:51Z</time>
      </trkpt>
      <trkpt lat="49.4828" lon="1.09916">
        <ele>158.2</ele>
        <time>2022-04-30T11:36:52Z</time>
      </trkpt>
      <trkpt lat="49.48281" lon="1.0991">
        <ele>158.1</ele>
        <time>2022-04-30T11:36:53Z</time>
      </trkpt>
      <trkpt lat="49.48285" lon="1.09908">
        <ele>158.1</ele>
        <time>2022-04-30T11:36:54Z</time>
      </trkpt>
      <trkpt lat="49.48289" lon="1.09906">
        <ele>158.1</ele>
        <time>2022-04-30T11:36:55Z</time>
      </trkpt>
      <trkpt lat="49.48295" lon="1.09903">
        <ele>158</ele>
        <time>2022-04-30T11:36:56Z</time>
      </trkpt>
      <trkpt lat="49.483" lon="1.09901">
        <ele>158</ele>
        <time>2022-04-30T11:36:57Z</time>
      </trkpt>
      <trkpt lat="49.48306" lon="1.09899">
        <ele>157.9</ele>
        <time>2022-04-30T11:36:58Z</time>
      </trkpt>
      <trkpt lat="49.48311" lon="1.09898">
        <ele>157.9</ele>
        <time>2022-04-30T11:36:59Z</time>
      </trkpt>
      <trkpt lat="49.48316" lon="1.09896">
        <ele>157.8</ele>
        <time>2022-04-30T11:37:00Z</time>
      </trkpt>
      <trkpt lat="49.48321" lon="1.09895">
        <ele>157.8</ele>
        <time>2022-04-30T11:37:01Z</time>
      </trkpt>
      <trkpt lat="49.48326" lon="1.09893">
        <ele>157.8</ele>
        <time>2022-04-30T11:37:02Z</time>
      </trkpt>
      <trkpt lat="49.48331" lon="1.09892">
        <ele>157.7</ele>
        <time>2022-04-30T11:37:03Z</time>
      </trkpt>
      <trkpt lat="49.48337" lon="1.09891">
        <ele>157.6</ele>
        <time>2022-04-30T11:37:04Z</time>
      </trkpt>
      <trkpt lat="49.48341" lon="1.09891">
        <ele>157.6</ele>
        <time>2022-04-30T11:37:05Z</time>
      </trkpt>
      <trkpt lat="49.48344" lon="1.09892">
        <ele>157.5</ele>
        <time>2022-04-30T11:37:06Z</time>
      </trkpt>
      <trkpt lat="49.48348" lon="1.09892">
        <ele>157.5</ele>
        <time>2022-04-30T11:37:07Z</time>
      </trkpt>
      <trkpt lat="49.48348" lon="1.09892">
        <ele>157.5</ele>
        <time>2022-04-30T11:37:08Z</time>
      </trkpt>
      <trkpt lat="49.48349" lon="1.09893">
        <ele>157.4</ele>
        <time>2022-04-30T11:37:09Z</time>
      </trkpt>
      <trkpt lat="49.4835" lon="1.0989">
        <ele>157.4</ele>
        <time>2022-04-30T11:37:10Z</time>
      </trkpt>
      <trkpt lat="49.48354" lon="1.09883">
        <ele>157.4</ele>
        <time>2022-04-30T11:37:11Z</time>
      </trkpt>
      <trkpt lat="49.48358" lon="1.09876">
        <ele>157.5</ele>
        <time>2022-04-30T11:37:12Z</time>
      </trkpt>
      <trkpt lat="49.48362" lon="1.09871">
        <ele>157.5</ele>
        <time>2022-04-30T11:37:13Z</time>
      </trkpt>
      <trkpt lat="49.48365" lon="1.09865">
        <ele>157.5</ele>
        <time>2022-04-30T11:37:14Z</time>
      </trkpt>
      <trkpt lat="49.48368" lon="1.09859">
        <ele>157.5</ele>
        <time>2022-04-30T11:37:15Z</time>
      </trkpt>
      <trkpt lat="49.48372" lon="1.09858">
        <ele>157.5</ele>
        <time>2022-04-30T11:37:16Z</time>
      </trkpt>
      <trkpt lat="49.48372" lon="1.09858">
        <ele>157.5</ele>
        <time>2022-04-30T11:37:17Z</time>
      </trkpt>
      <trkpt lat="49.48369" lon="1.0986">
        <ele>157.5</ele>
        <time>2022-04-30T11:37:18Z</time>
      </trkpt>
      <trkpt lat="49.48371" lon="1.09865">
        <ele>157.5</ele>
        <time>2022-04-30T11:37:19Z</time>
      </trkpt>
      <trkpt lat="49.48373" lon="1.09868">
        <ele>157.5</ele>
        <time>2022-04-30T11:37:20Z</time>
      </trkpt>
      <trkpt lat="49.4838" lon="1.09879">
        <ele>157.9</ele>
        <time>2022-04-30T11:37:21Z</time>
      </trkpt>
      <trkpt lat="49.48382" lon="1.09884">
        <ele>158</ele>
        <time>2022-04-30T11:37:22Z</time>
      </trkpt>
      <trkpt lat="49.48384" lon="1.09887">
        <ele>158</ele>
        <time>2022-04-30T11:37:23Z</time>
      </trkpt>
      <trkpt lat="49.48386" lon="1.09891">
        <ele>158.1</ele>
        <time>2022-04-30T11:37:24Z</time>
      </trkpt>
      <trkpt lat="49.48388" lon="1.09892">
        <ele>158.2</ele>
        <time>2022-04-30T11:37:25Z</time>
      </trkpt>
      <trkpt lat="49.48392" lon="1.09893">
        <ele>158.3</ele>
        <time>2022-04-30T11:37:26Z</time>
      </trkpt>
      <trkpt lat="49.48395" lon="1.09893">
        <ele>158.3</ele>
        <time>2022-04-30T11:37:27Z</time>
      </trkpt>
      <trkpt lat="49.48399" lon="1.09895">
        <ele>158.5</ele>
        <time>2022-04-30T11:37:28Z</time>
      </trkpt>
      <trkpt lat="49.48403" lon="1.09896">
        <ele>158.6</ele>
        <time>2022-04-30T11:37:29Z</time>
      </trkpt>
      <trkpt lat="49.48406" lon="1.09898">
        <ele>158.7</ele>
        <time>2022-04-30T11:37:30Z</time>
      </trkpt>
      <trkpt lat="49.48412" lon="1.099">
        <ele>158.8</ele>
        <time>2022-04-30T11:37:31Z</time>
      </trkpt>
      <trkpt lat="49.48418" lon="1.09902">
        <ele>159</ele>
        <time>2022-04-30T11:37:32Z</time>
      </trkpt>
      <trkpt lat="49.48425" lon="1.09904">
        <ele>159.3</ele>
        <time>2022-04-30T11:37:33Z</time>
      </trkpt>
      <trkpt lat="49.48431" lon="1.09907">
        <ele>159.6</ele>
        <time>2022-04-30T11:37:34Z</time>
      </trkpt>
      <trkpt lat="49.48437" lon="1.0991">
        <ele>159.8</ele>
        <time>2022-04-30T11:37:35Z</time>
      </trkpt>
      <trkpt lat="49.48444" lon="1.09912">
        <ele>160.1</ele>
        <time>2022-04-30T11:37:36Z</time>
      </trkpt>
      <trkpt lat="49.48449" lon="1.09914">
        <ele>160.4</ele>
        <time>2022-04-30T11:37:37Z</time>
      </trkpt>
      <trkpt lat="49.48452" lon="1.09915">
        <ele>160.6</ele>
        <time>2022-04-30T11:37:38Z</time>
      </trkpt>
      <trkpt lat="49.48457" lon="1.09914">
        <ele>160.8</ele>
        <time>2022-04-30T11:37:39Z</time>
      </trkpt>
      <trkpt lat="49.4846" lon="1.09913">
        <ele>160.9</ele>
        <time>2022-04-30T11:37:40Z</time>
      </trkpt>
      <trkpt lat="49.48464" lon="1.09912">
        <ele>161.1</ele>
        <time>2022-04-30T11:37:41Z</time>
      </trkpt>
      <trkpt lat="49.48467" lon="1.09913">
        <ele>161.2</ele>
        <time>2022-04-30T11:37:42Z</time>
      </trkpt>
      <trkpt lat="49.48468" lon="1.09913">
        <ele>161.2</ele>
        <time>2022-04-30T11:37:43Z</time>
      </trkpt>
      <trkpt lat="49.48469" lon="1.09914">
        <ele>161.3</ele>
        <time>2022-04-30T11:37:44Z</time>
      </trkpt>
      <trkpt lat="49.48471" lon="1.09913">
        <ele>161.4</ele>
        <time>2022-04-30T11:37:45Z</time>
      </trkpt>
      <trkpt lat="49.48472" lon="1.09913">
        <ele>161.4</ele>
        <time>2022-04-30T11:37:46Z</time>
      </trkpt>
      <trkpt lat="49.48474" lon="1.09913">
        <ele>161.5</ele>
        <time>2022-04-30T11:37:47Z</time>
      </trkpt>
      <trkpt lat="49.48475" lon="1.09913">
        <ele>161.5</ele>
        <time>2022-04-30T11:37:48Z</time>
      </trkpt>
      <trkpt lat="49.48476" lon="1.09914">
        <ele>161.5</ele>
        <time>2022-04-30T11:37:49Z</time>
      </trkpt>
      <trkpt lat="49.48477" lon="1.09914">
        <ele>161.6</ele>
        <time>2022-04-30T11:37:50Z</time>
      </trkpt>
      <trkpt lat="49.48477" lon="1.09914">
        <ele>161.6</ele>
        <time>2022-04-30T11:37:51Z</time>
      </trkpt>
      <trkpt lat="49.48477" lon="1.09914">
        <ele>161.6</ele>
        <time>2022-04-30T11:37:52Z</time>
      </trkpt>
      <trkpt lat="49.48477" lon="1.09914">
        <ele>161.6</ele>
        <time>2022-04-30T11:37:53Z</time>
      </trkpt>
      <trkpt lat="49.48477" lon="1.09914">
        <ele>161.6</ele>
        <time>2022-04-30T11:37:54Z</time>
      </trkpt>
      <trkpt lat="49.48477" lon="1.09914">
        <ele>161.6</ele>
        <time>2022-04-30T11:37:55Z</time>
      </trkpt>
      <trkpt lat="49.48477" lon="1.09914">
        <ele>161.6</ele>
        <time>2022-04-30T11:37:56Z</time>
      </trkpt>
      <trkpt lat="49.48477" lon="1.09914">
        <ele>161.6</ele>
        <time>2022-04-30T11:37:57Z</time>
      </trkpt>
      <trkpt lat="49.48484" lon="1.09914">
        <ele>161.8</ele>
        <time>2022-04-30T11:38:04Z</time>
      </trkpt>
      <trkpt lat="49.48488" lon="1.09914">
        <ele>161.9</ele>
        <time>2022-04-30T11:38:05Z</time>
      </trkpt>
      <trkpt lat="49.48491" lon="1.09914">
        <ele>162</ele>
        <time>2022-04-30T11:38:06Z</time>
      </trkpt>
      <trkpt lat="49.48492" lon="1.09914">
        <ele>162.1</ele>
        <time>2022-04-30T11:38:07Z</time>
      </trkpt>
      <trkpt lat="49.48493" lon="1.09914">
        <ele>162.1</ele>
        <time>2022-04-30T11:38:08Z</time>
      </trkpt>
      <trkpt lat="49.48494" lon="1.09914">
        <ele>162.1</ele>
        <time>2022-04-30T11:38:09Z</time>
      </trkpt>
      <trkpt lat="49.48495" lon="1.09914">
        <ele>162.2</ele>
        <time>2022-04-30T11:38:10Z</time>
      </trkpt>
      <trkpt lat="49.48496" lon="1.09914">
        <ele>162.2</ele>
        <time>2022-04-30T11:38:11Z</time>
      </trkpt>
      <trkpt lat="49.48497" lon="1.09914">
        <ele>162.2</ele>
        <time>2022-04-30T11:38:12Z</time>
      </trkpt>
      <trkpt lat="49.48498" lon="1.09914">
        <ele>162.2</ele>
        <time>2022-04-30T11:38:13Z</time>
      </trkpt>
      <trkpt lat="49.48499" lon="1.09914">
        <ele>162.3</ele>
        <time>2022-04-30T11:38:14Z</time>
      </trkpt>
      <trkpt lat="49.48503" lon="1.09914">
        <ele>162.4</ele>
        <time>2022-04-30T11:38:15Z</time>
      </trkpt>
      <trkpt lat="49.48508" lon="1.09915">
        <ele>162.5</ele>
        <time>2022-04-30T11:38:16Z</time>
      </trkpt>
      <trkpt lat="49.48518" lon="1.09916">
        <ele>162.8</ele>
        <time>2022-04-30T11:38:17Z</time>
      </trkpt>
      <trkpt lat="49.48524" lon="1.09919">
        <ele>163</ele>
        <time>2022-04-30T11:38:18Z</time>
      </trkpt>
      <trkpt lat="49.4853" lon="1.09921">
        <ele>163.2</ele>
        <time>2022-04-30T11:38:19Z</time>
      </trkpt>
      <trkpt lat="49.48534" lon="1.09924">
        <ele>163.3</ele>
        <time>2022-04-30T11:38:20Z</time>
      </trkpt>
      <trkpt lat="49.48537" lon="1.09927">
        <ele>163.3</ele>
        <time>2022-04-30T11:38:21Z</time>
      </trkpt>
      <trkpt lat="49.48541" lon="1.09931">
        <ele>163.4</ele>
        <time>2022-04-30T11:38:22Z</time>
      </trkpt>
      <trkpt lat="49.48544" lon="1.09933">
        <ele>163.5</ele>
        <time>2022-04-30T11:38:23Z</time>
      </trkpt>
      <trkpt lat="49.48548" lon="1.09936">
        <ele>163.6</ele>
        <time>2022-04-30T11:38:24Z</time>
      </trkpt>
      <trkpt lat="49.48555" lon="1.09942">
        <ele>163.7</ele>
        <time>2022-04-30T11:38:25Z</time>
      </trkpt>
      <trkpt lat="49.48561" lon="1.0995">
        <ele>163.8</ele>
        <time>2022-04-30T11:38:26Z</time>
      </trkpt>
      <trkpt lat="49.48569" lon="1.09958">
        <ele>164</ele>
        <time>2022-04-30T11:38:27Z</time>
      </trkpt>
      <trkpt lat="49.48572" lon="1.09962">
        <ele>164</ele>
        <time>2022-04-30T11:38:28Z</time>
      </trkpt>
      <trkpt lat="49.48574" lon="1.09964">
        <ele>164.1</ele>
        <time>2022-04-30T11:38:29Z</time>
      </trkpt>
      <trkpt lat="49.48577" lon="1.09967">
        <ele>164.1</ele>
        <time>2022-04-30T11:38:30Z</time>
      </trkpt>
      <trkpt lat="49.48578" lon="1.09968">
        <ele>164.1</ele>
        <time>2022-04-30T11:38:31Z</time>
      </trkpt>
      <trkpt lat="49.48581" lon="1.0997">
        <ele>164.1</ele>
        <time>2022-04-30T11:38:32Z</time>
      </trkpt>
      <trkpt lat="49.48581" lon="1.09971">
        <ele>164.2</ele>
        <time>2022-04-30T11:38:33Z</time>
      </trkpt>
      <trkpt lat="49.48582" lon="1.09972">
        <ele>164.2</ele>
        <time>2022-04-30T11:38:34Z</time>
      </trkpt>
      <trkpt lat="49.48584" lon="1.09974">
        <ele>164.2</ele>
        <time>2022-04-30T11:38:35Z</time>
      </trkpt>
      <trkpt lat="49.48586" lon="1.09976">
        <ele>164.2</ele>
        <time>2022-04-30T11:38:36Z</time>
      </trkpt>
      <trkpt lat="49.48587" lon="1.09977">
        <ele>164.2</ele>
        <time>2022-04-30T11:38:37Z</time>
      </trkpt>
      <trkpt lat="49.48588" lon="1.09978">
        <ele>164.2</ele>
        <time>2022-04-30T11:38:38Z</time>
      </trkpt>
      <trkpt lat="49.48588" lon="1.0998">
        <ele>164.3</ele>
        <time>2022-04-30T11:38:39Z</time>
      </trkpt>
      <trkpt lat="49.48589" lon="1.09981">
        <ele>164.3</ele>
        <time>2022-04-30T11:38:40Z</time>
      </trkpt>
      <trkpt lat="49.4859" lon="1.09984">
        <ele>164.3</ele>
        <time>2022-04-30T11:38:41Z</time>
      </trkpt>
      <trkpt lat="49.48591" lon="1.09985">
        <ele>164.3</ele>
        <time>2022-04-30T11:38:42Z</time>
      </trkpt>
      <trkpt lat="49.48594" lon="1.09988">
        <ele>164.3</ele>
        <time>2022-04-30T11:38:43Z</time>
      </trkpt>
      <trkpt lat="49.48599" lon="1.09992">
        <ele>164.4</ele>
        <time>2022-04-30T11:38:44Z</time>
      </trkpt>
      <trkpt lat="49.48606" lon="1.09996">
        <ele>164.5</ele>
        <time>2022-04-30T11:38:45Z</time>
      </trkpt>
      <trkpt lat="49.48613" lon="1.1">
        <ele>164.6</ele>
        <time>2022-04-30T11:38:46Z</time>
      </trkpt>
      <trkpt lat="49.48621" lon="1.10004">
        <ele>164.7</ele>
        <time>2022-04-30T11:38:47Z</time>
      </trkpt>
      <trkpt lat="49.48625" lon="1.10006">
        <ele>164.8</ele>
        <time>2022-04-30T11:38:48Z</time>
      </trkpt>
      <trkpt lat="49.48629" lon="1.10007">
        <ele>164.8</ele>
        <time>2022-04-30T11:38:49Z</time>
      </trkpt>
      <trkpt lat="49.48633" lon="1.10008">
        <ele>164.8</ele>
        <time>2022-04-30T11:38:50Z</time>
      </trkpt>
      <trkpt lat="49.48637" lon="1.10008">
        <ele>164.9</ele>
        <time>2022-04-30T11:38:51Z</time>
      </trkpt>
      <trkpt lat="49.48646" lon="1.10007">
        <ele>164.9</ele>
        <time>2022-04-30T11:38:52Z</time>
      </trkpt>
      <trkpt lat="49.4865" lon="1.10007">
        <ele>164.9</ele>
        <time>2022-04-30T11:38:53Z</time>
      </trkpt>
      <trkpt lat="49.48651" lon="1.10007">
        <ele>165</ele>
        <time>2022-04-30T11:38:54Z</time>
      </trkpt>
      <trkpt lat="49.48656" lon="1.10007">
        <ele>165</ele>
        <time>2022-04-30T11:38:55Z</time>
      </trkpt>
      <trkpt lat="49.4866" lon="1.10007">
        <ele>165</ele>
        <time>2022-04-30T11:38:56Z</time>
      </trkpt>
      <trkpt lat="49.48668" lon="1.10008">
        <ele>165</ele>
        <time>2022-04-30T11:38:57Z</time>
      </trkpt>
      <trkpt lat="49.48671" lon="1.10008">
        <ele>165.1</ele>
        <time>2022-04-30T11:38:58Z</time>
      </trkpt>
      <trkpt lat="49.48673" lon="1.10007">
        <ele>165.1</ele>
        <time>2022-04-30T11:38:59Z</time>
      </trkpt>
      <trkpt lat="49.48675" lon="1.10006">
        <ele>165.1</ele>
        <time>2022-04-30T11:39:00Z</time>
      </trkpt>
      <trkpt lat="49.48678" lon="1.10004">
        <ele>165.1</ele>
        <time>2022-04-30T11:39:01Z</time>
      </trkpt>
      <trkpt lat="49.48681" lon="1.10002">
        <ele>165.1</ele>
        <time>2022-04-30T11:39:02Z</time>
      </trkpt>
      <trkpt lat="49.48683" lon="1.1">
        <ele>165.1</ele>
        <time>2022-04-30T11:39:03Z</time>
      </trkpt>
      <trkpt lat="49.48684" lon="1.09999">
        <ele>165.1</ele>
        <time>2022-04-30T11:39:04Z</time>
      </trkpt>
      <trkpt lat="49.48687" lon="1.09997">
        <ele>165.2</ele>
        <time>2022-04-30T11:39:05Z</time>
      </trkpt>
      <trkpt lat="49.48688" lon="1.09996">
        <ele>165.2</ele>
        <time>2022-04-30T11:39:06Z</time>
      </trkpt>
      <trkpt lat="49.48691" lon="1.09993">
        <ele>165.2</ele>
        <time>2022-04-30T11:39:07Z</time>
      </trkpt>
      <trkpt lat="49.48694" lon="1.09991">
        <ele>165.2</ele>
        <time>2022-04-30T11:39:08Z</time>
      </trkpt>
      <trkpt lat="49.48697" lon="1.09989">
        <ele>165.3</ele>
        <time>2022-04-30T11:39:09Z</time>
      </trkpt>
      <trkpt lat="49.487" lon="1.09987">
        <ele>165.3</ele>
        <time>2022-04-30T11:39:10Z</time>
      </trkpt>
      <trkpt lat="49.48703" lon="1.09984">
        <ele>165.3</ele>
        <time>2022-04-30T11:39:11Z</time>
      </trkpt>
      <trkpt lat="49.48705" lon="1.09982">
        <ele>165.3</ele>
        <time>2022-04-30T11:39:12Z</time>
      </trkpt>
      <trkpt lat="49.48714" lon="1.09973">
        <ele>165.4</ele>
        <time>2022-04-30T11:39:13Z</time>
      </trkpt>
      <trkpt lat="49.48719" lon="1.09968">
        <ele>165.4</ele>
        <time>2022-04-30T11:39:14Z</time>
      </trkpt>
      <trkpt lat="49.48723" lon="1.09964">
        <ele>165.4</ele>
        <time>2022-04-30T11:39:15Z</time>
      </trkpt>
      <trkpt lat="49.4873" lon="1.09959">
        <ele>165.5</ele>
        <time>2022-04-30T11:39:16Z</time>
      </trkpt>
      <trkpt lat="49.48732" lon="1.09958">
        <ele>165.5</ele>
        <time>2022-04-30T11:39:17Z</time>
      </trkpt>
      <trkpt lat="49.48733" lon="1.09957">
        <ele>165.5</ele>
        <time>2022-04-30T11:39:18Z</time>
      </trkpt>
      <trkpt lat="49.48736" lon="1.09955">
        <ele>165.5</ele>
        <time>2022-04-30T11:39:19Z</time>
      </trkpt>
      <trkpt lat="49.48737" lon="1.09954">
        <ele>165.5</ele>
        <time>2022-04-30T11:39:20Z</time>
      </trkpt>
      <trkpt lat="49.48741" lon="1.09951">
        <ele>165.5</ele>
        <time>2022-04-30T11:39:21Z</time>
      </trkpt>
      <trkpt lat="49.48744" lon="1.0995">
        <ele>165.5</ele>
        <time>2022-04-30T11:39:22Z</time>
      </trkpt>
      <trkpt lat="49.48746" lon="1.0995">
        <ele>165.5</ele>
        <time>2022-04-30T11:39:23Z</time>
      </trkpt>
      <trkpt lat="49.4875" lon="1.0995">
        <ele>165.5</ele>
        <time>2022-04-30T11:39:24Z</time>
      </trkpt>
      <trkpt lat="49.48754" lon="1.0995">
        <ele>165.5</ele>
        <time>2022-04-30T11:39:25Z</time>
      </trkpt>
      <trkpt lat="49.48757" lon="1.09949">
        <ele>165.6</ele>
        <time>2022-04-30T11:39:26Z</time>
      </trkpt>
      <trkpt lat="49.48761" lon="1.09948">
        <ele>165.6</ele>
        <time>2022-04-30T11:39:27Z</time>
      </trkpt>
      <trkpt lat="49.48763" lon="1.09947">
        <ele>165.6</ele>
        <time>2022-04-30T11:39:28Z</time>
      </trkpt>
      <trkpt lat="49.48766" lon="1.09947">
        <ele>165.6</ele>
        <time>2022-04-30T11:39:30Z</time>
      </trkpt>
      <trkpt lat="49.4877" lon="1.09947">
        <ele>165.6</ele>
        <time>2022-04-30T11:39:31Z</time>
      </trkpt>
      <trkpt lat="49.48773" lon="1.09946">
        <ele>165.7</ele>
        <time>2022-04-30T11:39:32Z</time>
      </trkpt>
      <trkpt lat="49.48777" lon="1.09945">
        <ele>165.7</ele>
        <time>2022-04-30T11:39:33Z</time>
      </trkpt>
      <trkpt lat="49.48779" lon="1.09945">
        <ele>165.7</ele>
        <time>2022-04-30T11:39:34Z</time>
      </trkpt>
      <trkpt lat="49.48781" lon="1.09944">
        <ele>165.7</ele>
        <time>2022-04-30T11:39:35Z</time>
      </trkpt>
      <trkpt lat="49.48786" lon="1.09944">
        <ele>165.8</ele>
        <time>2022-04-30T11:39:37Z</time>
      </trkpt>
      <trkpt lat="49.4879" lon="1.09943">
        <ele>165.9</ele>
        <time>2022-04-30T11:39:39Z</time>
      </trkpt>
      <trkpt lat="49.48795" lon="1.09943">
        <ele>165.9</ele>
        <time>2022-04-30T11:39:40Z</time>
      </trkpt>
      <trkpt lat="49.48798" lon="1.09943">
        <ele>166</ele>
        <time>2022-04-30T11:39:41Z</time>
      </trkpt>
      <trkpt lat="49.48803" lon="1.09942">
        <ele>166</ele>
        <time>2022-04-30T11:39:42Z</time>
      </trkpt>
      <trkpt lat="49.48807" lon="1.09941">
        <ele>166.1</ele>
        <time>2022-04-30T11:39:43Z</time>
      </trkpt>
      <trkpt lat="49.48812" lon="1.0994">
        <ele>166.1</ele>
        <time>2022-04-30T11:39:44Z</time>
      </trkpt>
      <trkpt lat="49.48819" lon="1.09938">
        <ele>166.2</ele>
        <time>2022-04-30T11:39:46Z</time>
      </trkpt>
      <trkpt lat="49.48823" lon="1.09938">
        <ele>166.2</ele>
        <time>2022-04-30T11:39:47Z</time>
      </trkpt>
      <trkpt lat="49.48827" lon="1.09937">
        <ele>166.3</ele>
        <time>2022-04-30T11:39:48Z</time>
      </trkpt>
      <trkpt lat="49.48829" lon="1.09936">
        <ele>166.3</ele>
        <time>2022-04-30T11:39:49Z</time>
      </trkpt>
      <trkpt lat="49.48831" lon="1.09935">
        <ele>166.3</ele>
        <time>2022-04-30T11:39:50Z</time>
      </trkpt>
      <trkpt lat="49.48836" lon="1.09935">
        <ele>166.3</ele>
        <time>2022-04-30T11:39:52Z</time>
      </trkpt>
      <trkpt lat="49.48844" lon="1.09934">
        <ele>166.3</ele>
        <time>2022-04-30T11:39:53Z</time>
      </trkpt>
      <trkpt lat="49.48852" lon="1.09932">
        <ele>166.3</ele>
        <time>2022-04-30T11:39:54Z</time>
      </trkpt>
      <trkpt lat="49.48859" lon="1.0993">
        <ele>166.3</ele>
        <time>2022-04-30T11:39:55Z</time>
      </trkpt>
      <trkpt lat="49.48866" lon="1.09929">
        <ele>166.2</ele>
        <time>2022-04-30T11:39:57Z</time>
      </trkpt>
      <trkpt lat="49.4887" lon="1.09928">
        <ele>166.1</ele>
        <time>2022-04-30T11:39:58Z</time>
      </trkpt>
      <trkpt lat="49.48876" lon="1.09928">
        <ele>166</ele>
        <time>2022-04-30T11:39:59Z</time>
      </trkpt>
      <trkpt lat="49.48884" lon="1.09928">
        <ele>165.8</ele>
        <time>2022-04-30T11:40:01Z</time>
      </trkpt>
      <trkpt lat="49.48888" lon="1.09927">
        <ele>165.7</ele>
        <time>2022-04-30T11:40:02Z</time>
      </trkpt>
      <trkpt lat="49.4889" lon="1.09926">
        <ele>165.6</ele>
        <time>2022-04-30T11:40:03Z</time>
      </trkpt>
      <trkpt lat="49.48893" lon="1.09927">
        <ele>165.6</ele>
        <time>2022-04-30T11:40:04Z</time>
      </trkpt>
      <trkpt lat="49.48896" lon="1.09926">
        <ele>165.5</ele>
        <time>2022-04-30T11:40:05Z</time>
      </trkpt>
      <trkpt lat="49.48897" lon="1.09926">
        <ele>165.5</ele>
        <time>2022-04-30T11:40:06Z</time>
      </trkpt>
      <trkpt lat="49.489" lon="1.09925">
        <ele>165.4</ele>
        <time>2022-04-30T11:40:07Z</time>
      </trkpt>
      <trkpt lat="49.48901" lon="1.09925">
        <ele>165.4</ele>
        <time>2022-04-30T11:40:08Z</time>
      </trkpt>
      <trkpt lat="49.48904" lon="1.09925">
        <ele>165.3</ele>
        <time>2022-04-30T11:40:09Z</time>
      </trkpt>
      <trkpt lat="49.48911" lon="1.09925">
        <ele>165.2</ele>
        <time>2022-04-30T11:40:11Z</time>
      </trkpt>
      <trkpt lat="49.48916" lon="1.09924">
        <ele>165</ele>
        <time>2022-04-30T11:40:12Z</time>
      </trkpt>
      <trkpt lat="49.48922" lon="1.09924">
        <ele>164.9</ele>
        <time>2022-04-30T11:40:13Z</time>
      </trkpt>
      <trkpt lat="49.48926" lon="1.09925">
        <ele>164.8</ele>
        <time>2022-04-30T11:40:14Z</time>
      </trkpt>
      <trkpt lat="49.48931" lon="1.09925">
        <ele>164.7</ele>
        <time>2022-04-30T11:40:15Z</time>
      </trkpt>
      <trkpt lat="49.48934" lon="1.09925">
        <ele>164.6</ele>
        <time>2022-04-30T11:40:16Z</time>
      </trkpt>
      <trkpt lat="49.48937" lon="1.09925">
        <ele>164.5</ele>
        <time>2022-04-30T11:40:17Z</time>
      </trkpt>
      <trkpt lat="49.48941" lon="1.09925">
        <ele>164.4</ele>
        <time>2022-04-30T11:40:18Z</time>
      </trkpt>
      <trkpt lat="49.48943" lon="1.09925">
        <ele>164.4</ele>
        <time>2022-04-30T11:40:19Z</time>
      </trkpt>
      <trkpt lat="49.48945" lon="1.09924">
        <ele>164.4</ele>
        <time>2022-04-30T11:40:20Z</time>
      </trkpt>
      <trkpt lat="49.48951" lon="1.09926">
        <ele>164.2</ele>
        <time>2022-04-30T11:40:22Z</time>
      </trkpt>
      <trkpt lat="49.48954" lon="1.09927">
        <ele>164.2</ele>
        <time>2022-04-30T11:40:23Z</time>
      </trkpt>
      <trkpt lat="49.48957" lon="1.09928">
        <ele>164.1</ele>
        <time>2022-04-30T11:40:24Z</time>
      </trkpt>
      <trkpt lat="49.48961" lon="1.0993">
        <ele>164</ele>
        <time>2022-04-30T11:40:25Z</time>
      </trkpt>
      <trkpt lat="49.48964" lon="1.09932">
        <ele>163.9</ele>
        <time>2022-04-30T11:40:26Z</time>
      </trkpt>
      <trkpt lat="49.48967" lon="1.09933">
        <ele>163.9</ele>
        <time>2022-04-30T11:40:27Z</time>
      </trkpt>
      <trkpt lat="49.48969" lon="1.09936">
        <ele>163.8</ele>
        <time>2022-04-30T11:40:28Z</time>
      </trkpt>
      <trkpt lat="49.48972" lon="1.09938">
        <ele>163.7</ele>
        <time>2022-04-30T11:40:29Z</time>
      </trkpt>
      <trkpt lat="49.48974" lon="1.09941">
        <ele>163.7</ele>
        <time>2022-04-30T11:40:30Z</time>
      </trkpt>
      <trkpt lat="49.48976" lon="1.09945">
        <ele>163.6</ele>
        <time>2022-04-30T11:40:31Z</time>
      </trkpt>
      <trkpt lat="49.4898" lon="1.0995">
        <ele>163.5</ele>
        <time>2022-04-30T11:40:32Z</time>
      </trkpt>
      <trkpt lat="49.48983" lon="1.09954">
        <ele>163.4</ele>
        <time>2022-04-30T11:40:33Z</time>
      </trkpt>
      <trkpt lat="49.48987" lon="1.09958">
        <ele>163.2</ele>
        <time>2022-04-30T11:40:34Z</time>
      </trkpt>
      <trkpt lat="49.48991" lon="1.09963">
        <ele>163.3</ele>
        <time>2022-04-30T11:40:35Z</time>
      </trkpt>
      <trkpt lat="49.48994" lon="1.09967">
        <ele>163.4</ele>
        <time>2022-04-30T11:40:36Z</time>
      </trkpt>
      <trkpt lat="49.48998" lon="1.09975">
        <ele>163.4</ele>
        <time>2022-04-30T11:40:37Z</time>
      </trkpt>
      <trkpt lat="49.49002" lon="1.09979">
        <ele>163.5</ele>
        <time>2022-04-30T11:40:38Z</time>
      </trkpt>
      <trkpt lat="49.49005" lon="1.09985">
        <ele>163.5</ele>
        <time>2022-04-30T11:40:39Z</time>
      </trkpt>
      <trkpt lat="49.49011" lon="1.09998">
        <ele>163.7</ele>
        <time>2022-04-30T11:40:40Z</time>
      </trkpt>
      <trkpt lat="49.49033" lon="1.10039">
        <ele>163.8</ele>
        <time>2022-04-30T11:40:41Z</time>
      </trkpt>
      <trkpt lat="49.49036" lon="1.10045">
        <ele>163.8</ele>
        <time>2022-04-30T11:40:42Z</time>
      </trkpt>
      <trkpt lat="49.49038" lon="1.10054">
        <ele>163.8</ele>
        <time>2022-04-30T11:40:43Z</time>
      </trkpt>
      <trkpt lat="49.4904" lon="1.10063">
        <ele>163.8</ele>
        <time>2022-04-30T11:40:44Z</time>
      </trkpt>
      <trkpt lat="49.49042" lon="1.10072">
        <ele>163.8</ele>
        <time>2022-04-30T11:40:45Z</time>
      </trkpt>
      <trkpt lat="49.49045" lon="1.1008">
        <ele>163.8</ele>
        <time>2022-04-30T11:40:46Z</time>
      </trkpt>
      <trkpt lat="49.4905" lon="1.10085">
        <ele>163.8</ele>
        <time>2022-04-30T11:40:47Z</time>
      </trkpt>
      <trkpt lat="49.49053" lon="1.10093">
        <ele>163.8</ele>
        <time>2022-04-30T11:40:48Z</time>
      </trkpt>
      <trkpt lat="49.49055" lon="1.101">
        <ele>163.8</ele>
        <time>2022-04-30T11:40:49Z</time>
      </trkpt>
      <trkpt lat="49.49058" lon="1.10107">
        <ele>163.8</ele>
        <time>2022-04-30T11:40:50Z</time>
      </trkpt>
      <trkpt lat="49.49064" lon="1.10115">
        <ele>163.8</ele>
        <time>2022-04-30T11:40:51Z</time>
      </trkpt>
      <trkpt lat="49.49068" lon="1.10123">
        <ele>163.8</ele>
        <time>2022-04-30T11:40:52Z</time>
      </trkpt>
      <trkpt lat="49.49072" lon="1.10131">
        <ele>163.8</ele>
        <time>2022-04-30T11:40:53Z</time>
      </trkpt>
      <trkpt lat="49.49075" lon="1.10141">
        <ele>163.9</ele>
        <time>2022-04-30T11:40:54Z</time>
      </trkpt>
      <trkpt lat="49.49077" lon="1.10147">
        <ele>163.9</ele>
        <time>2022-04-30T11:40:55Z</time>
      </trkpt>
      <trkpt lat="49.49079" lon="1.10153">
        <ele>163.9</ele>
        <time>2022-04-30T11:40:56Z</time>
      </trkpt>
      <trkpt lat="49.49083" lon="1.10158">
        <ele>164</ele>
        <time>2022-04-30T11:40:57Z</time>
      </trkpt>
      <trkpt lat="49.49086" lon="1.1016">
        <ele>164</ele>
        <time>2022-04-30T11:40:58Z</time>
      </trkpt>
      <trkpt lat="49.49088" lon="1.10165">
        <ele>164</ele>
        <time>2022-04-30T11:40:59Z</time>
      </trkpt>
      <trkpt lat="49.49089" lon="1.10174">
        <ele>164.1</ele>
        <time>2022-04-30T11:41:00Z</time>
      </trkpt>
      <trkpt lat="49.49088" lon="1.10178">
        <ele>164.1</ele>
        <time>2022-04-30T11:41:01Z</time>
      </trkpt>
      <trkpt lat="49.49088" lon="1.10179">
        <ele>164.1</ele>
        <time>2022-04-30T11:41:02Z</time>
      </trkpt>
      <trkpt lat="49.49089" lon="1.10186">
        <ele>164.1</ele>
        <time>2022-04-30T11:41:03Z</time>
      </trkpt>
      <trkpt lat="49.4909" lon="1.10198">
        <ele>164.2</ele>
        <time>2022-04-30T11:41:04Z</time>
      </trkpt>
      <trkpt lat="49.49091" lon="1.10213">
        <ele>164.3</ele>
        <time>2022-04-30T11:41:05Z</time>
      </trkpt>
      <trkpt lat="49.4909" lon="1.10228">
        <ele>164.3</ele>
        <time>2022-04-30T11:41:06Z</time>
      </trkpt>
      <trkpt lat="49.4909" lon="1.10239">
        <ele>164.4</ele>
        <time>2022-04-30T11:41:07Z</time>
      </trkpt>
      <trkpt lat="49.49094" lon="1.10251">
        <ele>164.5</ele>
        <time>2022-04-30T11:41:08Z</time>
      </trkpt>
      <trkpt lat="49.49099" lon="1.10265">
        <ele>164.6</ele>
        <time>2022-04-30T11:41:09Z</time>
      </trkpt>
      <trkpt lat="49.49103" lon="1.10276">
        <ele>164.6</ele>
        <time>2022-04-30T11:41:10Z</time>
      </trkpt>
      <trkpt lat="49.49107" lon="1.10287">
        <ele>164.7</ele>
        <time>2022-04-30T11:41:11Z</time>
      </trkpt>
      <trkpt lat="49.49113" lon="1.10297">
        <ele>164.8</ele>
        <time>2022-04-30T11:41:12Z</time>
      </trkpt>
      <trkpt lat="49.49116" lon="1.10306">
        <ele>165</ele>
        <time>2022-04-30T11:41:13Z</time>
      </trkpt>
      <trkpt lat="49.49119" lon="1.10316">
        <ele>165.1</ele>
        <time>2022-04-30T11:41:14Z</time>
      </trkpt>
      <trkpt lat="49.4912" lon="1.10322">
        <ele>165.2</ele>
        <time>2022-04-30T11:41:15Z</time>
      </trkpt>
      <trkpt lat="49.4912" lon="1.10328">
        <ele>165.3</ele>
        <time>2022-04-30T11:41:16Z</time>
      </trkpt>
      <trkpt lat="49.49119" lon="1.10336">
        <ele>165.5</ele>
        <time>2022-04-30T11:41:17Z</time>
      </trkpt>
      <trkpt lat="49.4912" lon="1.10341">
        <ele>165.6</ele>
        <time>2022-04-30T11:41:18Z</time>
      </trkpt>
      <trkpt lat="49.49119" lon="1.10346">
        <ele>165.7</ele>
        <time>2022-04-30T11:41:19Z</time>
      </trkpt>
      <trkpt lat="49.49118" lon="1.10353">
        <ele>165.8</ele>
        <time>2022-04-30T11:41:20Z</time>
      </trkpt>
      <trkpt lat="49.49116" lon="1.10358">
        <ele>166</ele>
        <time>2022-04-30T11:41:21Z</time>
      </trkpt>
      <trkpt lat="49.49113" lon="1.10367">
        <ele>166.2</ele>
        <time>2022-04-30T11:41:22Z</time>
      </trkpt>
      <trkpt lat="49.49112" lon="1.1038">
        <ele>166.5</ele>
        <time>2022-04-30T11:41:23Z</time>
      </trkpt>
      <trkpt lat="49.4911" lon="1.10386">
        <ele>166.7</ele>
        <time>2022-04-30T11:41:24Z</time>
      </trkpt>
      <trkpt lat="49.4911" lon="1.10389">
        <ele>166.7</ele>
        <time>2022-04-30T11:41:25Z</time>
      </trkpt>
      <trkpt lat="49.49108" lon="1.10394">
        <ele>166.9</ele>
        <time>2022-04-30T11:41:26Z</time>
      </trkpt>
      <trkpt lat="49.49107" lon="1.10399">
        <ele>167.1</ele>
        <time>2022-04-30T11:41:27Z</time>
      </trkpt>
      <trkpt lat="49.49104" lon="1.10404">
        <ele>167.1</ele>
        <time>2022-04-30T11:41:28Z</time>
      </trkpt>
      <trkpt lat="49.49103" lon="1.10406">
        <ele>167.2</ele>
        <time>2022-04-30T11:41:29Z</time>
      </trkpt>
      <trkpt lat="49.49098" lon="1.10408">
        <ele>167.2</ele>
        <time>2022-04-30T11:41:30Z</time>
      </trkpt>
      <trkpt lat="49.49094" lon="1.10409">
        <ele>167.3</ele>
        <time>2022-04-30T11:41:31Z</time>
      </trkpt>
      <trkpt lat="49.49091" lon="1.1041">
        <ele>167.3</ele>
        <time>2022-04-30T11:41:32Z</time>
      </trkpt>
      <trkpt lat="49.49088" lon="1.10412">
        <ele>167.3</ele>
        <time>2022-04-30T11:41:33Z</time>
      </trkpt>
      <trkpt lat="49.49084" lon="1.10413">
        <ele>167.4</ele>
        <time>2022-04-30T11:41:34Z</time>
      </trkpt>
      <trkpt lat="49.4908" lon="1.10415">
        <ele>167.4</ele>
        <time>2022-04-30T11:41:35Z</time>
      </trkpt>
      <trkpt lat="49.49075" lon="1.10418">
        <ele>167.5</ele>
        <time>2022-04-30T11:41:36Z</time>
      </trkpt>
      <trkpt lat="49.49072" lon="1.1042">
        <ele>167.5</ele>
        <time>2022-04-30T11:41:37Z</time>
      </trkpt>
      <trkpt lat="49.49065" lon="1.10426">
        <ele>167.5</ele>
        <time>2022-04-30T11:41:38Z</time>
      </trkpt>
      <trkpt lat="49.49063" lon="1.10427">
        <ele>167.5</ele>
        <time>2022-04-30T11:41:39Z</time>
      </trkpt>
      <trkpt lat="49.49059" lon="1.10429">
        <ele>167.5</ele>
        <time>2022-04-30T11:41:40Z</time>
      </trkpt>
      <trkpt lat="49.49057" lon="1.10433">
        <ele>167.5</ele>
        <time>2022-04-30T11:41:41Z</time>
      </trkpt>
      <trkpt lat="49.49053" lon="1.10436">
        <ele>167.5</ele>
        <time>2022-04-30T11:41:42Z</time>
      </trkpt>
      <trkpt lat="49.49049" lon="1.10439">
        <ele>167.5</ele>
        <time>2022-04-30T11:41:43Z</time>
      </trkpt>
      <trkpt lat="49.49046" lon="1.10442">
        <ele>167.4</ele>
        <time>2022-04-30T11:41:44Z</time>
      </trkpt>
      <trkpt lat="49.4904" lon="1.10447">
        <ele>167.1</ele>
        <time>2022-04-30T11:41:45Z</time>
      </trkpt>
      <trkpt lat="49.49038" lon="1.10452">
        <ele>166.9</ele>
        <time>2022-04-30T11:41:46Z</time>
      </trkpt>
      <trkpt lat="49.49037" lon="1.10454">
        <ele>166.8</ele>
        <time>2022-04-30T11:41:47Z</time>
      </trkpt>
      <trkpt lat="49.49035" lon="1.10459">
        <ele>166.5</ele>
        <time>2022-04-30T11:41:48Z</time>
      </trkpt>
      <trkpt lat="49.49034" lon="1.10461">
        <ele>166.4</ele>
        <time>2022-04-30T11:41:49Z</time>
      </trkpt>
      <trkpt lat="49.49033" lon="1.10466">
        <ele>166.2</ele>
        <time>2022-04-30T11:41:50Z</time>
      </trkpt>
      <trkpt lat="49.49032" lon="1.10467">
        <ele>166.1</ele>
        <time>2022-04-30T11:41:51Z</time>
      </trkpt>
      <trkpt lat="49.49032" lon="1.10468">
        <ele>166</ele>
        <time>2022-04-30T11:41:52Z</time>
      </trkpt>
      <trkpt lat="49.49033" lon="1.1047">
        <ele>165.6</ele>
        <time>2022-04-30T11:41:53Z</time>
      </trkpt>
      <trkpt lat="49.49034" lon="1.10474">
        <ele>165.6</ele>
        <time>2022-04-30T11:41:54Z</time>
      </trkpt>
      <trkpt lat="49.49035" lon="1.10478">
        <ele>165.7</ele>
        <time>2022-04-30T11:41:55Z</time>
      </trkpt>
      <trkpt lat="49.49035" lon="1.10483">
        <ele>165.7</ele>
        <time>2022-04-30T11:41:56Z</time>
      </trkpt>
      <trkpt lat="49.49037" lon="1.10488">
        <ele>165.8</ele>
        <time>2022-04-30T11:41:57Z</time>
      </trkpt>
      <trkpt lat="49.49037" lon="1.10492">
        <ele>166</ele>
        <time>2022-04-30T11:41:58Z</time>
      </trkpt>
      <trkpt lat="49.49038" lon="1.10497">
        <ele>166.1</ele>
        <time>2022-04-30T11:41:59Z</time>
      </trkpt>
      <trkpt lat="49.49039" lon="1.105">
        <ele>166.2</ele>
        <time>2022-04-30T11:42:00Z</time>
      </trkpt>
      <trkpt lat="49.49039" lon="1.10501">
        <ele>166.2</ele>
        <time>2022-04-30T11:42:01Z</time>
      </trkpt>
      <trkpt lat="49.49039" lon="1.10502">
        <ele>166.3</ele>
        <time>2022-04-30T11:42:02Z</time>
      </trkpt>
      <trkpt lat="49.49039" lon="1.10503">
        <ele>166.3</ele>
        <time>2022-04-30T11:42:03Z</time>
      </trkpt>
      <trkpt lat="49.49039" lon="1.10508">
        <ele>166.5</ele>
        <time>2022-04-30T11:42:04Z</time>
      </trkpt>
      <trkpt lat="49.49038" lon="1.10513">
        <ele>166.7</ele>
        <time>2022-04-30T11:42:05Z</time>
      </trkpt>
      <trkpt lat="49.49037" lon="1.10519">
        <ele>167</ele>
        <time>2022-04-30T11:42:06Z</time>
      </trkpt>
      <trkpt lat="49.49036" lon="1.10524">
        <ele>167.2</ele>
        <time>2022-04-30T11:42:07Z</time>
      </trkpt>
      <trkpt lat="49.49034" lon="1.10528">
        <ele>167.4</ele>
        <time>2022-04-30T11:42:08Z</time>
      </trkpt>
      <trkpt lat="49.49032" lon="1.10532">
        <ele>167.5</ele>
        <time>2022-04-30T11:42:09Z</time>
      </trkpt>
      <trkpt lat="49.4903" lon="1.10536">
        <ele>167.7</ele>
        <time>2022-04-30T11:42:10Z</time>
      </trkpt>
      <trkpt lat="49.49028" lon="1.1054">
        <ele>167.8</ele>
        <time>2022-04-30T11:42:11Z</time>
      </trkpt>
      <trkpt lat="49.49025" lon="1.10544">
        <ele>168</ele>
        <time>2022-04-30T11:42:12Z</time>
      </trkpt>
      <trkpt lat="49.49025" lon="1.10546">
        <ele>168</ele>
        <time>2022-04-30T11:42:13Z</time>
      </trkpt>
      <trkpt lat="49.49023" lon="1.10549">
        <ele>168.1</ele>
        <time>2022-04-30T11:42:14Z</time>
      </trkpt>
      <trkpt lat="49.4902" lon="1.10558">
        <ele>168.2</ele>
        <time>2022-04-30T11:42:15Z</time>
      </trkpt>
      <trkpt lat="49.49017" lon="1.10566">
        <ele>168.2</ele>
        <time>2022-04-30T11:42:16Z</time>
      </trkpt>
      <trkpt lat="49.49014" lon="1.10573">
        <ele>168.1</ele>
        <time>2022-04-30T11:42:17Z</time>
      </trkpt>
      <trkpt lat="49.49012" lon="1.10579">
        <ele>168</ele>
        <time>2022-04-30T11:42:18Z</time>
      </trkpt>
      <trkpt lat="49.49009" lon="1.10586">
        <ele>168</ele>
        <time>2022-04-30T11:42:19Z</time>
      </trkpt>
      <trkpt lat="49.49007" lon="1.10592">
        <ele>167.8</ele>
        <time>2022-04-30T11:42:20Z</time>
      </trkpt>
      <trkpt lat="49.49005" lon="1.10599">
        <ele>167.7</ele>
        <time>2022-04-30T11:42:21Z</time>
      </trkpt>
      <trkpt lat="49.49002" lon="1.10606">
        <ele>167.6</ele>
        <time>2022-04-30T11:42:22Z</time>
      </trkpt>
      <trkpt lat="49.48999" lon="1.10616">
        <ele>167.4</ele>
        <time>2022-04-30T11:42:23Z</time>
      </trkpt>
      <trkpt lat="49.48998" lon="1.10622">
        <ele>167.4</ele>
        <time>2022-04-30T11:42:24Z</time>
      </trkpt>
      <trkpt lat="49.48997" lon="1.10628">
        <ele>167.3</ele>
        <time>2022-04-30T11:42:25Z</time>
      </trkpt>
      <trkpt lat="49.48996" lon="1.10633">
        <ele>167.2</ele>
        <time>2022-04-30T11:42:26Z</time>
      </trkpt>
      <trkpt lat="49.48995" lon="1.1064">
        <ele>167.1</ele>
        <time>2022-04-30T11:42:27Z</time>
      </trkpt>
      <trkpt lat="49.48993" lon="1.10648">
        <ele>167</ele>
        <time>2022-04-30T11:42:28Z</time>
      </trkpt>
      <trkpt lat="49.48991" lon="1.10656">
        <ele>166.9</ele>
        <time>2022-04-30T11:42:29Z</time>
      </trkpt>
      <trkpt lat="49.4899" lon="1.10667">
        <ele>166.7</ele>
        <time>2022-04-30T11:42:30Z</time>
      </trkpt>
      <trkpt lat="49.48988" lon="1.10676">
        <ele>166.6</ele>
        <time>2022-04-30T11:42:31Z</time>
      </trkpt>
      <trkpt lat="49.48987" lon="1.10683">
        <ele>166.5</ele>
        <time>2022-04-30T11:42:32Z</time>
      </trkpt>
      <trkpt lat="49.48986" lon="1.10689">
        <ele>166.4</ele>
        <time>2022-04-30T11:42:33Z</time>
      </trkpt>
      <trkpt lat="49.48985" lon="1.10694">
        <ele>166.3</ele>
        <time>2022-04-30T11:42:34Z</time>
      </trkpt>
      <trkpt lat="49.48983" lon="1.10701">
        <ele>166.2</ele>
        <time>2022-04-30T11:42:35Z</time>
      </trkpt>
      <trkpt lat="49.48982" lon="1.10707">
        <ele>166.1</ele>
        <time>2022-04-30T11:42:36Z</time>
      </trkpt>
      <trkpt lat="49.48981" lon="1.10714">
        <ele>166.1</ele>
        <time>2022-04-30T11:42:37Z</time>
      </trkpt>
      <trkpt lat="49.4898" lon="1.1072">
        <ele>166</ele>
        <time>2022-04-30T11:42:38Z</time>
      </trkpt>
      <trkpt lat="49.48979" lon="1.10726">
        <ele>165.9</ele>
        <time>2022-04-30T11:42:39Z</time>
      </trkpt>
      <trkpt lat="49.48977" lon="1.10731">
        <ele>165.8</ele>
        <time>2022-04-30T11:42:40Z</time>
      </trkpt>
      <trkpt lat="49.48976" lon="1.10735">
        <ele>165.8</ele>
        <time>2022-04-30T11:42:41Z</time>
      </trkpt>
      <trkpt lat="49.48975" lon="1.10741">
        <ele>165.7</ele>
        <time>2022-04-30T11:42:42Z</time>
      </trkpt>
      <trkpt lat="49.48974" lon="1.10743">
        <ele>165.7</ele>
        <time>2022-04-30T11:42:43Z</time>
      </trkpt>
      <trkpt lat="49.48973" lon="1.10748">
        <ele>165.6</ele>
        <time>2022-04-30T11:42:44Z</time>
      </trkpt>
      <trkpt lat="49.48972" lon="1.10754">
        <ele>165.6</ele>
        <time>2022-04-30T11:42:45Z</time>
      </trkpt>
      <trkpt lat="49.48972" lon="1.1076">
        <ele>165.5</ele>
        <time>2022-04-30T11:42:46Z</time>
      </trkpt>
      <trkpt lat="49.48971" lon="1.10766">
        <ele>165.5</ele>
        <time>2022-04-30T11:42:47Z</time>
      </trkpt>
      <trkpt lat="49.4897" lon="1.10774">
        <ele>165.4</ele>
        <time>2022-04-30T11:42:48Z</time>
      </trkpt>
      <trkpt lat="49.48969" lon="1.1078">
        <ele>165.4</ele>
        <time>2022-04-30T11:42:49Z</time>
      </trkpt>
      <trkpt lat="49.48968" lon="1.10787">
        <ele>165.4</ele>
        <time>2022-04-30T11:42:50Z</time>
      </trkpt>
      <trkpt lat="49.48964" lon="1.10807">
        <ele>165.4</ele>
        <time>2022-04-30T11:42:51Z</time>
      </trkpt>
      <trkpt lat="49.48961" lon="1.10826">
        <ele>165.5</ele>
        <time>2022-04-30T11:42:52Z</time>
      </trkpt>
      <trkpt lat="49.4896" lon="1.10837">
        <ele>165.6</ele>
        <time>2022-04-30T11:42:53Z</time>
      </trkpt>
      <trkpt lat="49.48959" lon="1.10846">
        <ele>165.7</ele>
        <time>2022-04-30T11:42:54Z</time>
      </trkpt>
      <trkpt lat="49.48958" lon="1.10851">
        <ele>165.8</ele>
        <time>2022-04-30T11:42:55Z</time>
      </trkpt>
      <trkpt lat="49.48958" lon="1.10856">
        <ele>165.9</ele>
        <time>2022-04-30T11:42:56Z</time>
      </trkpt>
      <trkpt lat="49.48957" lon="1.10862">
        <ele>166</ele>
        <time>2022-04-30T11:42:57Z</time>
      </trkpt>
      <trkpt lat="49.48956" lon="1.10864">
        <ele>166</ele>
        <time>2022-04-30T11:42:58Z</time>
      </trkpt>
      <trkpt lat="49.48953" lon="1.10888">
        <ele>166.4</ele>
        <time>2022-04-30T11:42:59Z</time>
      </trkpt>
      <trkpt lat="49.48951" lon="1.10908">
        <ele>166.8</ele>
        <time>2022-04-30T11:43:00Z</time>
      </trkpt>
      <trkpt lat="49.48949" lon="1.10929">
        <ele>167.1</ele>
        <time>2022-04-30T11:43:01Z</time>
      </trkpt>
      <trkpt lat="49.48945" lon="1.10952">
        <ele>167.4</ele>
        <time>2022-04-30T11:43:02Z</time>
      </trkpt>
      <trkpt lat="49.48943" lon="1.10964">
        <ele>167.6</ele>
        <time>2022-04-30T11:43:03Z</time>
      </trkpt>
      <trkpt lat="49.48941" lon="1.10978">
        <ele>167.8</ele>
        <time>2022-04-30T11:43:04Z</time>
      </trkpt>
      <trkpt lat="49.4894" lon="1.1099">
        <ele>168</ele>
        <time>2022-04-30T11:43:05Z</time>
      </trkpt>
      <trkpt lat="49.48938" lon="1.11001">
        <ele>168.3</ele>
        <time>2022-04-30T11:43:06Z</time>
      </trkpt>
      <trkpt lat="49.48936" lon="1.11009">
        <ele>168.4</ele>
        <time>2022-04-30T11:43:07Z</time>
      </trkpt>
      <trkpt lat="49.48935" lon="1.11018">
        <ele>168.6</ele>
        <time>2022-04-30T11:43:08Z</time>
      </trkpt>
      <trkpt lat="49.48934" lon="1.11026">
        <ele>168.8</ele>
        <time>2022-04-30T11:43:09Z</time>
      </trkpt>
      <trkpt lat="49.48934" lon="1.11034">
        <ele>168.9</ele>
        <time>2022-04-30T11:43:10Z</time>
      </trkpt>
      <trkpt lat="49.48933" lon="1.11042">
        <ele>169.1</ele>
        <time>2022-04-30T11:43:11Z</time>
      </trkpt>
      <trkpt lat="49.48931" lon="1.11049">
        <ele>169.2</ele>
        <time>2022-04-30T11:43:12Z</time>
      </trkpt>
      <trkpt lat="49.48929" lon="1.11059">
        <ele>169.4</ele>
        <time>2022-04-30T11:43:13Z</time>
      </trkpt>
      <trkpt lat="49.48928" lon="1.11065">
        <ele>169.6</ele>
        <time>2022-04-30T11:43:14Z</time>
      </trkpt>
      <trkpt lat="49.48928" lon="1.11071">
        <ele>169.7</ele>
        <time>2022-04-30T11:43:15Z</time>
      </trkpt>
      <trkpt lat="49.48927" lon="1.11079">
        <ele>169.8</ele>
        <time>2022-04-30T11:43:16Z</time>
      </trkpt>
      <trkpt lat="49.48925" lon="1.11088">
        <ele>170</ele>
        <time>2022-04-30T11:43:17Z</time>
      </trkpt>
      <trkpt lat="49.48923" lon="1.11095">
        <ele>170.2</ele>
        <time>2022-04-30T11:43:18Z</time>
      </trkpt>
      <trkpt lat="49.48922" lon="1.11101">
        <ele>170.3</ele>
        <time>2022-04-30T11:43:19Z</time>
      </trkpt>
      <trkpt lat="49.48921" lon="1.11107">
        <ele>170.4</ele>
        <time>2022-04-30T11:43:20Z</time>
      </trkpt>
      <trkpt lat="49.48919" lon="1.11114">
        <ele>170.6</ele>
        <time>2022-04-30T11:43:21Z</time>
      </trkpt>
      <trkpt lat="49.48917" lon="1.11122">
        <ele>170.7</ele>
        <time>2022-04-30T11:43:22Z</time>
      </trkpt>
      <trkpt lat="49.48915" lon="1.11129">
        <ele>170.9</ele>
        <time>2022-04-30T11:43:23Z</time>
      </trkpt>
      <trkpt lat="49.48915" lon="1.11136">
        <ele>170.9</ele>
        <time>2022-04-30T11:43:24Z</time>
      </trkpt>
      <trkpt lat="49.48914" lon="1.11141">
        <ele>171</ele>
        <time>2022-04-30T11:43:25Z</time>
      </trkpt>
      <trkpt lat="49.48913" lon="1.11147">
        <ele>171.1</ele>
        <time>2022-04-30T11:43:26Z</time>
      </trkpt>
      <trkpt lat="49.48911" lon="1.11156">
        <ele>171.1</ele>
        <time>2022-04-30T11:43:27Z</time>
      </trkpt>
      <trkpt lat="49.48909" lon="1.11166">
        <ele>171.2</ele>
        <time>2022-04-30T11:43:28Z</time>
      </trkpt>
      <trkpt lat="49.48907" lon="1.11175">
        <ele>171.2</ele>
        <time>2022-04-30T11:43:29Z</time>
      </trkpt>
      <trkpt lat="49.48906" lon="1.11184">
        <ele>171.2</ele>
        <time>2022-04-30T11:43:30Z</time>
      </trkpt>
      <trkpt lat="49.48904" lon="1.1119">
        <ele>171.1</ele>
        <time>2022-04-30T11:43:31Z</time>
      </trkpt>
      <trkpt lat="49.48903" lon="1.11198">
        <ele>171.1</ele>
        <time>2022-04-30T11:43:32Z</time>
      </trkpt>
      <trkpt lat="49.48903" lon="1.11207">
        <ele>171</ele>
        <time>2022-04-30T11:43:33Z</time>
      </trkpt>
      <trkpt lat="49.48901" lon="1.11215">
        <ele>170.9</ele>
        <time>2022-04-30T11:43:34Z</time>
      </trkpt>
      <trkpt lat="49.48901" lon="1.11222">
        <ele>170.7</ele>
        <time>2022-04-30T11:43:35Z</time>
      </trkpt>
      <trkpt lat="49.48902" lon="1.1123">
        <ele>170.6</ele>
        <time>2022-04-30T11:43:36Z</time>
      </trkpt>
      <trkpt lat="49.48902" lon="1.11238">
        <ele>170.5</ele>
        <time>2022-04-30T11:43:37Z</time>
      </trkpt>
      <trkpt lat="49.489" lon="1.11248">
        <ele>170.4</ele>
        <time>2022-04-30T11:43:38Z</time>
      </trkpt>
      <trkpt lat="49.48898" lon="1.11257">
        <ele>170.2</ele>
        <time>2022-04-30T11:43:39Z</time>
      </trkpt>
      <trkpt lat="49.48896" lon="1.11266">
        <ele>170.1</ele>
        <time>2022-04-30T11:43:40Z</time>
      </trkpt>
      <trkpt lat="49.48894" lon="1.11275">
        <ele>170</ele>
        <time>2022-04-30T11:43:41Z</time>
      </trkpt>
      <trkpt lat="49.48891" lon="1.11282">
        <ele>169.9</ele>
        <time>2022-04-30T11:43:42Z</time>
      </trkpt>
      <trkpt lat="49.4889" lon="1.1129">
        <ele>169.9</ele>
        <time>2022-04-30T11:43:43Z</time>
      </trkpt>
      <trkpt lat="49.48889" lon="1.11301">
        <ele>169.8</ele>
        <time>2022-04-30T11:43:44Z</time>
      </trkpt>
      <trkpt lat="49.48887" lon="1.11309">
        <ele>169.8</ele>
        <time>2022-04-30T11:43:45Z</time>
      </trkpt>
      <trkpt lat="49.48885" lon="1.11317">
        <ele>169.7</ele>
        <time>2022-04-30T11:43:46Z</time>
      </trkpt>
      <trkpt lat="49.48885" lon="1.11326">
        <ele>169.6</ele>
        <time>2022-04-30T11:43:47Z</time>
      </trkpt>
      <trkpt lat="49.48886" lon="1.11334">
        <ele>169.5</ele>
        <time>2022-04-30T11:43:48Z</time>
      </trkpt>
      <trkpt lat="49.48887" lon="1.11342">
        <ele>169.4</ele>
        <time>2022-04-30T11:43:49Z</time>
      </trkpt>
      <trkpt lat="49.48887" lon="1.11347">
        <ele>169.3</ele>
        <time>2022-04-30T11:43:50Z</time>
      </trkpt>
      <trkpt lat="49.48887" lon="1.11349">
        <ele>169.3</ele>
        <time>2022-04-30T11:43:51Z</time>
      </trkpt>
      <trkpt lat="49.48887" lon="1.11355">
        <ele>169.2</ele>
        <time>2022-04-30T11:43:52Z</time>
      </trkpt>
      <trkpt lat="49.48889" lon="1.11361">
        <ele>169.1</ele>
        <time>2022-04-30T11:43:53Z</time>
      </trkpt>
      <trkpt lat="49.48893" lon="1.11365">
        <ele>169</ele>
        <time>2022-04-30T11:43:54Z</time>
      </trkpt>
      <trkpt lat="49.48897" lon="1.1137">
        <ele>168.9</ele>
        <time>2022-04-30T11:43:55Z</time>
      </trkpt>
      <trkpt lat="49.489" lon="1.11372">
        <ele>168.9</ele>
        <time>2022-04-30T11:43:56Z</time>
      </trkpt>
      <trkpt lat="49.48901" lon="1.11372">
        <ele>168.9</ele>
        <time>2022-04-30T11:43:57Z</time>
      </trkpt>
      <trkpt lat="49.48901" lon="1.11371">
        <ele>168.8</ele>
        <time>2022-04-30T11:43:58Z</time>
      </trkpt>
      <trkpt lat="49.48902" lon="1.11372">
        <ele>168.8</ele>
        <time>2022-04-30T11:43:59Z</time>
      </trkpt>
      <trkpt lat="49.48904" lon="1.11372">
        <ele>168.8</ele>
        <time>2022-04-30T11:44:00Z</time>
      </trkpt>
      <trkpt lat="49.48905" lon="1.11376">
        <ele>168.7</ele>
        <time>2022-04-30T11:44:01Z</time>
      </trkpt>
      <trkpt lat="49.48906" lon="1.11377">
        <ele>168.7</ele>
        <time>2022-04-30T11:44:02Z</time>
      </trkpt>
      <trkpt lat="49.48907" lon="1.11383">
        <ele>168.7</ele>
        <time>2022-04-30T11:44:03Z</time>
      </trkpt>
      <trkpt lat="49.48908" lon="1.11384">
        <ele>168.6</ele>
        <time>2022-04-30T11:44:04Z</time>
      </trkpt>
      <trkpt lat="49.48908" lon="1.11385">
        <ele>168.6</ele>
        <time>2022-04-30T11:44:05Z</time>
      </trkpt>
      <trkpt lat="49.48908" lon="1.11386">
        <ele>168.6</ele>
        <time>2022-04-30T11:44:06Z</time>
      </trkpt>
      <trkpt lat="49.48909" lon="1.11386">
        <ele>168.6</ele>
        <time>2022-04-30T11:44:07Z</time>
      </trkpt>
      <trkpt lat="49.48909" lon="1.11386">
        <ele>168.6</ele>
        <time>2022-04-30T11:44:08Z</time>
      </trkpt>
      <trkpt lat="49.48908" lon="1.11388">
        <ele>168.6</ele>
        <time>2022-04-30T11:44:09Z</time>
      </trkpt>
      <trkpt lat="49.48907" lon="1.1139">
        <ele>168.6</ele>
        <time>2022-04-30T11:44:10Z</time>
      </trkpt>
      <trkpt lat="49.48906" lon="1.11393">
        <ele>168.5</ele>
        <time>2022-04-30T11:44:11Z</time>
      </trkpt>
      <trkpt lat="49.48902" lon="1.11397">
        <ele>168.4</ele>
        <time>2022-04-30T11:44:12Z</time>
      </trkpt>
      <trkpt lat="49.48899" lon="1.11399">
        <ele>168.4</ele>
        <time>2022-04-30T11:44:13Z</time>
      </trkpt>
      <trkpt lat="49.48897" lon="1.11399">
        <ele>168.3</ele>
        <time>2022-04-30T11:44:14Z</time>
      </trkpt>
      <trkpt lat="49.48894" lon="1.11398">
        <ele>168.3</ele>
        <time>2022-04-30T11:44:15Z</time>
      </trkpt>
      <trkpt lat="49.4889" lon="1.11398">
        <ele>168.2</ele>
        <time>2022-04-30T11:44:16Z</time>
      </trkpt>
      <trkpt lat="49.48889" lon="1.11398">
        <ele>168.2</ele>
        <time>2022-04-30T11:44:17Z</time>
      </trkpt>
      <trkpt lat="49.48888" lon="1.11398">
        <ele>168.2</ele>
        <time>2022-04-30T11:44:18Z</time>
      </trkpt>
      <trkpt lat="49.48886" lon="1.11399">
        <ele>168.1</ele>
        <time>2022-04-30T11:44:19Z</time>
      </trkpt>
      <trkpt lat="49.48884" lon="1.11403">
        <ele>168</ele>
        <time>2022-04-30T11:44:20Z</time>
      </trkpt>
      <trkpt lat="49.48883" lon="1.11405">
        <ele>168</ele>
        <time>2022-04-30T11:44:21Z</time>
      </trkpt>
      <trkpt lat="49.48881" lon="1.11409">
        <ele>167.9</ele>
        <time>2022-04-30T11:44:22Z</time>
      </trkpt>
      <trkpt lat="49.48879" lon="1.11413">
        <ele>167.9</ele>
        <time>2022-04-30T11:44:23Z</time>
      </trkpt>
      <trkpt lat="49.48877" lon="1.11417">
        <ele>167.8</ele>
        <time>2022-04-30T11:44:24Z</time>
      </trkpt>
      <trkpt lat="49.48876" lon="1.11421">
        <ele>167.7</ele>
        <time>2022-04-30T11:44:25Z</time>
      </trkpt>
      <trkpt lat="49.48874" lon="1.11425">
        <ele>167.6</ele>
        <time>2022-04-30T11:44:26Z</time>
      </trkpt>
      <trkpt lat="49.48872" lon="1.11431">
        <ele>167.5</ele>
        <time>2022-04-30T11:44:27Z</time>
      </trkpt>
      <trkpt lat="49.4887" lon="1.11436">
        <ele>167.4</ele>
        <time>2022-04-30T11:44:28Z</time>
      </trkpt>
      <trkpt lat="49.48869" lon="1.11442">
        <ele>167.3</ele>
        <time>2022-04-30T11:44:29Z</time>
      </trkpt>
      <trkpt lat="49.48868" lon="1.11451">
        <ele>167.1</ele>
        <time>2022-04-30T11:44:30Z</time>
      </trkpt>
      <trkpt lat="49.48866" lon="1.11461">
        <ele>166.9</ele>
        <time>2022-04-30T11:44:31Z</time>
      </trkpt>
      <trkpt lat="49.48865" lon="1.11474">
        <ele>166.7</ele>
        <time>2022-04-30T11:44:32Z</time>
      </trkpt>
      <trkpt lat="49.48864" lon="1.11485">
        <ele>166.4</ele>
        <time>2022-04-30T11:44:33Z</time>
      </trkpt>
      <trkpt lat="49.48864" lon="1.11494">
        <ele>166.2</ele>
        <time>2022-04-30T11:44:34Z</time>
      </trkpt>
      <trkpt lat="49.48864" lon="1.11502">
        <ele>166.1</ele>
        <time>2022-04-30T11:44:35Z</time>
      </trkpt>
      <trkpt lat="49.48864" lon="1.11508">
        <ele>165.9</ele>
        <time>2022-04-30T11:44:36Z</time>
      </trkpt>
      <trkpt lat="49.48863" lon="1.11515">
        <ele>165.8</ele>
        <time>2022-04-30T11:44:37Z</time>
      </trkpt>
      <trkpt lat="49.48861" lon="1.11521">
        <ele>165.6</ele>
        <time>2022-04-30T11:44:38Z</time>
      </trkpt>
      <trkpt lat="49.4886" lon="1.11528">
        <ele>165.5</ele>
        <time>2022-04-30T11:44:39Z</time>
      </trkpt>
      <trkpt lat="49.48859" lon="1.11538">
        <ele>165.2</ele>
        <time>2022-04-30T11:44:40Z</time>
      </trkpt>
      <trkpt lat="49.48857" lon="1.11546">
        <ele>165</ele>
        <time>2022-04-30T11:44:41Z</time>
      </trkpt>
      <trkpt lat="49.48855" lon="1.11557">
        <ele>164.6</ele>
        <time>2022-04-30T11:44:42Z</time>
      </trkpt>
      <trkpt lat="49.48854" lon="1.11563">
        <ele>164.3</ele>
        <time>2022-04-30T11:44:43Z</time>
      </trkpt>
      <trkpt lat="49.48854" lon="1.1157">
        <ele>164.1</ele>
        <time>2022-04-30T11:44:44Z</time>
      </trkpt>
      <trkpt lat="49.48853" lon="1.11577">
        <ele>163.8</ele>
        <time>2022-04-30T11:44:45Z</time>
      </trkpt>
      <trkpt lat="49.48852" lon="1.11583">
        <ele>163.6</ele>
        <time>2022-04-30T11:44:46Z</time>
      </trkpt>
      <trkpt lat="49.4885" lon="1.11589">
        <ele>163.3</ele>
        <time>2022-04-30T11:44:47Z</time>
      </trkpt>
      <trkpt lat="49.48849" lon="1.11596">
        <ele>163.1</ele>
        <time>2022-04-30T11:44:48Z</time>
      </trkpt>
      <trkpt lat="49.48846" lon="1.11608">
        <ele>162.8</ele>
        <time>2022-04-30T11:44:49Z</time>
      </trkpt>
      <trkpt lat="49.48842" lon="1.11621">
        <ele>162.6</ele>
        <time>2022-04-30T11:44:50Z</time>
      </trkpt>
      <trkpt lat="49.48839" lon="1.11633">
        <ele>162.6</ele>
        <time>2022-04-30T11:44:51Z</time>
      </trkpt>
      <trkpt lat="49.48837" lon="1.11644">
        <ele>162.6</ele>
        <time>2022-04-30T11:44:52Z</time>
      </trkpt>
      <trkpt lat="49.48835" lon="1.11653">
        <ele>162.7</ele>
        <time>2022-04-30T11:44:53Z</time>
      </trkpt>
      <trkpt lat="49.48834" lon="1.11662">
        <ele>162.8</ele>
        <time>2022-04-30T11:44:54Z</time>
      </trkpt>
      <trkpt lat="49.48831" lon="1.11673">
        <ele>163</ele>
        <time>2022-04-30T11:44:55Z</time>
      </trkpt>
      <trkpt lat="49.48829" lon="1.11683">
        <ele>163.1</ele>
        <time>2022-04-30T11:44:56Z</time>
      </trkpt>
      <trkpt lat="49.48827" lon="1.11692">
        <ele>163.2</ele>
        <time>2022-04-30T11:44:57Z</time>
      </trkpt>
      <trkpt lat="49.48825" lon="1.11705">
        <ele>163.4</ele>
        <time>2022-04-30T11:44:58Z</time>
      </trkpt>
      <trkpt lat="49.48823" lon="1.11718">
        <ele>163.5</ele>
        <time>2022-04-30T11:44:59Z</time>
      </trkpt>
      <trkpt lat="49.4882" lon="1.1173">
        <ele>163.6</ele>
        <time>2022-04-30T11:45:00Z</time>
      </trkpt>
      <trkpt lat="49.48818" lon="1.11741">
        <ele>163.7</ele>
        <time>2022-04-30T11:45:01Z</time>
      </trkpt>
      <trkpt lat="49.48817" lon="1.1175">
        <ele>163.7</ele>
        <time>2022-04-30T11:45:02Z</time>
      </trkpt>
      <trkpt lat="49.48816" lon="1.11761">
        <ele>163.7</ele>
        <time>2022-04-30T11:45:03Z</time>
      </trkpt>
      <trkpt lat="49.48814" lon="1.11776">
        <ele>163.7</ele>
        <time>2022-04-30T11:45:04Z</time>
      </trkpt>
      <trkpt lat="49.48811" lon="1.11788">
        <ele>163.7</ele>
        <time>2022-04-30T11:45:05Z</time>
      </trkpt>
      <trkpt lat="49.48808" lon="1.118">
        <ele>163.7</ele>
        <time>2022-04-30T11:45:06Z</time>
      </trkpt>
      <trkpt lat="49.48806" lon="1.11811">
        <ele>163.6</ele>
        <time>2022-04-30T11:45:07Z</time>
      </trkpt>
      <trkpt lat="49.48804" lon="1.11821">
        <ele>163.6</ele>
        <time>2022-04-30T11:45:08Z</time>
      </trkpt>
      <trkpt lat="49.48804" lon="1.11832">
        <ele>163.6</ele>
        <time>2022-04-30T11:45:09Z</time>
      </trkpt>
      <trkpt lat="49.48804" lon="1.11843">
        <ele>163.6</ele>
        <time>2022-04-30T11:45:10Z</time>
      </trkpt>
      <trkpt lat="49.48804" lon="1.11852">
        <ele>163.6</ele>
        <time>2022-04-30T11:45:11Z</time>
      </trkpt>
      <trkpt lat="49.48804" lon="1.1186">
        <ele>163.6</ele>
        <time>2022-04-30T11:45:12Z</time>
      </trkpt>
      <trkpt lat="49.48805" lon="1.11868">
        <ele>163.7</ele>
        <time>2022-04-30T11:45:13Z</time>
      </trkpt>
      <trkpt lat="49.48806" lon="1.11875">
        <ele>163.7</ele>
        <time>2022-04-30T11:45:14Z</time>
      </trkpt>
      <trkpt lat="49.48807" lon="1.1188">
        <ele>163.7</ele>
        <time>2022-04-30T11:45:15Z</time>
      </trkpt>
      <trkpt lat="49.48808" lon="1.11886">
        <ele>163.6</ele>
        <time>2022-04-30T11:45:16Z</time>
      </trkpt>
      <trkpt lat="49.48809" lon="1.11894">
        <ele>163.5</ele>
        <time>2022-04-30T11:45:17Z</time>
      </trkpt>
      <trkpt lat="49.4881" lon="1.119">
        <ele>163.4</ele>
        <time>2022-04-30T11:45:18Z</time>
      </trkpt>
      <trkpt lat="49.48812" lon="1.11905">
        <ele>163.4</ele>
        <time>2022-04-30T11:45:19Z</time>
      </trkpt>
      <trkpt lat="49.48814" lon="1.1191">
        <ele>163.3</ele>
        <time>2022-04-30T11:45:20Z</time>
      </trkpt>
      <trkpt lat="49.48816" lon="1.11917">
        <ele>163.2</ele>
        <time>2022-04-30T11:45:21Z</time>
      </trkpt>
      <trkpt lat="49.4882" lon="1.11923">
        <ele>163.1</ele>
        <time>2022-04-30T11:45:22Z</time>
      </trkpt>
      <trkpt lat="49.48822" lon="1.11929">
        <ele>163</ele>
        <time>2022-04-30T11:45:23Z</time>
      </trkpt>
      <trkpt lat="49.48825" lon="1.11935">
        <ele>163</ele>
        <time>2022-04-30T11:45:24Z</time>
      </trkpt>
      <trkpt lat="49.48827" lon="1.1194">
        <ele>162.9</ele>
        <time>2022-04-30T11:45:25Z</time>
      </trkpt>
      <trkpt lat="49.4883" lon="1.11947">
        <ele>162.8</ele>
        <time>2022-04-30T11:45:26Z</time>
      </trkpt>
      <trkpt lat="49.48834" lon="1.11957">
        <ele>162.6</ele>
        <time>2022-04-30T11:45:27Z</time>
      </trkpt>
      <trkpt lat="49.48839" lon="1.11964">
        <ele>162.3</ele>
        <time>2022-04-30T11:45:28Z</time>
      </trkpt>
      <trkpt lat="49.48844" lon="1.11971">
        <ele>162.1</ele>
        <time>2022-04-30T11:45:29Z</time>
      </trkpt>
      <trkpt lat="49.4885" lon="1.11977">
        <ele>161.9</ele>
        <time>2022-04-30T11:45:30Z</time>
      </trkpt>
      <trkpt lat="49.48858" lon="1.11982">
        <ele>161.6</ele>
        <time>2022-04-30T11:45:31Z</time>
      </trkpt>
      <trkpt lat="49.48867" lon="1.11988">
        <ele>161.2</ele>
        <time>2022-04-30T11:45:32Z</time>
      </trkpt>
      <trkpt lat="49.48874" lon="1.11993">
        <ele>161</ele>
        <time>2022-04-30T11:45:33Z</time>
      </trkpt>
      <trkpt lat="49.48878" lon="1.11999">
        <ele>160.7</ele>
        <time>2022-04-30T11:45:34Z</time>
      </trkpt>
      <trkpt lat="49.48883" lon="1.12003">
        <ele>160.5</ele>
        <time>2022-04-30T11:45:35Z</time>
      </trkpt>
      <trkpt lat="49.48887" lon="1.12009">
        <ele>160.3</ele>
        <time>2022-04-30T11:45:36Z</time>
      </trkpt>
      <trkpt lat="49.48893" lon="1.12016">
        <ele>160.1</ele>
        <time>2022-04-30T11:45:37Z</time>
      </trkpt>
      <trkpt lat="49.48898" lon="1.12023">
        <ele>159.8</ele>
        <time>2022-04-30T11:45:38Z</time>
      </trkpt>
      <trkpt lat="49.48904" lon="1.12031">
        <ele>159.6</ele>
        <time>2022-04-30T11:45:39Z</time>
      </trkpt>
      <trkpt lat="49.48908" lon="1.12038">
        <ele>159.3</ele>
        <time>2022-04-30T11:45:40Z</time>
      </trkpt>
      <trkpt lat="49.48913" lon="1.12046">
        <ele>159.1</ele>
        <time>2022-04-30T11:45:41Z</time>
      </trkpt>
      <trkpt lat="49.48917" lon="1.12054">
        <ele>158.9</ele>
        <time>2022-04-30T11:45:42Z</time>
      </trkpt>
      <trkpt lat="49.48921" lon="1.12061">
        <ele>158.7</ele>
        <time>2022-04-30T11:45:43Z</time>
      </trkpt>
      <trkpt lat="49.48924" lon="1.12068">
        <ele>158.6</ele>
        <time>2022-04-30T11:45:44Z</time>
      </trkpt>
      <trkpt lat="49.48928" lon="1.12075">
        <ele>158.5</ele>
        <time>2022-04-30T11:45:45Z</time>
      </trkpt>
      <trkpt lat="49.48932" lon="1.12084">
        <ele>158.3</ele>
        <time>2022-04-30T11:45:46Z</time>
      </trkpt>
      <trkpt lat="49.48936" lon="1.12092">
        <ele>158.2</ele>
        <time>2022-04-30T11:45:47Z</time>
      </trkpt>
      <trkpt lat="49.4894" lon="1.12099">
        <ele>158</ele>
        <time>2022-04-30T11:45:48Z</time>
      </trkpt>
      <trkpt lat="49.48943" lon="1.12106">
        <ele>157.9</ele>
        <time>2022-04-30T11:45:49Z</time>
      </trkpt>
      <trkpt lat="49.48947" lon="1.12113">
        <ele>157.8</ele>
        <time>2022-04-30T11:45:50Z</time>
      </trkpt>
      <trkpt lat="49.48951" lon="1.1212">
        <ele>157.6</ele>
        <time>2022-04-30T11:45:51Z</time>
      </trkpt>
      <trkpt lat="49.48955" lon="1.12126">
        <ele>157.5</ele>
        <time>2022-04-30T11:45:52Z</time>
      </trkpt>
      <trkpt lat="49.4896" lon="1.12134">
        <ele>157.4</ele>
        <time>2022-04-30T11:45:53Z</time>
      </trkpt>
      <trkpt lat="49.48965" lon="1.12144">
        <ele>157.3</ele>
        <time>2022-04-30T11:45:54Z</time>
      </trkpt>
      <trkpt lat="49.48971" lon="1.12151">
        <ele>157.2</ele>
        <time>2022-04-30T11:45:55Z</time>
      </trkpt>
      <trkpt lat="49.48977" lon="1.12158">
        <ele>157.1</ele>
        <time>2022-04-30T11:45:56Z</time>
      </trkpt>
      <trkpt lat="49.48981" lon="1.12164">
        <ele>157.1</ele>
        <time>2022-04-30T11:45:57Z</time>
      </trkpt>
      <trkpt lat="49.48986" lon="1.12169">
        <ele>157</ele>
        <time>2022-04-30T11:45:58Z</time>
      </trkpt>
      <trkpt lat="49.48991" lon="1.12176">
        <ele>156.9</ele>
        <time>2022-04-30T11:45:59Z</time>
      </trkpt>
      <trkpt lat="49.48995" lon="1.12183">
        <ele>156.8</ele>
        <time>2022-04-30T11:46:00Z</time>
      </trkpt>
      <trkpt lat="49.49" lon="1.12189">
        <ele>156.7</ele>
        <time>2022-04-30T11:46:01Z</time>
      </trkpt>
      <trkpt lat="49.49005" lon="1.12195">
        <ele>156.7</ele>
        <time>2022-04-30T11:46:02Z</time>
      </trkpt>
      <trkpt lat="49.49009" lon="1.12201">
        <ele>156.7</ele>
        <time>2022-04-30T11:46:03Z</time>
      </trkpt>
      <trkpt lat="49.49014" lon="1.12207">
        <ele>156.7</ele>
        <time>2022-04-30T11:46:04Z</time>
      </trkpt>
      <trkpt lat="49.49018" lon="1.12211">
        <ele>156.7</ele>
        <time>2022-04-30T11:46:05Z</time>
      </trkpt>
      <trkpt lat="49.49022" lon="1.12216">
        <ele>156.7</ele>
        <time>2022-04-30T11:46:06Z</time>
      </trkpt>
      <trkpt lat="49.49027" lon="1.12223">
        <ele>156.8</ele>
        <time>2022-04-30T11:46:07Z</time>
      </trkpt>
      <trkpt lat="49.4903" lon="1.12229">
        <ele>156.8</ele>
        <time>2022-04-30T11:46:08Z</time>
      </trkpt>
      <trkpt lat="49.49033" lon="1.12234">
        <ele>156.8</ele>
        <time>2022-04-30T11:46:09Z</time>
      </trkpt>
      <trkpt lat="49.49037" lon="1.12238">
        <ele>156.8</ele>
        <time>2022-04-30T11:46:10Z</time>
      </trkpt>
      <trkpt lat="49.4904" lon="1.12244">
        <ele>156.9</ele>
        <time>2022-04-30T11:46:11Z</time>
      </trkpt>
      <trkpt lat="49.49043" lon="1.12248">
        <ele>156.9</ele>
        <time>2022-04-30T11:46:12Z</time>
      </trkpt>
      <trkpt lat="49.49047" lon="1.12252">
        <ele>156.9</ele>
        <time>2022-04-30T11:46:13Z</time>
      </trkpt>
      <trkpt lat="49.49051" lon="1.12258">
        <ele>156.9</ele>
        <time>2022-04-30T11:46:14Z</time>
      </trkpt>
      <trkpt lat="49.49056" lon="1.12265">
        <ele>156.9</ele>
        <time>2022-04-30T11:46:15Z</time>
      </trkpt>
      <trkpt lat="49.49063" lon="1.1227">
        <ele>157</ele>
        <time>2022-04-30T11:46:16Z</time>
      </trkpt>
      <trkpt lat="49.49069" lon="1.12274">
        <ele>157</ele>
        <time>2022-04-30T11:46:17Z</time>
      </trkpt>
      <trkpt lat="49.49074" lon="1.12279">
        <ele>157</ele>
        <time>2022-04-30T11:46:18Z</time>
      </trkpt>
      <trkpt lat="49.49079" lon="1.12284">
        <ele>157.1</ele>
        <time>2022-04-30T11:46:19Z</time>
      </trkpt>
      <trkpt lat="49.49084" lon="1.12289">
        <ele>157.2</ele>
        <time>2022-04-30T11:46:20Z</time>
      </trkpt>
      <trkpt lat="49.49088" lon="1.12294">
        <ele>157.3</ele>
        <time>2022-04-30T11:46:21Z</time>
      </trkpt>
      <trkpt lat="49.49096" lon="1.123">
        <ele>157.5</ele>
        <time>2022-04-30T11:46:22Z</time>
      </trkpt>
      <trkpt lat="49.49104" lon="1.12308">
        <ele>157.6</ele>
        <time>2022-04-30T11:46:23Z</time>
      </trkpt>
      <trkpt lat="49.49111" lon="1.12316">
        <ele>157.7</ele>
        <time>2022-04-30T11:46:24Z</time>
      </trkpt>
      <trkpt lat="49.49119" lon="1.12322">
        <ele>157.8</ele>
        <time>2022-04-30T11:46:25Z</time>
      </trkpt>
      <trkpt lat="49.49125" lon="1.12327">
        <ele>158</ele>
        <time>2022-04-30T11:46:26Z</time>
      </trkpt>
      <trkpt lat="49.4913" lon="1.12332">
        <ele>158.1</ele>
        <time>2022-04-30T11:46:27Z</time>
      </trkpt>
      <trkpt lat="49.49134" lon="1.12339">
        <ele>158.2</ele>
        <time>2022-04-30T11:46:28Z</time>
      </trkpt>
      <trkpt lat="49.49137" lon="1.12344">
        <ele>158.3</ele>
        <time>2022-04-30T11:46:29Z</time>
      </trkpt>
      <trkpt lat="49.49141" lon="1.12349">
        <ele>158.3</ele>
        <time>2022-04-30T11:46:30Z</time>
      </trkpt>
      <trkpt lat="49.49145" lon="1.12355">
        <ele>158.4</ele>
        <time>2022-04-30T11:46:31Z</time>
      </trkpt>
      <trkpt lat="49.49149" lon="1.1236">
        <ele>158.4</ele>
        <time>2022-04-30T11:46:32Z</time>
      </trkpt>
      <trkpt lat="49.49153" lon="1.12366">
        <ele>158.5</ele>
        <time>2022-04-30T11:46:33Z</time>
      </trkpt>
      <trkpt lat="49.49156" lon="1.12371">
        <ele>158.5</ele>
        <time>2022-04-30T11:46:34Z</time>
      </trkpt>
      <trkpt lat="49.49159" lon="1.12376">
        <ele>158.6</ele>
        <time>2022-04-30T11:46:35Z</time>
      </trkpt>
      <trkpt lat="49.49161" lon="1.12383">
        <ele>158.6</ele>
        <time>2022-04-30T11:46:36Z</time>
      </trkpt>
      <trkpt lat="49.49165" lon="1.12389">
        <ele>158.6</ele>
        <time>2022-04-30T11:46:37Z</time>
      </trkpt>
      <trkpt lat="49.49168" lon="1.12395">
        <ele>158.7</ele>
        <time>2022-04-30T11:46:38Z</time>
      </trkpt>
      <trkpt lat="49.49171" lon="1.12401">
        <ele>158.7</ele>
        <time>2022-04-30T11:46:39Z</time>
      </trkpt>
      <trkpt lat="49.49176" lon="1.12408">
        <ele>158.7</ele>
        <time>2022-04-30T11:46:40Z</time>
      </trkpt>
      <trkpt lat="49.49179" lon="1.12416">
        <ele>158.8</ele>
        <time>2022-04-30T11:46:41Z</time>
      </trkpt>
      <trkpt lat="49.49182" lon="1.12425">
        <ele>158.8</ele>
        <time>2022-04-30T11:46:42Z</time>
      </trkpt>
      <trkpt lat="49.49185" lon="1.12434">
        <ele>158.7</ele>
        <time>2022-04-30T11:46:43Z</time>
      </trkpt>
      <trkpt lat="49.49187" lon="1.12444">
        <ele>158.7</ele>
        <time>2022-04-30T11:46:44Z</time>
      </trkpt>
      <trkpt lat="49.4919" lon="1.12454">
        <ele>158.6</ele>
        <time>2022-04-30T11:46:45Z</time>
      </trkpt>
      <trkpt lat="49.49192" lon="1.12463">
        <ele>158.5</ele>
        <time>2022-04-30T11:46:46Z</time>
      </trkpt>
      <trkpt lat="49.49194" lon="1.1247">
        <ele>158.5</ele>
        <time>2022-04-30T11:46:47Z</time>
      </trkpt>
      <trkpt lat="49.49196" lon="1.12478">
        <ele>158.5</ele>
        <time>2022-04-30T11:46:48Z</time>
      </trkpt>
      <trkpt lat="49.492" lon="1.12486">
        <ele>158.5</ele>
        <time>2022-04-30T11:46:49Z</time>
      </trkpt>
      <trkpt lat="49.49204" lon="1.12493">
        <ele>158.5</ele>
        <time>2022-04-30T11:46:50Z</time>
      </trkpt>
      <trkpt lat="49.49207" lon="1.125">
        <ele>158.6</ele>
        <time>2022-04-30T11:46:51Z</time>
      </trkpt>
      <trkpt lat="49.49211" lon="1.12507">
        <ele>158.6</ele>
        <time>2022-04-30T11:46:52Z</time>
      </trkpt>
      <trkpt lat="49.49214" lon="1.12516">
        <ele>158.7</ele>
        <time>2022-04-30T11:46:53Z</time>
      </trkpt>
      <trkpt lat="49.49216" lon="1.12526">
        <ele>158.7</ele>
        <time>2022-04-30T11:46:54Z</time>
      </trkpt>
      <trkpt lat="49.49218" lon="1.12535">
        <ele>158.8</ele>
        <time>2022-04-30T11:46:55Z</time>
      </trkpt>
      <trkpt lat="49.4922" lon="1.12543">
        <ele>158.8</ele>
        <time>2022-04-30T11:46:56Z</time>
      </trkpt>
      <trkpt lat="49.49223" lon="1.1255">
        <ele>158.8</ele>
        <time>2022-04-30T11:46:57Z</time>
      </trkpt>
      <trkpt lat="49.49224" lon="1.12558">
        <ele>158.8</ele>
        <time>2022-04-30T11:46:58Z</time>
      </trkpt>
      <trkpt lat="49.49225" lon="1.12565">
        <ele>158.8</ele>
        <time>2022-04-30T11:46:59Z</time>
      </trkpt>
      <trkpt lat="49.49227" lon="1.12572">
        <ele>158.8</ele>
        <time>2022-04-30T11:47:00Z</time>
      </trkpt>
      <trkpt lat="49.49228" lon="1.12578">
        <ele>158.8</ele>
        <time>2022-04-30T11:47:01Z</time>
      </trkpt>
      <trkpt lat="49.4923" lon="1.12584">
        <ele>158.8</ele>
        <time>2022-04-30T11:47:02Z</time>
      </trkpt>
      <trkpt lat="49.49231" lon="1.1259">
        <ele>158.8</ele>
        <time>2022-04-30T11:47:03Z</time>
      </trkpt>
      <trkpt lat="49.49233" lon="1.12598">
        <ele>158.8</ele>
        <time>2022-04-30T11:47:04Z</time>
      </trkpt>
      <trkpt lat="49.49235" lon="1.12608">
        <ele>158.8</ele>
        <time>2022-04-30T11:47:05Z</time>
      </trkpt>
      <trkpt lat="49.49237" lon="1.12617">
        <ele>158.8</ele>
        <time>2022-04-30T11:47:06Z</time>
      </trkpt>
      <trkpt lat="49.49238" lon="1.12626">
        <ele>158.8</ele>
        <time>2022-04-30T11:47:07Z</time>
      </trkpt>
      <trkpt lat="49.4924" lon="1.12635">
        <ele>158.8</ele>
        <time>2022-04-30T11:47:08Z</time>
      </trkpt>
      <trkpt lat="49.49241" lon="1.12641">
        <ele>158.8</ele>
        <time>2022-04-30T11:47:09Z</time>
      </trkpt>
      <trkpt lat="49.49242" lon="1.12647">
        <ele>158.8</ele>
        <time>2022-04-30T11:47:10Z</time>
      </trkpt>
      <trkpt lat="49.49244" lon="1.12653">
        <ele>158.8</ele>
        <time>2022-04-30T11:47:11Z</time>
      </trkpt>
      <trkpt lat="49.49246" lon="1.1266">
        <ele>158.8</ele>
        <time>2022-04-30T11:47:12Z</time>
      </trkpt>
      <trkpt lat="49.49247" lon="1.12667">
        <ele>158.9</ele>
        <time>2022-04-30T11:47:13Z</time>
      </trkpt>
      <trkpt lat="49.49248" lon="1.12674">
        <ele>158.9</ele>
        <time>2022-04-30T11:47:14Z</time>
      </trkpt>
      <trkpt lat="49.4925" lon="1.12682">
        <ele>158.9</ele>
        <time>2022-04-30T11:47:15Z</time>
      </trkpt>
      <trkpt lat="49.49252" lon="1.12691">
        <ele>159</ele>
        <time>2022-04-30T11:47:16Z</time>
      </trkpt>
      <trkpt lat="49.49254" lon="1.12699">
        <ele>159</ele>
        <time>2022-04-30T11:47:17Z</time>
      </trkpt>
      <trkpt lat="49.49257" lon="1.12707">
        <ele>159</ele>
        <time>2022-04-30T11:47:18Z</time>
      </trkpt>
      <trkpt lat="49.49259" lon="1.12713">
        <ele>159</ele>
        <time>2022-04-30T11:47:19Z</time>
      </trkpt>
      <trkpt lat="49.49262" lon="1.12722">
        <ele>159.1</ele>
        <time>2022-04-30T11:47:20Z</time>
      </trkpt>
      <trkpt lat="49.49264" lon="1.1273">
        <ele>159.1</ele>
        <time>2022-04-30T11:47:21Z</time>
      </trkpt>
      <trkpt lat="49.49265" lon="1.12739">
        <ele>159.1</ele>
        <time>2022-04-30T11:47:22Z</time>
      </trkpt>
      <trkpt lat="49.49266" lon="1.12747">
        <ele>159.1</ele>
        <time>2022-04-30T11:47:23Z</time>
      </trkpt>
      <trkpt lat="49.49268" lon="1.12754">
        <ele>159</ele>
        <time>2022-04-30T11:47:24Z</time>
      </trkpt>
      <trkpt lat="49.4927" lon="1.12761">
        <ele>159</ele>
        <time>2022-04-30T11:47:25Z</time>
      </trkpt>
      <trkpt lat="49.49271" lon="1.12771">
        <ele>159</ele>
        <time>2022-04-30T11:47:26Z</time>
      </trkpt>
      <trkpt lat="49.49271" lon="1.12779">
        <ele>158.9</ele>
        <time>2022-04-30T11:47:27Z</time>
      </trkpt>
      <trkpt lat="49.49272" lon="1.12786">
        <ele>158.9</ele>
        <time>2022-04-30T11:47:28Z</time>
      </trkpt>
      <trkpt lat="49.49272" lon="1.12792">
        <ele>158.8</ele>
        <time>2022-04-30T11:47:29Z</time>
      </trkpt>
      <trkpt lat="49.49273" lon="1.12799">
        <ele>158.7</ele>
        <time>2022-04-30T11:47:30Z</time>
      </trkpt>
      <trkpt lat="49.49275" lon="1.12807">
        <ele>158.7</ele>
        <time>2022-04-30T11:47:31Z</time>
      </trkpt>
      <trkpt lat="49.49276" lon="1.12815">
        <ele>158.6</ele>
        <time>2022-04-30T11:47:32Z</time>
      </trkpt>
      <trkpt lat="49.49278" lon="1.12823">
        <ele>158.5</ele>
        <time>2022-04-30T11:47:33Z</time>
      </trkpt>
      <trkpt lat="49.4928" lon="1.1283">
        <ele>158.5</ele>
        <time>2022-04-30T11:47:34Z</time>
      </trkpt>
      <trkpt lat="49.49282" lon="1.12838">
        <ele>158.4</ele>
        <time>2022-04-30T11:47:35Z</time>
      </trkpt>
      <trkpt lat="49.49283" lon="1.12847">
        <ele>158.4</ele>
        <time>2022-04-30T11:47:36Z</time>
      </trkpt>
      <trkpt lat="49.49284" lon="1.12855">
        <ele>158.3</ele>
        <time>2022-04-30T11:47:37Z</time>
      </trkpt>
      <trkpt lat="49.49286" lon="1.12863">
        <ele>158.3</ele>
        <time>2022-04-30T11:47:38Z</time>
      </trkpt>
      <trkpt lat="49.49287" lon="1.1287">
        <ele>158.3</ele>
        <time>2022-04-30T11:47:39Z</time>
      </trkpt>
      <trkpt lat="49.49288" lon="1.12877">
        <ele>158.3</ele>
        <time>2022-04-30T11:47:40Z</time>
      </trkpt>
      <trkpt lat="49.4929" lon="1.12883">
        <ele>158.3</ele>
        <time>2022-04-30T11:47:41Z</time>
      </trkpt>
      <trkpt lat="49.49292" lon="1.12889">
        <ele>158.2</ele>
        <time>2022-04-30T11:47:42Z</time>
      </trkpt>
      <trkpt lat="49.49292" lon="1.12896">
        <ele>158.2</ele>
        <time>2022-04-30T11:47:43Z</time>
      </trkpt>
      <trkpt lat="49.49292" lon="1.12902">
        <ele>158.2</ele>
        <time>2022-04-30T11:47:44Z</time>
      </trkpt>
      <trkpt lat="49.49292" lon="1.12908">
        <ele>158.1</ele>
        <time>2022-04-30T11:47:45Z</time>
      </trkpt>
      <trkpt lat="49.49293" lon="1.12916">
        <ele>158</ele>
        <time>2022-04-30T11:47:46Z</time>
      </trkpt>
      <trkpt lat="49.49294" lon="1.12924">
        <ele>157.9</ele>
        <time>2022-04-30T11:47:47Z</time>
      </trkpt>
      <trkpt lat="49.49295" lon="1.12933">
        <ele>157.8</ele>
        <time>2022-04-30T11:47:48Z</time>
      </trkpt>
      <trkpt lat="49.49297" lon="1.12942">
        <ele>157.7</ele>
        <time>2022-04-30T11:47:49Z</time>
      </trkpt>
      <trkpt lat="49.493" lon="1.12951">
        <ele>157.6</ele>
        <time>2022-04-30T11:47:50Z</time>
      </trkpt>
      <trkpt lat="49.49302" lon="1.1296">
        <ele>157.4</ele>
        <time>2022-04-30T11:47:51Z</time>
      </trkpt>
      <trkpt lat="49.49304" lon="1.1297">
        <ele>157.3</ele>
        <time>2022-04-30T11:47:52Z</time>
      </trkpt>
      <trkpt lat="49.49305" lon="1.12979">
        <ele>157.1</ele>
        <time>2022-04-30T11:47:53Z</time>
      </trkpt>
      <trkpt lat="49.49308" lon="1.12988">
        <ele>157</ele>
        <time>2022-04-30T11:47:54Z</time>
      </trkpt>
      <trkpt lat="49.49312" lon="1.13">
        <ele>156.8</ele>
        <time>2022-04-30T11:47:55Z</time>
      </trkpt>
      <trkpt lat="49.49315" lon="1.13012">
        <ele>156.6</ele>
        <time>2022-04-30T11:47:56Z</time>
      </trkpt>
      <trkpt lat="49.49319" lon="1.13021">
        <ele>156.6</ele>
        <time>2022-04-30T11:47:57Z</time>
      </trkpt>
      <trkpt lat="49.49322" lon="1.1303">
        <ele>156.5</ele>
        <time>2022-04-30T11:47:58Z</time>
      </trkpt>
      <trkpt lat="49.49326" lon="1.13041">
        <ele>156.4</ele>
        <time>2022-04-30T11:47:59Z</time>
      </trkpt>
      <trkpt lat="49.4933" lon="1.13052">
        <ele>156.4</ele>
        <time>2022-04-30T11:48:00Z</time>
      </trkpt>
      <trkpt lat="49.49336" lon="1.13063">
        <ele>156.3</ele>
        <time>2022-04-30T11:48:01Z</time>
      </trkpt>
      <trkpt lat="49.49343" lon="1.13073">
        <ele>156.3</ele>
        <time>2022-04-30T11:48:02Z</time>
      </trkpt>
      <trkpt lat="49.49358" lon="1.13091">
        <ele>156.2</ele>
        <time>2022-04-30T11:48:04Z</time>
      </trkpt>
      <trkpt lat="49.49365" lon="1.131">
        <ele>156.1</ele>
        <time>2022-04-30T11:48:05Z</time>
      </trkpt>
      <trkpt lat="49.4937" lon="1.13108">
        <ele>156.1</ele>
        <time>2022-04-30T11:48:06Z</time>
      </trkpt>
      <trkpt lat="49.49374" lon="1.13116">
        <ele>156</ele>
        <time>2022-04-30T11:48:07Z</time>
      </trkpt>
      <trkpt lat="49.49379" lon="1.13125">
        <ele>155.9</ele>
        <time>2022-04-30T11:48:08Z</time>
      </trkpt>
      <trkpt lat="49.49383" lon="1.13132">
        <ele>155.8</ele>
        <time>2022-04-30T11:48:09Z</time>
      </trkpt>
      <trkpt lat="49.49386" lon="1.13139">
        <ele>155.7</ele>
        <time>2022-04-30T11:48:10Z</time>
      </trkpt>
      <trkpt lat="49.49389" lon="1.13144">
        <ele>155.7</ele>
        <time>2022-04-30T11:48:11Z</time>
      </trkpt>
      <trkpt lat="49.49391" lon="1.13152">
        <ele>155.6</ele>
        <time>2022-04-30T11:48:12Z</time>
      </trkpt>
      <trkpt lat="49.49394" lon="1.13158">
        <ele>155.5</ele>
        <time>2022-04-30T11:48:13Z</time>
      </trkpt>
      <trkpt lat="49.49397" lon="1.13166">
        <ele>155.4</ele>
        <time>2022-04-30T11:48:14Z</time>
      </trkpt>
      <trkpt lat="49.49399" lon="1.13172">
        <ele>155.3</ele>
        <time>2022-04-30T11:48:15Z</time>
      </trkpt>
      <trkpt lat="49.49401" lon="1.13178">
        <ele>155.3</ele>
        <time>2022-04-30T11:48:16Z</time>
      </trkpt>
      <trkpt lat="49.49402" lon="1.13185">
        <ele>155.2</ele>
        <time>2022-04-30T11:48:17Z</time>
      </trkpt>
      <trkpt lat="49.49403" lon="1.13193">
        <ele>155.1</ele>
        <time>2022-04-30T11:48:18Z</time>
      </trkpt>
      <trkpt lat="49.49405" lon="1.13202">
        <ele>154.9</ele>
        <time>2022-04-30T11:48:19Z</time>
      </trkpt>
      <trkpt lat="49.49408" lon="1.1321">
        <ele>154.8</ele>
        <time>2022-04-30T11:48:20Z</time>
      </trkpt>
      <trkpt lat="49.49409" lon="1.13218">
        <ele>154.7</ele>
        <time>2022-04-30T11:48:21Z</time>
      </trkpt>
      <trkpt lat="49.49411" lon="1.13226">
        <ele>154.5</ele>
        <time>2022-04-30T11:48:22Z</time>
      </trkpt>
      <trkpt lat="49.49412" lon="1.13233">
        <ele>154.4</ele>
        <time>2022-04-30T11:48:23Z</time>
      </trkpt>
      <trkpt lat="49.49414" lon="1.13241">
        <ele>154.3</ele>
        <time>2022-04-30T11:48:24Z</time>
      </trkpt>
      <trkpt lat="49.49417" lon="1.13249">
        <ele>154.1</ele>
        <time>2022-04-30T11:48:25Z</time>
      </trkpt>
      <trkpt lat="49.4942" lon="1.13255">
        <ele>154</ele>
        <time>2022-04-30T11:48:26Z</time>
      </trkpt>
      <trkpt lat="49.49423" lon="1.13262">
        <ele>153.9</ele>
        <time>2022-04-30T11:48:27Z</time>
      </trkpt>
      <trkpt lat="49.49426" lon="1.13269">
        <ele>153.8</ele>
        <time>2022-04-30T11:48:28Z</time>
      </trkpt>
      <trkpt lat="49.49429" lon="1.13274">
        <ele>153.7</ele>
        <time>2022-04-30T11:48:29Z</time>
      </trkpt>
      <trkpt lat="49.49432" lon="1.13279">
        <ele>153.6</ele>
        <time>2022-04-30T11:48:30Z</time>
      </trkpt>
      <trkpt lat="49.49436" lon="1.13284">
        <ele>153.5</ele>
        <time>2022-04-30T11:48:31Z</time>
      </trkpt>
      <trkpt lat="49.4944" lon="1.13289">
        <ele>153.5</ele>
        <time>2022-04-30T11:48:32Z</time>
      </trkpt>
      <trkpt lat="49.49443" lon="1.13293">
        <ele>153.4</ele>
        <time>2022-04-30T11:48:33Z</time>
      </trkpt>
      <trkpt lat="49.49446" lon="1.13298">
        <ele>153.3</ele>
        <time>2022-04-30T11:48:34Z</time>
      </trkpt>
      <trkpt lat="49.49448" lon="1.13301">
        <ele>153.3</ele>
        <time>2022-04-30T11:48:35Z</time>
      </trkpt>
      <trkpt lat="49.49449" lon="1.13305">
        <ele>153.3</ele>
        <time>2022-04-30T11:48:36Z</time>
      </trkpt>
      <trkpt lat="49.49452" lon="1.13309">
        <ele>153.2</ele>
        <time>2022-04-30T11:48:37Z</time>
      </trkpt>
      <trkpt lat="49.49454" lon="1.13315">
        <ele>153.2</ele>
        <time>2022-04-30T11:48:38Z</time>
      </trkpt>
      <trkpt lat="49.49457" lon="1.13322">
        <ele>153.1</ele>
        <time>2022-04-30T11:48:39Z</time>
      </trkpt>
      <trkpt lat="49.49461" lon="1.13328">
        <ele>153.1</ele>
        <time>2022-04-30T11:48:40Z</time>
      </trkpt>
      <trkpt lat="49.49464" lon="1.13333">
        <ele>153.1</ele>
        <time>2022-04-30T11:48:41Z</time>
      </trkpt>
      <trkpt lat="49.49467" lon="1.13339">
        <ele>153</ele>
        <time>2022-04-30T11:48:42Z</time>
      </trkpt>
      <trkpt lat="49.4947" lon="1.13343">
        <ele>153</ele>
        <time>2022-04-30T11:48:43Z</time>
      </trkpt>
      <trkpt lat="49.49474" lon="1.13349">
        <ele>153</ele>
        <time>2022-04-30T11:48:44Z</time>
      </trkpt>
      <trkpt lat="49.49478" lon="1.13354">
        <ele>153</ele>
        <time>2022-04-30T11:48:45Z</time>
      </trkpt>
      <trkpt lat="49.49483" lon="1.13358">
        <ele>153</ele>
        <time>2022-04-30T11:48:46Z</time>
      </trkpt>
      <trkpt lat="49.4949" lon="1.13365">
        <ele>153</ele>
        <time>2022-04-30T11:48:47Z</time>
      </trkpt>
      <trkpt lat="49.49497" lon="1.13371">
        <ele>152.9</ele>
        <time>2022-04-30T11:48:48Z</time>
      </trkpt>
      <trkpt lat="49.49506" lon="1.13378">
        <ele>152.9</ele>
        <time>2022-04-30T11:48:49Z</time>
      </trkpt>
      <trkpt lat="49.49522" lon="1.13389">
        <ele>152.8</ele>
        <time>2022-04-30T11:48:50Z</time>
      </trkpt>
      <trkpt lat="49.49522" lon="1.13388">
        <ele>152.8</ele>
        <time>2022-04-30T11:48:51Z</time>
      </trkpt>
      <trkpt lat="49.49525" lon="1.13389">
        <ele>152.8</ele>
        <time>2022-04-30T11:48:52Z</time>
      </trkpt>
      <trkpt lat="49.49534" lon="1.13395">
        <ele>152.7</ele>
        <time>2022-04-30T11:48:53Z</time>
      </trkpt>
      <trkpt lat="49.4954" lon="1.134">
        <ele>152.6</ele>
        <time>2022-04-30T11:48:54Z</time>
      </trkpt>
      <trkpt lat="49.49547" lon="1.13404">
        <ele>152.5</ele>
        <time>2022-04-30T11:48:55Z</time>
      </trkpt>
      <trkpt lat="49.49556" lon="1.13409">
        <ele>152.4</ele>
        <time>2022-04-30T11:48:56Z</time>
      </trkpt>
      <trkpt lat="49.49565" lon="1.13412">
        <ele>152.3</ele>
        <time>2022-04-30T11:48:57Z</time>
      </trkpt>
      <trkpt lat="49.49574" lon="1.13416">
        <ele>152.2</ele>
        <time>2022-04-30T11:48:58Z</time>
      </trkpt>
      <trkpt lat="49.49584" lon="1.1342">
        <ele>152.2</ele>
        <time>2022-04-30T11:48:59Z</time>
      </trkpt>
      <trkpt lat="49.49595" lon="1.13425">
        <ele>152.1</ele>
        <time>2022-04-30T11:49:00Z</time>
      </trkpt>
      <trkpt lat="49.49602" lon="1.13427">
        <ele>152.1</ele>
        <time>2022-04-30T11:49:01Z</time>
      </trkpt>
      <trkpt lat="49.49609" lon="1.13431">
        <ele>152.1</ele>
        <time>2022-04-30T11:49:02Z</time>
      </trkpt>
      <trkpt lat="49.49616" lon="1.13435">
        <ele>152</ele>
        <time>2022-04-30T11:49:03Z</time>
      </trkpt>
      <trkpt lat="49.49623" lon="1.13439">
        <ele>152</ele>
        <time>2022-04-30T11:49:04Z</time>
      </trkpt>
      <trkpt lat="49.49629" lon="1.13442">
        <ele>152</ele>
        <time>2022-04-30T11:49:05Z</time>
      </trkpt>
      <trkpt lat="49.49635" lon="1.13445">
        <ele>151.9</ele>
        <time>2022-04-30T11:49:06Z</time>
      </trkpt>
      <trkpt lat="49.4964" lon="1.13447">
        <ele>151.9</ele>
        <time>2022-04-30T11:49:07Z</time>
      </trkpt>
      <trkpt lat="49.49647" lon="1.13452">
        <ele>151.8</ele>
        <time>2022-04-30T11:49:08Z</time>
      </trkpt>
      <trkpt lat="49.49654" lon="1.13457">
        <ele>151.7</ele>
        <time>2022-04-30T11:49:09Z</time>
      </trkpt>
      <trkpt lat="49.4966" lon="1.13462">
        <ele>151.7</ele>
        <time>2022-04-30T11:49:10Z</time>
      </trkpt>
      <trkpt lat="49.49665" lon="1.13466">
        <ele>151.6</ele>
        <time>2022-04-30T11:49:11Z</time>
      </trkpt>
      <trkpt lat="49.4967" lon="1.1347">
        <ele>151.5</ele>
        <time>2022-04-30T11:49:12Z</time>
      </trkpt>
      <trkpt lat="49.49675" lon="1.13474">
        <ele>151.4</ele>
        <time>2022-04-30T11:49:13Z</time>
      </trkpt>
      <trkpt lat="49.49679" lon="1.13477">
        <ele>151.4</ele>
        <time>2022-04-30T11:49:14Z</time>
      </trkpt>
      <trkpt lat="49.49682" lon="1.1348">
        <ele>151.3</ele>
        <time>2022-04-30T11:49:15Z</time>
      </trkpt>
      <trkpt lat="49.49686" lon="1.13485">
        <ele>151.3</ele>
        <time>2022-04-30T11:49:16Z</time>
      </trkpt>
      <trkpt lat="49.4969" lon="1.13487">
        <ele>151.2</ele>
        <time>2022-04-30T11:49:17Z</time>
      </trkpt>
      <trkpt lat="49.49696" lon="1.1349">
        <ele>151.1</ele>
        <time>2022-04-30T11:49:18Z</time>
      </trkpt>
      <trkpt lat="49.49702" lon="1.13493">
        <ele>151</ele>
        <time>2022-04-30T11:49:19Z</time>
      </trkpt>
      <trkpt lat="49.49706" lon="1.13498">
        <ele>150.9</ele>
        <time>2022-04-30T11:49:20Z</time>
      </trkpt>
      <trkpt lat="49.4971" lon="1.13502">
        <ele>150.8</ele>
        <time>2022-04-30T11:49:21Z</time>
      </trkpt>
      <trkpt lat="49.49715" lon="1.13508">
        <ele>150.6</ele>
        <time>2022-04-30T11:49:22Z</time>
      </trkpt>
      <trkpt lat="49.49718" lon="1.1351">
        <ele>150.5</ele>
        <time>2022-04-30T11:49:23Z</time>
      </trkpt>
      <trkpt lat="49.49721" lon="1.13513">
        <ele>150.5</ele>
        <time>2022-04-30T11:49:24Z</time>
      </trkpt>
      <trkpt lat="49.49723" lon="1.13515">
        <ele>150.4</ele>
        <time>2022-04-30T11:49:25Z</time>
      </trkpt>
      <trkpt lat="49.49726" lon="1.13517">
        <ele>150.3</ele>
        <time>2022-04-30T11:49:26Z</time>
      </trkpt>
      <trkpt lat="49.49729" lon="1.13518">
        <ele>150.2</ele>
        <time>2022-04-30T11:49:27Z</time>
      </trkpt>
      <trkpt lat="49.49733" lon="1.13521">
        <ele>150.1</ele>
        <time>2022-04-30T11:49:28Z</time>
      </trkpt>
      <trkpt lat="49.49737" lon="1.13522">
        <ele>150</ele>
        <time>2022-04-30T11:49:29Z</time>
      </trkpt>
      <trkpt lat="49.49741" lon="1.13522">
        <ele>149.9</ele>
        <time>2022-04-30T11:49:30Z</time>
      </trkpt>
      <trkpt lat="49.49742" lon="1.13521">
        <ele>149.9</ele>
        <time>2022-04-30T11:49:31Z</time>
      </trkpt>
      <trkpt lat="49.49744" lon="1.13518">
        <ele>149.8</ele>
        <time>2022-04-30T11:49:32Z</time>
      </trkpt>
      <trkpt lat="49.49747" lon="1.13514">
        <ele>149</ele>
        <time>2022-04-30T11:49:33Z</time>
      </trkpt>
      <trkpt lat="49.4975" lon="1.13509">
        <ele>149</ele>
        <time>2022-04-30T11:49:34Z</time>
      </trkpt>
      <trkpt lat="49.49753" lon="1.13504">
        <ele>149</ele>
        <time>2022-04-30T11:49:35Z</time>
      </trkpt>
      <trkpt lat="49.49757" lon="1.13497">
        <ele>149</ele>
        <time>2022-04-30T11:49:36Z</time>
      </trkpt>
      <trkpt lat="49.49759" lon="1.1349">
        <ele>149</ele>
        <time>2022-04-30T11:49:37Z</time>
      </trkpt>
      <trkpt lat="49.49761" lon="1.13483">
        <ele>149.1</ele>
        <time>2022-04-30T11:49:38Z</time>
      </trkpt>
      <trkpt lat="49.49761" lon="1.13477">
        <ele>149.1</ele>
        <time>2022-04-30T11:49:39Z</time>
      </trkpt>
      <trkpt lat="49.49761" lon="1.13475">
        <ele>149.1</ele>
        <time>2022-04-30T11:49:40Z</time>
      </trkpt>
      <trkpt lat="49.49761" lon="1.1347">
        <ele>149.1</ele>
        <time>2022-04-30T11:49:41Z</time>
      </trkpt>
      <trkpt lat="49.49762" lon="1.13466">
        <ele>149.2</ele>
        <time>2022-04-30T11:49:42Z</time>
      </trkpt>
      <trkpt lat="49.49764" lon="1.1346">
        <ele>149.2</ele>
        <time>2022-04-30T11:49:43Z</time>
      </trkpt>
      <trkpt lat="49.49765" lon="1.13458">
        <ele>149.2</ele>
        <time>2022-04-30T11:49:44Z</time>
      </trkpt>
      <trkpt lat="49.49767" lon="1.13453">
        <ele>149.2</ele>
        <time>2022-04-30T11:49:45Z</time>
      </trkpt>
      <trkpt lat="49.4977" lon="1.13447">
        <ele>149.2</ele>
        <time>2022-04-30T11:49:46Z</time>
      </trkpt>
      <trkpt lat="49.49772" lon="1.13442">
        <ele>149.2</ele>
        <time>2022-04-30T11:49:47Z</time>
      </trkpt>
      <trkpt lat="49.49774" lon="1.13436">
        <ele>149.2</ele>
        <time>2022-04-30T11:49:48Z</time>
      </trkpt>
      <trkpt lat="49.49776" lon="1.1343">
        <ele>149.2</ele>
        <time>2022-04-30T11:49:49Z</time>
      </trkpt>
      <trkpt lat="49.49777" lon="1.13426">
        <ele>149.2</ele>
        <time>2022-04-30T11:49:50Z</time>
      </trkpt>
      <trkpt lat="49.49777" lon="1.13421">
        <ele>149.2</ele>
        <time>2022-04-30T11:49:51Z</time>
      </trkpt>
      <trkpt lat="49.49776" lon="1.13415">
        <ele>149.2</ele>
        <time>2022-04-30T11:49:52Z</time>
      </trkpt>
      <trkpt lat="49.49778" lon="1.13409">
        <ele>149.2</ele>
        <time>2022-04-30T11:49:53Z</time>
      </trkpt>
      <trkpt lat="49.49779" lon="1.13403">
        <ele>149.2</ele>
        <time>2022-04-30T11:49:54Z</time>
      </trkpt>
      <trkpt lat="49.4978" lon="1.13398">
        <ele>149.2</ele>
        <time>2022-04-30T11:49:55Z</time>
      </trkpt>
      <trkpt lat="49.4978" lon="1.13393">
        <ele>149.2</ele>
        <time>2022-04-30T11:49:56Z</time>
      </trkpt>
      <trkpt lat="49.4978" lon="1.13388">
        <ele>149.2</ele>
        <time>2022-04-30T11:49:57Z</time>
      </trkpt>
      <trkpt lat="49.49779" lon="1.13381">
        <ele>149.2</ele>
        <time>2022-04-30T11:49:58Z</time>
      </trkpt>
      <trkpt lat="49.4978" lon="1.13377">
        <ele>149.2</ele>
        <time>2022-04-30T11:49:59Z</time>
      </trkpt>
      <trkpt lat="49.49782" lon="1.13372">
        <ele>149.2</ele>
        <time>2022-04-30T11:50:00Z</time>
      </trkpt>
      <trkpt lat="49.49783" lon="1.1337">
        <ele>149.2</ele>
        <time>2022-04-30T11:50:01Z</time>
      </trkpt>
      <trkpt lat="49.49784" lon="1.13364">
        <ele>149.2</ele>
        <time>2022-04-30T11:50:02Z</time>
      </trkpt>
      <trkpt lat="49.49785" lon="1.13358">
        <ele>149.1</ele>
        <time>2022-04-30T11:50:03Z</time>
      </trkpt>
      <trkpt lat="49.49785" lon="1.13355">
        <ele>149.1</ele>
        <time>2022-04-30T11:50:04Z</time>
      </trkpt>
      <trkpt lat="49.49786" lon="1.13354">
        <ele>149.1</ele>
        <time>2022-04-30T11:50:05Z</time>
      </trkpt>
      <trkpt lat="49.49787" lon="1.13352">
        <ele>149.1</ele>
        <time>2022-04-30T11:50:06Z</time>
      </trkpt>
      <trkpt lat="49.49787" lon="1.1335">
        <ele>149.1</ele>
        <time>2022-04-30T11:50:07Z</time>
      </trkpt>
      <trkpt lat="49.49788" lon="1.13348">
        <ele>149.1</ele>
        <time>2022-04-30T11:50:08Z</time>
      </trkpt>
      <trkpt lat="49.49788" lon="1.13347">
        <ele>149.1</ele>
        <time>2022-04-30T11:50:09Z</time>
      </trkpt>
      <trkpt lat="49.49789" lon="1.13345">
        <ele>149.1</ele>
        <time>2022-04-30T11:50:10Z</time>
      </trkpt>
      <trkpt lat="49.4979" lon="1.13344">
        <ele>149.1</ele>
        <time>2022-04-30T11:50:11Z</time>
      </trkpt>
      <trkpt lat="49.49793" lon="1.13335">
        <ele>149.1</ele>
        <time>2022-04-30T11:50:12Z</time>
      </trkpt>
      <trkpt lat="49.49794" lon="1.13332">
        <ele>149.1</ele>
        <time>2022-04-30T11:50:13Z</time>
      </trkpt>
      <trkpt lat="49.49795" lon="1.1333">
        <ele>149.1</ele>
        <time>2022-04-30T11:50:14Z</time>
      </trkpt>
      <trkpt lat="49.49797" lon="1.13325">
        <ele>149.1</ele>
        <time>2022-04-30T11:50:15Z</time>
      </trkpt>
      <trkpt lat="49.49797" lon="1.13325">
        <ele>149.1</ele>
        <time>2022-04-30T11:50:15Z</time>
      </trkpt>
      <trkpt lat="49.49799" lon="1.13317">
        <ele>149.1</ele>
        <time>2022-04-30T11:50:16Z</time>
      </trkpt>
      <trkpt lat="49.49804" lon="1.13307">
        <ele>149.1</ele>
        <time>2022-04-30T11:50:17Z</time>
      </trkpt>
      <trkpt lat="49.49807" lon="1.13299">
        <ele>149.2</ele>
        <time>2022-04-30T11:50:18Z</time>
      </trkpt>
      <trkpt lat="49.4981" lon="1.13292">
        <ele>149.2</ele>
        <time>2022-04-30T11:50:19Z</time>
      </trkpt>
      <trkpt lat="49.49812" lon="1.13285">
        <ele>149.3</ele>
        <time>2022-04-30T11:50:20Z</time>
      </trkpt>
      <trkpt lat="49.49815" lon="1.1328">
        <ele>149.3</ele>
        <time>2022-04-30T11:50:21Z</time>
      </trkpt>
      <trkpt lat="49.49817" lon="1.13274">
        <ele>149.3</ele>
        <time>2022-04-30T11:50:22Z</time>
      </trkpt>
      <trkpt lat="49.49818" lon="1.1327">
        <ele>149.3</ele>
        <time>2022-04-30T11:50:23Z</time>
      </trkpt>
      <trkpt lat="49.49819" lon="1.13267">
        <ele>149.3</ele>
        <time>2022-04-30T11:50:24Z</time>
      </trkpt>
      <trkpt lat="49.49821" lon="1.13263">
        <ele>149.3</ele>
        <time>2022-04-30T11:50:25Z</time>
      </trkpt>
      <trkpt lat="49.49823" lon="1.13258">
        <ele>149.3</ele>
        <time>2022-04-30T11:50:26Z</time>
      </trkpt>
      <trkpt lat="49.49825" lon="1.13253">
        <ele>149.3</ele>
        <time>2022-04-30T11:50:27Z</time>
      </trkpt>
      <trkpt lat="49.49826" lon="1.13248">
        <ele>149.3</ele>
        <time>2022-04-30T11:50:28Z</time>
      </trkpt>
      <trkpt lat="49.49828" lon="1.13244">
        <ele>149.3</ele>
        <time>2022-04-30T11:50:29Z</time>
      </trkpt>
      <trkpt lat="49.49829" lon="1.13239">
        <ele>149.3</ele>
        <time>2022-04-30T11:50:30Z</time>
      </trkpt>
      <trkpt lat="49.4983" lon="1.13234">
        <ele>149.2</ele>
        <time>2022-04-30T11:50:31Z</time>
      </trkpt>
      <trkpt lat="49.49832" lon="1.13227">
        <ele>149.2</ele>
        <time>2022-04-30T11:50:32Z</time>
      </trkpt>
      <trkpt lat="49.49833" lon="1.1322">
        <ele>149.1</ele>
        <time>2022-04-30T11:50:33Z</time>
      </trkpt>
      <trkpt lat="49.49834" lon="1.13214">
        <ele>149.1</ele>
        <time>2022-04-30T11:50:34Z</time>
      </trkpt>
      <trkpt lat="49.49835" lon="1.13209">
        <ele>149</ele>
        <time>2022-04-30T11:50:35Z</time>
      </trkpt>
      <trkpt lat="49.49838" lon="1.13197">
        <ele>148.9</ele>
        <time>2022-04-30T11:50:36Z</time>
      </trkpt>
      <trkpt lat="49.49841" lon="1.13185">
        <ele>148.7</ele>
        <time>2022-04-30T11:50:37Z</time>
      </trkpt>
      <trkpt lat="49.49844" lon="1.13175">
        <ele>148.5</ele>
        <time>2022-04-30T11:50:38Z</time>
      </trkpt>
      <trkpt lat="49.49846" lon="1.13162">
        <ele>148.2</ele>
        <time>2022-04-30T11:50:39Z</time>
      </trkpt>
      <trkpt lat="49.49848" lon="1.13151">
        <ele>148</ele>
        <time>2022-04-30T11:50:40Z</time>
      </trkpt>
      <trkpt lat="49.4985" lon="1.13143">
        <ele>147.8</ele>
        <time>2022-04-30T11:50:41Z</time>
      </trkpt>
      <trkpt lat="49.49851" lon="1.13136">
        <ele>147.7</ele>
        <time>2022-04-30T11:50:42Z</time>
      </trkpt>
      <trkpt lat="49.49852" lon="1.13127">
        <ele>147.5</ele>
        <time>2022-04-30T11:50:43Z</time>
      </trkpt>
      <trkpt lat="49.49854" lon="1.13119">
        <ele>147.3</ele>
        <time>2022-04-30T11:50:44Z</time>
      </trkpt>
      <trkpt lat="49.49855" lon="1.1311">
        <ele>147.1</ele>
        <time>2022-04-30T11:50:45Z</time>
      </trkpt>
      <trkpt lat="49.49856" lon="1.13105">
        <ele>146.9</ele>
        <time>2022-04-30T11:50:46Z</time>
      </trkpt>
      <trkpt lat="49.49856" lon="1.13099">
        <ele>146.8</ele>
        <time>2022-04-30T11:50:47Z</time>
      </trkpt>
      <trkpt lat="49.49857" lon="1.13095">
        <ele>146.7</ele>
        <time>2022-04-30T11:50:48Z</time>
      </trkpt>
      <trkpt lat="49.49858" lon="1.1309">
        <ele>146.6</ele>
        <time>2022-04-30T11:50:49Z</time>
      </trkpt>
      <trkpt lat="49.49859" lon="1.13083">
        <ele>146.4</ele>
        <time>2022-04-30T11:50:50Z</time>
      </trkpt>
      <trkpt lat="49.4986" lon="1.13073">
        <ele>146.2</ele>
        <time>2022-04-30T11:50:51Z</time>
      </trkpt>
      <trkpt lat="49.49858" lon="1.13048">
        <ele>145.5</ele>
        <time>2022-04-30T11:50:52Z</time>
      </trkpt>
      <trkpt lat="49.49858" lon="1.13029">
        <ele>144.9</ele>
        <time>2022-04-30T11:50:53Z</time>
      </trkpt>
      <trkpt lat="49.49857" lon="1.13012">
        <ele>144.1</ele>
        <time>2022-04-30T11:50:54Z</time>
      </trkpt>
      <trkpt lat="49.49857" lon="1.12995">
        <ele>143.3</ele>
        <time>2022-04-30T11:50:55Z</time>
      </trkpt>
      <trkpt lat="49.49856" lon="1.12985">
        <ele>142.8</ele>
        <time>2022-04-30T11:50:56Z</time>
      </trkpt>
      <trkpt lat="49.49857" lon="1.12978">
        <ele>142.4</ele>
        <time>2022-04-30T11:50:57Z</time>
      </trkpt>
      <trkpt lat="49.49857" lon="1.12973">
        <ele>142.2</ele>
        <time>2022-04-30T11:50:58Z</time>
      </trkpt>
      <trkpt lat="49.49857" lon="1.1297">
        <ele>142</ele>
        <time>2022-04-30T11:50:59Z</time>
      </trkpt>
      <trkpt lat="49.49857" lon="1.12968">
        <ele>141.9</ele>
        <time>2022-04-30T11:51:00Z</time>
      </trkpt>
      <trkpt lat="49.4986" lon="1.12955">
        <ele>141.2</ele>
        <time>2022-04-30T11:51:01Z</time>
      </trkpt>
      <trkpt lat="49.49863" lon="1.12945">
        <ele>140.5</ele>
        <time>2022-04-30T11:51:02Z</time>
      </trkpt>
      <trkpt lat="49.49866" lon="1.12934">
        <ele>139.8</ele>
        <time>2022-04-30T11:51:03Z</time>
      </trkpt>
      <trkpt lat="49.49869" lon="1.12923">
        <ele>139.1</ele>
        <time>2022-04-30T11:51:04Z</time>
      </trkpt>
      <trkpt lat="49.49872" lon="1.12909">
        <ele>138.4</ele>
        <time>2022-04-30T11:51:05Z</time>
      </trkpt>
      <trkpt lat="49.49875" lon="1.12891">
        <ele>137.9</ele>
        <time>2022-04-30T11:51:06Z</time>
      </trkpt>
      <trkpt lat="49.49877" lon="1.12873">
        <ele>137.7</ele>
        <time>2022-04-30T11:51:07Z</time>
      </trkpt>
      <trkpt lat="49.49878" lon="1.12856">
        <ele>137.7</ele>
        <time>2022-04-30T11:51:08Z</time>
      </trkpt>
      <trkpt lat="49.4988" lon="1.12844">
        <ele>137.8</ele>
        <time>2022-04-30T11:51:09Z</time>
      </trkpt>
      <trkpt lat="49.49881" lon="1.1283">
        <ele>137.8</ele>
        <time>2022-04-30T11:51:10Z</time>
      </trkpt>
      <trkpt lat="49.49882" lon="1.12817">
        <ele>137.6</ele>
        <time>2022-04-30T11:51:11Z</time>
      </trkpt>
      <trkpt lat="49.49883" lon="1.12804">
        <ele>137.3</ele>
        <time>2022-04-30T11:51:12Z</time>
      </trkpt>
      <trkpt lat="49.49884" lon="1.12794">
        <ele>137</ele>
        <time>2022-04-30T11:51:13Z</time>
      </trkpt>
      <trkpt lat="49.49885" lon="1.12786">
        <ele>136.7</ele>
        <time>2022-04-30T11:51:14Z</time>
      </trkpt>
      <trkpt lat="49.49888" lon="1.12778">
        <ele>136.5</ele>
        <time>2022-04-30T11:51:15Z</time>
      </trkpt>
      <trkpt lat="49.4989" lon="1.12767">
        <ele>136.2</ele>
        <time>2022-04-30T11:51:16Z</time>
      </trkpt>
      <trkpt lat="49.49892" lon="1.12755">
        <ele>136</ele>
        <time>2022-04-30T11:51:17Z</time>
      </trkpt>
      <trkpt lat="49.49893" lon="1.12744">
        <ele>135.9</ele>
        <time>2022-04-30T11:51:18Z</time>
      </trkpt>
      <trkpt lat="49.49894" lon="1.12735">
        <ele>136</ele>
        <time>2022-04-30T11:51:19Z</time>
      </trkpt>
      <trkpt lat="49.49895" lon="1.12728">
        <ele>136</ele>
        <time>2022-04-30T11:51:20Z</time>
      </trkpt>
      <trkpt lat="49.49896" lon="1.12724">
        <ele>136</ele>
        <time>2022-04-30T11:51:21Z</time>
      </trkpt>
      <trkpt lat="49.49897" lon="1.1272">
        <ele>136.1</ele>
        <time>2022-04-30T11:51:22Z</time>
      </trkpt>
      <trkpt lat="49.499" lon="1.12715">
        <ele>136.1</ele>
        <time>2022-04-30T11:51:23Z</time>
      </trkpt>
      <trkpt lat="49.49901" lon="1.12711">
        <ele>136.2</ele>
        <time>2022-04-30T11:51:24Z</time>
      </trkpt>
      <trkpt lat="49.49903" lon="1.12707">
        <ele>136.2</ele>
        <time>2022-04-30T11:51:25Z</time>
      </trkpt>
      <trkpt lat="49.49904" lon="1.127">
        <ele>136.2</ele>
        <time>2022-04-30T11:51:26Z</time>
      </trkpt>
      <trkpt lat="49.49907" lon="1.12693">
        <ele>136.1</ele>
        <time>2022-04-30T11:51:27Z</time>
      </trkpt>
      <trkpt lat="49.49909" lon="1.12684">
        <ele>135.9</ele>
        <time>2022-04-30T11:51:28Z</time>
      </trkpt>
      <trkpt lat="49.49911" lon="1.12671">
        <ele>135.4</ele>
        <time>2022-04-30T11:51:29Z</time>
      </trkpt>
      <trkpt lat="49.49916" lon="1.12656">
        <ele>134.1</ele>
        <time>2022-04-30T11:51:30Z</time>
      </trkpt>
      <trkpt lat="49.4992" lon="1.12642">
        <ele>132.4</ele>
        <time>2022-04-30T11:51:31Z</time>
      </trkpt>
      <trkpt lat="49.49923" lon="1.12628">
        <ele>130.9</ele>
        <time>2022-04-30T11:51:32Z</time>
      </trkpt>
      <trkpt lat="49.49924" lon="1.12616">
        <ele>130</ele>
        <time>2022-04-30T11:51:33Z</time>
      </trkpt>
      <trkpt lat="49.49926" lon="1.12603">
        <ele>129.8</ele>
        <time>2022-04-30T11:51:34Z</time>
      </trkpt>
      <trkpt lat="49.49928" lon="1.12593">
        <ele>129.9</ele>
        <time>2022-04-30T11:51:35Z</time>
      </trkpt>
      <trkpt lat="49.49929" lon="1.12586">
        <ele>130.1</ele>
        <time>2022-04-30T11:51:36Z</time>
      </trkpt>
      <trkpt lat="49.49931" lon="1.12578">
        <ele>130.4</ele>
        <time>2022-04-30T11:51:37Z</time>
      </trkpt>
      <trkpt lat="49.49932" lon="1.1257">
        <ele>130.9</ele>
        <time>2022-04-30T11:51:38Z</time>
      </trkpt>
      <trkpt lat="49.49932" lon="1.12563">
        <ele>131.5</ele>
        <time>2022-04-30T11:51:39Z</time>
      </trkpt>
      <trkpt lat="49.49933" lon="1.12558">
        <ele>131.9</ele>
        <time>2022-04-30T11:51:40Z</time>
      </trkpt>
      <trkpt lat="49.49934" lon="1.12552">
        <ele>132.5</ele>
        <time>2022-04-30T11:51:41Z</time>
      </trkpt>
      <trkpt lat="49.49934" lon="1.1255">
        <ele>132.6</ele>
        <time>2022-04-30T11:51:42Z</time>
      </trkpt>
      <trkpt lat="49.49934" lon="1.12546">
        <ele>133</ele>
        <time>2022-04-30T11:51:43Z</time>
      </trkpt>
      <trkpt lat="49.49934" lon="1.12545">
        <ele>133.2</ele>
        <time>2022-04-30T11:51:44Z</time>
      </trkpt>
      <trkpt lat="49.49935" lon="1.1254">
        <ele>133.6</ele>
        <time>2022-04-30T11:51:45Z</time>
      </trkpt>
      <trkpt lat="49.49936" lon="1.12534">
        <ele>134.1</ele>
        <time>2022-04-30T11:51:46Z</time>
      </trkpt>
      <trkpt lat="49.49936" lon="1.12528">
        <ele>134.6</ele>
        <time>2022-04-30T11:51:47Z</time>
      </trkpt>
      <trkpt lat="49.49937" lon="1.12522">
        <ele>135</ele>
        <time>2022-04-30T11:51:48Z</time>
      </trkpt>
      <trkpt lat="49.49937" lon="1.12517">
        <ele>135.3</ele>
        <time>2022-04-30T11:51:49Z</time>
      </trkpt>
      <trkpt lat="49.49937" lon="1.12511">
        <ele>135.5</ele>
        <time>2022-04-30T11:51:50Z</time>
      </trkpt>
      <trkpt lat="49.49938" lon="1.12506">
        <ele>135.7</ele>
        <time>2022-04-30T11:51:51Z</time>
      </trkpt>
      <trkpt lat="49.49938" lon="1.12502">
        <ele>135.8</ele>
        <time>2022-04-30T11:51:52Z</time>
      </trkpt>
      <trkpt lat="49.49938" lon="1.12496">
        <ele>135.9</ele>
        <time>2022-04-30T11:51:53Z</time>
      </trkpt>
      <trkpt lat="49.49939" lon="1.12491">
        <ele>135.9</ele>
        <time>2022-04-30T11:51:54Z</time>
      </trkpt>
      <trkpt lat="49.4994" lon="1.12486">
        <ele>135.9</ele>
        <time>2022-04-30T11:51:55Z</time>
      </trkpt>
      <trkpt lat="49.4994" lon="1.12481">
        <ele>135.8</ele>
        <time>2022-04-30T11:51:56Z</time>
      </trkpt>
      <trkpt lat="49.49941" lon="1.12469">
        <ele>135.7</ele>
        <time>2022-04-30T11:51:57Z</time>
      </trkpt>
      <trkpt lat="49.49942" lon="1.12462">
        <ele>135.5</ele>
        <time>2022-04-30T11:51:58Z</time>
      </trkpt>
      <trkpt lat="49.49942" lon="1.12455">
        <ele>135.4</ele>
        <time>2022-04-30T11:51:59Z</time>
      </trkpt>
      <trkpt lat="49.49943" lon="1.1245">
        <ele>135.2</ele>
        <time>2022-04-30T11:52:00Z</time>
      </trkpt>
      <trkpt lat="49.49944" lon="1.12443">
        <ele>135.1</ele>
        <time>2022-04-30T11:52:01Z</time>
      </trkpt>
      <trkpt lat="49.49945" lon="1.12438">
        <ele>135.1</ele>
        <time>2022-04-30T11:52:02Z</time>
      </trkpt>
      <trkpt lat="49.49945" lon="1.12435">
        <ele>135</ele>
        <time>2022-04-30T11:52:03Z</time>
      </trkpt>
      <trkpt lat="49.49946" lon="1.12433">
        <ele>135</ele>
        <time>2022-04-30T11:52:04Z</time>
      </trkpt>
      <trkpt lat="49.49947" lon="1.12429">
        <ele>135</ele>
        <time>2022-04-30T11:52:05Z</time>
      </trkpt>
      <trkpt lat="49.49948" lon="1.12424">
        <ele>135.1</ele>
        <time>2022-04-30T11:52:06Z</time>
      </trkpt>
      <trkpt lat="49.49948" lon="1.12422">
        <ele>135.1</ele>
        <time>2022-04-30T11:52:07Z</time>
      </trkpt>
      <trkpt lat="49.4995" lon="1.12418">
        <ele>135.2</ele>
        <time>2022-04-30T11:52:08Z</time>
      </trkpt>
      <trkpt lat="49.4995" lon="1.12415">
        <ele>135.3</ele>
        <time>2022-04-30T11:52:09Z</time>
      </trkpt>
      <trkpt lat="49.49951" lon="1.12413">
        <ele>135.3</ele>
        <time>2022-04-30T11:52:10Z</time>
      </trkpt>
      <trkpt lat="49.49951" lon="1.12411">
        <ele>135.4</ele>
        <time>2022-04-30T11:52:11Z</time>
      </trkpt>
      <trkpt lat="49.49951" lon="1.12409">
        <ele>135.4</ele>
        <time>2022-04-30T11:52:12Z</time>
      </trkpt>
      <trkpt lat="49.49952" lon="1.12408">
        <ele>135.5</ele>
        <time>2022-04-30T11:52:13Z</time>
      </trkpt>
      <trkpt lat="49.49952" lon="1.12406">
        <ele>135.6</ele>
        <time>2022-04-30T11:52:14Z</time>
      </trkpt>
      <trkpt lat="49.49952" lon="1.12404">
        <ele>135.6</ele>
        <time>2022-04-30T11:52:15Z</time>
      </trkpt>
      <trkpt lat="49.49954" lon="1.12394">
        <ele>136.1</ele>
        <time>2022-04-30T11:52:16Z</time>
      </trkpt>
      <trkpt lat="49.49955" lon="1.12387">
        <ele>136.5</ele>
        <time>2022-04-30T11:52:17Z</time>
      </trkpt>
      <trkpt lat="49.49956" lon="1.12381">
        <ele>136.8</ele>
        <time>2022-04-30T11:52:18Z</time>
      </trkpt>
      <trkpt lat="49.49957" lon="1.12376">
        <ele>137.1</ele>
        <time>2022-04-30T11:52:19Z</time>
      </trkpt>
      <trkpt lat="49.49959" lon="1.12372">
        <ele>137.3</ele>
        <time>2022-04-30T11:52:20Z</time>
      </trkpt>
      <trkpt lat="49.4996" lon="1.12367">
        <ele>137.6</ele>
        <time>2022-04-30T11:52:21Z</time>
      </trkpt>
      <trkpt lat="49.4996" lon="1.12363">
        <ele>137.8</ele>
        <time>2022-04-30T11:52:22Z</time>
      </trkpt>
      <trkpt lat="49.49961" lon="1.12359">
        <ele>138</ele>
        <time>2022-04-30T11:52:23Z</time>
      </trkpt>
      <trkpt lat="49.49961" lon="1.12354">
        <ele>138.1</ele>
        <time>2022-04-30T11:52:24Z</time>
      </trkpt>
      <trkpt lat="49.49961" lon="1.12351">
        <ele>138.3</ele>
        <time>2022-04-30T11:52:25Z</time>
      </trkpt>
      <trkpt lat="49.49962" lon="1.12349">
        <ele>138.4</ele>
        <time>2022-04-30T11:52:26Z</time>
      </trkpt>
      <trkpt lat="49.49962" lon="1.12347">
        <ele>138.5</ele>
        <time>2022-04-30T11:52:27Z</time>
      </trkpt>
      <trkpt lat="49.49962" lon="1.12345">
        <ele>138.5</ele>
        <time>2022-04-30T11:52:28Z</time>
      </trkpt>
      <trkpt lat="49.49962" lon="1.1234">
        <ele>138.7</ele>
        <time>2022-04-30T11:52:29Z</time>
      </trkpt>
      <trkpt lat="49.49963" lon="1.12333">
        <ele>139</ele>
        <time>2022-04-30T11:52:30Z</time>
      </trkpt>
      <trkpt lat="49.49964" lon="1.12326">
        <ele>139.3</ele>
        <time>2022-04-30T11:52:31Z</time>
      </trkpt>
      <trkpt lat="49.49964" lon="1.1232">
        <ele>139.5</ele>
        <time>2022-04-30T11:52:32Z</time>
      </trkpt>
      <trkpt lat="49.49965" lon="1.12313">
        <ele>139.7</ele>
        <time>2022-04-30T11:52:33Z</time>
      </trkpt>
      <trkpt lat="49.49966" lon="1.12306">
        <ele>139.9</ele>
        <time>2022-04-30T11:52:34Z</time>
      </trkpt>
      <trkpt lat="49.49967" lon="1.123">
        <ele>140.1</ele>
        <time>2022-04-30T11:52:35Z</time>
      </trkpt>
      <trkpt lat="49.49968" lon="1.12294">
        <ele>140.3</ele>
        <time>2022-04-30T11:52:36Z</time>
      </trkpt>
      <trkpt lat="49.49969" lon="1.12289">
        <ele>140.4</ele>
        <time>2022-04-30T11:52:37Z</time>
      </trkpt>
      <trkpt lat="49.49971" lon="1.12283">
        <ele>140.6</ele>
        <time>2022-04-30T11:52:38Z</time>
      </trkpt>
      <trkpt lat="49.49972" lon="1.12278">
        <ele>140.7</ele>
        <time>2022-04-30T11:52:39Z</time>
      </trkpt>
      <trkpt lat="49.49973" lon="1.12273">
        <ele>140.7</ele>
        <time>2022-04-30T11:52:40Z</time>
      </trkpt>
      <trkpt lat="49.49974" lon="1.12269">
        <ele>140.8</ele>
        <time>2022-04-30T11:52:41Z</time>
      </trkpt>
      <trkpt lat="49.49975" lon="1.12267">
        <ele>140.8</ele>
        <time>2022-04-30T11:52:42Z</time>
      </trkpt>
      <trkpt lat="49.49976" lon="1.12263">
        <ele>140.8</ele>
        <time>2022-04-30T11:52:43Z</time>
      </trkpt>
      <trkpt lat="49.49976" lon="1.12262">
        <ele>140.8</ele>
        <time>2022-04-30T11:52:44Z</time>
      </trkpt>
      <trkpt lat="49.49977" lon="1.12256">
        <ele>140.9</ele>
        <time>2022-04-30T11:52:45Z</time>
      </trkpt>
      <trkpt lat="49.49978" lon="1.12255">
        <ele>140.9</ele>
        <time>2022-04-30T11:52:46Z</time>
      </trkpt>
      <trkpt lat="49.49979" lon="1.12249">
        <ele>140.8</ele>
        <time>2022-04-30T11:52:47Z</time>
      </trkpt>
      <trkpt lat="49.4998" lon="1.12245">
        <ele>140.8</ele>
        <time>2022-04-30T11:52:48Z</time>
      </trkpt>
      <trkpt lat="49.49982" lon="1.12235">
        <ele>140.6</ele>
        <time>2022-04-30T11:52:49Z</time>
      </trkpt>
      <trkpt lat="49.49985" lon="1.12225">
        <ele>140.3</ele>
        <time>2022-04-30T11:52:50Z</time>
      </trkpt>
      <trkpt lat="49.49994" lon="1.12184">
        <ele>138.2</ele>
        <time>2022-04-30T11:52:51Z</time>
      </trkpt>
      <trkpt lat="49.49997" lon="1.12173">
        <ele>137.8</ele>
        <time>2022-04-30T11:52:52Z</time>
      </trkpt>
      <trkpt lat="49.49999" lon="1.12157">
        <ele>137.6</ele>
        <time>2022-04-30T11:52:53Z</time>
      </trkpt>
      <trkpt lat="49.50001" lon="1.12146">
        <ele>137.7</ele>
        <time>2022-04-30T11:52:54Z</time>
      </trkpt>
      <trkpt lat="49.50003" lon="1.12139">
        <ele>137.9</ele>
        <time>2022-04-30T11:52:55Z</time>
      </trkpt>
      <trkpt lat="49.50004" lon="1.12133">
        <ele>138.2</ele>
        <time>2022-04-30T11:52:56Z</time>
      </trkpt>
      <trkpt lat="49.50004" lon="1.12131">
        <ele>138.3</ele>
        <time>2022-04-30T11:52:57Z</time>
      </trkpt>
      <trkpt lat="49.50004" lon="1.12122">
        <ele>138.8</ele>
        <time>2022-04-30T11:52:58Z</time>
      </trkpt>
      <trkpt lat="49.50005" lon="1.12115">
        <ele>139.3</ele>
        <time>2022-04-30T11:52:59Z</time>
      </trkpt>
      <trkpt lat="49.50006" lon="1.1211">
        <ele>139.8</ele>
        <time>2022-04-30T11:53:00Z</time>
      </trkpt>
      <trkpt lat="49.50007" lon="1.12105">
        <ele>140.1</ele>
        <time>2022-04-30T11:53:01Z</time>
      </trkpt>
      <trkpt lat="49.50007" lon="1.12101">
        <ele>140.4</ele>
        <time>2022-04-30T11:53:02Z</time>
      </trkpt>
      <trkpt lat="49.50007" lon="1.121">
        <ele>140.5</ele>
        <time>2022-04-30T11:53:03Z</time>
      </trkpt>
      <trkpt lat="49.50006" lon="1.12099">
        <ele>140.6</ele>
        <time>2022-04-30T11:53:04Z</time>
      </trkpt>
      <trkpt lat="49.50005" lon="1.12091">
        <ele>141.2</ele>
        <time>2022-04-30T11:53:05Z</time>
      </trkpt>
      <trkpt lat="49.50004" lon="1.12081">
        <ele>141.9</ele>
        <time>2022-04-30T11:53:06Z</time>
      </trkpt>
      <trkpt lat="49.50003" lon="1.12071">
        <ele>142.5</ele>
        <time>2022-04-30T11:53:07Z</time>
      </trkpt>
      <trkpt lat="49.50003" lon="1.12064">
        <ele>142.8</ele>
        <time>2022-04-30T11:53:08Z</time>
      </trkpt>
      <trkpt lat="49.50002" lon="1.12057">
        <ele>143.1</ele>
        <time>2022-04-30T11:53:09Z</time>
      </trkpt>
      <trkpt lat="49.50002" lon="1.12051">
        <ele>143.3</ele>
        <time>2022-04-30T11:53:10Z</time>
      </trkpt>
      <trkpt lat="49.50003" lon="1.12044">
        <ele>143.6</ele>
        <time>2022-04-30T11:53:11Z</time>
      </trkpt>
      <trkpt lat="49.50003" lon="1.12042">
        <ele>143.6</ele>
        <time>2022-04-30T11:53:12Z</time>
      </trkpt>
      <trkpt lat="49.50004" lon="1.12038">
        <ele>143.8</ele>
        <time>2022-04-30T11:53:13Z</time>
      </trkpt>
      <trkpt lat="49.50004" lon="1.12035">
        <ele>143.9</ele>
        <time>2022-04-30T11:53:14Z</time>
      </trkpt>
      <trkpt lat="49.50004" lon="1.12033">
        <ele>144</ele>
        <time>2022-04-30T11:53:15Z</time>
      </trkpt>
      <trkpt lat="49.50005" lon="1.1203">
        <ele>144</ele>
        <time>2022-04-30T11:53:16Z</time>
      </trkpt>
      <trkpt lat="49.50005" lon="1.12027">
        <ele>144.1</ele>
        <time>2022-04-30T11:53:17Z</time>
      </trkpt>
      <trkpt lat="49.50005" lon="1.12025">
        <ele>144.2</ele>
        <time>2022-04-30T11:53:18Z</time>
      </trkpt>
      <trkpt lat="49.50006" lon="1.12022">
        <ele>144.3</ele>
        <time>2022-04-30T11:53:19Z</time>
      </trkpt>
      <trkpt lat="49.50006" lon="1.12019">
        <ele>144.4</ele>
        <time>2022-04-30T11:53:20Z</time>
      </trkpt>
      <trkpt lat="49.50006" lon="1.12017">
        <ele>144.5</ele>
        <time>2022-04-30T11:53:21Z</time>
      </trkpt>
      <trkpt lat="49.50006" lon="1.12014">
        <ele>144.5</ele>
        <time>2022-04-30T11:53:22Z</time>
      </trkpt>
      <trkpt lat="49.50007" lon="1.12007">
        <ele>144.7</ele>
        <time>2022-04-30T11:53:23Z</time>
      </trkpt>
      <trkpt lat="49.50008" lon="1.12003">
        <ele>144.8</ele>
        <time>2022-04-30T11:53:24Z</time>
      </trkpt>
      <trkpt lat="49.50009" lon="1.11998">
        <ele>144.9</ele>
        <time>2022-04-30T11:53:25Z</time>
      </trkpt>
      <trkpt lat="49.50009" lon="1.11997">
        <ele>144.9</ele>
        <time>2022-04-30T11:53:26Z</time>
      </trkpt>
      <trkpt lat="49.50009" lon="1.11993">
        <ele>144.9</ele>
        <time>2022-04-30T11:53:27Z</time>
      </trkpt>
      <trkpt lat="49.5001" lon="1.11992">
        <ele>145</ele>
        <time>2022-04-30T11:53:28Z</time>
      </trkpt>
      <trkpt lat="49.5001" lon="1.11987">
        <ele>145</ele>
        <time>2022-04-30T11:53:29Z</time>
      </trkpt>
      <trkpt lat="49.5001" lon="1.11986">
        <ele>145</ele>
        <time>2022-04-30T11:53:30Z</time>
      </trkpt>
      <trkpt lat="49.50011" lon="1.11981">
        <ele>145.1</ele>
        <time>2022-04-30T11:53:31Z</time>
      </trkpt>
      <trkpt lat="49.50012" lon="1.11979">
        <ele>145.1</ele>
        <time>2022-04-30T11:53:32Z</time>
      </trkpt>
      <trkpt lat="49.50013" lon="1.11974">
        <ele>145.2</ele>
        <time>2022-04-30T11:53:33Z</time>
      </trkpt>
      <trkpt lat="49.50013" lon="1.11971">
        <ele>145.2</ele>
        <time>2022-04-30T11:53:34Z</time>
      </trkpt>
      <trkpt lat="49.50015" lon="1.11966">
        <ele>145.2</ele>
        <time>2022-04-30T11:53:35Z</time>
      </trkpt>
      <trkpt lat="49.50016" lon="1.11961">
        <ele>145.2</ele>
        <time>2022-04-30T11:53:36Z</time>
      </trkpt>
      <trkpt lat="49.50017" lon="1.11957">
        <ele>145.2</ele>
        <time>2022-04-30T11:53:37Z</time>
      </trkpt>
      <trkpt lat="49.50018" lon="1.11952">
        <ele>145.2</ele>
        <time>2022-04-30T11:53:38Z</time>
      </trkpt>
      <trkpt lat="49.5002" lon="1.11947">
        <ele>145.1</ele>
        <time>2022-04-30T11:53:39Z</time>
      </trkpt>
      <trkpt lat="49.50021" lon="1.11942">
        <ele>145</ele>
        <time>2022-04-30T11:53:40Z</time>
      </trkpt>
      <trkpt lat="49.50023" lon="1.11938">
        <ele>144.9</ele>
        <time>2022-04-30T11:53:41Z</time>
      </trkpt>
      <trkpt lat="49.50024" lon="1.11934">
        <ele>144.8</ele>
        <time>2022-04-30T11:53:42Z</time>
      </trkpt>
      <trkpt lat="49.50026" lon="1.1193">
        <ele>144.7</ele>
        <time>2022-04-30T11:53:43Z</time>
      </trkpt>
      <trkpt lat="49.50028" lon="1.11926">
        <ele>144.5</ele>
        <time>2022-04-30T11:53:44Z</time>
      </trkpt>
      <trkpt lat="49.5003" lon="1.11921">
        <ele>144.4</ele>
        <time>2022-04-30T11:53:45Z</time>
      </trkpt>
      <trkpt lat="49.50031" lon="1.11917">
        <ele>144.2</ele>
        <time>2022-04-30T11:53:46Z</time>
      </trkpt>
      <trkpt lat="49.50033" lon="1.11912">
        <ele>143.9</ele>
        <time>2022-04-30T11:53:47Z</time>
      </trkpt>
      <trkpt lat="49.50039" lon="1.11896">
        <ele>142.9</ele>
        <time>2022-04-30T11:53:48Z</time>
      </trkpt>
      <trkpt lat="49.50043" lon="1.11883">
        <ele>142.1</ele>
        <time>2022-04-30T11:53:49Z</time>
      </trkpt>
      <trkpt lat="49.50046" lon="1.11872">
        <ele>141.4</ele>
        <time>2022-04-30T11:53:50Z</time>
      </trkpt>
      <trkpt lat="49.50049" lon="1.11863">
        <ele>141</ele>
        <time>2022-04-30T11:53:51Z</time>
      </trkpt>
      <trkpt lat="49.50051" lon="1.11855">
        <ele>140.9</ele>
        <time>2022-04-30T11:53:52Z</time>
      </trkpt>
      <trkpt lat="49.50053" lon="1.1185">
        <ele>140.9</ele>
        <time>2022-04-30T11:53:53Z</time>
      </trkpt>
      <trkpt lat="49.50054" lon="1.11845">
        <ele>141</ele>
        <time>2022-04-30T11:53:54Z</time>
      </trkpt>
      <trkpt lat="49.50055" lon="1.11841">
        <ele>141.1</ele>
        <time>2022-04-30T11:53:55Z</time>
      </trkpt>
      <trkpt lat="49.50057" lon="1.11836">
        <ele>141.3</ele>
        <time>2022-04-30T11:53:56Z</time>
      </trkpt>
      <trkpt lat="49.50057" lon="1.11834">
        <ele>141.4</ele>
        <time>2022-04-30T11:53:57Z</time>
      </trkpt>
      <trkpt lat="49.50058" lon="1.1183">
        <ele>141.6</ele>
        <time>2022-04-30T11:53:58Z</time>
      </trkpt>
      <trkpt lat="49.5006" lon="1.11825">
        <ele>141</ele>
        <time>2022-04-30T11:53:59Z</time>
      </trkpt>
      <trkpt lat="49.50061" lon="1.11823">
        <ele>140.9</ele>
        <time>2022-04-30T11:54:00Z</time>
      </trkpt>
      <trkpt lat="49.50063" lon="1.1182">
        <ele>140.7</ele>
        <time>2022-04-30T11:54:01Z</time>
      </trkpt>
      <trkpt lat="49.50064" lon="1.1182">
        <ele>140.6</ele>
        <time>2022-04-30T11:54:02Z</time>
      </trkpt>
      <trkpt lat="49.50067" lon="1.11818">
        <ele>140.3</ele>
        <time>2022-04-30T11:54:03Z</time>
      </trkpt>
      <trkpt lat="49.50069" lon="1.11817">
        <ele>140.1</ele>
        <time>2022-04-30T11:54:04Z</time>
      </trkpt>
      <trkpt lat="49.50072" lon="1.11818">
        <ele>139.8</ele>
        <time>2022-04-30T11:54:05Z</time>
      </trkpt>
      <trkpt lat="49.50076" lon="1.11819">
        <ele>139.5</ele>
        <time>2022-04-30T11:54:06Z</time>
      </trkpt>
      <trkpt lat="49.5008" lon="1.1182">
        <ele>139.1</ele>
        <time>2022-04-30T11:54:07Z</time>
      </trkpt>
      <trkpt lat="49.50083" lon="1.11821">
        <ele>138.7</ele>
        <time>2022-04-30T11:54:08Z</time>
      </trkpt>
      <trkpt lat="49.50087" lon="1.1182">
        <ele>138.3</ele>
        <time>2022-04-30T11:54:09Z</time>
      </trkpt>
      <trkpt lat="49.50092" lon="1.11816">
        <ele>137.7</ele>
        <time>2022-04-30T11:54:10Z</time>
      </trkpt>
      <trkpt lat="49.50094" lon="1.11813">
        <ele>137.4</ele>
        <time>2022-04-30T11:54:11Z</time>
      </trkpt>
      <trkpt lat="49.50096" lon="1.11809">
        <ele>137</ele>
        <time>2022-04-30T11:54:12Z</time>
      </trkpt>
      <trkpt lat="49.50098" lon="1.11806">
        <ele>136.7</ele>
        <time>2022-04-30T11:54:13Z</time>
      </trkpt>
      <trkpt lat="49.50101" lon="1.11802">
        <ele>136.3</ele>
        <time>2022-04-30T11:54:14Z</time>
      </trkpt>
      <trkpt lat="49.50103" lon="1.11799">
        <ele>136</ele>
        <time>2022-04-30T11:54:15Z</time>
      </trkpt>
      <trkpt lat="49.50105" lon="1.11795">
        <ele>135.6</ele>
        <time>2022-04-30T11:54:16Z</time>
      </trkpt>
      <trkpt lat="49.50108" lon="1.11792">
        <ele>135.2</ele>
        <time>2022-04-30T11:54:17Z</time>
      </trkpt>
      <trkpt lat="49.50115" lon="1.11776">
        <ele>133.8</ele>
        <time>2022-04-30T11:54:18Z</time>
      </trkpt>
      <trkpt lat="49.50121" lon="1.11761">
        <ele>132.6</ele>
        <time>2022-04-30T11:54:19Z</time>
      </trkpt>
      <trkpt lat="49.50126" lon="1.11753">
        <ele>131.8</ele>
        <time>2022-04-30T11:54:20Z</time>
      </trkpt>
      <trkpt lat="49.50134" lon="1.11744">
        <ele>130.7</ele>
        <time>2022-04-30T11:54:21Z</time>
      </trkpt>
      <trkpt lat="49.50143" lon="1.11734">
        <ele>129.5</ele>
        <time>2022-04-30T11:54:22Z</time>
      </trkpt>
      <trkpt lat="49.50151" lon="1.11725">
        <ele>128.3</ele>
        <time>2022-04-30T11:54:23Z</time>
      </trkpt>
      <trkpt lat="49.5016" lon="1.11716">
        <ele>127.1</ele>
        <time>2022-04-30T11:54:24Z</time>
      </trkpt>
      <trkpt lat="49.50168" lon="1.11704">
        <ele>125.9</ele>
        <time>2022-04-30T11:54:25Z</time>
      </trkpt>
      <trkpt lat="49.50176" lon="1.11692">
        <ele>124.6</ele>
        <time>2022-04-30T11:54:26Z</time>
      </trkpt>
      <trkpt lat="49.50185" lon="1.11678">
        <ele>123.4</ele>
        <time>2022-04-30T11:54:27Z</time>
      </trkpt>
      <trkpt lat="49.50193" lon="1.11664">
        <ele>122.3</ele>
        <time>2022-04-30T11:54:28Z</time>
      </trkpt>
      <trkpt lat="49.50199" lon="1.11651">
        <ele>121.5</ele>
        <time>2022-04-30T11:54:29Z</time>
      </trkpt>
      <trkpt lat="49.50206" lon="1.11639">
        <ele>120.7</ele>
        <time>2022-04-30T11:54:30Z</time>
      </trkpt>
      <trkpt lat="49.50213" lon="1.11625">
        <ele>119.9</ele>
        <time>2022-04-30T11:54:31Z</time>
      </trkpt>
      <trkpt lat="49.50221" lon="1.11611">
        <ele>119</ele>
        <time>2022-04-30T11:54:32Z</time>
      </trkpt>
      <trkpt lat="49.50229" lon="1.11595">
        <ele>118</ele>
        <time>2022-04-30T11:54:33Z</time>
      </trkpt>
      <trkpt lat="49.50236" lon="1.11581">
        <ele>117.1</ele>
        <time>2022-04-30T11:54:34Z</time>
      </trkpt>
      <trkpt lat="49.50244" lon="1.11567">
        <ele>116.2</ele>
        <time>2022-04-30T11:54:35Z</time>
      </trkpt>
      <trkpt lat="49.50252" lon="1.11554">
        <ele>115.3</ele>
        <time>2022-04-30T11:54:36Z</time>
      </trkpt>
      <trkpt lat="49.5026" lon="1.11541">
        <ele>114.3</ele>
        <time>2022-04-30T11:54:37Z</time>
      </trkpt>
      <trkpt lat="49.50268" lon="1.11526">
        <ele>113.3</ele>
        <time>2022-04-30T11:54:38Z</time>
      </trkpt>
      <trkpt lat="49.50276" lon="1.11513">
        <ele>112.3</ele>
        <time>2022-04-30T11:54:39Z</time>
      </trkpt>
      <trkpt lat="49.50284" lon="1.11499">
        <ele>111.2</ele>
        <time>2022-04-30T11:54:40Z</time>
      </trkpt>
      <trkpt lat="49.50292" lon="1.11486">
        <ele>110.1</ele>
        <time>2022-04-30T11:54:41Z</time>
      </trkpt>
      <trkpt lat="49.50298" lon="1.11474">
        <ele>109.1</ele>
        <time>2022-04-30T11:54:42Z</time>
      </trkpt>
      <trkpt lat="49.50305" lon="1.11462">
        <ele>108</ele>
        <time>2022-04-30T11:54:43Z</time>
      </trkpt>
      <trkpt lat="49.50312" lon="1.11451">
        <ele>106.8</ele>
        <time>2022-04-30T11:54:44Z</time>
      </trkpt>
      <trkpt lat="49.50321" lon="1.11438">
        <ele>105.4</ele>
        <time>2022-04-30T11:54:45Z</time>
      </trkpt>
      <trkpt lat="49.50332" lon="1.1143">
        <ele>104.1</ele>
        <time>2022-04-30T11:54:46Z</time>
      </trkpt>
      <trkpt lat="49.50342" lon="1.11418">
        <ele>102.8</ele>
        <time>2022-04-30T11:54:47Z</time>
      </trkpt>
      <trkpt lat="49.50351" lon="1.11402">
        <ele>101.5</ele>
        <time>2022-04-30T11:54:48Z</time>
      </trkpt>
      <trkpt lat="49.50359" lon="1.11389">
        <ele>100.3</ele>
        <time>2022-04-30T11:54:49Z</time>
      </trkpt>
      <trkpt lat="49.50365" lon="1.11378">
        <ele>99.3</ele>
        <time>2022-04-30T11:54:50Z</time>
      </trkpt>
      <trkpt lat="49.50371" lon="1.11368">
        <ele>98.5</ele>
        <time>2022-04-30T11:54:51Z</time>
      </trkpt>
      <trkpt lat="49.50375" lon="1.11361">
        <ele>97.8</ele>
        <time>2022-04-30T11:54:52Z</time>
      </trkpt>
      <trkpt lat="49.50381" lon="1.11354">
        <ele>97.1</ele>
        <time>2022-04-30T11:54:53Z</time>
      </trkpt>
      <trkpt lat="49.50387" lon="1.11345">
        <ele>96.4</ele>
        <time>2022-04-30T11:54:54Z</time>
      </trkpt>
      <trkpt lat="49.50395" lon="1.1134">
        <ele>95.4</ele>
        <time>2022-04-30T11:54:55Z</time>
      </trkpt>
      <trkpt lat="49.50402" lon="1.11333">
        <ele>94.6</ele>
        <time>2022-04-30T11:54:56Z</time>
      </trkpt>
      <trkpt lat="49.50408" lon="1.11324">
        <ele>93.8</ele>
        <time>2022-04-30T11:54:57Z</time>
      </trkpt>
      <trkpt lat="49.50413" lon="1.11317">
        <ele>93.1</ele>
        <time>2022-04-30T11:54:58Z</time>
      </trkpt>
      <trkpt lat="49.50419" lon="1.11311">
        <ele>92.4</ele>
        <time>2022-04-30T11:54:59Z</time>
      </trkpt>
      <trkpt lat="49.50427" lon="1.11304">
        <ele>91.6</ele>
        <time>2022-04-30T11:55:00Z</time>
      </trkpt>
      <trkpt lat="49.50435" lon="1.11296">
        <ele>90.7</ele>
        <time>2022-04-30T11:55:01Z</time>
      </trkpt>
      <trkpt lat="49.50442" lon="1.11287">
        <ele>90</ele>
        <time>2022-04-30T11:55:02Z</time>
      </trkpt>
      <trkpt lat="49.50451" lon="1.11279">
        <ele>89.4</ele>
        <time>2022-04-30T11:55:03Z</time>
      </trkpt>
      <trkpt lat="49.5046" lon="1.1127">
        <ele>89.1</ele>
        <time>2022-04-30T11:55:04Z</time>
      </trkpt>
      <trkpt lat="49.50467" lon="1.11264">
        <ele>88.9</ele>
        <time>2022-04-30T11:55:05Z</time>
      </trkpt>
      <trkpt lat="49.50475" lon="1.11263">
        <ele>88.7</ele>
        <time>2022-04-30T11:55:06Z</time>
      </trkpt>
      <trkpt lat="49.50484" lon="1.11261">
        <ele>88.5</ele>
        <time>2022-04-30T11:55:07Z</time>
      </trkpt>
      <trkpt lat="49.50491" lon="1.11256">
        <ele>88.3</ele>
        <time>2022-04-30T11:55:08Z</time>
      </trkpt>
      <trkpt lat="49.50497" lon="1.11253">
        <ele>88.2</ele>
        <time>2022-04-30T11:55:09Z</time>
      </trkpt>
      <trkpt lat="49.50505" lon="1.11247">
        <ele>88</ele>
        <time>2022-04-30T11:55:10Z</time>
      </trkpt>
      <trkpt lat="49.50513" lon="1.11241">
        <ele>87.9</ele>
        <time>2022-04-30T11:55:11Z</time>
      </trkpt>
      <trkpt lat="49.5052" lon="1.11233">
        <ele>87.8</ele>
        <time>2022-04-30T11:55:12Z</time>
      </trkpt>
      <trkpt lat="49.50528" lon="1.11231">
        <ele>87.7</ele>
        <time>2022-04-30T11:55:13Z</time>
      </trkpt>
      <trkpt lat="49.50534" lon="1.11227">
        <ele>87.6</ele>
        <time>2022-04-30T11:55:14Z</time>
      </trkpt>
      <trkpt lat="49.50542" lon="1.11227">
        <ele>87.5</ele>
        <time>2022-04-30T11:55:15Z</time>
      </trkpt>
      <trkpt lat="49.50551" lon="1.11225">
        <ele>87.3</ele>
        <time>2022-04-30T11:55:16Z</time>
      </trkpt>
      <trkpt lat="49.50561" lon="1.11225">
        <ele>87.1</ele>
        <time>2022-04-30T11:55:17Z</time>
      </trkpt>
      <trkpt lat="49.5057" lon="1.11224">
        <ele>86.9</ele>
        <time>2022-04-30T11:55:18Z</time>
      </trkpt>
      <trkpt lat="49.50578" lon="1.1122">
        <ele>86.8</ele>
        <time>2022-04-30T11:55:19Z</time>
      </trkpt>
      <trkpt lat="49.50586" lon="1.11214">
        <ele>86.6</ele>
        <time>2022-04-30T11:55:20Z</time>
      </trkpt>
      <trkpt lat="49.50592" lon="1.11206">
        <ele>86.4</ele>
        <time>2022-04-30T11:55:21Z</time>
      </trkpt>
      <trkpt lat="49.50596" lon="1.11198">
        <ele>86.3</ele>
        <time>2022-04-30T11:55:22Z</time>
      </trkpt>
      <trkpt lat="49.506" lon="1.1119">
        <ele>86.2</ele>
        <time>2022-04-30T11:55:23Z</time>
      </trkpt>
      <trkpt lat="49.50604" lon="1.11182">
        <ele>86.1</ele>
        <time>2022-04-30T11:55:24Z</time>
      </trkpt>
      <trkpt lat="49.50609" lon="1.11174">
        <ele>85.9</ele>
        <time>2022-04-30T11:55:25Z</time>
      </trkpt>
      <trkpt lat="49.50614" lon="1.11167">
        <ele>85.8</ele>
        <time>2022-04-30T11:55:26Z</time>
      </trkpt>
      <trkpt lat="49.50617" lon="1.11158">
        <ele>85.7</ele>
        <time>2022-04-30T11:55:27Z</time>
      </trkpt>
      <trkpt lat="49.50622" lon="1.1115">
        <ele>85.6</ele>
        <time>2022-04-30T11:55:28Z</time>
      </trkpt>
      <trkpt lat="49.50628" lon="1.1114">
        <ele>85.5</ele>
        <time>2022-04-30T11:55:29Z</time>
      </trkpt>
      <trkpt lat="49.50633" lon="1.11133">
        <ele>85.5</ele>
        <time>2022-04-30T11:55:30Z</time>
      </trkpt>
      <trkpt lat="49.50639" lon="1.11124">
        <ele>85.4</ele>
        <time>2022-04-30T11:55:31Z</time>
      </trkpt>
      <trkpt lat="49.50645" lon="1.11116">
        <ele>85.4</ele>
        <time>2022-04-30T11:55:32Z</time>
      </trkpt>
      <trkpt lat="49.50652" lon="1.11104">
        <ele>85.4</ele>
        <time>2022-04-30T11:55:33Z</time>
      </trkpt>
      <trkpt lat="49.50655" lon="1.1109">
        <ele>85.3</ele>
        <time>2022-04-30T11:55:34Z</time>
      </trkpt>
      <trkpt lat="49.50662" lon="1.1108">
        <ele>85.3</ele>
        <time>2022-04-30T11:55:35Z</time>
      </trkpt>
      <trkpt lat="49.5067" lon="1.11071">
        <ele>85.2</ele>
        <time>2022-04-30T11:55:36Z</time>
      </trkpt>
      <trkpt lat="49.50677" lon="1.11066">
        <ele>85.2</ele>
        <time>2022-04-30T11:55:37Z</time>
      </trkpt>
      <trkpt lat="49.50683" lon="1.1106">
        <ele>85.2</ele>
        <time>2022-04-30T11:55:38Z</time>
      </trkpt>
      <trkpt lat="49.50688" lon="1.11053">
        <ele>85.2</ele>
        <time>2022-04-30T11:55:39Z</time>
      </trkpt>
      <trkpt lat="49.50692" lon="1.11044">
        <ele>85.1</ele>
        <time>2022-04-30T11:55:40Z</time>
      </trkpt>
      <trkpt lat="49.50695" lon="1.11036">
        <ele>85.1</ele>
        <time>2022-04-30T11:55:41Z</time>
      </trkpt>
      <trkpt lat="49.50699" lon="1.11028">
        <ele>85.1</ele>
        <time>2022-04-30T11:55:42Z</time>
      </trkpt>
      <trkpt lat="49.50703" lon="1.11021">
        <ele>85.1</ele>
        <time>2022-04-30T11:55:43Z</time>
      </trkpt>
      <trkpt lat="49.50707" lon="1.11014">
        <ele>85.1</ele>
        <time>2022-04-30T11:55:44Z</time>
      </trkpt>
      <trkpt lat="49.50711" lon="1.11008">
        <ele>85.1</ele>
        <time>2022-04-30T11:55:45Z</time>
      </trkpt>
      <trkpt lat="49.50715" lon="1.11">
        <ele>85</ele>
        <time>2022-04-30T11:55:46Z</time>
      </trkpt>
      <trkpt lat="49.50719" lon="1.10993">
        <ele>85</ele>
        <time>2022-04-30T11:55:47Z</time>
      </trkpt>
      <trkpt lat="49.50723" lon="1.10983">
        <ele>84.9</ele>
        <time>2022-04-30T11:55:48Z</time>
      </trkpt>
      <trkpt lat="49.50725" lon="1.10976">
        <ele>84.9</ele>
        <time>2022-04-30T11:55:49Z</time>
      </trkpt>
      <trkpt lat="49.50728" lon="1.10968">
        <ele>84.8</ele>
        <time>2022-04-30T11:55:50Z</time>
      </trkpt>
      <trkpt lat="49.5073" lon="1.1096">
        <ele>84.8</ele>
        <time>2022-04-30T11:55:51Z</time>
      </trkpt>
      <trkpt lat="49.50731" lon="1.10953">
        <ele>84.8</ele>
        <time>2022-04-30T11:55:52Z</time>
      </trkpt>
      <trkpt lat="49.50732" lon="1.10949">
        <ele>84.8</ele>
        <time>2022-04-30T11:55:53Z</time>
      </trkpt>
      <trkpt lat="49.50733" lon="1.10944">
        <ele>84.8</ele>
        <time>2022-04-30T11:55:54Z</time>
      </trkpt>
      <trkpt lat="49.50734" lon="1.10938">
        <ele>84.7</ele>
        <time>2022-04-30T11:55:55Z</time>
      </trkpt>
      <trkpt lat="49.50735" lon="1.10931">
        <ele>84.7</ele>
        <time>2022-04-30T11:55:56Z</time>
      </trkpt>
      <trkpt lat="49.50736" lon="1.10922">
        <ele>84.7</ele>
        <time>2022-04-30T11:55:57Z</time>
      </trkpt>
      <trkpt lat="49.50735" lon="1.10915">
        <ele>84.7</ele>
        <time>2022-04-30T11:55:58Z</time>
      </trkpt>
      <trkpt lat="49.50736" lon="1.10909">
        <ele>84.7</ele>
        <time>2022-04-30T11:55:59Z</time>
      </trkpt>
      <trkpt lat="49.50737" lon="1.10903">
        <ele>84.7</ele>
        <time>2022-04-30T11:56:00Z</time>
      </trkpt>
      <trkpt lat="49.50738" lon="1.10901">
        <ele>85.1</ele>
        <time>2022-04-30T11:56:01Z</time>
      </trkpt>
      <trkpt lat="49.50739" lon="1.10897">
        <ele>85.4</ele>
        <time>2022-04-30T11:56:02Z</time>
      </trkpt>
      <trkpt lat="49.50741" lon="1.10892">
        <ele>85.6</ele>
        <time>2022-04-30T11:56:03Z</time>
      </trkpt>
      <trkpt lat="49.50743" lon="1.10891">
        <ele>85.7</ele>
        <time>2022-04-30T11:56:04Z</time>
      </trkpt>
      <trkpt lat="49.50744" lon="1.1089">
        <ele>85.8</ele>
        <time>2022-04-30T11:56:05Z</time>
      </trkpt>
      <trkpt lat="49.50746" lon="1.1089">
        <ele>85.9</ele>
        <time>2022-04-30T11:56:06Z</time>
      </trkpt>
      <trkpt lat="49.50746" lon="1.1089">
        <ele>85.9</ele>
        <time>2022-04-30T11:56:07Z</time>
      </trkpt>
      <trkpt lat="49.50746" lon="1.10888">
        <ele>86</ele>
        <time>2022-04-30T11:56:08Z</time>
      </trkpt>
      <trkpt lat="49.50746" lon="1.10888">
        <ele>86</ele>
        <time>2022-04-30T11:56:09Z</time>
      </trkpt>
      <trkpt lat="49.50747" lon="1.10889">
        <ele>86</ele>
        <time>2022-04-30T11:56:10Z</time>
      </trkpt>
      <trkpt lat="49.50748" lon="1.10892">
        <ele>86.2</ele>
        <time>2022-04-30T11:56:11Z</time>
      </trkpt>
      <trkpt lat="49.50749" lon="1.10894">
        <ele>86.3</ele>
        <time>2022-04-30T11:56:12Z</time>
      </trkpt>
      <trkpt lat="49.50749" lon="1.10895">
        <ele>86.4</ele>
        <time>2022-04-30T11:56:13Z</time>
      </trkpt>
      <trkpt lat="49.5075" lon="1.10897">
        <ele>86.4</ele>
        <time>2022-04-30T11:56:14Z</time>
      </trkpt>
      <trkpt lat="49.50752" lon="1.10901">
        <ele>86.7</ele>
        <time>2022-04-30T11:56:15Z</time>
      </trkpt>
      <trkpt lat="49.50753" lon="1.10903">
        <ele>86.8</ele>
        <time>2022-04-30T11:56:16Z</time>
      </trkpt>
      <trkpt lat="49.50756" lon="1.10908">
        <ele>87</ele>
        <time>2022-04-30T11:56:17Z</time>
      </trkpt>
      <trkpt lat="49.50758" lon="1.10914">
        <ele>87.3</ele>
        <time>2022-04-30T11:56:18Z</time>
      </trkpt>
      <trkpt lat="49.50761" lon="1.10919">
        <ele>87.5</ele>
        <time>2022-04-30T11:56:19Z</time>
      </trkpt>
      <trkpt lat="49.50763" lon="1.10925">
        <ele>87.8</ele>
        <time>2022-04-30T11:56:20Z</time>
      </trkpt>
      <trkpt lat="49.50766" lon="1.1093">
        <ele>88</ele>
        <time>2022-04-30T11:56:21Z</time>
      </trkpt>
      <trkpt lat="49.50771" lon="1.10936">
        <ele>88.4</ele>
        <time>2022-04-30T11:56:22Z</time>
      </trkpt>
      <trkpt lat="49.50774" lon="1.10941">
        <ele>88.7</ele>
        <time>2022-04-30T11:56:23Z</time>
      </trkpt>
      <trkpt lat="49.50777" lon="1.10945">
        <ele>88.7</ele>
        <time>2022-04-30T11:56:24Z</time>
      </trkpt>
      <trkpt lat="49.50782" lon="1.10951">
        <ele>88.7</ele>
        <time>2022-04-30T11:56:25Z</time>
      </trkpt>
      <trkpt lat="49.50786" lon="1.10955">
        <ele>88.7</ele>
        <time>2022-04-30T11:56:26Z</time>
      </trkpt>
      <trkpt lat="49.5079" lon="1.1096">
        <ele>88.8</ele>
        <time>2022-04-30T11:56:27Z</time>
      </trkpt>
      <trkpt lat="49.50792" lon="1.10963">
        <ele>88.8</ele>
        <time>2022-04-30T11:56:28Z</time>
      </trkpt>
      <trkpt lat="49.50795" lon="1.10967">
        <ele>88.8</ele>
        <time>2022-04-30T11:56:29Z</time>
      </trkpt>
      <trkpt lat="49.50798" lon="1.10972">
        <ele>88.9</ele>
        <time>2022-04-30T11:56:30Z</time>
      </trkpt>
      <trkpt lat="49.50801" lon="1.10977">
        <ele>88.9</ele>
        <time>2022-04-30T11:56:31Z</time>
      </trkpt>
      <trkpt lat="49.50803" lon="1.10982">
        <ele>89</ele>
        <time>2022-04-30T11:56:32Z</time>
      </trkpt>
      <trkpt lat="49.50806" lon="1.10988">
        <ele>89</ele>
        <time>2022-04-30T11:56:33Z</time>
      </trkpt>
      <trkpt lat="49.50807" lon="1.10993">
        <ele>89</ele>
        <time>2022-04-30T11:56:34Z</time>
      </trkpt>
      <trkpt lat="49.50808" lon="1.10999">
        <ele>89.1</ele>
        <time>2022-04-30T11:56:35Z</time>
      </trkpt>
      <trkpt lat="49.50809" lon="1.11006">
        <ele>89.1</ele>
        <time>2022-04-30T11:56:36Z</time>
      </trkpt>
      <trkpt lat="49.50809" lon="1.11013">
        <ele>89.2</ele>
        <time>2022-04-30T11:56:37Z</time>
      </trkpt>
      <trkpt lat="49.5081" lon="1.1102">
        <ele>89.2</ele>
        <time>2022-04-30T11:56:38Z</time>
      </trkpt>
      <trkpt lat="49.5081" lon="1.11027">
        <ele>89.3</ele>
        <time>2022-04-30T11:56:39Z</time>
      </trkpt>
      <trkpt lat="49.50811" lon="1.11032">
        <ele>89.4</ele>
        <time>2022-04-30T11:56:40Z</time>
      </trkpt>
      <trkpt lat="49.50812" lon="1.11039">
        <ele>89.4</ele>
        <time>2022-04-30T11:56:41Z</time>
      </trkpt>
      <trkpt lat="49.50812" lon="1.11041">
        <ele>89.5</ele>
        <time>2022-04-30T11:56:42Z</time>
      </trkpt>
      <trkpt lat="49.50813" lon="1.11047">
        <ele>89.5</ele>
        <time>2022-04-30T11:56:43Z</time>
      </trkpt>
      <trkpt lat="49.50814" lon="1.11053">
        <ele>89.6</ele>
        <time>2022-04-30T11:56:44Z</time>
      </trkpt>
      <trkpt lat="49.50813" lon="1.11059">
        <ele>89.6</ele>
        <time>2022-04-30T11:56:45Z</time>
      </trkpt>
      <trkpt lat="49.50813" lon="1.11065">
        <ele>89.7</ele>
        <time>2022-04-30T11:56:46Z</time>
      </trkpt>
      <trkpt lat="49.50812" lon="1.11072">
        <ele>89.8</ele>
        <time>2022-04-30T11:56:47Z</time>
      </trkpt>
      <trkpt lat="49.50813" lon="1.11079">
        <ele>89.9</ele>
        <time>2022-04-30T11:56:48Z</time>
      </trkpt>
      <trkpt lat="49.50813" lon="1.11087">
        <ele>90</ele>
        <time>2022-04-30T11:56:49Z</time>
      </trkpt>
      <trkpt lat="49.50812" lon="1.11095">
        <ele>90.1</ele>
        <time>2022-04-30T11:56:50Z</time>
      </trkpt>
      <trkpt lat="49.50812" lon="1.111">
        <ele>90.2</ele>
        <time>2022-04-30T11:56:51Z</time>
      </trkpt>
      <trkpt lat="49.50812" lon="1.11105">
        <ele>90.2</ele>
        <time>2022-04-30T11:56:52Z</time>
      </trkpt>
      <trkpt lat="49.50812" lon="1.1111">
        <ele>90.3</ele>
        <time>2022-04-30T11:56:53Z</time>
      </trkpt>
      <trkpt lat="49.50812" lon="1.11115">
        <ele>90.4</ele>
        <time>2022-04-30T11:56:54Z</time>
      </trkpt>
      <trkpt lat="49.50812" lon="1.1112">
        <ele>90.4</ele>
        <time>2022-04-30T11:56:55Z</time>
      </trkpt>
      <trkpt lat="49.50813" lon="1.11125">
        <ele>90.5</ele>
        <time>2022-04-30T11:56:56Z</time>
      </trkpt>
      <trkpt lat="49.50814" lon="1.11132">
        <ele>90.6</ele>
        <time>2022-04-30T11:56:57Z</time>
      </trkpt>
      <trkpt lat="49.50816" lon="1.11137">
        <ele>90.7</ele>
        <time>2022-04-30T11:56:58Z</time>
      </trkpt>
      <trkpt lat="49.50817" lon="1.11143">
        <ele>90.9</ele>
        <time>2022-04-30T11:56:59Z</time>
      </trkpt>
      <trkpt lat="49.50819" lon="1.11147">
        <ele>91</ele>
        <time>2022-04-30T11:57:00Z</time>
      </trkpt>
      <trkpt lat="49.50822" lon="1.11153">
        <ele>91.1</ele>
        <time>2022-04-30T11:57:01Z</time>
      </trkpt>
      <trkpt lat="49.50824" lon="1.11158">
        <ele>91.2</ele>
        <time>2022-04-30T11:57:02Z</time>
      </trkpt>
      <trkpt lat="49.50827" lon="1.11164">
        <ele>91.4</ele>
        <time>2022-04-30T11:57:03Z</time>
      </trkpt>
      <trkpt lat="49.50828" lon="1.11171">
        <ele>91.5</ele>
        <time>2022-04-30T11:57:04Z</time>
      </trkpt>
      <trkpt lat="49.50829" lon="1.11178">
        <ele>91.6</ele>
        <time>2022-04-30T11:57:05Z</time>
      </trkpt>
      <trkpt lat="49.50831" lon="1.11184">
        <ele>91.7</ele>
        <time>2022-04-30T11:57:06Z</time>
      </trkpt>
      <trkpt lat="49.50834" lon="1.11189">
        <ele>91.9</ele>
        <time>2022-04-30T11:57:07Z</time>
      </trkpt>
      <trkpt lat="49.50835" lon="1.11192">
        <ele>91.9</ele>
        <time>2022-04-30T11:57:08Z</time>
      </trkpt>
      <trkpt lat="49.50835" lon="1.11194">
        <ele>92</ele>
        <time>2022-04-30T11:57:09Z</time>
      </trkpt>
      <trkpt lat="49.50836" lon="1.11195">
        <ele>92</ele>
        <time>2022-04-30T11:57:10Z</time>
      </trkpt>
      <trkpt lat="49.50837" lon="1.11196">
        <ele>92</ele>
        <time>2022-04-30T11:57:11Z</time>
      </trkpt>
      <trkpt lat="49.50837" lon="1.11198">
        <ele>92</ele>
        <time>2022-04-30T11:57:12Z</time>
      </trkpt>
      <trkpt lat="49.50838" lon="1.11199">
        <ele>92.1</ele>
        <time>2022-04-30T11:57:13Z</time>
      </trkpt>
      <trkpt lat="49.50841" lon="1.11206">
        <ele>92.2</ele>
        <time>2022-04-30T11:57:14Z</time>
      </trkpt>
      <trkpt lat="49.50844" lon="1.11211">
        <ele>92.3</ele>
        <time>2022-04-30T11:57:15Z</time>
      </trkpt>
      <trkpt lat="49.50846" lon="1.11216">
        <ele>92.5</ele>
        <time>2022-04-30T11:57:16Z</time>
      </trkpt>
      <trkpt lat="49.5086" lon="1.11242">
        <ele>93.1</ele>
        <time>2022-04-30T11:57:17Z</time>
      </trkpt>
      <trkpt lat="49.50864" lon="1.11249">
        <ele>93.2</ele>
        <time>2022-04-30T11:57:18Z</time>
      </trkpt>
      <trkpt lat="49.50869" lon="1.11257">
        <ele>93.4</ele>
        <time>2022-04-30T11:57:19Z</time>
      </trkpt>
      <trkpt lat="49.50873" lon="1.11263">
        <ele>93.5</ele>
        <time>2022-04-30T11:57:20Z</time>
      </trkpt>
      <trkpt lat="49.50877" lon="1.11266">
        <ele>93.7</ele>
        <time>2022-04-30T11:57:21Z</time>
      </trkpt>
      <trkpt lat="49.50881" lon="1.11268">
        <ele>93.8</ele>
        <time>2022-04-30T11:57:22Z</time>
      </trkpt>
      <trkpt lat="49.50886" lon="1.1127">
        <ele>94</ele>
        <time>2022-04-30T11:57:23Z</time>
      </trkpt>
      <trkpt lat="49.5089" lon="1.11273">
        <ele>94.1</ele>
        <time>2022-04-30T11:57:24Z</time>
      </trkpt>
      <trkpt lat="49.50893" lon="1.11276">
        <ele>94.2</ele>
        <time>2022-04-30T11:57:25Z</time>
      </trkpt>
      <trkpt lat="49.50897" lon="1.11279">
        <ele>94.3</ele>
        <time>2022-04-30T11:57:26Z</time>
      </trkpt>
      <trkpt lat="49.509" lon="1.1128">
        <ele>94.4</ele>
        <time>2022-04-30T11:57:27Z</time>
      </trkpt>
      <trkpt lat="49.50904" lon="1.11282">
        <ele>94.5</ele>
        <time>2022-04-30T11:57:28Z</time>
      </trkpt>
      <trkpt lat="49.50907" lon="1.11284">
        <ele>94.6</ele>
        <time>2022-04-30T11:57:29Z</time>
      </trkpt>
      <trkpt lat="49.50911" lon="1.11286">
        <ele>94.7</ele>
        <time>2022-04-30T11:57:30Z</time>
      </trkpt>
      <trkpt lat="49.50915" lon="1.11289">
        <ele>94.9</ele>
        <time>2022-04-30T11:57:31Z</time>
      </trkpt>
      <trkpt lat="49.50919" lon="1.11291">
        <ele>95</ele>
        <time>2022-04-30T11:57:32Z</time>
      </trkpt>
      <trkpt lat="49.50923" lon="1.11292">
        <ele>95.1</ele>
        <time>2022-04-30T11:57:33Z</time>
      </trkpt>
      <trkpt lat="49.50927" lon="1.11294">
        <ele>95.3</ele>
        <time>2022-04-30T11:57:34Z</time>
      </trkpt>
      <trkpt lat="49.5093" lon="1.11296">
        <ele>95.4</ele>
        <time>2022-04-30T11:57:35Z</time>
      </trkpt>
      <trkpt lat="49.50934" lon="1.11298">
        <ele>95.5</ele>
        <time>2022-04-30T11:57:36Z</time>
      </trkpt>
      <trkpt lat="49.50937" lon="1.113">
        <ele>95.6</ele>
        <time>2022-04-30T11:57:37Z</time>
      </trkpt>
      <trkpt lat="49.5094" lon="1.11302">
        <ele>95.7</ele>
        <time>2022-04-30T11:57:38Z</time>
      </trkpt>
      <trkpt lat="49.50941" lon="1.11303">
        <ele>95.8</ele>
        <time>2022-04-30T11:57:39Z</time>
      </trkpt>
      <trkpt lat="49.50945" lon="1.11304">
        <ele>95.9</ele>
        <time>2022-04-30T11:57:40Z</time>
      </trkpt>
      <trkpt lat="49.50948" lon="1.11307">
        <ele>96</ele>
        <time>2022-04-30T11:57:41Z</time>
      </trkpt>
      <trkpt lat="49.50952" lon="1.11309">
        <ele>96.1</ele>
        <time>2022-04-30T11:57:42Z</time>
      </trkpt>
      <trkpt lat="49.50956" lon="1.11311">
        <ele>96.2</ele>
        <time>2022-04-30T11:57:43Z</time>
      </trkpt>
      <trkpt lat="49.5096" lon="1.11313">
        <ele>96.4</ele>
        <time>2022-04-30T11:57:44Z</time>
      </trkpt>
      <trkpt lat="49.50964" lon="1.11315">
        <ele>96.5</ele>
        <time>2022-04-30T11:57:45Z</time>
      </trkpt>
      <trkpt lat="49.50966" lon="1.11316">
        <ele>96.6</ele>
        <time>2022-04-30T11:57:46Z</time>
      </trkpt>
      <trkpt lat="49.50969" lon="1.11318">
        <ele>96.6</ele>
        <time>2022-04-30T11:57:47Z</time>
      </trkpt>
      <trkpt lat="49.50972" lon="1.1132">
        <ele>96.7</ele>
        <time>2022-04-30T11:57:48Z</time>
      </trkpt>
      <trkpt lat="49.50973" lon="1.11321">
        <ele>96.8</ele>
        <time>2022-04-30T11:57:49Z</time>
      </trkpt>
      <trkpt lat="49.50976" lon="1.11324">
        <ele>96.9</ele>
        <time>2022-04-30T11:57:50Z</time>
      </trkpt>
      <trkpt lat="49.50979" lon="1.11327">
        <ele>97</ele>
        <time>2022-04-30T11:57:51Z</time>
      </trkpt>
      <trkpt lat="49.50984" lon="1.11332">
        <ele>97.1</ele>
        <time>2022-04-30T11:57:52Z</time>
      </trkpt>
      <trkpt lat="49.50988" lon="1.11337">
        <ele>97.3</ele>
        <time>2022-04-30T11:57:53Z</time>
      </trkpt>
      <trkpt lat="49.50993" lon="1.11342">
        <ele>97.4</ele>
        <time>2022-04-30T11:57:54Z</time>
      </trkpt>
      <trkpt lat="49.50998" lon="1.11347">
        <ele>97.6</ele>
        <time>2022-04-30T11:57:55Z</time>
      </trkpt>
      <trkpt lat="49.51002" lon="1.11351">
        <ele>97.8</ele>
        <time>2022-04-30T11:57:56Z</time>
      </trkpt>
      <trkpt lat="49.51005" lon="1.11354">
        <ele>97.9</ele>
        <time>2022-04-30T11:57:57Z</time>
      </trkpt>
      <trkpt lat="49.51008" lon="1.11358">
        <ele>98</ele>
        <time>2022-04-30T11:57:58Z</time>
      </trkpt>
      <trkpt lat="49.51011" lon="1.11362">
        <ele>98.1</ele>
        <time>2022-04-30T11:57:59Z</time>
      </trkpt>
      <trkpt lat="49.51014" lon="1.11366">
        <ele>98.3</ele>
        <time>2022-04-30T11:58:00Z</time>
      </trkpt>
      <trkpt lat="49.51015" lon="1.1137">
        <ele>98.3</ele>
        <time>2022-04-30T11:58:01Z</time>
      </trkpt>
      <trkpt lat="49.51017" lon="1.11374">
        <ele>98.5</ele>
        <time>2022-04-30T11:58:02Z</time>
      </trkpt>
      <trkpt lat="49.51019" lon="1.11379">
        <ele>98.6</ele>
        <time>2022-04-30T11:58:03Z</time>
      </trkpt>
      <trkpt lat="49.5102" lon="1.1138">
        <ele>98.6</ele>
        <time>2022-04-30T11:58:04Z</time>
      </trkpt>
      <trkpt lat="49.51023" lon="1.11386">
        <ele>98.8</ele>
        <time>2022-04-30T11:58:05Z</time>
      </trkpt>
      <trkpt lat="49.51024" lon="1.11388">
        <ele>98.8</ele>
        <time>2022-04-30T11:58:06Z</time>
      </trkpt>
      <trkpt lat="49.51026" lon="1.11393">
        <ele>98.9</ele>
        <time>2022-04-30T11:58:07Z</time>
      </trkpt>
      <trkpt lat="49.51028" lon="1.11398">
        <ele>99.1</ele>
        <time>2022-04-30T11:58:08Z</time>
      </trkpt>
      <trkpt lat="49.5103" lon="1.11404">
        <ele>99.2</ele>
        <time>2022-04-30T11:58:09Z</time>
      </trkpt>
      <trkpt lat="49.51032" lon="1.11408">
        <ele>99.3</ele>
        <time>2022-04-30T11:58:10Z</time>
      </trkpt>
      <trkpt lat="49.51035" lon="1.11413">
        <ele>99.4</ele>
        <time>2022-04-30T11:58:11Z</time>
      </trkpt>
      <trkpt lat="49.51038" lon="1.11419">
        <ele>99.5</ele>
        <time>2022-04-30T11:58:12Z</time>
      </trkpt>
      <trkpt lat="49.51039" lon="1.11425">
        <ele>99.7</ele>
        <time>2022-04-30T11:58:13Z</time>
      </trkpt>
      <trkpt lat="49.51041" lon="1.11428">
        <ele>99.7</ele>
        <time>2022-04-30T11:58:14Z</time>
      </trkpt>
      <trkpt lat="49.51043" lon="1.11433">
        <ele>99.8</ele>
        <time>2022-04-30T11:58:15Z</time>
      </trkpt>
      <trkpt lat="49.51044" lon="1.11435">
        <ele>99.9</ele>
        <time>2022-04-30T11:58:16Z</time>
      </trkpt>
      <trkpt lat="49.51046" lon="1.11438">
        <ele>100</ele>
        <time>2022-04-30T11:58:17Z</time>
      </trkpt>
      <trkpt lat="49.51047" lon="1.11443">
        <ele>100.1</ele>
        <time>2022-04-30T11:58:18Z</time>
      </trkpt>
      <trkpt lat="49.51049" lon="1.11448">
        <ele>100.2</ele>
        <time>2022-04-30T11:58:19Z</time>
      </trkpt>
      <trkpt lat="49.5105" lon="1.11453">
        <ele>100.3</ele>
        <time>2022-04-30T11:58:20Z</time>
      </trkpt>
      <trkpt lat="49.51052" lon="1.11457">
        <ele>100.4</ele>
        <time>2022-04-30T11:58:21Z</time>
      </trkpt>
      <trkpt lat="49.51055" lon="1.11467">
        <ele>100.7</ele>
        <time>2022-04-30T11:58:23Z</time>
      </trkpt>
      <trkpt lat="49.51057" lon="1.11473">
        <ele>100.8</ele>
        <time>2022-04-30T11:58:24Z</time>
      </trkpt>
      <trkpt lat="49.51058" lon="1.11479">
        <ele>100.9</ele>
        <time>2022-04-30T11:58:25Z</time>
      </trkpt>
      <trkpt lat="49.51059" lon="1.11485">
        <ele>101.1</ele>
        <time>2022-04-30T11:58:26Z</time>
      </trkpt>
      <trkpt lat="49.5106" lon="1.11492">
        <ele>101.2</ele>
        <time>2022-04-30T11:58:27Z</time>
      </trkpt>
      <trkpt lat="49.51061" lon="1.11496">
        <ele>101.3</ele>
        <time>2022-04-30T11:58:28Z</time>
      </trkpt>
      <trkpt lat="49.51062" lon="1.11501">
        <ele>101.4</ele>
        <time>2022-04-30T11:58:29Z</time>
      </trkpt>
      <trkpt lat="49.51063" lon="1.11505">
        <ele>101.5</ele>
        <time>2022-04-30T11:58:30Z</time>
      </trkpt>
      <trkpt lat="49.51064" lon="1.11511">
        <ele>101.6</ele>
        <time>2022-04-30T11:58:31Z</time>
      </trkpt>
      <trkpt lat="49.51064" lon="1.11517">
        <ele>101.7</ele>
        <time>2022-04-30T11:58:32Z</time>
      </trkpt>
      <trkpt lat="49.51065" lon="1.11523">
        <ele>101.8</ele>
        <time>2022-04-30T11:58:33Z</time>
      </trkpt>
      <trkpt lat="49.51067" lon="1.1153">
        <ele>102</ele>
        <time>2022-04-30T11:58:34Z</time>
      </trkpt>
      <trkpt lat="49.51069" lon="1.11537">
        <ele>102.1</ele>
        <time>2022-04-30T11:58:35Z</time>
      </trkpt>
      <trkpt lat="49.5107" lon="1.11543">
        <ele>102.2</ele>
        <time>2022-04-30T11:58:36Z</time>
      </trkpt>
      <trkpt lat="49.51071" lon="1.11547">
        <ele>102.3</ele>
        <time>2022-04-30T11:58:37Z</time>
      </trkpt>
      <trkpt lat="49.51072" lon="1.11553">
        <ele>102.4</ele>
        <time>2022-04-30T11:58:38Z</time>
      </trkpt>
      <trkpt lat="49.51073" lon="1.11555">
        <ele>102.5</ele>
        <time>2022-04-30T11:58:39Z</time>
      </trkpt>
      <trkpt lat="49.51073" lon="1.11561">
        <ele>102.6</ele>
        <time>2022-04-30T11:58:40Z</time>
      </trkpt>
      <trkpt lat="49.51072" lon="1.11563">
        <ele>102.7</ele>
        <time>2022-04-30T11:58:41Z</time>
      </trkpt>
      <trkpt lat="49.51073" lon="1.11568">
        <ele>102.8</ele>
        <time>2022-04-30T11:58:42Z</time>
      </trkpt>
      <trkpt lat="49.51073" lon="1.11573">
        <ele>102.9</ele>
        <time>2022-04-30T11:58:43Z</time>
      </trkpt>
      <trkpt lat="49.51074" lon="1.11578">
        <ele>103</ele>
        <time>2022-04-30T11:58:44Z</time>
      </trkpt>
      <trkpt lat="49.51075" lon="1.11584">
        <ele>103.1</ele>
        <time>2022-04-30T11:58:45Z</time>
      </trkpt>
      <trkpt lat="49.51076" lon="1.11589">
        <ele>103.2</ele>
        <time>2022-04-30T11:58:46Z</time>
      </trkpt>
      <trkpt lat="49.51077" lon="1.11596">
        <ele>103.3</ele>
        <time>2022-04-30T11:58:47Z</time>
      </trkpt>
      <trkpt lat="49.51078" lon="1.11602">
        <ele>103.5</ele>
        <time>2022-04-30T11:58:48Z</time>
      </trkpt>
      <trkpt lat="49.51078" lon="1.11608">
        <ele>103.6</ele>
        <time>2022-04-30T11:58:49Z</time>
      </trkpt>
      <trkpt lat="49.51079" lon="1.11614">
        <ele>103.7</ele>
        <time>2022-04-30T11:58:50Z</time>
      </trkpt>
      <trkpt lat="49.5108" lon="1.1162">
        <ele>103.9</ele>
        <time>2022-04-30T11:58:51Z</time>
      </trkpt>
      <trkpt lat="49.5108" lon="1.11627">
        <ele>104.1</ele>
        <time>2022-04-30T11:58:52Z</time>
      </trkpt>
      <trkpt lat="49.5108" lon="1.11634">
        <ele>104.2</ele>
        <time>2022-04-30T11:58:53Z</time>
      </trkpt>
      <trkpt lat="49.5108" lon="1.1164">
        <ele>104.4</ele>
        <time>2022-04-30T11:58:54Z</time>
      </trkpt>
      <trkpt lat="49.51081" lon="1.11646">
        <ele>104.5</ele>
        <time>2022-04-30T11:58:55Z</time>
      </trkpt>
      <trkpt lat="49.51083" lon="1.11652">
        <ele>104.6</ele>
        <time>2022-04-30T11:58:56Z</time>
      </trkpt>
      <trkpt lat="49.51084" lon="1.11658">
        <ele>104.8</ele>
        <time>2022-04-30T11:58:57Z</time>
      </trkpt>
      <trkpt lat="49.51084" lon="1.11663">
        <ele>104.9</ele>
        <time>2022-04-30T11:58:58Z</time>
      </trkpt>
      <trkpt lat="49.51085" lon="1.11668">
        <ele>105</ele>
        <time>2022-04-30T11:58:59Z</time>
      </trkpt>
      <trkpt lat="49.51086" lon="1.11673">
        <ele>105.1</ele>
        <time>2022-04-30T11:59:00Z</time>
      </trkpt>
      <trkpt lat="49.51089" lon="1.11676">
        <ele>105.3</ele>
        <time>2022-04-30T11:59:01Z</time>
      </trkpt>
      <trkpt lat="49.51092" lon="1.1168">
        <ele>105.4</ele>
        <time>2022-04-30T11:59:02Z</time>
      </trkpt>
      <trkpt lat="49.51093" lon="1.11684">
        <ele>105.5</ele>
        <time>2022-04-30T11:59:03Z</time>
      </trkpt>
      <trkpt lat="49.51095" lon="1.11689">
        <ele>105.7</ele>
        <time>2022-04-30T11:59:04Z</time>
      </trkpt>
      <trkpt lat="49.51096" lon="1.11695">
        <ele>105.8</ele>
        <time>2022-04-30T11:59:05Z</time>
      </trkpt>
      <trkpt lat="49.51097" lon="1.11702">
        <ele>106</ele>
        <time>2022-04-30T11:59:06Z</time>
      </trkpt>
      <trkpt lat="49.51098" lon="1.1171">
        <ele>106.2</ele>
        <time>2022-04-30T11:59:07Z</time>
      </trkpt>
      <trkpt lat="49.51099" lon="1.11716">
        <ele>106.3</ele>
        <time>2022-04-30T11:59:08Z</time>
      </trkpt>
      <trkpt lat="49.511" lon="1.11722">
        <ele>106.5</ele>
        <time>2022-04-30T11:59:09Z</time>
      </trkpt>
      <trkpt lat="49.51101" lon="1.11728">
        <ele>106.6</ele>
        <time>2022-04-30T11:59:10Z</time>
      </trkpt>
      <trkpt lat="49.51102" lon="1.11733">
        <ele>106.8</ele>
        <time>2022-04-30T11:59:11Z</time>
      </trkpt>
      <trkpt lat="49.51103" lon="1.11738">
        <ele>106.9</ele>
        <time>2022-04-30T11:59:12Z</time>
      </trkpt>
      <trkpt lat="49.51103" lon="1.11746">
        <ele>107.1</ele>
        <time>2022-04-30T11:59:13Z</time>
      </trkpt>
      <trkpt lat="49.51105" lon="1.11753">
        <ele>107.3</ele>
        <time>2022-04-30T11:59:14Z</time>
      </trkpt>
      <trkpt lat="49.51106" lon="1.11759">
        <ele>107.5</ele>
        <time>2022-04-30T11:59:15Z</time>
      </trkpt>
      <trkpt lat="49.51108" lon="1.11764">
        <ele>107.6</ele>
        <time>2022-04-30T11:59:16Z</time>
      </trkpt>
      <trkpt lat="49.5111" lon="1.11768">
        <ele>107.8</ele>
        <time>2022-04-30T11:59:17Z</time>
      </trkpt>
      <trkpt lat="49.51113" lon="1.11771">
        <ele>108</ele>
        <time>2022-04-30T11:59:18Z</time>
      </trkpt>
      <trkpt lat="49.51116" lon="1.11775">
        <ele>108.2</ele>
        <time>2022-04-30T11:59:19Z</time>
      </trkpt>
      <trkpt lat="49.51119" lon="1.11778">
        <ele>108.4</ele>
        <time>2022-04-30T11:59:20Z</time>
      </trkpt>
      <trkpt lat="49.51124" lon="1.11782">
        <ele>108.7</ele>
        <time>2022-04-30T11:59:21Z</time>
      </trkpt>
      <trkpt lat="49.51127" lon="1.11785">
        <ele>108.9</ele>
        <time>2022-04-30T11:59:22Z</time>
      </trkpt>
      <trkpt lat="49.51132" lon="1.11789">
        <ele>109.1</ele>
        <time>2022-04-30T11:59:23Z</time>
      </trkpt>
      <trkpt lat="49.51137" lon="1.11795">
        <ele>109.3</ele>
        <time>2022-04-30T11:59:24Z</time>
      </trkpt>
      <trkpt lat="49.51143" lon="1.118">
        <ele>109.6</ele>
        <time>2022-04-30T11:59:25Z</time>
      </trkpt>
      <trkpt lat="49.51147" lon="1.11803">
        <ele>109.8</ele>
        <time>2022-04-30T11:59:26Z</time>
      </trkpt>
      <trkpt lat="49.51152" lon="1.11804">
        <ele>110</ele>
        <time>2022-04-30T11:59:27Z</time>
      </trkpt>
      <trkpt lat="49.51155" lon="1.11806">
        <ele>110.2</ele>
        <time>2022-04-30T11:59:28Z</time>
      </trkpt>
      <trkpt lat="49.51158" lon="1.11807">
        <ele>110.3</ele>
        <time>2022-04-30T11:59:29Z</time>
      </trkpt>
      <trkpt lat="49.51161" lon="1.11808">
        <ele>110.4</ele>
        <time>2022-04-30T11:59:30Z</time>
      </trkpt>
      <trkpt lat="49.51162" lon="1.11809">
        <ele>110.5</ele>
        <time>2022-04-30T11:59:31Z</time>
      </trkpt>
      <trkpt lat="49.51165" lon="1.11809">
        <ele>110.6</ele>
        <time>2022-04-30T11:59:32Z</time>
      </trkpt>
      <trkpt lat="49.51166" lon="1.11808">
        <ele>110.6</ele>
        <time>2022-04-30T11:59:33Z</time>
      </trkpt>
      <trkpt lat="49.51168" lon="1.11809">
        <ele>110.7</ele>
        <time>2022-04-30T11:59:34Z</time>
      </trkpt>
      <trkpt lat="49.51169" lon="1.11809">
        <ele>110.8</ele>
        <time>2022-04-30T11:59:35Z</time>
      </trkpt>
      <trkpt lat="49.51169" lon="1.1181">
        <ele>110.8</ele>
        <time>2022-04-30T11:59:36Z</time>
      </trkpt>
      <trkpt lat="49.51172" lon="1.1181">
        <ele>110.9</ele>
        <time>2022-04-30T11:59:37Z</time>
      </trkpt>
      <trkpt lat="49.51173" lon="1.1181">
        <ele>111</ele>
        <time>2022-04-30T11:59:38Z</time>
      </trkpt>
      <trkpt lat="49.51175" lon="1.11811">
        <ele>111</ele>
        <time>2022-04-30T11:59:39Z</time>
      </trkpt>
      <trkpt lat="49.51177" lon="1.1181">
        <ele>111.1</ele>
        <time>2022-04-30T11:59:40Z</time>
      </trkpt>
      <trkpt lat="49.51181" lon="1.11813">
        <ele>111.3</ele>
        <time>2022-04-30T11:59:41Z</time>
      </trkpt>
      <trkpt lat="49.51182" lon="1.11814">
        <ele>111.4</ele>
        <time>2022-04-30T11:59:42Z</time>
      </trkpt>
      <trkpt lat="49.51186" lon="1.11816">
        <ele>111.5</ele>
        <time>2022-04-30T11:59:43Z</time>
      </trkpt>
      <trkpt lat="49.51189" lon="1.11818">
        <ele>111.7</ele>
        <time>2022-04-30T11:59:44Z</time>
      </trkpt>
      <trkpt lat="49.51192" lon="1.1182">
        <ele>111.8</ele>
        <time>2022-04-30T11:59:45Z</time>
      </trkpt>
      <trkpt lat="49.51196" lon="1.11822">
        <ele>112</ele>
        <time>2022-04-30T11:59:46Z</time>
      </trkpt>
      <trkpt lat="49.512" lon="1.11824">
        <ele>112.1</ele>
        <time>2022-04-30T11:59:47Z</time>
      </trkpt>
      <trkpt lat="49.51204" lon="1.11826">
        <ele>112.3</ele>
        <time>2022-04-30T11:59:48Z</time>
      </trkpt>
      <trkpt lat="49.51209" lon="1.11828">
        <ele>112.5</ele>
        <time>2022-04-30T11:59:49Z</time>
      </trkpt>
      <trkpt lat="49.51212" lon="1.1183">
        <ele>112.7</ele>
        <time>2022-04-30T11:59:50Z</time>
      </trkpt>
      <trkpt lat="49.51215" lon="1.11831">
        <ele>112.8</ele>
        <time>2022-04-30T11:59:51Z</time>
      </trkpt>
      <trkpt lat="49.51219" lon="1.11833">
        <ele>112.9</ele>
        <time>2022-04-30T11:59:52Z</time>
      </trkpt>
      <trkpt lat="49.51223" lon="1.11835">
        <ele>113.1</ele>
        <time>2022-04-30T11:59:53Z</time>
      </trkpt>
      <trkpt lat="49.51227" lon="1.11837">
        <ele>113.2</ele>
        <time>2022-04-30T11:59:54Z</time>
      </trkpt>
      <trkpt lat="49.5123" lon="1.11839">
        <ele>113.4</ele>
        <time>2022-04-30T11:59:55Z</time>
      </trkpt>
      <trkpt lat="49.51234" lon="1.11841">
        <ele>113.6</ele>
        <time>2022-04-30T11:59:56Z</time>
      </trkpt>
      <trkpt lat="49.51239" lon="1.11843">
        <ele>113.7</ele>
        <time>2022-04-30T11:59:57Z</time>
      </trkpt>
      <trkpt lat="49.51243" lon="1.11844">
        <ele>113.9</ele>
        <time>2022-04-30T11:59:58Z</time>
      </trkpt>
      <trkpt lat="49.51246" lon="1.11846">
        <ele>114</ele>
        <time>2022-04-30T11:59:59Z</time>
      </trkpt>
      <trkpt lat="49.51249" lon="1.11847">
        <ele>114.1</ele>
        <time>2022-04-30T12:00:00Z</time>
      </trkpt>
      <trkpt lat="49.51254" lon="1.11848">
        <ele>114.3</ele>
        <time>2022-04-30T12:00:01Z</time>
      </trkpt>
      <trkpt lat="49.51259" lon="1.11849">
        <ele>114.5</ele>
        <time>2022-04-30T12:00:02Z</time>
      </trkpt>
      <trkpt lat="49.51263" lon="1.11851">
        <ele>114.7</ele>
        <time>2022-04-30T12:00:03Z</time>
      </trkpt>
      <trkpt lat="49.51267" lon="1.11852">
        <ele>114.8</ele>
        <time>2022-04-30T12:00:04Z</time>
      </trkpt>
      <trkpt lat="49.5127" lon="1.11854">
        <ele>114.9</ele>
        <time>2022-04-30T12:00:05Z</time>
      </trkpt>
      <trkpt lat="49.51273" lon="1.11855">
        <ele>115.1</ele>
        <time>2022-04-30T12:00:06Z</time>
      </trkpt>
      <trkpt lat="49.51274" lon="1.11855">
        <ele>115.1</ele>
        <time>2022-04-30T12:00:07Z</time>
      </trkpt>
      <trkpt lat="49.51277" lon="1.11856">
        <ele>115.3</ele>
        <time>2022-04-30T12:00:08Z</time>
      </trkpt>
      <trkpt lat="49.51281" lon="1.11857">
        <ele>115.4</ele>
        <time>2022-04-30T12:00:09Z</time>
      </trkpt>
      <trkpt lat="49.51285" lon="1.11859">
        <ele>115.6</ele>
        <time>2022-04-30T12:00:10Z</time>
      </trkpt>
      <trkpt lat="49.51289" lon="1.11862">
        <ele>115.8</ele>
        <time>2022-04-30T12:00:11Z</time>
      </trkpt>
      <trkpt lat="49.51294" lon="1.11864">
        <ele>116</ele>
        <time>2022-04-30T12:00:12Z</time>
      </trkpt>
      <trkpt lat="49.51298" lon="1.11865">
        <ele>116.2</ele>
        <time>2022-04-30T12:00:13Z</time>
      </trkpt>
      <trkpt lat="49.513" lon="1.11866">
        <ele>116.3</ele>
        <time>2022-04-30T12:00:14Z</time>
      </trkpt>
      <trkpt lat="49.51304" lon="1.11868">
        <ele>116.5</ele>
        <time>2022-04-30T12:00:15Z</time>
      </trkpt>
      <trkpt lat="49.51306" lon="1.1187">
        <ele>116.6</ele>
        <time>2022-04-30T12:00:16Z</time>
      </trkpt>
      <trkpt lat="49.5131" lon="1.11872">
        <ele>116.7</ele>
        <time>2022-04-30T12:00:17Z</time>
      </trkpt>
      <trkpt lat="49.51314" lon="1.11871">
        <ele>116.9</ele>
        <time>2022-04-30T12:00:18Z</time>
      </trkpt>
      <trkpt lat="49.51317" lon="1.11872">
        <ele>117.1</ele>
        <time>2022-04-30T12:00:19Z</time>
      </trkpt>
      <trkpt lat="49.5132" lon="1.11874">
        <ele>117.2</ele>
        <time>2022-04-30T12:00:20Z</time>
      </trkpt>
      <trkpt lat="49.51321" lon="1.11875">
        <ele>117.3</ele>
        <time>2022-04-30T12:00:21Z</time>
      </trkpt>
      <trkpt lat="49.51325" lon="1.11877">
        <ele>117.4</ele>
        <time>2022-04-30T12:00:22Z</time>
      </trkpt>
      <trkpt lat="49.51328" lon="1.11877">
        <ele>117.6</ele>
        <time>2022-04-30T12:00:23Z</time>
      </trkpt>
      <trkpt lat="49.51332" lon="1.11878">
        <ele>117.8</ele>
        <time>2022-04-30T12:00:24Z</time>
      </trkpt>
      <trkpt lat="49.51333" lon="1.11879">
        <ele>117.8</ele>
        <time>2022-04-30T12:00:25Z</time>
      </trkpt>
      <trkpt lat="49.51336" lon="1.11881">
        <ele>117.9</ele>
        <time>2022-04-30T12:00:26Z</time>
      </trkpt>
      <trkpt lat="49.51339" lon="1.11882">
        <ele>118.1</ele>
        <time>2022-04-30T12:00:27Z</time>
      </trkpt>
      <trkpt lat="49.51344" lon="1.11882">
        <ele>118.3</ele>
        <time>2022-04-30T12:00:28Z</time>
      </trkpt>
      <trkpt lat="49.51348" lon="1.11883">
        <ele>118.5</ele>
        <time>2022-04-30T12:00:29Z</time>
      </trkpt>
      <trkpt lat="49.51352" lon="1.11882">
        <ele>118.7</ele>
        <time>2022-04-30T12:00:30Z</time>
      </trkpt>
      <trkpt lat="49.51355" lon="1.11882">
        <ele>118.8</ele>
        <time>2022-04-30T12:00:31Z</time>
      </trkpt>
      <trkpt lat="49.51358" lon="1.11882">
        <ele>119</ele>
        <time>2022-04-30T12:00:32Z</time>
      </trkpt>
      <trkpt lat="49.5136" lon="1.11882">
        <ele>119</ele>
        <time>2022-04-30T12:00:33Z</time>
      </trkpt>
      <trkpt lat="49.51363" lon="1.11881">
        <ele>119.1</ele>
        <time>2022-04-30T12:00:34Z</time>
      </trkpt>
      <trkpt lat="49.51366" lon="1.1188">
        <ele>119.3</ele>
        <time>2022-04-30T12:00:35Z</time>
      </trkpt>
      <trkpt lat="49.51368" lon="1.1188">
        <ele>119.4</ele>
        <time>2022-04-30T12:00:36Z</time>
      </trkpt>
      <trkpt lat="49.51371" lon="1.1188">
        <ele>119.5</ele>
        <time>2022-04-30T12:00:37Z</time>
      </trkpt>
      <trkpt lat="49.51376" lon="1.1188">
        <ele>119.7</ele>
        <time>2022-04-30T12:00:38Z</time>
      </trkpt>
      <trkpt lat="49.51385" lon="1.1188">
        <ele>120.1</ele>
        <time>2022-04-30T12:00:39Z</time>
      </trkpt>
      <trkpt lat="49.51391" lon="1.11877">
        <ele>120.3</ele>
        <time>2022-04-30T12:00:40Z</time>
      </trkpt>
      <trkpt lat="49.51397" lon="1.11875">
        <ele>120.5</ele>
        <time>2022-04-30T12:00:41Z</time>
      </trkpt>
      <trkpt lat="49.51402" lon="1.11873">
        <ele>120.7</ele>
        <time>2022-04-30T12:00:42Z</time>
      </trkpt>
      <trkpt lat="49.51407" lon="1.11871">
        <ele>120.9</ele>
        <time>2022-04-30T12:00:43Z</time>
      </trkpt>
      <trkpt lat="49.51411" lon="1.11869">
        <ele>121.1</ele>
        <time>2022-04-30T12:00:44Z</time>
      </trkpt>
      <trkpt lat="49.51416" lon="1.11868">
        <ele>121.3</ele>
        <time>2022-04-30T12:00:45Z</time>
      </trkpt>
      <trkpt lat="49.5142" lon="1.11867">
        <ele>121.5</ele>
        <time>2022-04-30T12:00:46Z</time>
      </trkpt>
      <trkpt lat="49.51425" lon="1.11866">
        <ele>121.7</ele>
        <time>2022-04-30T12:00:47Z</time>
      </trkpt>
      <trkpt lat="49.51429" lon="1.11865">
        <ele>121.9</ele>
        <time>2022-04-30T12:00:48Z</time>
      </trkpt>
      <trkpt lat="49.51433" lon="1.11864">
        <ele>122.1</ele>
        <time>2022-04-30T12:00:49Z</time>
      </trkpt>
      <trkpt lat="49.51437" lon="1.11863">
        <ele>122.2</ele>
        <time>2022-04-30T12:00:50Z</time>
      </trkpt>
      <trkpt lat="49.51439" lon="1.11861">
        <ele>122.4</ele>
        <time>2022-04-30T12:00:51Z</time>
      </trkpt>
      <trkpt lat="49.51442" lon="1.1186">
        <ele>122.5</ele>
        <time>2022-04-30T12:00:52Z</time>
      </trkpt>
      <trkpt lat="49.51446" lon="1.11858">
        <ele>122.6</ele>
        <time>2022-04-30T12:00:53Z</time>
      </trkpt>
      <trkpt lat="49.51447" lon="1.11858">
        <ele>122.7</ele>
        <time>2022-04-30T12:00:54Z</time>
      </trkpt>
      <trkpt lat="49.51451" lon="1.11857">
        <ele>122.9</ele>
        <time>2022-04-30T12:00:55Z</time>
      </trkpt>
      <trkpt lat="49.51456" lon="1.11857">
        <ele>123</ele>
        <time>2022-04-30T12:00:56Z</time>
      </trkpt>
      <trkpt lat="49.51459" lon="1.11857">
        <ele>123.2</ele>
        <time>2022-04-30T12:00:57Z</time>
      </trkpt>
      <trkpt lat="49.51462" lon="1.11856">
        <ele>123.3</ele>
        <time>2022-04-30T12:00:58Z</time>
      </trkpt>
      <trkpt lat="49.51463" lon="1.11856">
        <ele>123.4</ele>
        <time>2022-04-30T12:00:59Z</time>
      </trkpt>
      <trkpt lat="49.51467" lon="1.11855">
        <ele>123.5</ele>
        <time>2022-04-30T12:01:00Z</time>
      </trkpt>
      <trkpt lat="49.51471" lon="1.11853">
        <ele>123.7</ele>
        <time>2022-04-30T12:01:01Z</time>
      </trkpt>
      <trkpt lat="49.51474" lon="1.11852">
        <ele>123.8</ele>
        <time>2022-04-30T12:01:02Z</time>
      </trkpt>
      <trkpt lat="49.51478" lon="1.11852">
        <ele>124</ele>
        <time>2022-04-30T12:01:03Z</time>
      </trkpt>
      <trkpt lat="49.51482" lon="1.11852">
        <ele>124.2</ele>
        <time>2022-04-30T12:01:04Z</time>
      </trkpt>
      <trkpt lat="49.51486" lon="1.11852">
        <ele>124.4</ele>
        <time>2022-04-30T12:01:05Z</time>
      </trkpt>
      <trkpt lat="49.51489" lon="1.11852">
        <ele>124.5</ele>
        <time>2022-04-30T12:01:06Z</time>
      </trkpt>
      <trkpt lat="49.51493" lon="1.11853">
        <ele>124.7</ele>
        <time>2022-04-30T12:01:07Z</time>
      </trkpt>
      <trkpt lat="49.51495" lon="1.11853">
        <ele>124.8</ele>
        <time>2022-04-30T12:01:08Z</time>
      </trkpt>
      <trkpt lat="49.51499" lon="1.11854">
        <ele>124.9</ele>
        <time>2022-04-30T12:01:09Z</time>
      </trkpt>
      <trkpt lat="49.51503" lon="1.11853">
        <ele>125.1</ele>
        <time>2022-04-30T12:01:10Z</time>
      </trkpt>
      <trkpt lat="49.51509" lon="1.11854">
        <ele>125.4</ele>
        <time>2022-04-30T12:01:11Z</time>
      </trkpt>
      <trkpt lat="49.51513" lon="1.11855">
        <ele>125.6</ele>
        <time>2022-04-30T12:01:12Z</time>
      </trkpt>
      <trkpt lat="49.51517" lon="1.11857">
        <ele>125.7</ele>
        <time>2022-04-30T12:01:13Z</time>
      </trkpt>
      <trkpt lat="49.51521" lon="1.11859">
        <ele>125.9</ele>
        <time>2022-04-30T12:01:14Z</time>
      </trkpt>
      <trkpt lat="49.51528" lon="1.11861">
        <ele>126.3</ele>
        <time>2022-04-30T12:01:15Z</time>
      </trkpt>
      <trkpt lat="49.51535" lon="1.11864">
        <ele>126.5</ele>
        <time>2022-04-30T12:01:16Z</time>
      </trkpt>
      <trkpt lat="49.5154" lon="1.11868">
        <ele>126.8</ele>
        <time>2022-04-30T12:01:17Z</time>
      </trkpt>
      <trkpt lat="49.51545" lon="1.1187">
        <ele>127</ele>
        <time>2022-04-30T12:01:18Z</time>
      </trkpt>
      <trkpt lat="49.5155" lon="1.11872">
        <ele>127.2</ele>
        <time>2022-04-30T12:01:19Z</time>
      </trkpt>
      <trkpt lat="49.51553" lon="1.11876">
        <ele>127.3</ele>
        <time>2022-04-30T12:01:20Z</time>
      </trkpt>
      <trkpt lat="49.51556" lon="1.1188">
        <ele>127.5</ele>
        <time>2022-04-30T12:01:21Z</time>
      </trkpt>
      <trkpt lat="49.51558" lon="1.11884">
        <ele>127.7</ele>
        <time>2022-04-30T12:01:22Z</time>
      </trkpt>
      <trkpt lat="49.51559" lon="1.11885">
        <ele>127.7</ele>
        <time>2022-04-30T12:01:23Z</time>
      </trkpt>
      <trkpt lat="49.5156" lon="1.11891">
        <ele>127.9</ele>
        <time>2022-04-30T12:01:24Z</time>
      </trkpt>
      <trkpt lat="49.5156" lon="1.11892">
        <ele>127.9</ele>
        <time>2022-04-30T12:01:25Z</time>
      </trkpt>
      <trkpt lat="49.51561" lon="1.11897">
        <ele>128</ele>
        <time>2022-04-30T12:01:26Z</time>
      </trkpt>
      <trkpt lat="49.51562" lon="1.11899">
        <ele>128.1</ele>
        <time>2022-04-30T12:01:27Z</time>
      </trkpt>
      <trkpt lat="49.51562" lon="1.11903">
        <ele>128.2</ele>
        <time>2022-04-30T12:01:28Z</time>
      </trkpt>
      <trkpt lat="49.51563" lon="1.11907">
        <ele>128.3</ele>
        <time>2022-04-30T12:01:29Z</time>
      </trkpt>
      <trkpt lat="49.51565" lon="1.11912">
        <ele>128.5</ele>
        <time>2022-04-30T12:01:30Z</time>
      </trkpt>
      <trkpt lat="49.51566" lon="1.11913">
        <ele>128.6</ele>
        <time>2022-04-30T12:01:31Z</time>
      </trkpt>
      <trkpt lat="49.51567" lon="1.11917">
        <ele>128.7</ele>
        <time>2022-04-30T12:01:32Z</time>
      </trkpt>
      <trkpt lat="49.51569" lon="1.11922">
        <ele>128.9</ele>
        <time>2022-04-30T12:01:33Z</time>
      </trkpt>
      <trkpt lat="49.51569" lon="1.11928">
        <ele>129.1</ele>
        <time>2022-04-30T12:01:34Z</time>
      </trkpt>
      <trkpt lat="49.51571" lon="1.11933">
        <ele>129.3</ele>
        <time>2022-04-30T12:01:35Z</time>
      </trkpt>
      <trkpt lat="49.51572" lon="1.11939">
        <ele>129.4</ele>
        <time>2022-04-30T12:01:36Z</time>
      </trkpt>
      <trkpt lat="49.51573" lon="1.11944">
        <ele>129.6</ele>
        <time>2022-04-30T12:01:37Z</time>
      </trkpt>
      <trkpt lat="49.51575" lon="1.11948">
        <ele>129.8</ele>
        <time>2022-04-30T12:01:38Z</time>
      </trkpt>
      <trkpt lat="49.51576" lon="1.11952">
        <ele>129.9</ele>
        <time>2022-04-30T12:01:39Z</time>
      </trkpt>
      <trkpt lat="49.51577" lon="1.11956">
        <ele>130</ele>
        <time>2022-04-30T12:01:40Z</time>
      </trkpt>
      <trkpt lat="49.51578" lon="1.11961">
        <ele>130.2</ele>
        <time>2022-04-30T12:01:41Z</time>
      </trkpt>
      <trkpt lat="49.51579" lon="1.11966">
        <ele>130.4</ele>
        <time>2022-04-30T12:01:42Z</time>
      </trkpt>
      <trkpt lat="49.51579" lon="1.11968">
        <ele>130.4</ele>
        <time>2022-04-30T12:01:43Z</time>
      </trkpt>
      <trkpt lat="49.5158" lon="1.11973">
        <ele>130.6</ele>
        <time>2022-04-30T12:01:44Z</time>
      </trkpt>
      <trkpt lat="49.51581" lon="1.11974">
        <ele>130.6</ele>
        <time>2022-04-30T12:01:45Z</time>
      </trkpt>
      <trkpt lat="49.51583" lon="1.11979">
        <ele>130.8</ele>
        <time>2022-04-30T12:01:46Z</time>
      </trkpt>
      <trkpt lat="49.51584" lon="1.11981">
        <ele>130.9</ele>
        <time>2022-04-30T12:01:47Z</time>
      </trkpt>
      <trkpt lat="49.51586" lon="1.11985">
        <ele>131</ele>
        <time>2022-04-30T12:01:48Z</time>
      </trkpt>
      <trkpt lat="49.51588" lon="1.1199">
        <ele>131.2</ele>
        <time>2022-04-30T12:01:49Z</time>
      </trkpt>
      <trkpt lat="49.5159" lon="1.11994">
        <ele>131.4</ele>
        <time>2022-04-30T12:01:50Z</time>
      </trkpt>
      <trkpt lat="49.51592" lon="1.11998">
        <ele>131.5</ele>
        <time>2022-04-30T12:01:51Z</time>
      </trkpt>
      <trkpt lat="49.51594" lon="1.12001">
        <ele>131.7</ele>
        <time>2022-04-30T12:01:52Z</time>
      </trkpt>
      <trkpt lat="49.51596" lon="1.12005">
        <ele>131.9</ele>
        <time>2022-04-30T12:01:53Z</time>
      </trkpt>
      <trkpt lat="49.51597" lon="1.12007">
        <ele>131.9</ele>
        <time>2022-04-30T12:01:54Z</time>
      </trkpt>
      <trkpt lat="49.51599" lon="1.1201">
        <ele>132.1</ele>
        <time>2022-04-30T12:01:55Z</time>
      </trkpt>
      <trkpt lat="49.51599" lon="1.12012">
        <ele>132.1</ele>
        <time>2022-04-30T12:01:56Z</time>
      </trkpt>
      <trkpt lat="49.51601" lon="1.12016">
        <ele>132.3</ele>
        <time>2022-04-30T12:01:57Z</time>
      </trkpt>
      <trkpt lat="49.51604" lon="1.1202">
        <ele>132.5</ele>
        <time>2022-04-30T12:01:58Z</time>
      </trkpt>
      <trkpt lat="49.51606" lon="1.12021">
        <ele>132.6</ele>
        <time>2022-04-30T12:01:59Z</time>
      </trkpt>
      <trkpt lat="49.51608" lon="1.12025">
        <ele>132.8</ele>
        <time>2022-04-30T12:02:00Z</time>
      </trkpt>
      <trkpt lat="49.5161" lon="1.12029">
        <ele>133</ele>
        <time>2022-04-30T12:02:01Z</time>
      </trkpt>
      <trkpt lat="49.51613" lon="1.12033">
        <ele>133.1</ele>
        <time>2022-04-30T12:02:02Z</time>
      </trkpt>
      <trkpt lat="49.51616" lon="1.12038">
        <ele>133.4</ele>
        <time>2022-04-30T12:02:03Z</time>
      </trkpt>
      <trkpt lat="49.51619" lon="1.12042">
        <ele>133.6</ele>
        <time>2022-04-30T12:02:04Z</time>
      </trkpt>
      <trkpt lat="49.51622" lon="1.12046">
        <ele>133.8</ele>
        <time>2022-04-30T12:02:05Z</time>
      </trkpt>
      <trkpt lat="49.51625" lon="1.12049">
        <ele>134</ele>
        <time>2022-04-30T12:02:06Z</time>
      </trkpt>
      <trkpt lat="49.51627" lon="1.12051">
        <ele>134.2</ele>
        <time>2022-04-30T12:02:07Z</time>
      </trkpt>
      <trkpt lat="49.51631" lon="1.12054">
        <ele>134.4</ele>
        <time>2022-04-30T12:02:08Z</time>
      </trkpt>
      <trkpt lat="49.51633" lon="1.12056">
        <ele>134.6</ele>
        <time>2022-04-30T12:02:09Z</time>
      </trkpt>
      <trkpt lat="49.51636" lon="1.12057">
        <ele>134.8</ele>
        <time>2022-04-30T12:02:10Z</time>
      </trkpt>
      <trkpt lat="49.51637" lon="1.12057">
        <ele>134.9</ele>
        <time>2022-04-30T12:02:11Z</time>
      </trkpt>
      <trkpt lat="49.51638" lon="1.12057">
        <ele>134.9</ele>
        <time>2022-04-30T12:02:12Z</time>
      </trkpt>
      <trkpt lat="49.51639" lon="1.12056">
        <ele>135</ele>
        <time>2022-04-30T12:02:13Z</time>
      </trkpt>
      <trkpt lat="49.5164" lon="1.12055">
        <ele>135.1</ele>
        <time>2022-04-30T12:02:14Z</time>
      </trkpt>
      <trkpt lat="49.51642" lon="1.12055">
        <ele>135.2</ele>
        <time>2022-04-30T12:02:15Z</time>
      </trkpt>
      <trkpt lat="49.51643" lon="1.12054">
        <ele>135.3</ele>
        <time>2022-04-30T12:02:16Z</time>
      </trkpt>
      <trkpt lat="49.51646" lon="1.12052">
        <ele>135.5</ele>
        <time>2022-04-30T12:02:17Z</time>
      </trkpt>
      <trkpt lat="49.51647" lon="1.12051">
        <ele>135.6</ele>
        <time>2022-04-30T12:02:18Z</time>
      </trkpt>
      <trkpt lat="49.5165" lon="1.1205">
        <ele>135.7</ele>
        <time>2022-04-30T12:02:19Z</time>
      </trkpt>
      <trkpt lat="49.51652" lon="1.12048">
        <ele>135.9</ele>
        <time>2022-04-30T12:02:20Z</time>
      </trkpt>
      <trkpt lat="49.51657" lon="1.12046">
        <ele>136.2</ele>
        <time>2022-04-30T12:02:21Z</time>
      </trkpt>
      <trkpt lat="49.51661" lon="1.12045">
        <ele>136.5</ele>
        <time>2022-04-30T12:02:22Z</time>
      </trkpt>
      <trkpt lat="49.51665" lon="1.12044">
        <ele>136.7</ele>
        <time>2022-04-30T12:02:23Z</time>
      </trkpt>
      <trkpt lat="49.51669" lon="1.12043">
        <ele>137</ele>
        <time>2022-04-30T12:02:24Z</time>
      </trkpt>
      <trkpt lat="49.51674" lon="1.12042">
        <ele>137.4</ele>
        <time>2022-04-30T12:02:25Z</time>
      </trkpt>
      <trkpt lat="49.5168" lon="1.12041">
        <ele>137.8</ele>
        <time>2022-04-30T12:02:26Z</time>
      </trkpt>
      <trkpt lat="49.51688" lon="1.12039">
        <ele>138.3</ele>
        <time>2022-04-30T12:02:27Z</time>
      </trkpt>
      <trkpt lat="49.51693" lon="1.12037">
        <ele>138.6</ele>
        <time>2022-04-30T12:02:28Z</time>
      </trkpt>
      <trkpt lat="49.51697" lon="1.12035">
        <ele>138.8</ele>
        <time>2022-04-30T12:02:29Z</time>
      </trkpt>
      <trkpt lat="49.517" lon="1.12034">
        <ele>139</ele>
        <time>2022-04-30T12:02:30Z</time>
      </trkpt>
      <trkpt lat="49.51703" lon="1.12033">
        <ele>139.2</ele>
        <time>2022-04-30T12:02:31Z</time>
      </trkpt>
      <trkpt lat="49.51706" lon="1.12032">
        <ele>139.3</ele>
        <time>2022-04-30T12:02:32Z</time>
      </trkpt>
      <trkpt lat="49.51709" lon="1.12031">
        <ele>139.5</ele>
        <time>2022-04-30T12:02:33Z</time>
      </trkpt>
      <trkpt lat="49.51713" lon="1.1203">
        <ele>139.6</ele>
        <time>2022-04-30T12:02:34Z</time>
      </trkpt>
      <trkpt lat="49.51717" lon="1.1203">
        <ele>139.9</ele>
        <time>2022-04-30T12:02:35Z</time>
      </trkpt>
      <trkpt lat="49.51721" lon="1.12029">
        <ele>140</ele>
        <time>2022-04-30T12:02:36Z</time>
      </trkpt>
      <trkpt lat="49.51724" lon="1.12029">
        <ele>140.2</ele>
        <time>2022-04-30T12:02:37Z</time>
      </trkpt>
      <trkpt lat="49.51728" lon="1.12028">
        <ele>140.4</ele>
        <time>2022-04-30T12:02:38Z</time>
      </trkpt>
      <trkpt lat="49.51729" lon="1.12028">
        <ele>140.4</ele>
        <time>2022-04-30T12:02:39Z</time>
      </trkpt>
      <trkpt lat="49.51731" lon="1.12028">
        <ele>140.5</ele>
        <time>2022-04-30T12:02:40Z</time>
      </trkpt>
      <trkpt lat="49.51733" lon="1.12028">
        <ele>140.6</ele>
        <time>2022-04-30T12:02:41Z</time>
      </trkpt>
      <trkpt lat="49.51736" lon="1.12028">
        <ele>140.7</ele>
        <time>2022-04-30T12:02:42Z</time>
      </trkpt>
      <trkpt lat="49.51737" lon="1.12028">
        <ele>140.8</ele>
        <time>2022-04-30T12:02:43Z</time>
      </trkpt>
      <trkpt lat="49.51738" lon="1.12028">
        <ele>140.8</ele>
        <time>2022-04-30T12:02:44Z</time>
      </trkpt>
      <trkpt lat="49.5174" lon="1.12028">
        <ele>140.9</ele>
        <time>2022-04-30T12:02:45Z</time>
      </trkpt>
      <trkpt lat="49.51741" lon="1.12028">
        <ele>141</ele>
        <time>2022-04-30T12:02:46Z</time>
      </trkpt>
      <trkpt lat="49.51743" lon="1.12028">
        <ele>141</ele>
        <time>2022-04-30T12:02:47Z</time>
      </trkpt>
      <trkpt lat="49.51744" lon="1.12028">
        <ele>141.1</ele>
        <time>2022-04-30T12:02:48Z</time>
      </trkpt>
      <trkpt lat="49.51745" lon="1.12029">
        <ele>141.1</ele>
        <time>2022-04-30T12:02:49Z</time>
      </trkpt>
      <trkpt lat="49.51749" lon="1.1203">
        <ele>141.3</ele>
        <time>2022-04-30T12:02:50Z</time>
      </trkpt>
      <trkpt lat="49.51751" lon="1.12031">
        <ele>141.4</ele>
        <time>2022-04-30T12:02:51Z</time>
      </trkpt>
      <trkpt lat="49.51753" lon="1.12031">
        <ele>141.4</ele>
        <time>2022-04-30T12:02:52Z</time>
      </trkpt>
      <trkpt lat="49.51754" lon="1.12031">
        <ele>141.5</ele>
        <time>2022-04-30T12:02:53Z</time>
      </trkpt>
      <trkpt lat="49.51757" lon="1.12033">
        <ele>141.6</ele>
        <time>2022-04-30T12:02:54Z</time>
      </trkpt>
      <trkpt lat="49.5176" lon="1.12034">
        <ele>141.8</ele>
        <time>2022-04-30T12:02:55Z</time>
      </trkpt>
      <trkpt lat="49.51763" lon="1.12035">
        <ele>141.9</ele>
        <time>2022-04-30T12:02:56Z</time>
      </trkpt>
      <trkpt lat="49.51764" lon="1.12035">
        <ele>141.9</ele>
        <time>2022-04-30T12:02:57Z</time>
      </trkpt>
      <trkpt lat="49.51768" lon="1.12036">
        <ele>142.1</ele>
        <time>2022-04-30T12:02:58Z</time>
      </trkpt>
      <trkpt lat="49.51769" lon="1.12037">
        <ele>142.1</ele>
        <time>2022-04-30T12:02:59Z</time>
      </trkpt>
      <trkpt lat="49.51772" lon="1.12039">
        <ele>142.3</ele>
        <time>2022-04-30T12:03:00Z</time>
      </trkpt>
      <trkpt lat="49.51776" lon="1.12042">
        <ele>142.4</ele>
        <time>2022-04-30T12:03:01Z</time>
      </trkpt>
      <trkpt lat="49.51777" lon="1.12042">
        <ele>142.5</ele>
        <time>2022-04-30T12:03:02Z</time>
      </trkpt>
      <trkpt lat="49.5178" lon="1.12044">
        <ele>142.6</ele>
        <time>2022-04-30T12:03:03Z</time>
      </trkpt>
      <trkpt lat="49.51783" lon="1.12045">
        <ele>142.8</ele>
        <time>2022-04-30T12:03:04Z</time>
      </trkpt>
      <trkpt lat="49.51786" lon="1.12047">
        <ele>142.9</ele>
        <time>2022-04-30T12:03:05Z</time>
      </trkpt>
      <trkpt lat="49.51789" lon="1.12048">
        <ele>143.1</ele>
        <time>2022-04-30T12:03:06Z</time>
      </trkpt>
      <trkpt lat="49.51793" lon="1.12048">
        <ele>143.3</ele>
        <time>2022-04-30T12:03:07Z</time>
      </trkpt>
      <trkpt lat="49.51797" lon="1.12049">
        <ele>143.4</ele>
        <time>2022-04-30T12:03:08Z</time>
      </trkpt>
      <trkpt lat="49.518" lon="1.1205">
        <ele>143.5</ele>
        <time>2022-04-30T12:03:09Z</time>
      </trkpt>
      <trkpt lat="49.51804" lon="1.1205">
        <ele>143.7</ele>
        <time>2022-04-30T12:03:10Z</time>
      </trkpt>
      <trkpt lat="49.51807" lon="1.12051">
        <ele>143.8</ele>
        <time>2022-04-30T12:03:11Z</time>
      </trkpt>
      <trkpt lat="49.51812" lon="1.1205">
        <ele>144</ele>
        <time>2022-04-30T12:03:12Z</time>
      </trkpt>
      <trkpt lat="49.51816" lon="1.1205">
        <ele>144.1</ele>
        <time>2022-04-30T12:03:13Z</time>
      </trkpt>
      <trkpt lat="49.51819" lon="1.1205">
        <ele>144.2</ele>
        <time>2022-04-30T12:03:14Z</time>
      </trkpt>
      <trkpt lat="49.51823" lon="1.12051">
        <ele>144.4</ele>
        <time>2022-04-30T12:03:15Z</time>
      </trkpt>
      <trkpt lat="49.51824" lon="1.12051">
        <ele>144.5</ele>
        <time>2022-04-30T12:03:16Z</time>
      </trkpt>
      <trkpt lat="49.51827" lon="1.12051">
        <ele>144.6</ele>
        <time>2022-04-30T12:03:17Z</time>
      </trkpt>
      <trkpt lat="49.5183" lon="1.1205">
        <ele>144.7</ele>
        <time>2022-04-30T12:03:18Z</time>
      </trkpt>
      <trkpt lat="49.51831" lon="1.1205">
        <ele>144.7</ele>
        <time>2022-04-30T12:03:19Z</time>
      </trkpt>
      <trkpt lat="49.51834" lon="1.12049">
        <ele>144.9</ele>
        <time>2022-04-30T12:03:20Z</time>
      </trkpt>
      <trkpt lat="49.51836" lon="1.12049">
        <ele>144.9</ele>
        <time>2022-04-30T12:03:21Z</time>
      </trkpt>
      <trkpt lat="49.5184" lon="1.12049">
        <ele>145.1</ele>
        <time>2022-04-30T12:03:22Z</time>
      </trkpt>
      <trkpt lat="49.51844" lon="1.12049">
        <ele>145.3</ele>
        <time>2022-04-30T12:03:23Z</time>
      </trkpt>
      <trkpt lat="49.51847" lon="1.12048">
        <ele>145.4</ele>
        <time>2022-04-30T12:03:24Z</time>
      </trkpt>
      <trkpt lat="49.51851" lon="1.12047">
        <ele>145.6</ele>
        <time>2022-04-30T12:03:25Z</time>
      </trkpt>
      <trkpt lat="49.51853" lon="1.12047">
        <ele>145.7</ele>
        <time>2022-04-30T12:03:26Z</time>
      </trkpt>
      <trkpt lat="49.51856" lon="1.12046">
        <ele>145.9</ele>
        <time>2022-04-30T12:03:27Z</time>
      </trkpt>
      <trkpt lat="49.5186" lon="1.12045">
        <ele>146</ele>
        <time>2022-04-30T12:03:28Z</time>
      </trkpt>
      <trkpt lat="49.51862" lon="1.12044">
        <ele>146.1</ele>
        <time>2022-04-30T12:03:29Z</time>
      </trkpt>
      <trkpt lat="49.51867" lon="1.12044">
        <ele>146.3</ele>
        <time>2022-04-30T12:03:30Z</time>
      </trkpt>
      <trkpt lat="49.51871" lon="1.12043">
        <ele>146.5</ele>
        <time>2022-04-30T12:03:31Z</time>
      </trkpt>
      <trkpt lat="49.51875" lon="1.12044">
        <ele>146.7</ele>
        <time>2022-04-30T12:03:32Z</time>
      </trkpt>
      <trkpt lat="49.51879" lon="1.12044">
        <ele>146.9</ele>
        <time>2022-04-30T12:03:33Z</time>
      </trkpt>
      <trkpt lat="49.51882" lon="1.12045">
        <ele>147</ele>
        <time>2022-04-30T12:03:34Z</time>
      </trkpt>
      <trkpt lat="49.51883" lon="1.12045">
        <ele>147.1</ele>
        <time>2022-04-30T12:03:35Z</time>
      </trkpt>
      <trkpt lat="49.51885" lon="1.12045">
        <ele>147.2</ele>
        <time>2022-04-30T12:03:36Z</time>
      </trkpt>
      <trkpt lat="49.51888" lon="1.12046">
        <ele>147.4</ele>
        <time>2022-04-30T12:03:37Z</time>
      </trkpt>
      <trkpt lat="49.51892" lon="1.12047">
        <ele>147.6</ele>
        <time>2022-04-30T12:03:38Z</time>
      </trkpt>
      <trkpt lat="49.51896" lon="1.12049">
        <ele>147.8</ele>
        <time>2022-04-30T12:03:39Z</time>
      </trkpt>
      <trkpt lat="49.519" lon="1.12051">
        <ele>148</ele>
        <time>2022-04-30T12:03:40Z</time>
      </trkpt>
      <trkpt lat="49.51904" lon="1.12053">
        <ele>148.2</ele>
        <time>2022-04-30T12:03:41Z</time>
      </trkpt>
      <trkpt lat="49.51908" lon="1.12055">
        <ele>148.4</ele>
        <time>2022-04-30T12:03:42Z</time>
      </trkpt>
      <trkpt lat="49.51912" lon="1.12056">
        <ele>148.6</ele>
        <time>2022-04-30T12:03:43Z</time>
      </trkpt>
      <trkpt lat="49.51915" lon="1.12058">
        <ele>148.7</ele>
        <time>2022-04-30T12:03:44Z</time>
      </trkpt>
      <trkpt lat="49.51918" lon="1.12061">
        <ele>148.9</ele>
        <time>2022-04-30T12:03:45Z</time>
      </trkpt>
      <trkpt lat="49.51919" lon="1.12062">
        <ele>149</ele>
        <time>2022-04-30T12:03:46Z</time>
      </trkpt>
      <trkpt lat="49.51922" lon="1.12063">
        <ele>149.1</ele>
        <time>2022-04-30T12:03:47Z</time>
      </trkpt>
      <trkpt lat="49.51925" lon="1.12065">
        <ele>149.3</ele>
        <time>2022-04-30T12:03:48Z</time>
      </trkpt>
      <trkpt lat="49.51928" lon="1.12068">
        <ele>149.4</ele>
        <time>2022-04-30T12:03:49Z</time>
      </trkpt>
      <trkpt lat="49.51931" lon="1.1207">
        <ele>149.6</ele>
        <time>2022-04-30T12:03:50Z</time>
      </trkpt>
      <trkpt lat="49.51935" lon="1.12072">
        <ele>149.8</ele>
        <time>2022-04-30T12:03:51Z</time>
      </trkpt>
      <trkpt lat="49.5194" lon="1.12075">
        <ele>150.1</ele>
        <time>2022-04-30T12:03:52Z</time>
      </trkpt>
      <trkpt lat="49.51943" lon="1.12078">
        <ele>150.2</ele>
        <time>2022-04-30T12:03:53Z</time>
      </trkpt>
      <trkpt lat="49.51946" lon="1.12081">
        <ele>150.4</ele>
        <time>2022-04-30T12:03:54Z</time>
      </trkpt>
      <trkpt lat="49.5195" lon="1.12086">
        <ele>150.6</ele>
        <time>2022-04-30T12:03:55Z</time>
      </trkpt>
      <trkpt lat="49.51953" lon="1.12089">
        <ele>150.8</ele>
        <time>2022-04-30T12:03:56Z</time>
      </trkpt>
      <trkpt lat="49.51954" lon="1.1209">
        <ele>150.9</ele>
        <time>2022-04-30T12:03:57Z</time>
      </trkpt>
      <trkpt lat="49.51956" lon="1.12094">
        <ele>151</ele>
        <time>2022-04-30T12:03:58Z</time>
      </trkpt>
      <trkpt lat="49.51958" lon="1.12097">
        <ele>151.2</ele>
        <time>2022-04-30T12:03:59Z</time>
      </trkpt>
      <trkpt lat="49.5196" lon="1.12103">
        <ele>151.4</ele>
        <time>2022-04-30T12:04:00Z</time>
      </trkpt>
      <trkpt lat="49.51962" lon="1.12106">
        <ele>151.5</ele>
        <time>2022-04-30T12:04:01Z</time>
      </trkpt>
      <trkpt lat="49.51964" lon="1.12111">
        <ele>151.7</ele>
        <time>2022-04-30T12:04:02Z</time>
      </trkpt>
      <trkpt lat="49.51966" lon="1.12114">
        <ele>151.8</ele>
        <time>2022-04-30T12:04:03Z</time>
      </trkpt>
      <trkpt lat="49.51967" lon="1.12118">
        <ele>151.9</ele>
        <time>2022-04-30T12:04:04Z</time>
      </trkpt>
      <trkpt lat="49.5197" lon="1.12124">
        <ele>152.1</ele>
        <time>2022-04-30T12:04:05Z</time>
      </trkpt>
      <trkpt lat="49.51972" lon="1.12127">
        <ele>152.2</ele>
        <time>2022-04-30T12:04:06Z</time>
      </trkpt>
      <trkpt lat="49.51974" lon="1.1213">
        <ele>152.3</ele>
        <time>2022-04-30T12:04:07Z</time>
      </trkpt>
      <trkpt lat="49.51976" lon="1.12133">
        <ele>152.5</ele>
        <time>2022-04-30T12:04:08Z</time>
      </trkpt>
      <trkpt lat="49.51977" lon="1.12137">
        <ele>152.6</ele>
        <time>2022-04-30T12:04:09Z</time>
      </trkpt>
      <trkpt lat="49.51979" lon="1.12142">
        <ele>152.7</ele>
        <time>2022-04-30T12:04:10Z</time>
      </trkpt>
      <trkpt lat="49.5198" lon="1.12146">
        <ele>152.8</ele>
        <time>2022-04-30T12:04:11Z</time>
      </trkpt>
      <trkpt lat="49.51983" lon="1.12151">
        <ele>153</ele>
        <time>2022-04-30T12:04:12Z</time>
      </trkpt>
      <trkpt lat="49.51985" lon="1.12156">
        <ele>153.1</ele>
        <time>2022-04-30T12:04:13Z</time>
      </trkpt>
      <trkpt lat="49.51987" lon="1.1216">
        <ele>153.2</ele>
        <time>2022-04-30T12:04:14Z</time>
      </trkpt>
      <trkpt lat="49.51989" lon="1.12165">
        <ele>153.4</ele>
        <time>2022-04-30T12:04:15Z</time>
      </trkpt>
      <trkpt lat="49.51991" lon="1.12169">
        <ele>153.5</ele>
        <time>2022-04-30T12:04:16Z</time>
      </trkpt>
      <trkpt lat="49.51992" lon="1.12171">
        <ele>153.6</ele>
        <time>2022-04-30T12:04:17Z</time>
      </trkpt>
      <trkpt lat="49.51993" lon="1.12176">
        <ele>153.7</ele>
        <time>2022-04-30T12:04:18Z</time>
      </trkpt>
      <trkpt lat="49.51994" lon="1.12178">
        <ele>153.7</ele>
        <time>2022-04-30T12:04:19Z</time>
      </trkpt>
      <trkpt lat="49.51996" lon="1.12183">
        <ele>153.9</ele>
        <time>2022-04-30T12:04:20Z</time>
      </trkpt>
      <trkpt lat="49.52" lon="1.12188">
        <ele>154</ele>
        <time>2022-04-30T12:04:21Z</time>
      </trkpt>
      <trkpt lat="49.52002" lon="1.12192">
        <ele>154.1</ele>
        <time>2022-04-30T12:04:22Z</time>
      </trkpt>
      <trkpt lat="49.52004" lon="1.12195">
        <ele>154.2</ele>
        <time>2022-04-30T12:04:23Z</time>
      </trkpt>
      <trkpt lat="49.52006" lon="1.12198">
        <ele>154.3</ele>
        <time>2022-04-30T12:04:24Z</time>
      </trkpt>
      <trkpt lat="49.52008" lon="1.12203">
        <ele>154.4</ele>
        <time>2022-04-30T12:04:25Z</time>
      </trkpt>
      <trkpt lat="49.52009" lon="1.12208">
        <ele>154.4</ele>
        <time>2022-04-30T12:04:26Z</time>
      </trkpt>
      <trkpt lat="49.5201" lon="1.1221">
        <ele>154.5</ele>
        <time>2022-04-30T12:04:27Z</time>
      </trkpt>
      <trkpt lat="49.52012" lon="1.12214">
        <ele>154.5</ele>
        <time>2022-04-30T12:04:28Z</time>
      </trkpt>
      <trkpt lat="49.52013" lon="1.12215">
        <ele>154.6</ele>
        <time>2022-04-30T12:04:29Z</time>
      </trkpt>
      <trkpt lat="49.52014" lon="1.12219">
        <ele>154.6</ele>
        <time>2022-04-30T12:04:30Z</time>
      </trkpt>
      <trkpt lat="49.52016" lon="1.12224">
        <ele>154.7</ele>
        <time>2022-04-30T12:04:31Z</time>
      </trkpt>
      <trkpt lat="49.52016" lon="1.12226">
        <ele>154.7</ele>
        <time>2022-04-30T12:04:32Z</time>
      </trkpt>
      <trkpt lat="49.52018" lon="1.1223">
        <ele>154.8</ele>
        <time>2022-04-30T12:04:33Z</time>
      </trkpt>
      <trkpt lat="49.52019" lon="1.12234">
        <ele>154.9</ele>
        <time>2022-04-30T12:04:34Z</time>
      </trkpt>
      <trkpt lat="49.52021" lon="1.1224">
        <ele>155</ele>
        <time>2022-04-30T12:04:35Z</time>
      </trkpt>
      <trkpt lat="49.52023" lon="1.12245">
        <ele>155.1</ele>
        <time>2022-04-30T12:04:36Z</time>
      </trkpt>
      <trkpt lat="49.52025" lon="1.12249">
        <ele>155.1</ele>
        <time>2022-04-30T12:04:37Z</time>
      </trkpt>
      <trkpt lat="49.52027" lon="1.12254">
        <ele>155.2</ele>
        <time>2022-04-30T12:04:38Z</time>
      </trkpt>
      <trkpt lat="49.5203" lon="1.12259">
        <ele>155.3</ele>
        <time>2022-04-30T12:04:39Z</time>
      </trkpt>
      <trkpt lat="49.52032" lon="1.12264">
        <ele>155.4</ele>
        <time>2022-04-30T12:04:40Z</time>
      </trkpt>
      <trkpt lat="49.52034" lon="1.12268">
        <ele>155.5</ele>
        <time>2022-04-30T12:04:41Z</time>
      </trkpt>
      <trkpt lat="49.52035" lon="1.12272">
        <ele>155.6</ele>
        <time>2022-04-30T12:04:42Z</time>
      </trkpt>
      <trkpt lat="49.52037" lon="1.12277">
        <ele>155.7</ele>
        <time>2022-04-30T12:04:43Z</time>
      </trkpt>
      <trkpt lat="49.52037" lon="1.12279">
        <ele>155.7</ele>
        <time>2022-04-30T12:04:44Z</time>
      </trkpt>
      <trkpt lat="49.5204" lon="1.12284">
        <ele>155.8</ele>
        <time>2022-04-30T12:04:45Z</time>
      </trkpt>
      <trkpt lat="49.52042" lon="1.12287">
        <ele>155.9</ele>
        <time>2022-04-30T12:04:46Z</time>
      </trkpt>
      <trkpt lat="49.52043" lon="1.12288">
        <ele>155.9</ele>
        <time>2022-04-30T12:04:47Z</time>
      </trkpt>
      <trkpt lat="49.52046" lon="1.12292">
        <ele>156.1</ele>
        <time>2022-04-30T12:04:48Z</time>
      </trkpt>
      <trkpt lat="49.52047" lon="1.12294">
        <ele>156.1</ele>
        <time>2022-04-30T12:04:49Z</time>
      </trkpt>
      <trkpt lat="49.52049" lon="1.12301">
        <ele>156.3</ele>
        <time>2022-04-30T12:04:50Z</time>
      </trkpt>
      <trkpt lat="49.52052" lon="1.12307">
        <ele>156.4</ele>
        <time>2022-04-30T12:04:51Z</time>
      </trkpt>
      <trkpt lat="49.52053" lon="1.12313">
        <ele>156.5</ele>
        <time>2022-04-30T12:04:52Z</time>
      </trkpt>
      <trkpt lat="49.52053" lon="1.12317">
        <ele>156.6</ele>
        <time>2022-04-30T12:04:53Z</time>
      </trkpt>
      <trkpt lat="49.52055" lon="1.12324">
        <ele>156.7</ele>
        <time>2022-04-30T12:04:54Z</time>
      </trkpt>
      <trkpt lat="49.52056" lon="1.12326">
        <ele>156.8</ele>
        <time>2022-04-30T12:04:55Z</time>
      </trkpt>
      <trkpt lat="49.52058" lon="1.12329">
        <ele>156.9</ele>
        <time>2022-04-30T12:04:56Z</time>
      </trkpt>
      <trkpt lat="49.5206" lon="1.12334">
        <ele>157</ele>
        <time>2022-04-30T12:04:57Z</time>
      </trkpt>
      <trkpt lat="49.52063" lon="1.12339">
        <ele>157.1</ele>
        <time>2022-04-30T12:04:58Z</time>
      </trkpt>
      <trkpt lat="49.52066" lon="1.12345">
        <ele>157.3</ele>
        <time>2022-04-30T12:04:59Z</time>
      </trkpt>
      <trkpt lat="49.52067" lon="1.12351">
        <ele>157.5</ele>
        <time>2022-04-30T12:05:00Z</time>
      </trkpt>
      <trkpt lat="49.52069" lon="1.12355">
        <ele>157.6</ele>
        <time>2022-04-30T12:05:01Z</time>
      </trkpt>
      <trkpt lat="49.52071" lon="1.1236">
        <ele>157.7</ele>
        <time>2022-04-30T12:05:02Z</time>
      </trkpt>
      <trkpt lat="49.52072" lon="1.12362">
        <ele>157.8</ele>
        <time>2022-04-30T12:05:03Z</time>
      </trkpt>
      <trkpt lat="49.52073" lon="1.12368">
        <ele>157.9</ele>
        <time>2022-04-30T12:05:04Z</time>
      </trkpt>
      <trkpt lat="49.52074" lon="1.12372">
        <ele>158</ele>
        <time>2022-04-30T12:05:05Z</time>
      </trkpt>
      <trkpt lat="49.52076" lon="1.12376">
        <ele>158.1</ele>
        <time>2022-04-30T12:05:06Z</time>
      </trkpt>
      <trkpt lat="49.52078" lon="1.1238">
        <ele>158.3</ele>
        <time>2022-04-30T12:05:07Z</time>
      </trkpt>
      <trkpt lat="49.5208" lon="1.12384">
        <ele>158.3</ele>
        <time>2022-04-30T12:05:08Z</time>
      </trkpt>
      <trkpt lat="49.52083" lon="1.12388">
        <ele>158.5</ele>
        <time>2022-04-30T12:05:09Z</time>
      </trkpt>
      <trkpt lat="49.52084" lon="1.12389">
        <ele>158.5</ele>
        <time>2022-04-30T12:05:10Z</time>
      </trkpt>
      <trkpt lat="49.52087" lon="1.12392">
        <ele>158.6</ele>
        <time>2022-04-30T12:05:11Z</time>
      </trkpt>
      <trkpt lat="49.52088" lon="1.12394">
        <ele>158.6</ele>
        <time>2022-04-30T12:05:12Z</time>
      </trkpt>
      <trkpt lat="49.5209" lon="1.12398">
        <ele>158.8</ele>
        <time>2022-04-30T12:05:13Z</time>
      </trkpt>
      <trkpt lat="49.52091" lon="1.12399">
        <ele>158.8</ele>
        <time>2022-04-30T12:05:14Z</time>
      </trkpt>
      <trkpt lat="49.52094" lon="1.12404">
        <ele>158.9</ele>
        <time>2022-04-30T12:05:15Z</time>
      </trkpt>
      <trkpt lat="49.52095" lon="1.12406">
        <ele>159</ele>
        <time>2022-04-30T12:05:16Z</time>
      </trkpt>
      <trkpt lat="49.52097" lon="1.12408">
        <ele>159</ele>
        <time>2022-04-30T12:05:17Z</time>
      </trkpt>
      <trkpt lat="49.52098" lon="1.1241">
        <ele>159.1</ele>
        <time>2022-04-30T12:05:18Z</time>
      </trkpt>
      <trkpt lat="49.521" lon="1.12413">
        <ele>159.1</ele>
        <time>2022-04-30T12:05:19Z</time>
      </trkpt>
      <trkpt lat="49.521" lon="1.12414">
        <ele>159.2</ele>
        <time>2022-04-30T12:05:20Z</time>
      </trkpt>
      <trkpt lat="49.52103" lon="1.12417">
        <ele>159.3</ele>
        <time>2022-04-30T12:05:21Z</time>
      </trkpt>
      <trkpt lat="49.52106" lon="1.12421">
        <ele>159.4</ele>
        <time>2022-04-30T12:05:22Z</time>
      </trkpt>
      <trkpt lat="49.52107" lon="1.12423">
        <ele>159.4</ele>
        <time>2022-04-30T12:05:23Z</time>
      </trkpt>
      <trkpt lat="49.52108" lon="1.12423">
        <ele>159.5</ele>
        <time>2022-04-30T12:05:24Z</time>
      </trkpt>
      <trkpt lat="49.52111" lon="1.12425">
        <ele>159.5</ele>
        <time>2022-04-30T12:05:25Z</time>
      </trkpt>
      <trkpt lat="49.52112" lon="1.12427">
        <ele>159.6</ele>
        <time>2022-04-30T12:05:26Z</time>
      </trkpt>
      <trkpt lat="49.52114" lon="1.12428">
        <ele>159.7</ele>
        <time>2022-04-30T12:05:27Z</time>
      </trkpt>
      <trkpt lat="49.52117" lon="1.12433">
        <ele>159.8</ele>
        <time>2022-04-30T12:05:28Z</time>
      </trkpt>
      <trkpt lat="49.5212" lon="1.12438">
        <ele>159.9</ele>
        <time>2022-04-30T12:05:29Z</time>
      </trkpt>
      <trkpt lat="49.52122" lon="1.12441">
        <ele>160</ele>
        <time>2022-04-30T12:05:30Z</time>
      </trkpt>
      <trkpt lat="49.52123" lon="1.12445">
        <ele>160.1</ele>
        <time>2022-04-30T12:05:31Z</time>
      </trkpt>
      <trkpt lat="49.52125" lon="1.12449">
        <ele>160.2</ele>
        <time>2022-04-30T12:05:32Z</time>
      </trkpt>
      <trkpt lat="49.52127" lon="1.12453">
        <ele>160.3</ele>
        <time>2022-04-30T12:05:33Z</time>
      </trkpt>
      <trkpt lat="49.52129" lon="1.12457">
        <ele>160.4</ele>
        <time>2022-04-30T12:05:34Z</time>
      </trkpt>
      <trkpt lat="49.52131" lon="1.12461">
        <ele>160.4</ele>
        <time>2022-04-30T12:05:35Z</time>
      </trkpt>
      <trkpt lat="49.52133" lon="1.12465">
        <ele>160.4</ele>
        <time>2022-04-30T12:05:36Z</time>
      </trkpt>
      <trkpt lat="49.52134" lon="1.12469">
        <ele>160.5</ele>
        <time>2022-04-30T12:05:37Z</time>
      </trkpt>
      <trkpt lat="49.52136" lon="1.12472">
        <ele>160.5</ele>
        <time>2022-04-30T12:05:38Z</time>
      </trkpt>
      <trkpt lat="49.52138" lon="1.12476">
        <ele>160.5</ele>
        <time>2022-04-30T12:05:39Z</time>
      </trkpt>
      <trkpt lat="49.5214" lon="1.1248">
        <ele>160.6</ele>
        <time>2022-04-30T12:05:40Z</time>
      </trkpt>
      <trkpt lat="49.52143" lon="1.12484">
        <ele>160.6</ele>
        <time>2022-04-30T12:05:41Z</time>
      </trkpt>
      <trkpt lat="49.52145" lon="1.12488">
        <ele>160.6</ele>
        <time>2022-04-30T12:05:42Z</time>
      </trkpt>
      <trkpt lat="49.52147" lon="1.12491">
        <ele>160.7</ele>
        <time>2022-04-30T12:05:43Z</time>
      </trkpt>
      <trkpt lat="49.52149" lon="1.12493">
        <ele>160.7</ele>
        <time>2022-04-30T12:05:44Z</time>
      </trkpt>
      <trkpt lat="49.5215" lon="1.12493">
        <ele>160.7</ele>
        <time>2022-04-30T12:05:45Z</time>
      </trkpt>
      <trkpt lat="49.52152" lon="1.1249">
        <ele>160.7</ele>
        <time>2022-04-30T12:05:46Z</time>
      </trkpt>
      <trkpt lat="49.52152" lon="1.12489">
        <ele>160.7</ele>
        <time>2022-04-30T12:05:47Z</time>
      </trkpt>
      <trkpt lat="49.52153" lon="1.12488">
        <ele>160.7</ele>
        <time>2022-04-30T12:05:48Z</time>
      </trkpt>
      <trkpt lat="49.52157" lon="1.12488">
        <ele>161</ele>
        <time>2022-04-30T12:05:49Z</time>
      </trkpt>
      <trkpt lat="49.52159" lon="1.12488">
        <ele>161</ele>
        <time>2022-04-30T12:05:50Z</time>
      </trkpt>
      <trkpt lat="49.52161" lon="1.12483">
        <ele>161</ele>
        <time>2022-04-30T12:05:51Z</time>
      </trkpt>
      <trkpt lat="49.52162" lon="1.1248">
        <ele>161</ele>
        <time>2022-04-30T12:05:52Z</time>
      </trkpt>
      <trkpt lat="49.52163" lon="1.12477">
        <ele>161</ele>
        <time>2022-04-30T12:05:53Z</time>
      </trkpt>
      <trkpt lat="49.52164" lon="1.12471">
        <ele>161</ele>
        <time>2022-04-30T12:05:54Z</time>
      </trkpt>
      <trkpt lat="49.52164" lon="1.12469">
        <ele>161</ele>
        <time>2022-04-30T12:05:55Z</time>
      </trkpt>
      <trkpt lat="49.52165" lon="1.12463">
        <ele>161</ele>
        <time>2022-04-30T12:05:56Z</time>
      </trkpt>
      <trkpt lat="49.52165" lon="1.12462">
        <ele>161</ele>
        <time>2022-04-30T12:05:57Z</time>
      </trkpt>
      <trkpt lat="49.52165" lon="1.12457">
        <ele>161.1</ele>
        <time>2022-04-30T12:05:58Z</time>
      </trkpt>
      <trkpt lat="49.52165" lon="1.12453">
        <ele>161.1</ele>
        <time>2022-04-30T12:05:59Z</time>
      </trkpt>
      <trkpt lat="49.52166" lon="1.12448">
        <ele>161.1</ele>
        <time>2022-04-30T12:06:00Z</time>
      </trkpt>
      <trkpt lat="49.52166" lon="1.12443">
        <ele>161.1</ele>
        <time>2022-04-30T12:06:01Z</time>
      </trkpt>
      <trkpt lat="49.52166" lon="1.12438">
        <ele>161.2</ele>
        <time>2022-04-30T12:06:02Z</time>
      </trkpt>
      <trkpt lat="49.52167" lon="1.12411">
        <ele>161.4</ele>
        <time>2022-04-30T12:06:03Z</time>
      </trkpt>
      <trkpt lat="49.52167" lon="1.12405">
        <ele>161.5</ele>
        <time>2022-04-30T12:06:04Z</time>
      </trkpt>
      <trkpt lat="49.52167" lon="1.12397">
        <ele>161.6</ele>
        <time>2022-04-30T12:06:05Z</time>
      </trkpt>
      <trkpt lat="49.52167" lon="1.12391">
        <ele>161.7</ele>
        <time>2022-04-30T12:06:06Z</time>
      </trkpt>
      <trkpt lat="49.52167" lon="1.12385">
        <ele>161.7</ele>
        <time>2022-04-30T12:06:07Z</time>
      </trkpt>
      <trkpt lat="49.52167" lon="1.12381">
        <ele>161.8</ele>
        <time>2022-04-30T12:06:08Z</time>
      </trkpt>
      <trkpt lat="49.52167" lon="1.12376">
        <ele>161.9</ele>
        <time>2022-04-30T12:06:09Z</time>
      </trkpt>
      <trkpt lat="49.52166" lon="1.12371">
        <ele>162</ele>
        <time>2022-04-30T12:06:10Z</time>
      </trkpt>
      <trkpt lat="49.52165" lon="1.12367">
        <ele>162</ele>
        <time>2022-04-30T12:06:11Z</time>
      </trkpt>
      <trkpt lat="49.52165" lon="1.12363">
        <ele>162.1</ele>
        <time>2022-04-30T12:06:12Z</time>
      </trkpt>
      <trkpt lat="49.52165" lon="1.12358">
        <ele>162.2</ele>
        <time>2022-04-30T12:06:13Z</time>
      </trkpt>
      <trkpt lat="49.52165" lon="1.12351">
        <ele>162.3</ele>
        <time>2022-04-30T12:06:14Z</time>
      </trkpt>
      <trkpt lat="49.52165" lon="1.12348">
        <ele>162.4</ele>
        <time>2022-04-30T12:06:15Z</time>
      </trkpt>
      <trkpt lat="49.52165" lon="1.12341">
        <ele>162.5</ele>
        <time>2022-04-30T12:06:16Z</time>
      </trkpt>
      <trkpt lat="49.52164" lon="1.12335">
        <ele>162.7</ele>
        <time>2022-04-30T12:06:17Z</time>
      </trkpt>
      <trkpt lat="49.52164" lon="1.12329">
        <ele>162.8</ele>
        <time>2022-04-30T12:06:18Z</time>
      </trkpt>
      <trkpt lat="49.52164" lon="1.12324">
        <ele>162.8</ele>
        <time>2022-04-30T12:06:19Z</time>
      </trkpt>
      <trkpt lat="49.52164" lon="1.1232">
        <ele>162.9</ele>
        <time>2022-04-30T12:06:20Z</time>
      </trkpt>
      <trkpt lat="49.52163" lon="1.12314">
        <ele>163</ele>
        <time>2022-04-30T12:06:21Z</time>
      </trkpt>
      <trkpt lat="49.52163" lon="1.12312">
        <ele>163.1</ele>
        <time>2022-04-30T12:06:22Z</time>
      </trkpt>
      <trkpt lat="49.52163" lon="1.12307">
        <ele>163.1</ele>
        <time>2022-04-30T12:06:23Z</time>
      </trkpt>
      <trkpt lat="49.52162" lon="1.12298">
        <ele>163.3</ele>
        <time>2022-04-30T12:06:24Z</time>
      </trkpt>
      <trkpt lat="49.5216" lon="1.12289">
        <ele>163.5</ele>
        <time>2022-04-30T12:06:25Z</time>
      </trkpt>
      <trkpt lat="49.52158" lon="1.12281">
        <ele>163.6</ele>
        <time>2022-04-30T12:06:26Z</time>
      </trkpt>
      <trkpt lat="49.52157" lon="1.12273">
        <ele>163.8</ele>
        <time>2022-04-30T12:06:27Z</time>
      </trkpt>
      <trkpt lat="49.52155" lon="1.12265">
        <ele>163.9</ele>
        <time>2022-04-30T12:06:28Z</time>
      </trkpt>
      <trkpt lat="49.52153" lon="1.12257">
        <ele>164.1</ele>
        <time>2022-04-30T12:06:29Z</time>
      </trkpt>
      <trkpt lat="49.5215" lon="1.12244">
        <ele>164.3</ele>
        <time>2022-04-30T12:06:30Z</time>
      </trkpt>
      <trkpt lat="49.52147" lon="1.12234">
        <ele>164.5</ele>
        <time>2022-04-30T12:06:31Z</time>
      </trkpt>
      <trkpt lat="49.52145" lon="1.12227">
        <ele>164.7</ele>
        <time>2022-04-30T12:06:32Z</time>
      </trkpt>
      <trkpt lat="49.52143" lon="1.12218">
        <ele>164.8</ele>
        <time>2022-04-30T12:06:33Z</time>
      </trkpt>
      <trkpt lat="49.52141" lon="1.1221">
        <ele>165</ele>
        <time>2022-04-30T12:06:34Z</time>
      </trkpt>
      <trkpt lat="49.5214" lon="1.12204">
        <ele>165.1</ele>
        <time>2022-04-30T12:06:35Z</time>
      </trkpt>
      <trkpt lat="49.52138" lon="1.12197">
        <ele>165.2</ele>
        <time>2022-04-30T12:06:36Z</time>
      </trkpt>
      <trkpt lat="49.52137" lon="1.12191">
        <ele>165.3</ele>
        <time>2022-04-30T12:06:37Z</time>
      </trkpt>
      <trkpt lat="49.52136" lon="1.12186">
        <ele>165.4</ele>
        <time>2022-04-30T12:06:38Z</time>
      </trkpt>
      <trkpt lat="49.52135" lon="1.1218">
        <ele>165.4</ele>
        <time>2022-04-30T12:06:39Z</time>
      </trkpt>
      <trkpt lat="49.52134" lon="1.12174">
        <ele>165.5</ele>
        <time>2022-04-30T12:06:40Z</time>
      </trkpt>
      <trkpt lat="49.52133" lon="1.12168">
        <ele>165.6</ele>
        <time>2022-04-30T12:06:41Z</time>
      </trkpt>
      <trkpt lat="49.52133" lon="1.12166">
        <ele>165.6</ele>
        <time>2022-04-30T12:06:42Z</time>
      </trkpt>
      <trkpt lat="49.52132" lon="1.1216">
        <ele>165.7</ele>
        <time>2022-04-30T12:06:43Z</time>
      </trkpt>
      <trkpt lat="49.52131" lon="1.12154">
        <ele>165.8</ele>
        <time>2022-04-30T12:06:44Z</time>
      </trkpt>
      <trkpt lat="49.5213" lon="1.12148">
        <ele>165.9</ele>
        <time>2022-04-30T12:06:45Z</time>
      </trkpt>
      <trkpt lat="49.52128" lon="1.1214">
        <ele>166</ele>
        <time>2022-04-30T12:06:46Z</time>
      </trkpt>
      <trkpt lat="49.52127" lon="1.12131">
        <ele>166.2</ele>
        <time>2022-04-30T12:06:47Z</time>
      </trkpt>
      <trkpt lat="49.52126" lon="1.12121">
        <ele>166.3</ele>
        <time>2022-04-30T12:06:48Z</time>
      </trkpt>
      <trkpt lat="49.52124" lon="1.12111">
        <ele>166.3</ele>
        <time>2022-04-30T12:06:49Z</time>
      </trkpt>
      <trkpt lat="49.52122" lon="1.12102">
        <ele>166.4</ele>
        <time>2022-04-30T12:06:50Z</time>
      </trkpt>
      <trkpt lat="49.5212" lon="1.12094">
        <ele>166.4</ele>
        <time>2022-04-30T12:06:51Z</time>
      </trkpt>
      <trkpt lat="49.52119" lon="1.12089">
        <ele>166.5</ele>
        <time>2022-04-30T12:06:52Z</time>
      </trkpt>
      <trkpt lat="49.52118" lon="1.12083">
        <ele>166.5</ele>
        <time>2022-04-30T12:06:53Z</time>
      </trkpt>
      <trkpt lat="49.52118" lon="1.12076">
        <ele>166.5</ele>
        <time>2022-04-30T12:06:54Z</time>
      </trkpt>
      <trkpt lat="49.52117" lon="1.12073">
        <ele>166.5</ele>
        <time>2022-04-30T12:06:55Z</time>
      </trkpt>
      <trkpt lat="49.52116" lon="1.12067">
        <ele>166.6</ele>
        <time>2022-04-30T12:06:56Z</time>
      </trkpt>
      <trkpt lat="49.52116" lon="1.12063">
        <ele>166.6</ele>
        <time>2022-04-30T12:06:57Z</time>
      </trkpt>
      <trkpt lat="49.52116" lon="1.12057">
        <ele>166.6</ele>
        <time>2022-04-30T12:06:58Z</time>
      </trkpt>
      <trkpt lat="49.52116" lon="1.12055">
        <ele>166.6</ele>
        <time>2022-04-30T12:06:59Z</time>
      </trkpt>
      <trkpt lat="49.52116" lon="1.1205">
        <ele>166.6</ele>
        <time>2022-04-30T12:07:00Z</time>
      </trkpt>
      <trkpt lat="49.52116" lon="1.12045">
        <ele>166.6</ele>
        <time>2022-04-30T12:07:01Z</time>
      </trkpt>
      <trkpt lat="49.52116" lon="1.1204">
        <ele>166.6</ele>
        <time>2022-04-30T12:07:02Z</time>
      </trkpt>
      <trkpt lat="49.52116" lon="1.12034">
        <ele>166.6</ele>
        <time>2022-04-30T12:07:03Z</time>
      </trkpt>
      <trkpt lat="49.52116" lon="1.12031">
        <ele>166.6</ele>
        <time>2022-04-30T12:07:04Z</time>
      </trkpt>
      <trkpt lat="49.52115" lon="1.12024">
        <ele>166.6</ele>
        <time>2022-04-30T12:07:05Z</time>
      </trkpt>
      <trkpt lat="49.52114" lon="1.12019">
        <ele>166.6</ele>
        <time>2022-04-30T12:07:06Z</time>
      </trkpt>
      <trkpt lat="49.52114" lon="1.12013">
        <ele>166.7</ele>
        <time>2022-04-30T12:07:07Z</time>
      </trkpt>
      <trkpt lat="49.52113" lon="1.12006">
        <ele>166.7</ele>
        <time>2022-04-30T12:07:08Z</time>
      </trkpt>
      <trkpt lat="49.52112" lon="1.11998">
        <ele>166.7</ele>
        <time>2022-04-30T12:07:09Z</time>
      </trkpt>
      <trkpt lat="49.52112" lon="1.11989">
        <ele>166.7</ele>
        <time>2022-04-30T12:07:10Z</time>
      </trkpt>
      <trkpt lat="49.52111" lon="1.11983">
        <ele>166.7</ele>
        <time>2022-04-30T12:07:11Z</time>
      </trkpt>
      <trkpt lat="49.52108" lon="1.11974">
        <ele>166.7</ele>
        <time>2022-04-30T12:07:12Z</time>
      </trkpt>
      <trkpt lat="49.52105" lon="1.11963">
        <ele>166.7</ele>
        <time>2022-04-30T12:07:13Z</time>
      </trkpt>
      <trkpt lat="49.52103" lon="1.11954">
        <ele>166.7</ele>
        <time>2022-04-30T12:07:14Z</time>
      </trkpt>
      <trkpt lat="49.52101" lon="1.11946">
        <ele>166.6</ele>
        <time>2022-04-30T12:07:15Z</time>
      </trkpt>
      <trkpt lat="49.52101" lon="1.11939">
        <ele>166.6</ele>
        <time>2022-04-30T12:07:16Z</time>
      </trkpt>
      <trkpt lat="49.521" lon="1.11934">
        <ele>166.6</ele>
        <time>2022-04-30T12:07:17Z</time>
      </trkpt>
      <trkpt lat="49.52099" lon="1.11928">
        <ele>166.6</ele>
        <time>2022-04-30T12:07:18Z</time>
      </trkpt>
      <trkpt lat="49.52098" lon="1.11923">
        <ele>166.6</ele>
        <time>2022-04-30T12:07:19Z</time>
      </trkpt>
      <trkpt lat="49.52098" lon="1.11916">
        <ele>166.6</ele>
        <time>2022-04-30T12:07:20Z</time>
      </trkpt>
      <trkpt lat="49.52097" lon="1.1191">
        <ele>166.6</ele>
        <time>2022-04-30T12:07:21Z</time>
      </trkpt>
      <trkpt lat="49.52096" lon="1.11902">
        <ele>166.6</ele>
        <time>2022-04-30T12:07:22Z</time>
      </trkpt>
      <trkpt lat="49.52095" lon="1.11895">
        <ele>166.6</ele>
        <time>2022-04-30T12:07:23Z</time>
      </trkpt>
      <trkpt lat="49.52094" lon="1.11886">
        <ele>166.5</ele>
        <time>2022-04-30T12:07:24Z</time>
      </trkpt>
      <trkpt lat="49.52093" lon="1.11879">
        <ele>166.5</ele>
        <time>2022-04-30T12:07:25Z</time>
      </trkpt>
      <trkpt lat="49.52093" lon="1.1187">
        <ele>166.5</ele>
        <time>2022-04-30T12:07:26Z</time>
      </trkpt>
      <trkpt lat="49.52091" lon="1.1186">
        <ele>166.5</ele>
        <time>2022-04-30T12:07:27Z</time>
      </trkpt>
      <trkpt lat="49.5209" lon="1.11851">
        <ele>166.4</ele>
        <time>2022-04-30T12:07:28Z</time>
      </trkpt>
      <trkpt lat="49.52088" lon="1.11841">
        <ele>166.4</ele>
        <time>2022-04-30T12:07:29Z</time>
      </trkpt>
      <trkpt lat="49.52086" lon="1.11833">
        <ele>166.3</ele>
        <time>2022-04-30T12:07:30Z</time>
      </trkpt>
      <trkpt lat="49.52084" lon="1.11823">
        <ele>166.3</ele>
        <time>2022-04-30T12:07:31Z</time>
      </trkpt>
      <trkpt lat="49.52082" lon="1.11813">
        <ele>166.2</ele>
        <time>2022-04-30T12:07:32Z</time>
      </trkpt>
      <trkpt lat="49.5208" lon="1.11803">
        <ele>166.2</ele>
        <time>2022-04-30T12:07:33Z</time>
      </trkpt>
      <trkpt lat="49.52079" lon="1.11794">
        <ele>166.2</ele>
        <time>2022-04-30T12:07:34Z</time>
      </trkpt>
      <trkpt lat="49.52077" lon="1.11786">
        <ele>166.1</ele>
        <time>2022-04-30T12:07:35Z</time>
      </trkpt>
      <trkpt lat="49.52075" lon="1.11778">
        <ele>166.1</ele>
        <time>2022-04-30T12:07:36Z</time>
      </trkpt>
      <trkpt lat="49.52073" lon="1.11769">
        <ele>166.1</ele>
        <time>2022-04-30T12:07:37Z</time>
      </trkpt>
      <trkpt lat="49.52072" lon="1.11763">
        <ele>166.1</ele>
        <time>2022-04-30T12:07:38Z</time>
      </trkpt>
      <trkpt lat="49.52071" lon="1.11754">
        <ele>166.1</ele>
        <time>2022-04-30T12:07:39Z</time>
      </trkpt>
      <trkpt lat="49.52069" lon="1.11746">
        <ele>166.1</ele>
        <time>2022-04-30T12:07:40Z</time>
      </trkpt>
      <trkpt lat="49.52068" lon="1.11738">
        <ele>166</ele>
        <time>2022-04-30T12:07:41Z</time>
      </trkpt>
      <trkpt lat="49.52067" lon="1.11728">
        <ele>166</ele>
        <time>2022-04-30T12:07:42Z</time>
      </trkpt>
      <trkpt lat="49.52066" lon="1.11718">
        <ele>166</ele>
        <time>2022-04-30T12:07:43Z</time>
      </trkpt>
      <trkpt lat="49.52064" lon="1.11707">
        <ele>166</ele>
        <time>2022-04-30T12:07:44Z</time>
      </trkpt>
      <trkpt lat="49.52063" lon="1.11698">
        <ele>166</ele>
        <time>2022-04-30T12:07:45Z</time>
      </trkpt>
      <trkpt lat="49.52061" lon="1.1169">
        <ele>166</ele>
        <time>2022-04-30T12:07:46Z</time>
      </trkpt>
      <trkpt lat="49.52059" lon="1.1168">
        <ele>166</ele>
        <time>2022-04-30T12:07:47Z</time>
      </trkpt>
      <trkpt lat="49.52056" lon="1.1167">
        <ele>165.9</ele>
        <time>2022-04-30T12:07:48Z</time>
      </trkpt>
      <trkpt lat="49.52054" lon="1.11662">
        <ele>165.9</ele>
        <time>2022-04-30T12:07:49Z</time>
      </trkpt>
      <trkpt lat="49.52051" lon="1.11652">
        <ele>165.9</ele>
        <time>2022-04-30T12:07:50Z</time>
      </trkpt>
      <trkpt lat="49.52048" lon="1.1164">
        <ele>165.8</ele>
        <time>2022-04-30T12:07:51Z</time>
      </trkpt>
      <trkpt lat="49.52044" lon="1.11629">
        <ele>165.8</ele>
        <time>2022-04-30T12:07:52Z</time>
      </trkpt>
      <trkpt lat="49.5204" lon="1.11616">
        <ele>165.8</ele>
        <time>2022-04-30T12:07:53Z</time>
      </trkpt>
      <trkpt lat="49.52035" lon="1.11599">
        <ele>165.8</ele>
        <time>2022-04-30T12:07:54Z</time>
      </trkpt>
      <trkpt lat="49.52032" lon="1.11588">
        <ele>165.8</ele>
        <time>2022-04-30T12:07:55Z</time>
      </trkpt>
      <trkpt lat="49.52029" lon="1.1158">
        <ele>165.8</ele>
        <time>2022-04-30T12:07:56Z</time>
      </trkpt>
      <trkpt lat="49.52026" lon="1.11564">
        <ele>165.7</ele>
        <time>2022-04-30T12:07:57Z</time>
      </trkpt>
      <trkpt lat="49.52022" lon="1.1155">
        <ele>165.7</ele>
        <time>2022-04-30T12:07:58Z</time>
      </trkpt>
      <trkpt lat="49.52019" lon="1.11538">
        <ele>165.6</ele>
        <time>2022-04-30T12:07:59Z</time>
      </trkpt>
      <trkpt lat="49.52017" lon="1.11527">
        <ele>165.6</ele>
        <time>2022-04-30T12:08:00Z</time>
      </trkpt>
      <trkpt lat="49.52017" lon="1.11518">
        <ele>165.5</ele>
        <time>2022-04-30T12:08:01Z</time>
      </trkpt>
      <trkpt lat="49.52017" lon="1.1151">
        <ele>165.5</ele>
        <time>2022-04-30T12:08:02Z</time>
      </trkpt>
      <trkpt lat="49.52017" lon="1.11501">
        <ele>165.5</ele>
        <time>2022-04-30T12:08:03Z</time>
      </trkpt>
      <trkpt lat="49.52016" lon="1.11494">
        <ele>165.5</ele>
        <time>2022-04-30T12:08:04Z</time>
      </trkpt>
      <trkpt lat="49.52015" lon="1.11487">
        <ele>165.4</ele>
        <time>2022-04-30T12:08:05Z</time>
      </trkpt>
      <trkpt lat="49.52015" lon="1.11481">
        <ele>165.4</ele>
        <time>2022-04-30T12:08:06Z</time>
      </trkpt>
      <trkpt lat="49.52014" lon="1.11475">
        <ele>165.4</ele>
        <time>2022-04-30T12:08:07Z</time>
      </trkpt>
      <trkpt lat="49.52013" lon="1.11469">
        <ele>165.4</ele>
        <time>2022-04-30T12:08:08Z</time>
      </trkpt>
      <trkpt lat="49.52012" lon="1.11462">
        <ele>165.4</ele>
        <time>2022-04-30T12:08:09Z</time>
      </trkpt>
      <trkpt lat="49.52011" lon="1.11456">
        <ele>165.4</ele>
        <time>2022-04-30T12:08:10Z</time>
      </trkpt>
      <trkpt lat="49.5201" lon="1.11451">
        <ele>165.3</ele>
        <time>2022-04-30T12:08:11Z</time>
      </trkpt>
      <trkpt lat="49.52009" lon="1.11444">
        <ele>165.3</ele>
        <time>2022-04-30T12:08:12Z</time>
      </trkpt>
      <trkpt lat="49.52008" lon="1.11436">
        <ele>165.3</ele>
        <time>2022-04-30T12:08:13Z</time>
      </trkpt>
      <trkpt lat="49.52007" lon="1.11428">
        <ele>165.2</ele>
        <time>2022-04-30T12:08:14Z</time>
      </trkpt>
      <trkpt lat="49.52006" lon="1.1142">
        <ele>165.2</ele>
        <time>2022-04-30T12:08:15Z</time>
      </trkpt>
      <trkpt lat="49.52005" lon="1.11412">
        <ele>165.2</ele>
        <time>2022-04-30T12:08:16Z</time>
      </trkpt>
      <trkpt lat="49.52004" lon="1.11404">
        <ele>165.1</ele>
        <time>2022-04-30T12:08:17Z</time>
      </trkpt>
      <trkpt lat="49.52003" lon="1.11394">
        <ele>165.1</ele>
        <time>2022-04-30T12:08:18Z</time>
      </trkpt>
      <trkpt lat="49.52001" lon="1.11384">
        <ele>165.1</ele>
        <time>2022-04-30T12:08:19Z</time>
      </trkpt>
      <trkpt lat="49.51999" lon="1.11375">
        <ele>165</ele>
        <time>2022-04-30T12:08:20Z</time>
      </trkpt>
      <trkpt lat="49.51997" lon="1.11363">
        <ele>165</ele>
        <time>2022-04-30T12:08:21Z</time>
      </trkpt>
      <trkpt lat="49.51995" lon="1.11351">
        <ele>164.9</ele>
        <time>2022-04-30T12:08:22Z</time>
      </trkpt>
      <trkpt lat="49.51992" lon="1.11341">
        <ele>164.9</ele>
        <time>2022-04-30T12:08:23Z</time>
      </trkpt>
      <trkpt lat="49.5199" lon="1.11329">
        <ele>164.8</ele>
        <time>2022-04-30T12:08:24Z</time>
      </trkpt>
      <trkpt lat="49.51987" lon="1.11317">
        <ele>164.8</ele>
        <time>2022-04-30T12:08:25Z</time>
      </trkpt>
      <trkpt lat="49.51985" lon="1.11307">
        <ele>164.8</ele>
        <time>2022-04-30T12:08:26Z</time>
      </trkpt>
      <trkpt lat="49.51981" lon="1.11294">
        <ele>164.9</ele>
        <time>2022-04-30T12:08:27Z</time>
      </trkpt>
      <trkpt lat="49.51978" lon="1.11284">
        <ele>164.9</ele>
        <time>2022-04-30T12:08:28Z</time>
      </trkpt>
      <trkpt lat="49.51976" lon="1.11276">
        <ele>164.9</ele>
        <time>2022-04-30T12:08:29Z</time>
      </trkpt>
      <trkpt lat="49.51973" lon="1.11266">
        <ele>164.8</ele>
        <time>2022-04-30T12:08:30Z</time>
      </trkpt>
      <trkpt lat="49.51971" lon="1.11256">
        <ele>164.8</ele>
        <time>2022-04-30T12:08:31Z</time>
      </trkpt>
      <trkpt lat="49.51969" lon="1.11248">
        <ele>164.8</ele>
        <time>2022-04-30T12:08:32Z</time>
      </trkpt>
      <trkpt lat="49.51967" lon="1.1124">
        <ele>164.8</ele>
        <time>2022-04-30T12:08:33Z</time>
      </trkpt>
      <trkpt lat="49.51965" lon="1.11231">
        <ele>164.8</ele>
        <time>2022-04-30T12:08:34Z</time>
      </trkpt>
      <trkpt lat="49.51963" lon="1.11222">
        <ele>164.8</ele>
        <time>2022-04-30T12:08:35Z</time>
      </trkpt>
      <trkpt lat="49.51961" lon="1.11213">
        <ele>164.8</ele>
        <time>2022-04-30T12:08:36Z</time>
      </trkpt>
      <trkpt lat="49.5196" lon="1.11204">
        <ele>164.7</ele>
        <time>2022-04-30T12:08:37Z</time>
      </trkpt>
      <trkpt lat="49.51958" lon="1.11194">
        <ele>164.7</ele>
        <time>2022-04-30T12:08:38Z</time>
      </trkpt>
      <trkpt lat="49.51957" lon="1.11183">
        <ele>164.7</ele>
        <time>2022-04-30T12:08:39Z</time>
      </trkpt>
      <trkpt lat="49.51955" lon="1.11175">
        <ele>164.7</ele>
        <time>2022-04-30T12:08:40Z</time>
      </trkpt>
      <trkpt lat="49.51954" lon="1.11168">
        <ele>164.7</ele>
        <time>2022-04-30T12:08:41Z</time>
      </trkpt>
      <trkpt lat="49.51952" lon="1.11161">
        <ele>164.7</ele>
        <time>2022-04-30T12:08:42Z</time>
      </trkpt>
      <trkpt lat="49.51951" lon="1.1115">
        <ele>164.7</ele>
        <time>2022-04-30T12:08:43Z</time>
      </trkpt>
      <trkpt lat="49.51948" lon="1.11138">
        <ele>164.7</ele>
        <time>2022-04-30T12:08:44Z</time>
      </trkpt>
      <trkpt lat="49.51943" lon="1.11121">
        <ele>164.7</ele>
        <time>2022-04-30T12:08:45Z</time>
      </trkpt>
      <trkpt lat="49.51939" lon="1.11108">
        <ele>164.6</ele>
        <time>2022-04-30T12:08:46Z</time>
      </trkpt>
      <trkpt lat="49.51933" lon="1.11089">
        <ele>164.5</ele>
        <time>2022-04-30T12:08:47Z</time>
      </trkpt>
      <trkpt lat="49.51929" lon="1.11073">
        <ele>164.5</ele>
        <time>2022-04-30T12:08:48Z</time>
      </trkpt>
      <trkpt lat="49.51925" lon="1.11059">
        <ele>164.4</ele>
        <time>2022-04-30T12:08:49Z</time>
      </trkpt>
      <trkpt lat="49.51922" lon="1.11046">
        <ele>164.4</ele>
        <time>2022-04-30T12:08:50Z</time>
      </trkpt>
      <trkpt lat="49.5192" lon="1.11034">
        <ele>164.4</ele>
        <time>2022-04-30T12:08:51Z</time>
      </trkpt>
      <trkpt lat="49.51918" lon="1.11023">
        <ele>164.4</ele>
        <time>2022-04-30T12:08:52Z</time>
      </trkpt>
      <trkpt lat="49.51917" lon="1.11015">
        <ele>164.3</ele>
        <time>2022-04-30T12:08:53Z</time>
      </trkpt>
      <trkpt lat="49.51915" lon="1.11008">
        <ele>164.3</ele>
        <time>2022-04-30T12:08:54Z</time>
      </trkpt>
      <trkpt lat="49.51914" lon="1.11">
        <ele>164.3</ele>
        <time>2022-04-30T12:08:55Z</time>
      </trkpt>
      <trkpt lat="49.51913" lon="1.10993">
        <ele>164.3</ele>
        <time>2022-04-30T12:08:56Z</time>
      </trkpt>
      <trkpt lat="49.51913" lon="1.10984">
        <ele>164.3</ele>
        <time>2022-04-30T12:08:57Z</time>
      </trkpt>
      <trkpt lat="49.51911" lon="1.10974">
        <ele>164.3</ele>
        <time>2022-04-30T12:08:58Z</time>
      </trkpt>
      <trkpt lat="49.51908" lon="1.10964">
        <ele>164.3</ele>
        <time>2022-04-30T12:08:59Z</time>
      </trkpt>
      <trkpt lat="49.51906" lon="1.10951">
        <ele>164.3</ele>
        <time>2022-04-30T12:09:00Z</time>
      </trkpt>
      <trkpt lat="49.51903" lon="1.10938">
        <ele>164.4</ele>
        <time>2022-04-30T12:09:01Z</time>
      </trkpt>
      <trkpt lat="49.51901" lon="1.10926">
        <ele>164.5</ele>
        <time>2022-04-30T12:09:02Z</time>
      </trkpt>
      <trkpt lat="49.51899" lon="1.10916">
        <ele>164.5</ele>
        <time>2022-04-30T12:09:03Z</time>
      </trkpt>
      <trkpt lat="49.51897" lon="1.10906">
        <ele>164.6</ele>
        <time>2022-04-30T12:09:04Z</time>
      </trkpt>
      <trkpt lat="49.51895" lon="1.10898">
        <ele>164.6</ele>
        <time>2022-04-30T12:09:05Z</time>
      </trkpt>
      <trkpt lat="49.51894" lon="1.1089">
        <ele>164.7</ele>
        <time>2022-04-30T12:09:06Z</time>
      </trkpt>
      <trkpt lat="49.51893" lon="1.10883">
        <ele>164.7</ele>
        <time>2022-04-30T12:09:07Z</time>
      </trkpt>
      <trkpt lat="49.51892" lon="1.10876">
        <ele>164.8</ele>
        <time>2022-04-30T12:09:08Z</time>
      </trkpt>
      <trkpt lat="49.51889" lon="1.10863">
        <ele>164.9</ele>
        <time>2022-04-30T12:09:10Z</time>
      </trkpt>
      <trkpt lat="49.51887" lon="1.10858">
        <ele>164.9</ele>
        <time>2022-04-30T12:09:11Z</time>
      </trkpt>
      <trkpt lat="49.51886" lon="1.10853">
        <ele>164.9</ele>
        <time>2022-04-30T12:09:12Z</time>
      </trkpt>
      <trkpt lat="49.51885" lon="1.10847">
        <ele>165</ele>
        <time>2022-04-30T12:09:13Z</time>
      </trkpt>
      <trkpt lat="49.51884" lon="1.10842">
        <ele>165</ele>
        <time>2022-04-30T12:09:14Z</time>
      </trkpt>
      <trkpt lat="49.51883" lon="1.10837">
        <ele>165</ele>
        <time>2022-04-30T12:09:15Z</time>
      </trkpt>
      <trkpt lat="49.51883" lon="1.10832">
        <ele>165</ele>
        <time>2022-04-30T12:09:16Z</time>
      </trkpt>
      <trkpt lat="49.51882" lon="1.10827">
        <ele>165</ele>
        <time>2022-04-30T12:09:17Z</time>
      </trkpt>
      <trkpt lat="49.51882" lon="1.10826">
        <ele>165.1</ele>
        <time>2022-04-30T12:09:18Z</time>
      </trkpt>
      <trkpt lat="49.51881" lon="1.10821">
        <ele>165.1</ele>
        <time>2022-04-30T12:09:19Z</time>
      </trkpt>
      <trkpt lat="49.5188" lon="1.10816">
        <ele>165.1</ele>
        <time>2022-04-30T12:09:20Z</time>
      </trkpt>
      <trkpt lat="49.51879" lon="1.10811">
        <ele>165.2</ele>
        <time>2022-04-30T12:09:21Z</time>
      </trkpt>
      <trkpt lat="49.51879" lon="1.10809">
        <ele>165.2</ele>
        <time>2022-04-30T12:09:22Z</time>
      </trkpt>
      <trkpt lat="49.51879" lon="1.10804">
        <ele>165.2</ele>
        <time>2022-04-30T12:09:23Z</time>
      </trkpt>
      <trkpt lat="49.51879" lon="1.10803">
        <ele>165.2</ele>
        <time>2022-04-30T12:09:24Z</time>
      </trkpt>
      <trkpt lat="49.5188" lon="1.10801">
        <ele>165.2</ele>
        <time>2022-04-30T12:09:25Z</time>
      </trkpt>
      <trkpt lat="49.51881" lon="1.108">
        <ele>165.2</ele>
        <time>2022-04-30T12:09:26Z</time>
      </trkpt>
      <trkpt lat="49.51883" lon="1.10799">
        <ele>165.3</ele>
        <time>2022-04-30T12:09:27Z</time>
      </trkpt>
      <trkpt lat="49.51884" lon="1.10798">
        <ele>165.3</ele>
        <time>2022-04-30T12:09:28Z</time>
      </trkpt>
      <trkpt lat="49.51884" lon="1.10796">
        <ele>165.3</ele>
        <time>2022-04-30T12:09:29Z</time>
      </trkpt>
      <trkpt lat="49.51886" lon="1.10794">
        <ele>165.3</ele>
        <time>2022-04-30T12:09:30Z</time>
      </trkpt>
      <trkpt lat="49.51888" lon="1.10791">
        <ele>165.3</ele>
        <time>2022-04-30T12:09:31Z</time>
      </trkpt>
      <trkpt lat="49.51888" lon="1.1079">
        <ele>165.3</ele>
        <time>2022-04-30T12:09:32Z</time>
      </trkpt>
      <trkpt lat="49.5189" lon="1.10787">
        <ele>165.3</ele>
        <time>2022-04-30T12:09:33Z</time>
      </trkpt>
      <trkpt lat="49.51891" lon="1.10786">
        <ele>165.3</ele>
        <time>2022-04-30T12:09:34Z</time>
      </trkpt>
      <trkpt lat="49.51893" lon="1.10782">
        <ele>165.4</ele>
        <time>2022-04-30T12:09:35Z</time>
      </trkpt>
      <trkpt lat="49.51894" lon="1.1078">
        <ele>165.4</ele>
        <time>2022-04-30T12:09:36Z</time>
      </trkpt>
      <trkpt lat="49.51895" lon="1.10776">
        <ele>165.4</ele>
        <time>2022-04-30T12:09:37Z</time>
      </trkpt>
      <trkpt lat="49.51896" lon="1.10772">
        <ele>165.4</ele>
        <time>2022-04-30T12:09:38Z</time>
      </trkpt>
      <trkpt lat="49.51898" lon="1.10769">
        <ele>165.4</ele>
        <time>2022-04-30T12:09:39Z</time>
      </trkpt>
      <trkpt lat="49.519" lon="1.10764">
        <ele>165.4</ele>
        <time>2022-04-30T12:09:40Z</time>
      </trkpt>
      <trkpt lat="49.51901" lon="1.10762">
        <ele>165.4</ele>
        <time>2022-04-30T12:09:41Z</time>
      </trkpt>
      <trkpt lat="49.51903" lon="1.10757">
        <ele>165.5</ele>
        <time>2022-04-30T12:09:42Z</time>
      </trkpt>
      <trkpt lat="49.51904" lon="1.10753">
        <ele>165.5</ele>
        <time>2022-04-30T12:09:43Z</time>
      </trkpt>
      <trkpt lat="49.51906" lon="1.10749">
        <ele>165.5</ele>
        <time>2022-04-30T12:09:44Z</time>
      </trkpt>
      <trkpt lat="49.51907" lon="1.10744">
        <ele>165.6</ele>
        <time>2022-04-30T12:09:45Z</time>
      </trkpt>
      <trkpt lat="49.51909" lon="1.10739">
        <ele>165.6</ele>
        <time>2022-04-30T12:09:46Z</time>
      </trkpt>
      <trkpt lat="49.51911" lon="1.10734">
        <ele>165.7</ele>
        <time>2022-04-30T12:09:47Z</time>
      </trkpt>
      <trkpt lat="49.51912" lon="1.10729">
        <ele>165.7</ele>
        <time>2022-04-30T12:09:48Z</time>
      </trkpt>
      <trkpt lat="49.51915" lon="1.10725">
        <ele>165.7</ele>
        <time>2022-04-30T12:09:49Z</time>
      </trkpt>
      <trkpt lat="49.51917" lon="1.10719">
        <ele>165.8</ele>
        <time>2022-04-30T12:09:50Z</time>
      </trkpt>
      <trkpt lat="49.51918" lon="1.10712">
        <ele>165.8</ele>
        <time>2022-04-30T12:09:51Z</time>
      </trkpt>
      <trkpt lat="49.51919" lon="1.10707">
        <ele>165.9</ele>
        <time>2022-04-30T12:09:52Z</time>
      </trkpt>
      <trkpt lat="49.51921" lon="1.10703">
        <ele>165.9</ele>
        <time>2022-04-30T12:09:53Z</time>
      </trkpt>
      <trkpt lat="49.51923" lon="1.107">
        <ele>165.9</ele>
        <time>2022-04-30T12:09:54Z</time>
      </trkpt>
      <trkpt lat="49.51924" lon="1.10696">
        <ele>165.9</ele>
        <time>2022-04-30T12:09:55Z</time>
      </trkpt>
      <trkpt lat="49.51926" lon="1.1069">
        <ele>166</ele>
        <time>2022-04-30T12:09:56Z</time>
      </trkpt>
      <trkpt lat="49.51927" lon="1.10687">
        <ele>166</ele>
        <time>2022-04-30T12:09:57Z</time>
      </trkpt>
      <trkpt lat="49.51929" lon="1.10681">
        <ele>166</ele>
        <time>2022-04-30T12:09:58Z</time>
      </trkpt>
      <trkpt lat="49.5193" lon="1.10676">
        <ele>166</ele>
        <time>2022-04-30T12:09:59Z</time>
      </trkpt>
      <trkpt lat="49.5193" lon="1.10673">
        <ele>166</ele>
        <time>2022-04-30T12:10:00Z</time>
      </trkpt>
      <trkpt lat="49.5193" lon="1.10672">
        <ele>166</ele>
        <time>2022-04-30T12:10:01Z</time>
      </trkpt>
      <trkpt lat="49.51931" lon="1.10667">
        <ele>166.1</ele>
        <time>2022-04-30T12:10:02Z</time>
      </trkpt>
      <trkpt lat="49.51932" lon="1.10665">
        <ele>166.1</ele>
        <time>2022-04-30T12:10:03Z</time>
      </trkpt>
      <trkpt lat="49.51934" lon="1.10657">
        <ele>166.1</ele>
        <time>2022-04-30T12:10:04Z</time>
      </trkpt>
      <trkpt lat="49.51935" lon="1.10653">
        <ele>166.1</ele>
        <time>2022-04-30T12:10:05Z</time>
      </trkpt>
      <trkpt lat="49.51938" lon="1.10646">
        <ele>166.1</ele>
        <time>2022-04-30T12:10:06Z</time>
      </trkpt>
      <trkpt lat="49.5194" lon="1.1064">
        <ele>166.2</ele>
        <time>2022-04-30T12:10:07Z</time>
      </trkpt>
      <trkpt lat="49.51943" lon="1.10633">
        <ele>166.2</ele>
        <time>2022-04-30T12:10:08Z</time>
      </trkpt>
      <trkpt lat="49.51945" lon="1.10626">
        <ele>166.2</ele>
        <time>2022-04-30T12:10:09Z</time>
      </trkpt>
      <trkpt lat="49.51948" lon="1.10619">
        <ele>166.2</ele>
        <time>2022-04-30T12:10:10Z</time>
      </trkpt>
      <trkpt lat="49.5195" lon="1.10612">
        <ele>166.1</ele>
        <time>2022-04-30T12:10:11Z</time>
      </trkpt>
      <trkpt lat="49.51952" lon="1.10604">
        <ele>166.1</ele>
        <time>2022-04-30T12:10:12Z</time>
      </trkpt>
      <trkpt lat="49.51952" lon="1.106">
        <ele>166.1</ele>
        <time>2022-04-30T12:10:13Z</time>
      </trkpt>
      <trkpt lat="49.51953" lon="1.10594">
        <ele>166.1</ele>
        <time>2022-04-30T12:10:14Z</time>
      </trkpt>
      <trkpt lat="49.51955" lon="1.10589">
        <ele>166.1</ele>
        <time>2022-04-30T12:10:15Z</time>
      </trkpt>
      <trkpt lat="49.51956" lon="1.10584">
        <ele>166</ele>
        <time>2022-04-30T12:10:16Z</time>
      </trkpt>
      <trkpt lat="49.51957" lon="1.10578">
        <ele>166</ele>
        <time>2022-04-30T12:10:17Z</time>
      </trkpt>
      <trkpt lat="49.51958" lon="1.1057">
        <ele>166</ele>
        <time>2022-04-30T12:10:18Z</time>
      </trkpt>
      <trkpt lat="49.51959" lon="1.10561">
        <ele>165.9</ele>
        <time>2022-04-30T12:10:19Z</time>
      </trkpt>
      <trkpt lat="49.5196" lon="1.10553">
        <ele>165.9</ele>
        <time>2022-04-30T12:10:20Z</time>
      </trkpt>
      <trkpt lat="49.51961" lon="1.10546">
        <ele>165.8</ele>
        <time>2022-04-30T12:10:21Z</time>
      </trkpt>
      <trkpt lat="49.51962" lon="1.1054">
        <ele>165.8</ele>
        <time>2022-04-30T12:10:22Z</time>
      </trkpt>
      <trkpt lat="49.51963" lon="1.10533">
        <ele>165.8</ele>
        <time>2022-04-30T12:10:23Z</time>
      </trkpt>
      <trkpt lat="49.51964" lon="1.10523">
        <ele>165.7</ele>
        <time>2022-04-30T12:10:24Z</time>
      </trkpt>
      <trkpt lat="49.51966" lon="1.10512">
        <ele>165.6</ele>
        <time>2022-04-30T12:10:25Z</time>
      </trkpt>
      <trkpt lat="49.51968" lon="1.10499">
        <ele>165.5</ele>
        <time>2022-04-30T12:10:26Z</time>
      </trkpt>
      <trkpt lat="49.51969" lon="1.10488">
        <ele>165.5</ele>
        <time>2022-04-30T12:10:27Z</time>
      </trkpt>
      <trkpt lat="49.5197" lon="1.10478">
        <ele>165.4</ele>
        <time>2022-04-30T12:10:28Z</time>
      </trkpt>
      <trkpt lat="49.51971" lon="1.10467">
        <ele>165.3</ele>
        <time>2022-04-30T12:10:29Z</time>
      </trkpt>
      <trkpt lat="49.51971" lon="1.10451">
        <ele>165.2</ele>
        <time>2022-04-30T12:10:30Z</time>
      </trkpt>
      <trkpt lat="49.51972" lon="1.10437">
        <ele>165.1</ele>
        <time>2022-04-30T12:10:31Z</time>
      </trkpt>
      <trkpt lat="49.51973" lon="1.10424">
        <ele>165.1</ele>
        <time>2022-04-30T12:10:32Z</time>
      </trkpt>
      <trkpt lat="49.51974" lon="1.10414">
        <ele>165.1</ele>
        <time>2022-04-30T12:10:33Z</time>
      </trkpt>
      <trkpt lat="49.51975" lon="1.10404">
        <ele>165.1</ele>
        <time>2022-04-30T12:10:34Z</time>
      </trkpt>
      <trkpt lat="49.51976" lon="1.10394">
        <ele>165.1</ele>
        <time>2022-04-30T12:10:35Z</time>
      </trkpt>
      <trkpt lat="49.51977" lon="1.10387">
        <ele>165.1</ele>
        <time>2022-04-30T12:10:36Z</time>
      </trkpt>
      <trkpt lat="49.51978" lon="1.10381">
        <ele>165.1</ele>
        <time>2022-04-30T12:10:37Z</time>
      </trkpt>
      <trkpt lat="49.51978" lon="1.10374">
        <ele>165.2</ele>
        <time>2022-04-30T12:10:38Z</time>
      </trkpt>
      <trkpt lat="49.51979" lon="1.10366">
        <ele>165.2</ele>
        <time>2022-04-30T12:10:39Z</time>
      </trkpt>
      <trkpt lat="49.51981" lon="1.10358">
        <ele>165.3</ele>
        <time>2022-04-30T12:10:40Z</time>
      </trkpt>
      <trkpt lat="49.51982" lon="1.10349">
        <ele>165.4</ele>
        <time>2022-04-30T12:10:41Z</time>
      </trkpt>
      <trkpt lat="49.51983" lon="1.10342">
        <ele>165.4</ele>
        <time>2022-04-30T12:10:42Z</time>
      </trkpt>
      <trkpt lat="49.51984" lon="1.10335">
        <ele>165.5</ele>
        <time>2022-04-30T12:10:43Z</time>
      </trkpt>
      <trkpt lat="49.51985" lon="1.10327">
        <ele>165.6</ele>
        <time>2022-04-30T12:10:44Z</time>
      </trkpt>
      <trkpt lat="49.51986" lon="1.1032">
        <ele>165.6</ele>
        <time>2022-04-30T12:10:45Z</time>
      </trkpt>
      <trkpt lat="49.51988" lon="1.10313">
        <ele>165.7</ele>
        <time>2022-04-30T12:10:46Z</time>
      </trkpt>
      <trkpt lat="49.5199" lon="1.10302">
        <ele>165.8</ele>
        <time>2022-04-30T12:10:47Z</time>
      </trkpt>
      <trkpt lat="49.51992" lon="1.10295">
        <ele>165.8</ele>
        <time>2022-04-30T12:10:48Z</time>
      </trkpt>
      <trkpt lat="49.51994" lon="1.10289">
        <ele>165.9</ele>
        <time>2022-04-30T12:10:49Z</time>
      </trkpt>
      <trkpt lat="49.51995" lon="1.10282">
        <ele>165.9</ele>
        <time>2022-04-30T12:10:50Z</time>
      </trkpt>
      <trkpt lat="49.51996" lon="1.10274">
        <ele>166</ele>
        <time>2022-04-30T12:10:51Z</time>
      </trkpt>
      <trkpt lat="49.51997" lon="1.10267">
        <ele>166</ele>
        <time>2022-04-30T12:10:52Z</time>
      </trkpt>
      <trkpt lat="49.51998" lon="1.10261">
        <ele>166.1</ele>
        <time>2022-04-30T12:10:53Z</time>
      </trkpt>
      <trkpt lat="49.51999" lon="1.10255">
        <ele>166.1</ele>
        <time>2022-04-30T12:10:54Z</time>
      </trkpt>
      <trkpt lat="49.52" lon="1.10249">
        <ele>166.1</ele>
        <time>2022-04-30T12:10:55Z</time>
      </trkpt>
      <trkpt lat="49.52001" lon="1.10243">
        <ele>166.2</ele>
        <time>2022-04-30T12:10:56Z</time>
      </trkpt>
      <trkpt lat="49.52002" lon="1.10238">
        <ele>166.2</ele>
        <time>2022-04-30T12:10:57Z</time>
      </trkpt>
      <trkpt lat="49.52003" lon="1.10233">
        <ele>166.3</ele>
        <time>2022-04-30T12:10:58Z</time>
      </trkpt>
      <trkpt lat="49.52003" lon="1.10228">
        <ele>166.3</ele>
        <time>2022-04-30T12:10:59Z</time>
      </trkpt>
      <trkpt lat="49.52002" lon="1.10222">
        <ele>166.3</ele>
        <time>2022-04-30T12:11:00Z</time>
      </trkpt>
      <trkpt lat="49.52002" lon="1.10219">
        <ele>166.4</ele>
        <time>2022-04-30T12:11:01Z</time>
      </trkpt>
      <trkpt lat="49.52001" lon="1.10212">
        <ele>166.4</ele>
        <time>2022-04-30T12:11:02Z</time>
      </trkpt>
      <trkpt lat="49.52" lon="1.10208">
        <ele>166.4</ele>
        <time>2022-04-30T12:11:03Z</time>
      </trkpt>
      <trkpt lat="49.51999" lon="1.10203">
        <ele>166.4</ele>
        <time>2022-04-30T12:11:04Z</time>
      </trkpt>
      <trkpt lat="49.51999" lon="1.10202">
        <ele>166.5</ele>
        <time>2022-04-30T12:11:05Z</time>
      </trkpt>
      <trkpt lat="49.51998" lon="1.102">
        <ele>166.5</ele>
        <time>2022-04-30T12:11:06Z</time>
      </trkpt>
      <trkpt lat="49.51997" lon="1.10199">
        <ele>166.5</ele>
        <time>2022-04-30T12:11:07Z</time>
      </trkpt>
      <trkpt lat="49.51997" lon="1.10199">
        <ele>166.5</ele>
        <time>2022-04-30T12:11:08Z</time>
      </trkpt>
      <trkpt lat="49.51997" lon="1.10198">
        <ele>166.5</ele>
        <time>2022-04-30T12:11:09Z</time>
      </trkpt>
      <trkpt lat="49.51996" lon="1.10197">
        <ele>166.5</ele>
        <time>2022-04-30T12:11:10Z</time>
      </trkpt>
      <trkpt lat="49.51996" lon="1.10196">
        <ele>166.5</ele>
        <time>2022-04-30T12:11:11Z</time>
      </trkpt>
      <trkpt lat="49.51996" lon="1.10195">
        <ele>166.5</ele>
        <time>2022-04-30T12:11:12Z</time>
      </trkpt>
      <trkpt lat="49.51995" lon="1.10194">
        <ele>166.5</ele>
        <time>2022-04-30T12:11:20Z</time>
      </trkpt>
      <trkpt lat="49.51995" lon="1.10194">
        <ele>166.5</ele>
        <time>2022-04-30T12:11:21Z</time>
      </trkpt>
      <trkpt lat="49.51995" lon="1.10193">
        <ele>166.5</ele>
        <time>2022-04-30T12:11:22Z</time>
      </trkpt>
      <trkpt lat="49.51994" lon="1.10188">
        <ele>166.6</ele>
        <time>2022-04-30T12:11:23Z</time>
      </trkpt>
      <trkpt lat="49.51995" lon="1.10186">
        <ele>166.6</ele>
        <time>2022-04-30T12:11:24Z</time>
      </trkpt>
      <trkpt lat="49.51996" lon="1.1018">
        <ele>166.6</ele>
        <time>2022-04-30T12:11:25Z</time>
      </trkpt>
      <trkpt lat="49.51997" lon="1.10179">
        <ele>166.6</ele>
        <time>2022-04-30T12:11:26Z</time>
      </trkpt>
      <trkpt lat="49.51999" lon="1.10174">
        <ele>166.7</ele>
        <time>2022-04-30T12:11:27Z</time>
      </trkpt>
      <trkpt lat="49.52" lon="1.10172">
        <ele>166.7</ele>
        <time>2022-04-30T12:11:28Z</time>
      </trkpt>
      <trkpt lat="49.52001" lon="1.10168">
        <ele>166.7</ele>
        <time>2022-04-30T12:11:29Z</time>
      </trkpt>
      <trkpt lat="49.52002" lon="1.10164">
        <ele>166.7</ele>
        <time>2022-04-30T12:11:30Z</time>
      </trkpt>
      <trkpt lat="49.52003" lon="1.1016">
        <ele>166.8</ele>
        <time>2022-04-30T12:11:31Z</time>
      </trkpt>
      <trkpt lat="49.52005" lon="1.10155">
        <ele>166.8</ele>
        <time>2022-04-30T12:11:32Z</time>
      </trkpt>
      <trkpt lat="49.52006" lon="1.10151">
        <ele>166.8</ele>
        <time>2022-04-30T12:11:33Z</time>
      </trkpt>
      <trkpt lat="49.52008" lon="1.10145">
        <ele>166.9</ele>
        <time>2022-04-30T12:11:34Z</time>
      </trkpt>
      <trkpt lat="49.52009" lon="1.10139">
        <ele>167</ele>
        <time>2022-04-30T12:11:35Z</time>
      </trkpt>
      <trkpt lat="49.52012" lon="1.10132">
        <ele>167</ele>
        <time>2022-04-30T12:11:36Z</time>
      </trkpt>
      <trkpt lat="49.52014" lon="1.10125">
        <ele>167.1</ele>
        <time>2022-04-30T12:11:37Z</time>
      </trkpt>
      <trkpt lat="49.52016" lon="1.10118">
        <ele>167.2</ele>
        <time>2022-04-30T12:11:38Z</time>
      </trkpt>
      <trkpt lat="49.52018" lon="1.10112">
        <ele>167.3</ele>
        <time>2022-04-30T12:11:39Z</time>
      </trkpt>
      <trkpt lat="49.52019" lon="1.10105">
        <ele>167.3</ele>
        <time>2022-04-30T12:11:40Z</time>
      </trkpt>
      <trkpt lat="49.52021" lon="1.10098">
        <ele>167.4</ele>
        <time>2022-04-30T12:11:41Z</time>
      </trkpt>
      <trkpt lat="49.52023" lon="1.10092">
        <ele>167.5</ele>
        <time>2022-04-30T12:11:42Z</time>
      </trkpt>
      <trkpt lat="49.52025" lon="1.10085">
        <ele>167.6</ele>
        <time>2022-04-30T12:11:43Z</time>
      </trkpt>
      <trkpt lat="49.52027" lon="1.10077">
        <ele>167.7</ele>
        <time>2022-04-30T12:11:44Z</time>
      </trkpt>
      <trkpt lat="49.5203" lon="1.1007">
        <ele>167.8</ele>
        <time>2022-04-30T12:11:45Z</time>
      </trkpt>
      <trkpt lat="49.52032" lon="1.10062">
        <ele>167.9</ele>
        <time>2022-04-30T12:11:46Z</time>
      </trkpt>
      <trkpt lat="49.52034" lon="1.10054">
        <ele>168</ele>
        <time>2022-04-30T12:11:47Z</time>
      </trkpt>
      <trkpt lat="49.52036" lon="1.10048">
        <ele>168</ele>
        <time>2022-04-30T12:11:48Z</time>
      </trkpt>
      <trkpt lat="49.52038" lon="1.10042">
        <ele>168.1</ele>
        <time>2022-04-30T12:11:49Z</time>
      </trkpt>
      <trkpt lat="49.52039" lon="1.10036">
        <ele>168.2</ele>
        <time>2022-04-30T12:11:50Z</time>
      </trkpt>
      <trkpt lat="49.52041" lon="1.1003">
        <ele>168.2</ele>
        <time>2022-04-30T12:11:51Z</time>
      </trkpt>
      <trkpt lat="49.52042" lon="1.10024">
        <ele>168.3</ele>
        <time>2022-04-30T12:11:52Z</time>
      </trkpt>
      <trkpt lat="49.52043" lon="1.10018">
        <ele>168.4</ele>
        <time>2022-04-30T12:11:53Z</time>
      </trkpt>
      <trkpt lat="49.52045" lon="1.10012">
        <ele>168.5</ele>
        <time>2022-04-30T12:11:54Z</time>
      </trkpt>
      <trkpt lat="49.52047" lon="1.10002">
        <ele>168.6</ele>
        <time>2022-04-30T12:11:55Z</time>
      </trkpt>
      <trkpt lat="49.52048" lon="1.09995">
        <ele>168.7</ele>
        <time>2022-04-30T12:11:56Z</time>
      </trkpt>
      <trkpt lat="49.52049" lon="1.09988">
        <ele>168.8</ele>
        <time>2022-04-30T12:11:57Z</time>
      </trkpt>
      <trkpt lat="49.5205" lon="1.09981">
        <ele>168.9</ele>
        <time>2022-04-30T12:11:58Z</time>
      </trkpt>
      <trkpt lat="49.52051" lon="1.09976">
        <ele>168.9</ele>
        <time>2022-04-30T12:11:59Z</time>
      </trkpt>
      <trkpt lat="49.52052" lon="1.09971">
        <ele>169</ele>
        <time>2022-04-30T12:12:00Z</time>
      </trkpt>
      <trkpt lat="49.52053" lon="1.09965">
        <ele>169</ele>
        <time>2022-04-30T12:12:01Z</time>
      </trkpt>
      <trkpt lat="49.52054" lon="1.0996">
        <ele>169.1</ele>
        <time>2022-04-30T12:12:02Z</time>
      </trkpt>
      <trkpt lat="49.52055" lon="1.09956">
        <ele>169.1</ele>
        <time>2022-04-30T12:12:03Z</time>
      </trkpt>
      <trkpt lat="49.52055" lon="1.09952">
        <ele>169.2</ele>
        <time>2022-04-30T12:12:04Z</time>
      </trkpt>
      <trkpt lat="49.52056" lon="1.09947">
        <ele>169.2</ele>
        <time>2022-04-30T12:12:05Z</time>
      </trkpt>
      <trkpt lat="49.52058" lon="1.0994">
        <ele>169.3</ele>
        <time>2022-04-30T12:12:06Z</time>
      </trkpt>
      <trkpt lat="49.52059" lon="1.09932">
        <ele>169.4</ele>
        <time>2022-04-30T12:12:07Z</time>
      </trkpt>
      <trkpt lat="49.52059" lon="1.09926">
        <ele>169.4</ele>
        <time>2022-04-30T12:12:08Z</time>
      </trkpt>
      <trkpt lat="49.5206" lon="1.09919">
        <ele>169.5</ele>
        <time>2022-04-30T12:12:09Z</time>
      </trkpt>
      <trkpt lat="49.52061" lon="1.09913">
        <ele>169.6</ele>
        <time>2022-04-30T12:12:10Z</time>
      </trkpt>
      <trkpt lat="49.52061" lon="1.09907">
        <ele>169.7</ele>
        <time>2022-04-30T12:12:11Z</time>
      </trkpt>
      <trkpt lat="49.52062" lon="1.09902">
        <ele>169.7</ele>
        <time>2022-04-30T12:12:12Z</time>
      </trkpt>
      <trkpt lat="49.52063" lon="1.09895">
        <ele>169.7</ele>
        <time>2022-04-30T12:12:13Z</time>
      </trkpt>
      <trkpt lat="49.52064" lon="1.09888">
        <ele>169.8</ele>
        <time>2022-04-30T12:12:14Z</time>
      </trkpt>
      <trkpt lat="49.52064" lon="1.09885">
        <ele>169.8</ele>
        <time>2022-04-30T12:12:15Z</time>
      </trkpt>
      <trkpt lat="49.52064" lon="1.09883">
        <ele>169.8</ele>
        <time>2022-04-30T12:12:16Z</time>
      </trkpt>
      <trkpt lat="49.52064" lon="1.09881">
        <ele>169.8</ele>
        <time>2022-04-30T12:12:17Z</time>
      </trkpt>
      <trkpt lat="49.52065" lon="1.09879">
        <ele>169.8</ele>
        <time>2022-04-30T12:12:18Z</time>
      </trkpt>
      <trkpt lat="49.52065" lon="1.09877">
        <ele>169.8</ele>
        <time>2022-04-30T12:12:19Z</time>
      </trkpt>
      <trkpt lat="49.52065" lon="1.09875">
        <ele>169.8</ele>
        <time>2022-04-30T12:12:20Z</time>
      </trkpt>
      <trkpt lat="49.52066" lon="1.09872">
        <ele>169.9</ele>
        <time>2022-04-30T12:12:21Z</time>
      </trkpt>
      <trkpt lat="49.52067" lon="1.09866">
        <ele>169.9</ele>
        <time>2022-04-30T12:12:22Z</time>
      </trkpt>
      <trkpt lat="49.52068" lon="1.09858">
        <ele>169.9</ele>
        <time>2022-04-30T12:12:23Z</time>
      </trkpt>
      <trkpt lat="49.5207" lon="1.0985">
        <ele>170</ele>
        <time>2022-04-30T12:12:24Z</time>
      </trkpt>
      <trkpt lat="49.52072" lon="1.09842">
        <ele>170</ele>
        <time>2022-04-30T12:12:25Z</time>
      </trkpt>
      <trkpt lat="49.52073" lon="1.09834">
        <ele>170.1</ele>
        <time>2022-04-30T12:12:26Z</time>
      </trkpt>
      <trkpt lat="49.52075" lon="1.09827">
        <ele>170.2</ele>
        <time>2022-04-30T12:12:27Z</time>
      </trkpt>
      <trkpt lat="49.52076" lon="1.0982">
        <ele>170.3</ele>
        <time>2022-04-30T12:12:28Z</time>
      </trkpt>
      <trkpt lat="49.52078" lon="1.09813">
        <ele>170.4</ele>
        <time>2022-04-30T12:12:29Z</time>
      </trkpt>
      <trkpt lat="49.5208" lon="1.09805">
        <ele>170.5</ele>
        <time>2022-04-30T12:12:30Z</time>
      </trkpt>
      <trkpt lat="49.52081" lon="1.09797">
        <ele>170.5</ele>
        <time>2022-04-30T12:12:31Z</time>
      </trkpt>
      <trkpt lat="49.52083" lon="1.0979">
        <ele>170.6</ele>
        <time>2022-04-30T12:12:32Z</time>
      </trkpt>
      <trkpt lat="49.52084" lon="1.09783">
        <ele>170.6</ele>
        <time>2022-04-30T12:12:33Z</time>
      </trkpt>
      <trkpt lat="49.52085" lon="1.09777">
        <ele>170.7</ele>
        <time>2022-04-30T12:12:34Z</time>
      </trkpt>
      <trkpt lat="49.52087" lon="1.0976">
        <ele>170.7</ele>
        <time>2022-04-30T12:12:35Z</time>
      </trkpt>
      <trkpt lat="49.52088" lon="1.09746">
        <ele>170.8</ele>
        <time>2022-04-30T12:12:36Z</time>
      </trkpt>
      <trkpt lat="49.52089" lon="1.09733">
        <ele>170.8</ele>
        <time>2022-04-30T12:12:37Z</time>
      </trkpt>
      <trkpt lat="49.5209" lon="1.0972">
        <ele>170.8</ele>
        <time>2022-04-30T12:12:38Z</time>
      </trkpt>
      <trkpt lat="49.5209" lon="1.0971">
        <ele>170.7</ele>
        <time>2022-04-30T12:12:39Z</time>
      </trkpt>
      <trkpt lat="49.52091" lon="1.097">
        <ele>170.7</ele>
        <time>2022-04-30T12:12:40Z</time>
      </trkpt>
      <trkpt lat="49.52092" lon="1.09692">
        <ele>170.6</ele>
        <time>2022-04-30T12:12:41Z</time>
      </trkpt>
      <trkpt lat="49.52092" lon="1.09685">
        <ele>170.6</ele>
        <time>2022-04-30T12:12:42Z</time>
      </trkpt>
      <trkpt lat="49.52092" lon="1.09676">
        <ele>170.6</ele>
        <time>2022-04-30T12:12:43Z</time>
      </trkpt>
      <trkpt lat="49.52092" lon="1.09667">
        <ele>170.5</ele>
        <time>2022-04-30T12:12:44Z</time>
      </trkpt>
      <trkpt lat="49.52093" lon="1.0966">
        <ele>170.5</ele>
        <time>2022-04-30T12:12:45Z</time>
      </trkpt>
      <trkpt lat="49.52094" lon="1.09653">
        <ele>170.4</ele>
        <time>2022-04-30T12:12:46Z</time>
      </trkpt>
      <trkpt lat="49.52094" lon="1.09647">
        <ele>170.4</ele>
        <time>2022-04-30T12:12:47Z</time>
      </trkpt>
      <trkpt lat="49.52094" lon="1.09641">
        <ele>170.4</ele>
        <time>2022-04-30T12:12:48Z</time>
      </trkpt>
      <trkpt lat="49.52094" lon="1.09635">
        <ele>170.4</ele>
        <time>2022-04-30T12:12:49Z</time>
      </trkpt>
      <trkpt lat="49.52094" lon="1.09628">
        <ele>170.4</ele>
        <time>2022-04-30T12:12:50Z</time>
      </trkpt>
      <trkpt lat="49.52093" lon="1.09623">
        <ele>170.4</ele>
        <time>2022-04-30T12:12:51Z</time>
      </trkpt>
      <trkpt lat="49.5209" lon="1.09618">
        <ele>170.4</ele>
        <time>2022-04-30T12:12:52Z</time>
      </trkpt>
      <trkpt lat="49.52087" lon="1.09612">
        <ele>170.4</ele>
        <time>2022-04-30T12:12:53Z</time>
      </trkpt>
      <trkpt lat="49.52081" lon="1.09606">
        <ele>170.4</ele>
        <time>2022-04-30T12:12:54Z</time>
      </trkpt>
      <trkpt lat="49.52076" lon="1.09603">
        <ele>170.3</ele>
        <time>2022-04-30T12:12:55Z</time>
      </trkpt>
      <trkpt lat="49.52071" lon="1.096">
        <ele>170.2</ele>
        <time>2022-04-30T12:12:56Z</time>
      </trkpt>
      <trkpt lat="49.52068" lon="1.09599">
        <ele>170.2</ele>
        <time>2022-04-30T12:12:57Z</time>
      </trkpt>
      <trkpt lat="49.52066" lon="1.09598">
        <ele>170.1</ele>
        <time>2022-04-30T12:12:58Z</time>
      </trkpt>
      <trkpt lat="49.52065" lon="1.09598">
        <ele>170.1</ele>
        <time>2022-04-30T12:12:59Z</time>
      </trkpt>
      <trkpt lat="49.52063" lon="1.09598">
        <ele>170.1</ele>
        <time>2022-04-30T12:13:00Z</time>
      </trkpt>
      <trkpt lat="49.52062" lon="1.09598">
        <ele>170.1</ele>
        <time>2022-04-30T12:13:01Z</time>
      </trkpt>
      <trkpt lat="49.52061" lon="1.09597">
        <ele>170.1</ele>
        <time>2022-04-30T12:13:02Z</time>
      </trkpt>
      <trkpt lat="49.5206" lon="1.09597">
        <ele>170</ele>
        <time>2022-04-30T12:13:03Z</time>
      </trkpt>
      <trkpt lat="49.52056" lon="1.09597">
        <ele>170</ele>
        <time>2022-04-30T12:13:04Z</time>
      </trkpt>
      <trkpt lat="49.52053" lon="1.09597">
        <ele>169.9</ele>
        <time>2022-04-30T12:13:05Z</time>
      </trkpt>
      <trkpt lat="49.5205" lon="1.09597">
        <ele>169.9</ele>
        <time>2022-04-30T12:13:06Z</time>
      </trkpt>
      <trkpt lat="49.52047" lon="1.09596">
        <ele>169.8</ele>
        <time>2022-04-30T12:13:07Z</time>
      </trkpt>
      <trkpt lat="49.52044" lon="1.09595">
        <ele>169.7</ele>
        <time>2022-04-30T12:13:08Z</time>
      </trkpt>
      <trkpt lat="49.52041" lon="1.09593">
        <ele>169.7</ele>
        <time>2022-04-30T12:13:09Z</time>
      </trkpt>
      <trkpt lat="49.52036" lon="1.09591">
        <ele>169.6</ele>
        <time>2022-04-30T12:13:10Z</time>
      </trkpt>
      <trkpt lat="49.52033" lon="1.09589">
        <ele>169.5</ele>
        <time>2022-04-30T12:13:11Z</time>
      </trkpt>
      <trkpt lat="49.5203" lon="1.09588">
        <ele>169.4</ele>
        <time>2022-04-30T12:13:12Z</time>
      </trkpt>
      <trkpt lat="49.52029" lon="1.09587">
        <ele>169.4</ele>
        <time>2022-04-30T12:13:13Z</time>
      </trkpt>
      <trkpt lat="49.52025" lon="1.09586">
        <ele>169.3</ele>
        <time>2022-04-30T12:13:14Z</time>
      </trkpt>
      <trkpt lat="49.52021" lon="1.09585">
        <ele>169.3</ele>
        <time>2022-04-30T12:13:15Z</time>
      </trkpt>
      <trkpt lat="49.52014" lon="1.09583">
        <ele>169.2</ele>
        <time>2022-04-30T12:13:16Z</time>
      </trkpt>
      <trkpt lat="49.52007" lon="1.0958">
        <ele>169.1</ele>
        <time>2022-04-30T12:13:17Z</time>
      </trkpt>
      <trkpt lat="49.52001" lon="1.09577">
        <ele>169</ele>
        <time>2022-04-30T12:13:18Z</time>
      </trkpt>
      <trkpt lat="49.51996" lon="1.09575">
        <ele>168.9</ele>
        <time>2022-04-30T12:13:19Z</time>
      </trkpt>
      <trkpt lat="49.51991" lon="1.09573">
        <ele>168.8</ele>
        <time>2022-04-30T12:13:20Z</time>
      </trkpt>
      <trkpt lat="49.51987" lon="1.09572">
        <ele>168.7</ele>
        <time>2022-04-30T12:13:21Z</time>
      </trkpt>
      <trkpt lat="49.51983" lon="1.09571">
        <ele>168.7</ele>
        <time>2022-04-30T12:13:22Z</time>
      </trkpt>
      <trkpt lat="49.5198" lon="1.0957">
        <ele>168.6</ele>
        <time>2022-04-30T12:13:23Z</time>
      </trkpt>
      <trkpt lat="49.51976" lon="1.0957">
        <ele>168.6</ele>
        <time>2022-04-30T12:13:24Z</time>
      </trkpt>
      <trkpt lat="49.51972" lon="1.09569">
        <ele>168.5</ele>
        <time>2022-04-30T12:13:25Z</time>
      </trkpt>
      <trkpt lat="49.51969" lon="1.09568">
        <ele>168.4</ele>
        <time>2022-04-30T12:13:26Z</time>
      </trkpt>
      <trkpt lat="49.51966" lon="1.09567">
        <ele>168.4</ele>
        <time>2022-04-30T12:13:27Z</time>
      </trkpt>
      <trkpt lat="49.51965" lon="1.09566">
        <ele>168.4</ele>
        <time>2022-04-30T12:13:28Z</time>
      </trkpt>
      <trkpt lat="49.51961" lon="1.09564">
        <ele>168.3</ele>
        <time>2022-04-30T12:13:29Z</time>
      </trkpt>
      <trkpt lat="49.5196" lon="1.09563">
        <ele>168.2</ele>
        <time>2022-04-30T12:13:30Z</time>
      </trkpt>
      <trkpt lat="49.51956" lon="1.09561">
        <ele>168.2</ele>
        <time>2022-04-30T12:13:31Z</time>
      </trkpt>
      <trkpt lat="49.51952" lon="1.09558">
        <ele>168.1</ele>
        <time>2022-04-30T12:13:32Z</time>
      </trkpt>
      <trkpt lat="49.51947" lon="1.09556">
        <ele>168</ele>
        <time>2022-04-30T12:13:33Z</time>
      </trkpt>
      <trkpt lat="49.51941" lon="1.09553">
        <ele>167.8</ele>
        <time>2022-04-30T12:13:34Z</time>
      </trkpt>
      <trkpt lat="49.51935" lon="1.0955">
        <ele>167.7</ele>
        <time>2022-04-30T12:13:35Z</time>
      </trkpt>
      <trkpt lat="49.5193" lon="1.09547">
        <ele>167.5</ele>
        <time>2022-04-30T12:13:36Z</time>
      </trkpt>
      <trkpt lat="49.51926" lon="1.09545">
        <ele>167.4</ele>
        <time>2022-04-30T12:13:37Z</time>
      </trkpt>
      <trkpt lat="49.51921" lon="1.09543">
        <ele>167.3</ele>
        <time>2022-04-30T12:13:38Z</time>
      </trkpt>
      <trkpt lat="49.51917" lon="1.09541">
        <ele>167.1</ele>
        <time>2022-04-30T12:13:39Z</time>
      </trkpt>
      <trkpt lat="49.51912" lon="1.09539">
        <ele>167</ele>
        <time>2022-04-30T12:13:40Z</time>
      </trkpt>
      <trkpt lat="49.51907" lon="1.09537">
        <ele>166.8</ele>
        <time>2022-04-30T12:13:41Z</time>
      </trkpt>
      <trkpt lat="49.51902" lon="1.09534">
        <ele>166.6</ele>
        <time>2022-04-30T12:13:42Z</time>
      </trkpt>
      <trkpt lat="49.51897" lon="1.09532">
        <ele>166.5</ele>
        <time>2022-04-30T12:13:43Z</time>
      </trkpt>
      <trkpt lat="49.51893" lon="1.0953">
        <ele>166.4</ele>
        <time>2022-04-30T12:13:44Z</time>
      </trkpt>
      <trkpt lat="49.51889" lon="1.09529">
        <ele>166.3</ele>
        <time>2022-04-30T12:13:45Z</time>
      </trkpt>
      <trkpt lat="49.51886" lon="1.09527">
        <ele>166.2</ele>
        <time>2022-04-30T12:13:46Z</time>
      </trkpt>
      <trkpt lat="49.51882" lon="1.09526">
        <ele>166.1</ele>
        <time>2022-04-30T12:13:47Z</time>
      </trkpt>
      <trkpt lat="49.51878" lon="1.09525">
        <ele>166</ele>
        <time>2022-04-30T12:13:48Z</time>
      </trkpt>
      <trkpt lat="49.51875" lon="1.09524">
        <ele>165.9</ele>
        <time>2022-04-30T12:13:49Z</time>
      </trkpt>
      <trkpt lat="49.51871" lon="1.09523">
        <ele>165.9</ele>
        <time>2022-04-30T12:13:50Z</time>
      </trkpt>
      <trkpt lat="49.51867" lon="1.09522">
        <ele>165.8</ele>
        <time>2022-04-30T12:13:51Z</time>
      </trkpt>
      <trkpt lat="49.51863" lon="1.0952">
        <ele>165.7</ele>
        <time>2022-04-30T12:13:52Z</time>
      </trkpt>
      <trkpt lat="49.51858" lon="1.09518">
        <ele>165.6</ele>
        <time>2022-04-30T12:13:53Z</time>
      </trkpt>
      <trkpt lat="49.51854" lon="1.09515">
        <ele>165.5</ele>
        <time>2022-04-30T12:13:54Z</time>
      </trkpt>
      <trkpt lat="49.51851" lon="1.09513">
        <ele>165.4</ele>
        <time>2022-04-30T12:13:55Z</time>
      </trkpt>
      <trkpt lat="49.51847" lon="1.09511">
        <ele>165.3</ele>
        <time>2022-04-30T12:13:56Z</time>
      </trkpt>
      <trkpt lat="49.51844" lon="1.0951">
        <ele>165.2</ele>
        <time>2022-04-30T12:13:57Z</time>
      </trkpt>
      <trkpt lat="49.51821" lon="1.095">
        <ele>164.8</ele>
        <time>2022-04-30T12:13:58Z</time>
      </trkpt>
      <trkpt lat="49.51815" lon="1.09497">
        <ele>164.8</ele>
        <time>2022-04-30T12:13:59Z</time>
      </trkpt>
      <trkpt lat="49.51806" lon="1.09492">
        <ele>164.6</ele>
        <time>2022-04-30T12:14:00Z</time>
      </trkpt>
      <trkpt lat="49.51798" lon="1.09486">
        <ele>164.5</ele>
        <time>2022-04-30T12:14:01Z</time>
      </trkpt>
      <trkpt lat="49.51792" lon="1.09482">
        <ele>164.4</ele>
        <time>2022-04-30T12:14:02Z</time>
      </trkpt>
      <trkpt lat="49.51786" lon="1.09476">
        <ele>164.3</ele>
        <time>2022-04-30T12:14:03Z</time>
      </trkpt>
      <trkpt lat="49.51781" lon="1.09472">
        <ele>164.2</ele>
        <time>2022-04-30T12:14:04Z</time>
      </trkpt>
      <trkpt lat="49.51775" lon="1.09467">
        <ele>164</ele>
        <time>2022-04-30T12:14:05Z</time>
      </trkpt>
      <trkpt lat="49.5177" lon="1.09464">
        <ele>163.9</ele>
        <time>2022-04-30T12:14:06Z</time>
      </trkpt>
      <trkpt lat="49.51766" lon="1.0946">
        <ele>163.9</ele>
        <time>2022-04-30T12:14:07Z</time>
      </trkpt>
      <trkpt lat="49.51763" lon="1.09456">
        <ele>163.8</ele>
        <time>2022-04-30T12:14:08Z</time>
      </trkpt>
      <trkpt lat="49.51759" lon="1.09453">
        <ele>163.8</ele>
        <time>2022-04-30T12:14:09Z</time>
      </trkpt>
      <trkpt lat="49.51756" lon="1.09451">
        <ele>163.7</ele>
        <time>2022-04-30T12:14:10Z</time>
      </trkpt>
      <trkpt lat="49.51753" lon="1.0945">
        <ele>163.7</ele>
        <time>2022-04-30T12:14:11Z</time>
      </trkpt>
      <trkpt lat="49.51753" lon="1.09449">
        <ele>163.6</ele>
        <time>2022-04-30T12:14:12Z</time>
      </trkpt>
      <trkpt lat="49.51753" lon="1.09447">
        <ele>163.6</ele>
        <time>2022-04-30T12:14:13Z</time>
      </trkpt>
      <trkpt lat="49.51753" lon="1.09445">
        <ele>163.6</ele>
        <time>2022-04-30T12:14:14Z</time>
      </trkpt>
      <trkpt lat="49.51751" lon="1.0944">
        <ele>163.6</ele>
        <time>2022-04-30T12:14:15Z</time>
      </trkpt>
      <trkpt lat="49.51747" lon="1.09434">
        <ele>163.5</ele>
        <time>2022-04-30T12:14:16Z</time>
      </trkpt>
      <trkpt lat="49.51743" lon="1.09428">
        <ele>163.4</ele>
        <time>2022-04-30T12:14:17Z</time>
      </trkpt>
      <trkpt lat="49.51739" lon="1.09423">
        <ele>163.3</ele>
        <time>2022-04-30T12:14:18Z</time>
      </trkpt>
      <trkpt lat="49.51735" lon="1.09419">
        <ele>163.2</ele>
        <time>2022-04-30T12:14:19Z</time>
      </trkpt>
      <trkpt lat="49.51733" lon="1.09417">
        <ele>163.2</ele>
        <time>2022-04-30T12:14:20Z</time>
      </trkpt>
      <trkpt lat="49.51732" lon="1.09416">
        <ele>163.1</ele>
        <time>2022-04-30T12:14:21Z</time>
      </trkpt>
      <trkpt lat="49.5173" lon="1.09415">
        <ele>163.1</ele>
        <time>2022-04-30T12:14:22Z</time>
      </trkpt>
      <trkpt lat="49.51729" lon="1.09415">
        <ele>163.1</ele>
        <time>2022-04-30T12:14:23Z</time>
      </trkpt>
      <trkpt lat="49.51728" lon="1.09414">
        <ele>163.1</ele>
        <time>2022-04-30T12:14:24Z</time>
      </trkpt>
      <trkpt lat="49.51723" lon="1.09412">
        <ele>163</ele>
        <time>2022-04-30T12:14:25Z</time>
      </trkpt>
      <trkpt lat="49.51719" lon="1.0941">
        <ele>163</ele>
        <time>2022-04-30T12:14:26Z</time>
      </trkpt>
      <trkpt lat="49.51716" lon="1.0941">
        <ele>163</ele>
        <time>2022-04-30T12:14:27Z</time>
      </trkpt>
      <trkpt lat="49.51713" lon="1.09409">
        <ele>162.9</ele>
        <time>2022-04-30T12:14:28Z</time>
      </trkpt>
      <trkpt lat="49.51712" lon="1.0941">
        <ele>162.9</ele>
        <time>2022-04-30T12:14:29Z</time>
      </trkpt>
      <trkpt lat="49.51709" lon="1.0941">
        <ele>162.9</ele>
        <time>2022-04-30T12:14:30Z</time>
      </trkpt>
      <trkpt lat="49.51708" lon="1.0941">
        <ele>162.9</ele>
        <time>2022-04-30T12:14:31Z</time>
      </trkpt>
      <trkpt lat="49.51705" lon="1.0941">
        <ele>162.8</ele>
        <time>2022-04-30T12:14:32Z</time>
      </trkpt>
      <trkpt lat="49.51703" lon="1.0941">
        <ele>162.8</ele>
        <time>2022-04-30T12:14:33Z</time>
      </trkpt>
      <trkpt lat="49.517" lon="1.0941">
        <ele>162.8</ele>
        <time>2022-04-30T12:14:34Z</time>
      </trkpt>
      <trkpt lat="49.51697" lon="1.09409">
        <ele>162.8</ele>
        <time>2022-04-30T12:14:35Z</time>
      </trkpt>
      <trkpt lat="49.51695" lon="1.09408">
        <ele>162.7</ele>
        <time>2022-04-30T12:14:36Z</time>
      </trkpt>
      <trkpt lat="49.51691" lon="1.09406">
        <ele>162.7</ele>
        <time>2022-04-30T12:14:37Z</time>
      </trkpt>
      <trkpt lat="49.5169" lon="1.09406">
        <ele>162.7</ele>
        <time>2022-04-30T12:14:38Z</time>
      </trkpt>
      <trkpt lat="49.51687" lon="1.09405">
        <ele>162.6</ele>
        <time>2022-04-30T12:14:39Z</time>
      </trkpt>
      <trkpt lat="49.51684" lon="1.09404">
        <ele>162.6</ele>
        <time>2022-04-30T12:14:40Z</time>
      </trkpt>
      <trkpt lat="49.51681" lon="1.09403">
        <ele>162.5</ele>
        <time>2022-04-30T12:14:41Z</time>
      </trkpt>
      <trkpt lat="49.51677" lon="1.09402">
        <ele>162.5</ele>
        <time>2022-04-30T12:14:42Z</time>
      </trkpt>
      <trkpt lat="49.51674" lon="1.09401">
        <ele>162.4</ele>
        <time>2022-04-30T12:14:43Z</time>
      </trkpt>
      <trkpt lat="49.51673" lon="1.094">
        <ele>162.4</ele>
        <time>2022-04-30T12:14:44Z</time>
      </trkpt>
      <trkpt lat="49.51671" lon="1.09399">
        <ele>162.4</ele>
        <time>2022-04-30T12:14:45Z</time>
      </trkpt>
      <trkpt lat="49.5167" lon="1.09399">
        <ele>162.4</ele>
        <time>2022-04-30T12:14:46Z</time>
      </trkpt>
      <trkpt lat="49.51666" lon="1.09397">
        <ele>162.3</ele>
        <time>2022-04-30T12:14:47Z</time>
      </trkpt>
      <trkpt lat="49.51664" lon="1.09396">
        <ele>162.3</ele>
        <time>2022-04-30T12:14:48Z</time>
      </trkpt>
      <trkpt lat="49.5166" lon="1.09395">
        <ele>162.3</ele>
        <time>2022-04-30T12:14:49Z</time>
      </trkpt>
      <trkpt lat="49.51655" lon="1.09394">
        <ele>162.2</ele>
        <time>2022-04-30T12:14:50Z</time>
      </trkpt>
      <trkpt lat="49.5165" lon="1.09394">
        <ele>162.1</ele>
        <time>2022-04-30T12:14:51Z</time>
      </trkpt>
      <trkpt lat="49.51646" lon="1.09392">
        <ele>162.1</ele>
        <time>2022-04-30T12:14:52Z</time>
      </trkpt>
      <trkpt lat="49.51642" lon="1.09391">
        <ele>162</ele>
        <time>2022-04-30T12:14:53Z</time>
      </trkpt>
      <trkpt lat="49.51637" lon="1.09389">
        <ele>161.9</ele>
        <time>2022-04-30T12:14:54Z</time>
      </trkpt>
      <trkpt lat="49.51633" lon="1.09388">
        <ele>161.8</ele>
        <time>2022-04-30T12:14:55Z</time>
      </trkpt>
      <trkpt lat="49.5163" lon="1.09387">
        <ele>161.7</ele>
        <time>2022-04-30T12:14:56Z</time>
      </trkpt>
      <trkpt lat="49.51626" lon="1.09387">
        <ele>161.6</ele>
        <time>2022-04-30T12:14:57Z</time>
      </trkpt>
      <trkpt lat="49.51623" lon="1.09386">
        <ele>161.6</ele>
        <time>2022-04-30T12:14:58Z</time>
      </trkpt>
      <trkpt lat="49.5162" lon="1.09386">
        <ele>161.5</ele>
        <time>2022-04-30T12:14:59Z</time>
      </trkpt>
      <trkpt lat="49.51619" lon="1.09386">
        <ele>161.5</ele>
        <time>2022-04-30T12:15:00Z</time>
      </trkpt>
      <trkpt lat="49.51615" lon="1.09386">
        <ele>161.4</ele>
        <time>2022-04-30T12:15:01Z</time>
      </trkpt>
      <trkpt lat="49.51614" lon="1.09386">
        <ele>161.4</ele>
        <time>2022-04-30T12:15:02Z</time>
      </trkpt>
      <trkpt lat="49.51611" lon="1.09388">
        <ele>161.3</ele>
        <time>2022-04-30T12:15:03Z</time>
      </trkpt>
      <trkpt lat="49.5161" lon="1.09388">
        <ele>161.3</ele>
        <time>2022-04-30T12:15:04Z</time>
      </trkpt>
      <trkpt lat="49.51606" lon="1.09389">
        <ele>161.2</ele>
        <time>2022-04-30T12:15:05Z</time>
      </trkpt>
      <trkpt lat="49.51604" lon="1.0939">
        <ele>161.2</ele>
        <time>2022-04-30T12:15:06Z</time>
      </trkpt>
      <trkpt lat="49.51599" lon="1.09391">
        <ele>161.1</ele>
        <time>2022-04-30T12:15:07Z</time>
      </trkpt>
      <trkpt lat="49.51596" lon="1.09392">
        <ele>161.1</ele>
        <time>2022-04-30T12:15:08Z</time>
      </trkpt>
      <trkpt lat="49.51592" lon="1.09393">
        <ele>161</ele>
        <time>2022-04-30T12:15:09Z</time>
      </trkpt>
      <trkpt lat="49.51589" lon="1.09394">
        <ele>161</ele>
        <time>2022-04-30T12:15:10Z</time>
      </trkpt>
      <trkpt lat="49.51588" lon="1.09395">
        <ele>161</ele>
        <time>2022-04-30T12:15:11Z</time>
      </trkpt>
      <trkpt lat="49.51587" lon="1.09396">
        <ele>161</ele>
        <time>2022-04-30T12:15:12Z</time>
      </trkpt>
      <trkpt lat="49.51586" lon="1.09397">
        <ele>161</ele>
        <time>2022-04-30T12:15:13Z</time>
      </trkpt>
      <trkpt lat="49.51585" lon="1.09397">
        <ele>161</ele>
        <time>2022-04-30T12:15:14Z</time>
      </trkpt>
      <trkpt lat="49.51585" lon="1.09398">
        <ele>161</ele>
        <time>2022-04-30T12:15:15Z</time>
      </trkpt>
      <trkpt lat="49.51584" lon="1.09399">
        <ele>160.9</ele>
        <time>2022-04-30T12:15:16Z</time>
      </trkpt>
      <trkpt lat="49.51584" lon="1.09399">
        <ele>160.9</ele>
        <time>2022-04-30T12:15:17Z</time>
      </trkpt>
      <trkpt lat="49.51583" lon="1.09399">
        <ele>160.9</ele>
        <time>2022-04-30T12:15:18Z</time>
      </trkpt>
      <trkpt lat="49.51583" lon="1.094">
        <ele>160.9</ele>
        <time>2022-04-30T12:15:19Z</time>
      </trkpt>
      <trkpt lat="49.51583" lon="1.094">
        <ele>160.9</ele>
        <time>2022-04-30T12:15:20Z</time>
      </trkpt>
      <trkpt lat="49.51582" lon="1.09401">
        <ele>160.9</ele>
        <time>2022-04-30T12:15:21Z</time>
      </trkpt>
      <trkpt lat="49.51582" lon="1.09401">
        <ele>160.9</ele>
        <time>2022-04-30T12:15:22Z</time>
      </trkpt>
      <trkpt lat="49.51582" lon="1.09401">
        <ele>160.9</ele>
        <time>2022-04-30T12:15:23Z</time>
      </trkpt>
      <trkpt lat="49.51582" lon="1.09401">
        <ele>160.9</ele>
        <time>2022-04-30T12:15:24Z</time>
      </trkpt>
      <trkpt lat="49.51581" lon="1.09402">
        <ele>160.9</ele>
        <time>2022-04-30T12:15:25Z</time>
      </trkpt>
      <trkpt lat="49.51581" lon="1.09402">
        <ele>160.9</ele>
        <time>2022-04-30T12:15:26Z</time>
      </trkpt>
      <trkpt lat="49.51581" lon="1.09402">
        <ele>160.9</ele>
        <time>2022-04-30T12:15:27Z</time>
      </trkpt>
      <trkpt lat="49.51581" lon="1.09402">
        <ele>160.9</ele>
        <time>2022-04-30T12:15:28Z</time>
      </trkpt>
      <trkpt lat="49.51581" lon="1.09402">
        <ele>160.9</ele>
        <time>2022-04-30T12:15:29Z</time>
      </trkpt>
      <trkpt lat="49.51581" lon="1.09402">
        <ele>160.9</ele>
        <time>2022-04-30T12:15:30Z</time>
      </trkpt>
      <trkpt lat="49.51581" lon="1.09403">
        <ele>160.9</ele>
        <time>2022-04-30T12:15:31Z</time>
      </trkpt>
      <trkpt lat="49.51581" lon="1.09403">
        <ele>160.9</ele>
        <time>2022-04-30T12:15:32Z</time>
      </trkpt>
      <trkpt lat="49.51581" lon="1.09403">
        <ele>160.9</ele>
        <time>2022-04-30T12:15:33Z</time>
      </trkpt>
      <trkpt lat="49.51581" lon="1.09403">
        <ele>160.9</ele>
        <time>2022-04-30T12:15:34Z</time>
      </trkpt>
      <trkpt lat="49.51581" lon="1.09403">
        <ele>160.9</ele>
        <time>2022-04-30T12:15:35Z</time>
      </trkpt>
      <trkpt lat="49.51581" lon="1.09403">
        <ele>160.9</ele>
        <time>2022-04-30T12:15:36Z</time>
      </trkpt>
      <trkpt lat="49.51581" lon="1.09403">
        <ele>160.9</ele>
        <time>2022-04-30T12:15:37Z</time>
      </trkpt>
      <trkpt lat="49.51581" lon="1.09404">
        <ele>160.9</ele>
        <time>2022-04-30T12:15:44Z</time>
      </trkpt>
      <trkpt lat="49.51581" lon="1.09404">
        <ele>160.9</ele>
        <time>2022-04-30T12:15:45Z</time>
      </trkpt>
      <trkpt lat="49.51581" lon="1.09404">
        <ele>160.9</ele>
        <time>2022-04-30T12:15:46Z</time>
      </trkpt>
      <trkpt lat="49.51581" lon="1.09404">
        <ele>160.9</ele>
        <time>2022-04-30T12:15:47Z</time>
      </trkpt>
      <trkpt lat="49.51581" lon="1.09404">
        <ele>160.9</ele>
        <time>2022-04-30T12:15:48Z</time>
      </trkpt>
      <trkpt lat="49.51581" lon="1.09404">
        <ele>160.9</ele>
        <time>2022-04-30T12:15:49Z</time>
      </trkpt>
      <trkpt lat="49.51581" lon="1.09405">
        <ele>160.9</ele>
        <time>2022-04-30T12:15:50Z</time>
      </trkpt>
      <trkpt lat="49.51581" lon="1.09405">
        <ele>160.9</ele>
        <time>2022-04-30T12:15:51Z</time>
      </trkpt>
      <trkpt lat="49.51581" lon="1.09405">
        <ele>160.9</ele>
        <time>2022-04-30T12:15:52Z</time>
      </trkpt>
      <trkpt lat="49.51581" lon="1.09405">
        <ele>160.9</ele>
        <time>2022-04-30T12:15:53Z</time>
      </trkpt>
      <trkpt lat="49.51581" lon="1.09405">
        <ele>160.9</ele>
        <time>2022-04-30T12:15:54Z</time>
      </trkpt>
      <trkpt lat="49.51581" lon="1.09405">
        <ele>160.9</ele>
        <time>2022-04-30T12:15:55Z</time>
      </trkpt>
      <trkpt lat="49.51581" lon="1.09406">
        <ele>160.9</ele>
        <time>2022-04-30T12:15:56Z</time>
      </trkpt>
      <trkpt lat="49.51581" lon="1.09406">
        <ele>160.9</ele>
        <time>2022-04-30T12:15:57Z</time>
      </trkpt>
      <trkpt lat="49.51581" lon="1.09406">
        <ele>160.9</ele>
        <time>2022-04-30T12:15:58Z</time>
      </trkpt>
      <trkpt lat="49.51581" lon="1.09406">
        <ele>160.9</ele>
        <time>2022-04-30T12:15:59Z</time>
      </trkpt>
      <trkpt lat="49.51581" lon="1.09406">
        <ele>160.9</ele>
        <time>2022-04-30T12:16:00Z</time>
      </trkpt>
      <trkpt lat="49.51581" lon="1.09406">
        <ele>160.9</ele>
        <time>2022-04-30T12:16:01Z</time>
      </trkpt>
      <trkpt lat="49.5158" lon="1.09406">
        <ele>160.8</ele>
        <time>2022-04-30T12:16:02Z</time>
      </trkpt>
      <trkpt lat="49.5158" lon="1.09407">
        <ele>160.8</ele>
        <time>2022-04-30T12:16:03Z</time>
      </trkpt>
      <trkpt lat="49.5158" lon="1.09407">
        <ele>160.8</ele>
        <time>2022-04-30T12:16:04Z</time>
      </trkpt>
      <trkpt lat="49.5158" lon="1.09407">
        <ele>160.8</ele>
        <time>2022-04-30T12:16:05Z</time>
      </trkpt>
      <trkpt lat="49.5158" lon="1.09407">
        <ele>160.8</ele>
        <time>2022-04-30T12:16:06Z</time>
      </trkpt>
      <trkpt lat="49.5158" lon="1.09407">
        <ele>160.8</ele>
        <time>2022-04-30T12:16:07Z</time>
      </trkpt>
      <trkpt lat="49.5158" lon="1.09407">
        <ele>160.8</ele>
        <time>2022-04-30T12:16:08Z</time>
      </trkpt>
      <trkpt lat="49.5158" lon="1.09408">
        <ele>160.8</ele>
        <time>2022-04-30T12:16:09Z</time>
      </trkpt>
      <trkpt lat="49.5158" lon="1.09408">
        <ele>160.8</ele>
        <time>2022-04-30T12:16:10Z</time>
      </trkpt>
      <trkpt lat="49.5158" lon="1.09408">
        <ele>160.8</ele>
        <time>2022-04-30T12:16:11Z</time>
      </trkpt>
      <trkpt lat="49.5158" lon="1.09408">
        <ele>160.8</ele>
        <time>2022-04-30T12:16:12Z</time>
      </trkpt>
      <trkpt lat="49.5158" lon="1.09408">
        <ele>160.8</ele>
        <time>2022-04-30T12:16:13Z</time>
      </trkpt>
      <trkpt lat="49.5158" lon="1.09408">
        <ele>160.8</ele>
        <time>2022-04-30T12:16:14Z</time>
      </trkpt>
      <trkpt lat="49.5158" lon="1.09408">
        <ele>160.8</ele>
        <time>2022-04-30T12:16:15Z</time>
      </trkpt>
      <trkpt lat="49.5158" lon="1.09409">
        <ele>160.8</ele>
        <time>2022-04-30T12:16:16Z</time>
      </trkpt>
      <trkpt lat="49.5158" lon="1.09409">
        <ele>160.8</ele>
        <time>2022-04-30T12:16:17Z</time>
      </trkpt>
      <trkpt lat="49.5158" lon="1.09409">
        <ele>160.8</ele>
        <time>2022-04-30T12:16:18Z</time>
      </trkpt>
      <trkpt lat="49.5158" lon="1.09409">
        <ele>160.8</ele>
        <time>2022-04-30T12:16:19Z</time>
      </trkpt>
      <trkpt lat="49.5158" lon="1.09409">
        <ele>160.8</ele>
        <time>2022-04-30T12:16:20Z</time>
      </trkpt>
      <trkpt lat="49.5158" lon="1.09409">
        <ele>160.8</ele>
        <time>2022-04-30T12:16:21Z</time>
      </trkpt>
      <trkpt lat="49.5158" lon="1.0941">
        <ele>160.8</ele>
        <time>2022-04-30T12:16:22Z</time>
      </trkpt>
      <trkpt lat="49.5158" lon="1.0941">
        <ele>160.8</ele>
        <time>2022-04-30T12:16:26Z</time>
      </trkpt>
      <trkpt lat="49.5158" lon="1.0941">
        <ele>160.8</ele>
        <time>2022-04-30T12:16:27Z</time>
      </trkpt>
      <trkpt lat="49.5158" lon="1.0941">
        <ele>160.8</ele>
        <time>2022-04-30T12:16:28Z</time>
      </trkpt>
      <trkpt lat="49.5158" lon="1.0941">
        <ele>160.8</ele>
        <time>2022-04-30T12:16:29Z</time>
      </trkpt>
      <trkpt lat="49.5158" lon="1.0941">
        <ele>160.8</ele>
        <time>2022-04-30T12:16:30Z</time>
      </trkpt>
      <trkpt lat="49.5158" lon="1.0941">
        <ele>160.8</ele>
        <time>2022-04-30T12:16:31Z</time>
      </trkpt>
      <trkpt lat="49.51579" lon="1.09415">
        <ele>160.7</ele>
        <time>2022-04-30T12:16:32Z</time>
      </trkpt>
      <trkpt lat="49.51579" lon="1.09416">
        <ele>160.7</ele>
        <time>2022-04-30T12:16:33Z</time>
      </trkpt>
      <trkpt lat="49.51579" lon="1.09418">
        <ele>160.7</ele>
        <time>2022-04-30T12:16:34Z</time>
      </trkpt>
      <trkpt lat="49.51578" lon="1.0942">
        <ele>160.6</ele>
        <time>2022-04-30T12:16:35Z</time>
      </trkpt>
      <trkpt lat="49.51578" lon="1.09421">
        <ele>160.6</ele>
        <time>2022-04-30T12:16:36Z</time>
      </trkpt>
      <trkpt lat="49.51578" lon="1.09422">
        <ele>160.6</ele>
        <time>2022-04-30T12:16:37Z</time>
      </trkpt>
      <trkpt lat="49.51578" lon="1.09423">
        <ele>160.6</ele>
        <time>2022-04-30T12:16:38Z</time>
      </trkpt>
      <trkpt lat="49.51578" lon="1.09423">
        <ele>160.6</ele>
        <time>2022-04-30T12:16:39Z</time>
      </trkpt>
      <trkpt lat="49.51578" lon="1.09424">
        <ele>160.6</ele>
        <time>2022-04-30T12:16:40Z</time>
      </trkpt>
      <trkpt lat="49.51578" lon="1.09424">
        <ele>160.6</ele>
        <time>2022-04-30T12:16:41Z</time>
      </trkpt>
      <trkpt lat="49.51578" lon="1.09424">
        <ele>160.6</ele>
        <time>2022-04-30T12:16:42Z</time>
      </trkpt>
      <trkpt lat="49.51578" lon="1.09424">
        <ele>160.6</ele>
        <time>2022-04-30T12:16:43Z</time>
      </trkpt>
      <trkpt lat="49.51578" lon="1.09424">
        <ele>160.6</ele>
        <time>2022-04-30T12:16:44Z</time>
      </trkpt>
      <trkpt lat="49.51578" lon="1.09424">
        <ele>160.6</ele>
        <time>2022-04-30T12:16:45Z</time>
      </trkpt>
      <trkpt lat="49.51578" lon="1.0942">
        <ele>160.5</ele>
        <time>2022-04-30T12:16:54Z</time>
      </trkpt>
      <trkpt lat="49.51579" lon="1.09419">
        <ele>160.5</ele>
        <time>2022-04-30T12:16:55Z</time>
      </trkpt>
      <trkpt lat="49.51579" lon="1.09418">
        <ele>160.5</ele>
        <time>2022-04-30T12:16:56Z</time>
      </trkpt>
      <trkpt lat="49.51579" lon="1.09417">
        <ele>160.4</ele>
        <time>2022-04-30T12:16:57Z</time>
      </trkpt>
      <trkpt lat="49.5158" lon="1.09417">
        <ele>160.4</ele>
        <time>2022-04-30T12:16:58Z</time>
      </trkpt>
      <trkpt lat="49.5158" lon="1.09417">
        <ele>160.4</ele>
        <time>2022-04-30T12:16:59Z</time>
      </trkpt>
      <trkpt lat="49.5158" lon="1.09417">
        <ele>160.4</ele>
        <time>2022-04-30T12:17:00Z</time>
      </trkpt>
      <trkpt lat="49.5158" lon="1.09417">
        <ele>160.4</ele>
        <time>2022-04-30T12:17:01Z</time>
      </trkpt>
      <trkpt lat="49.51579" lon="1.09417">
        <ele>160.4</ele>
        <time>2022-04-30T12:17:02Z</time>
      </trkpt>
      <trkpt lat="49.51578" lon="1.09418">
        <ele>160.3</ele>
        <time>2022-04-30T12:17:03Z</time>
      </trkpt>
      <trkpt lat="49.51577" lon="1.09418">
        <ele>160.3</ele>
        <time>2022-04-30T12:17:04Z</time>
      </trkpt>
      <trkpt lat="49.51575" lon="1.09419">
        <ele>160.3</ele>
        <time>2022-04-30T12:17:05Z</time>
      </trkpt>
      <trkpt lat="49.51574" lon="1.09419">
        <ele>160.2</ele>
        <time>2022-04-30T12:17:06Z</time>
      </trkpt>
      <trkpt lat="49.51573" lon="1.0942">
        <ele>160.2</ele>
        <time>2022-04-30T12:18:24Z</time>
      </trkpt>
      <trkpt lat="49.51572" lon="1.0942">
        <ele>160.2</ele>
        <time>2022-04-30T12:18:25Z</time>
      </trkpt>
      <trkpt lat="49.51571" lon="1.09421">
        <ele>160.1</ele>
        <time>2022-04-30T12:18:26Z</time>
      </trkpt>
      <trkpt lat="49.51568" lon="1.09423">
        <ele>160.1</ele>
        <time>2022-04-30T12:18:27Z</time>
      </trkpt>
      <trkpt lat="49.51565" lon="1.09424">
        <ele>159.9</ele>
        <time>2022-04-30T12:18:28Z</time>
      </trkpt>
      <trkpt lat="49.51564" lon="1.09425">
        <ele>159.9</ele>
        <time>2022-04-30T12:18:29Z</time>
      </trkpt>
      <trkpt lat="49.5156" lon="1.09426">
        <ele>159.8</ele>
        <time>2022-04-30T12:18:30Z</time>
      </trkpt>
      <trkpt lat="49.51558" lon="1.09427">
        <ele>159.8</ele>
        <time>2022-04-30T12:18:31Z</time>
      </trkpt>
      <trkpt lat="49.51555" lon="1.09427">
        <ele>159.7</ele>
        <time>2022-04-30T12:18:32Z</time>
      </trkpt>
      <trkpt lat="49.51552" lon="1.09427">
        <ele>159.6</ele>
        <time>2022-04-30T12:18:33Z</time>
      </trkpt>
      <trkpt lat="49.51547" lon="1.09427">
        <ele>159.4</ele>
        <time>2022-04-30T12:18:34Z</time>
      </trkpt>
      <trkpt lat="49.51542" lon="1.09426">
        <ele>159.3</ele>
        <time>2022-04-30T12:18:35Z</time>
      </trkpt>
      <trkpt lat="49.51537" lon="1.09425">
        <ele>159.2</ele>
        <time>2022-04-30T12:18:36Z</time>
      </trkpt>
      <trkpt lat="49.51532" lon="1.09423">
        <ele>159</ele>
        <time>2022-04-30T12:18:37Z</time>
      </trkpt>
      <trkpt lat="49.51528" lon="1.09422">
        <ele>158.9</ele>
        <time>2022-04-30T12:18:38Z</time>
      </trkpt>
      <trkpt lat="49.51523" lon="1.0942">
        <ele>158.8</ele>
        <time>2022-04-30T12:18:39Z</time>
      </trkpt>
      <trkpt lat="49.5152" lon="1.09419">
        <ele>158.7</ele>
        <time>2022-04-30T12:18:40Z</time>
      </trkpt>
      <trkpt lat="49.51517" lon="1.09419">
        <ele>158.6</ele>
        <time>2022-04-30T12:18:41Z</time>
      </trkpt>
      <trkpt lat="49.51514" lon="1.09418">
        <ele>158.5</ele>
        <time>2022-04-30T12:18:42Z</time>
      </trkpt>
      <trkpt lat="49.51511" lon="1.09418">
        <ele>158.4</ele>
        <time>2022-04-30T12:18:43Z</time>
      </trkpt>
      <trkpt lat="49.51507" lon="1.09418">
        <ele>158.3</ele>
        <time>2022-04-30T12:18:44Z</time>
      </trkpt>
      <trkpt lat="49.51504" lon="1.09418">
        <ele>158.2</ele>
        <time>2022-04-30T12:18:45Z</time>
      </trkpt>
      <trkpt lat="49.515" lon="1.09417">
        <ele>158.1</ele>
        <time>2022-04-30T12:18:46Z</time>
      </trkpt>
      <trkpt lat="49.51498" lon="1.09417">
        <ele>158</ele>
        <time>2022-04-30T12:18:47Z</time>
      </trkpt>
      <trkpt lat="49.51494" lon="1.09415">
        <ele>157.9</ele>
        <time>2022-04-30T12:18:48Z</time>
      </trkpt>
      <trkpt lat="49.51488" lon="1.09414">
        <ele>157.7</ele>
        <time>2022-04-30T12:18:49Z</time>
      </trkpt>
      <trkpt lat="49.51483" lon="1.09413">
        <ele>157.6</ele>
        <time>2022-04-30T12:18:50Z</time>
      </trkpt>
      <trkpt lat="49.51479" lon="1.09411">
        <ele>157.4</ele>
        <time>2022-04-30T12:18:51Z</time>
      </trkpt>
      <trkpt lat="49.51476" lon="1.0941">
        <ele>157.3</ele>
        <time>2022-04-30T12:18:52Z</time>
      </trkpt>
      <trkpt lat="49.51473" lon="1.09409">
        <ele>157.2</ele>
        <time>2022-04-30T12:18:53Z</time>
      </trkpt>
      <trkpt lat="49.51472" lon="1.09409">
        <ele>157.1</ele>
        <time>2022-04-30T12:18:54Z</time>
      </trkpt>
      <trkpt lat="49.51469" lon="1.09408">
        <ele>157</ele>
        <time>2022-04-30T12:18:55Z</time>
      </trkpt>
      <trkpt lat="49.51467" lon="1.09407">
        <ele>157</ele>
        <time>2022-04-30T12:18:56Z</time>
      </trkpt>
      <trkpt lat="49.51462" lon="1.09406">
        <ele>156.8</ele>
        <time>2022-04-30T12:18:57Z</time>
      </trkpt>
      <trkpt lat="49.51457" lon="1.09404">
        <ele>156.6</ele>
        <time>2022-04-30T12:18:58Z</time>
      </trkpt>
      <trkpt lat="49.51451" lon="1.09402">
        <ele>156.3</ele>
        <time>2022-04-30T12:18:59Z</time>
      </trkpt>
      <trkpt lat="49.51446" lon="1.094">
        <ele>156.2</ele>
        <time>2022-04-30T12:19:00Z</time>
      </trkpt>
      <trkpt lat="49.51442" lon="1.09399">
        <ele>156</ele>
        <time>2022-04-30T12:19:01Z</time>
      </trkpt>
      <trkpt lat="49.51439" lon="1.09398">
        <ele>155.9</ele>
        <time>2022-04-30T12:19:02Z</time>
      </trkpt>
      <trkpt lat="49.51436" lon="1.09397">
        <ele>155.8</ele>
        <time>2022-04-30T12:19:03Z</time>
      </trkpt>
      <trkpt lat="49.51432" lon="1.09396">
        <ele>155.7</ele>
        <time>2022-04-30T12:19:04Z</time>
      </trkpt>
      <trkpt lat="49.51427" lon="1.09394">
        <ele>155.6</ele>
        <time>2022-04-30T12:19:05Z</time>
      </trkpt>
      <trkpt lat="49.51418" lon="1.09393">
        <ele>155.2</ele>
        <time>2022-04-30T12:19:06Z</time>
      </trkpt>
      <trkpt lat="49.51408" lon="1.09392">
        <ele>154.8</ele>
        <time>2022-04-30T12:19:07Z</time>
      </trkpt>
      <trkpt lat="49.514" lon="1.09391">
        <ele>154.4</ele>
        <time>2022-04-30T12:19:08Z</time>
      </trkpt>
      <trkpt lat="49.51394" lon="1.09391">
        <ele>154.1</ele>
        <time>2022-04-30T12:19:09Z</time>
      </trkpt>
      <trkpt lat="49.51388" lon="1.09391">
        <ele>153.8</ele>
        <time>2022-04-30T12:19:10Z</time>
      </trkpt>
      <trkpt lat="49.51383" lon="1.09391">
        <ele>153.6</ele>
        <time>2022-04-30T12:19:11Z</time>
      </trkpt>
      <trkpt lat="49.51379" lon="1.09391">
        <ele>153.4</ele>
        <time>2022-04-30T12:19:12Z</time>
      </trkpt>
      <trkpt lat="49.51375" lon="1.09392">
        <ele>153.3</ele>
        <time>2022-04-30T12:19:13Z</time>
      </trkpt>
      <trkpt lat="49.51372" lon="1.09392">
        <ele>153.3</ele>
        <time>2022-04-30T12:19:14Z</time>
      </trkpt>
      <trkpt lat="49.51368" lon="1.09392">
        <ele>153.2</ele>
        <time>2022-04-30T12:19:15Z</time>
      </trkpt>
      <trkpt lat="49.51365" lon="1.09392">
        <ele>153.1</ele>
        <time>2022-04-30T12:19:16Z</time>
      </trkpt>
      <trkpt lat="49.51362" lon="1.09392">
        <ele>153.1</ele>
        <time>2022-04-30T12:19:17Z</time>
      </trkpt>
      <trkpt lat="49.51359" lon="1.09392">
        <ele>153.1</ele>
        <time>2022-04-30T12:19:18Z</time>
      </trkpt>
      <trkpt lat="49.51357" lon="1.09391">
        <ele>153.1</ele>
        <time>2022-04-30T12:19:19Z</time>
      </trkpt>
      <trkpt lat="49.51353" lon="1.0939">
        <ele>153.1</ele>
        <time>2022-04-30T12:19:20Z</time>
      </trkpt>
      <trkpt lat="49.51352" lon="1.0939">
        <ele>153.1</ele>
        <time>2022-04-30T12:19:21Z</time>
      </trkpt>
      <trkpt lat="49.51348" lon="1.09388">
        <ele>153.2</ele>
        <time>2022-04-30T12:19:22Z</time>
      </trkpt>
      <trkpt lat="49.51343" lon="1.09386">
        <ele>153.3</ele>
        <time>2022-04-30T12:19:23Z</time>
      </trkpt>
      <trkpt lat="49.51338" lon="1.09384">
        <ele>153.4</ele>
        <time>2022-04-30T12:19:24Z</time>
      </trkpt>
      <trkpt lat="49.51333" lon="1.09382">
        <ele>153.6</ele>
        <time>2022-04-30T12:19:25Z</time>
      </trkpt>
      <trkpt lat="49.51329" lon="1.09382">
        <ele>153.8</ele>
        <time>2022-04-30T12:19:26Z</time>
      </trkpt>
      <trkpt lat="49.51324" lon="1.09381">
        <ele>153.9</ele>
        <time>2022-04-30T12:19:27Z</time>
      </trkpt>
      <trkpt lat="49.51321" lon="1.09381">
        <ele>154</ele>
        <time>2022-04-30T12:19:28Z</time>
      </trkpt>
      <trkpt lat="49.51318" lon="1.0938">
        <ele>154.1</ele>
        <time>2022-04-30T12:19:29Z</time>
      </trkpt>
      <trkpt lat="49.51315" lon="1.09379">
        <ele>154.2</ele>
        <time>2022-04-30T12:19:30Z</time>
      </trkpt>
      <trkpt lat="49.51312" lon="1.09378">
        <ele>154.3</ele>
        <time>2022-04-30T12:19:31Z</time>
      </trkpt>
      <trkpt lat="49.51311" lon="1.09378">
        <ele>154.3</ele>
        <time>2022-04-30T12:19:32Z</time>
      </trkpt>
      <trkpt lat="49.51309" lon="1.09378">
        <ele>154.4</ele>
        <time>2022-04-30T12:19:33Z</time>
      </trkpt>
      <trkpt lat="49.51308" lon="1.09379">
        <ele>154.5</ele>
        <time>2022-04-30T12:19:34Z</time>
      </trkpt>
      <trkpt lat="49.51303" lon="1.09377">
        <ele>154.6</ele>
        <time>2022-04-30T12:19:35Z</time>
      </trkpt>
      <trkpt lat="49.513" lon="1.09376">
        <ele>154.7</ele>
        <time>2022-04-30T12:19:36Z</time>
      </trkpt>
      <trkpt lat="49.51296" lon="1.09375">
        <ele>154.8</ele>
        <time>2022-04-30T12:19:37Z</time>
      </trkpt>
      <trkpt lat="49.51293" lon="1.09375">
        <ele>154.8</ele>
        <time>2022-04-30T12:19:38Z</time>
      </trkpt>
      <trkpt lat="49.51291" lon="1.09375">
        <ele>154.9</ele>
        <time>2022-04-30T12:19:39Z</time>
      </trkpt>
      <trkpt lat="49.51287" lon="1.09374">
        <ele>154.9</ele>
        <time>2022-04-30T12:19:40Z</time>
      </trkpt>
      <trkpt lat="49.51286" lon="1.09374">
        <ele>154.9</ele>
        <time>2022-04-30T12:19:41Z</time>
      </trkpt>
      <trkpt lat="49.51282" lon="1.09373">
        <ele>155</ele>
        <time>2022-04-30T12:19:42Z</time>
      </trkpt>
      <trkpt lat="49.51281" lon="1.09373">
        <ele>155</ele>
        <time>2022-04-30T12:19:43Z</time>
      </trkpt>
      <trkpt lat="49.51278" lon="1.09371">
        <ele>155</ele>
        <time>2022-04-30T12:19:44Z</time>
      </trkpt>
      <trkpt lat="49.51277" lon="1.09371">
        <ele>155</ele>
        <time>2022-04-30T12:19:45Z</time>
      </trkpt>
      <trkpt lat="49.51273" lon="1.09369">
        <ele>155</ele>
        <time>2022-04-30T12:19:46Z</time>
      </trkpt>
      <trkpt lat="49.51272" lon="1.09368">
        <ele>155</ele>
        <time>2022-04-30T12:19:47Z</time>
      </trkpt>
      <trkpt lat="49.51269" lon="1.09365">
        <ele>155</ele>
        <time>2022-04-30T12:19:48Z</time>
      </trkpt>
      <trkpt lat="49.51265" lon="1.09363">
        <ele>155</ele>
        <time>2022-04-30T12:19:49Z</time>
      </trkpt>
      <trkpt lat="49.5126" lon="1.0936">
        <ele>155</ele>
        <time>2022-04-30T12:19:50Z</time>
      </trkpt>
      <trkpt lat="49.51255" lon="1.09357">
        <ele>155.1</ele>
        <time>2022-04-30T12:19:51Z</time>
      </trkpt>
      <trkpt lat="49.51249" lon="1.09355">
        <ele>155.1</ele>
        <time>2022-04-30T12:19:52Z</time>
      </trkpt>
      <trkpt lat="49.51244" lon="1.09354">
        <ele>155.1</ele>
        <time>2022-04-30T12:19:53Z</time>
      </trkpt>
      <trkpt lat="49.51241" lon="1.09354">
        <ele>155.1</ele>
        <time>2022-04-30T12:19:54Z</time>
      </trkpt>
      <trkpt lat="49.51237" lon="1.09354">
        <ele>155</ele>
        <time>2022-04-30T12:19:55Z</time>
      </trkpt>
      <trkpt lat="49.51236" lon="1.09354">
        <ele>154.9</ele>
        <time>2022-04-30T12:19:56Z</time>
      </trkpt>
      <trkpt lat="49.51234" lon="1.09354">
        <ele>154.9</ele>
        <time>2022-04-30T12:19:57Z</time>
      </trkpt>
      <trkpt lat="49.5123" lon="1.09356">
        <ele>154.7</ele>
        <time>2022-04-30T12:19:59Z</time>
      </trkpt>
      <trkpt lat="49.51228" lon="1.09356">
        <ele>154.7</ele>
        <time>2022-04-30T12:20:00Z</time>
      </trkpt>
      <trkpt lat="49.51217" lon="1.09358">
        <ele>154.1</ele>
        <time>2022-04-30T12:20:01Z</time>
      </trkpt>
      <trkpt lat="49.51207" lon="1.0936">
        <ele>153.7</ele>
        <time>2022-04-30T12:20:02Z</time>
      </trkpt>
      <trkpt lat="49.51197" lon="1.09362">
        <ele>153.4</ele>
        <time>2022-04-30T12:20:03Z</time>
      </trkpt>
      <trkpt lat="49.51188" lon="1.09364">
        <ele>153.2</ele>
        <time>2022-04-30T12:20:04Z</time>
      </trkpt>
      <trkpt lat="49.51172" lon="1.09365">
        <ele>153.3</ele>
        <time>2022-04-30T12:20:05Z</time>
      </trkpt>
      <trkpt lat="49.51169" lon="1.09365">
        <ele>153.3</ele>
        <time>2022-04-30T12:20:06Z</time>
      </trkpt>
      <trkpt lat="49.51164" lon="1.09366">
        <ele>153.3</ele>
        <time>2022-04-30T12:20:07Z</time>
      </trkpt>
      <trkpt lat="49.5116" lon="1.09366">
        <ele>153.4</ele>
        <time>2022-04-30T12:20:08Z</time>
      </trkpt>
      <trkpt lat="49.51156" lon="1.09367">
        <ele>153.4</ele>
        <time>2022-04-30T12:20:09Z</time>
      </trkpt>
      <trkpt lat="49.51152" lon="1.09369">
        <ele>153.5</ele>
        <time>2022-04-30T12:20:10Z</time>
      </trkpt>
      <trkpt lat="49.51146" lon="1.09368">
        <ele>153.5</ele>
        <time>2022-04-30T12:20:11Z</time>
      </trkpt>
      <trkpt lat="49.51143" lon="1.09371">
        <ele>153.5</ele>
        <time>2022-04-30T12:20:12Z</time>
      </trkpt>
      <trkpt lat="49.51142" lon="1.09372">
        <ele>153.4</ele>
        <time>2022-04-30T12:20:13Z</time>
      </trkpt>
      <trkpt lat="49.51138" lon="1.09372">
        <ele>153.4</ele>
        <time>2022-04-30T12:20:14Z</time>
      </trkpt>
      <trkpt lat="49.51136" lon="1.09372">
        <ele>153.4</ele>
        <time>2022-04-30T12:20:15Z</time>
      </trkpt>
      <trkpt lat="49.51133" lon="1.09372">
        <ele>153.4</ele>
        <time>2022-04-30T12:20:16Z</time>
      </trkpt>
      <trkpt lat="49.51131" lon="1.09375">
        <ele>153.3</ele>
        <time>2022-04-30T12:20:17Z</time>
      </trkpt>
      <trkpt lat="49.51129" lon="1.09379">
        <ele>153.3</ele>
        <time>2022-04-30T12:20:18Z</time>
      </trkpt>
      <trkpt lat="49.51125" lon="1.09378">
        <ele>153.2</ele>
        <time>2022-04-30T12:20:19Z</time>
      </trkpt>
      <trkpt lat="49.51121" lon="1.09378">
        <ele>153.1</ele>
        <time>2022-04-30T12:20:20Z</time>
      </trkpt>
      <trkpt lat="49.51115" lon="1.09381">
        <ele>152.9</ele>
        <time>2022-04-30T12:20:21Z</time>
      </trkpt>
      <trkpt lat="49.51107" lon="1.09383">
        <ele>152.6</ele>
        <time>2022-04-30T12:20:22Z</time>
      </trkpt>
      <trkpt lat="49.511" lon="1.09385">
        <ele>152.3</ele>
        <time>2022-04-30T12:20:23Z</time>
      </trkpt>
      <trkpt lat="49.51095" lon="1.09389">
        <ele>152</ele>
        <time>2022-04-30T12:20:24Z</time>
      </trkpt>
      <trkpt lat="49.51088" lon="1.09394">
        <ele>151.6</ele>
        <time>2022-04-30T12:20:25Z</time>
      </trkpt>
      <trkpt lat="49.51082" lon="1.094">
        <ele>151.2</ele>
        <time>2022-04-30T12:20:26Z</time>
      </trkpt>
      <trkpt lat="49.51078" lon="1.09404">
        <ele>151</ele>
        <time>2022-04-30T12:20:27Z</time>
      </trkpt>
      <trkpt lat="49.51074" lon="1.09405">
        <ele>150.7</ele>
        <time>2022-04-30T12:20:28Z</time>
      </trkpt>
      <trkpt lat="49.51069" lon="1.09406">
        <ele>150.5</ele>
        <time>2022-04-30T12:20:29Z</time>
      </trkpt>
      <trkpt lat="49.51065" lon="1.09407">
        <ele>150.2</ele>
        <time>2022-04-30T12:20:30Z</time>
      </trkpt>
      <trkpt lat="49.51062" lon="1.09407">
        <ele>150</ele>
        <time>2022-04-30T12:20:31Z</time>
      </trkpt>
      <trkpt lat="49.51061" lon="1.09408">
        <ele>149.9</ele>
        <time>2022-04-30T12:20:32Z</time>
      </trkpt>
      <trkpt lat="49.51057" lon="1.09406">
        <ele>149.7</ele>
        <time>2022-04-30T12:20:33Z</time>
      </trkpt>
      <trkpt lat="49.51051" lon="1.09407">
        <ele>149.3</ele>
        <time>2022-04-30T12:20:34Z</time>
      </trkpt>
      <trkpt lat="49.51044" lon="1.09407">
        <ele>148.9</ele>
        <time>2022-04-30T12:20:35Z</time>
      </trkpt>
      <trkpt lat="49.51037" lon="1.09407">
        <ele>148.4</ele>
        <time>2022-04-30T12:20:36Z</time>
      </trkpt>
      <trkpt lat="49.5103" lon="1.09408">
        <ele>147.8</ele>
        <time>2022-04-30T12:20:37Z</time>
      </trkpt>
      <trkpt lat="49.51021" lon="1.09408">
        <ele>147.3</ele>
        <time>2022-04-30T12:20:38Z</time>
      </trkpt>
      <trkpt lat="49.51012" lon="1.09408">
        <ele>146.7</ele>
        <time>2022-04-30T12:20:39Z</time>
      </trkpt>
      <trkpt lat="49.51006" lon="1.09408">
        <ele>146.3</ele>
        <time>2022-04-30T12:20:40Z</time>
      </trkpt>
      <trkpt lat="49.51" lon="1.09407">
        <ele>146</ele>
        <time>2022-04-30T12:20:41Z</time>
      </trkpt>
      <trkpt lat="49.50994" lon="1.09405">
        <ele>145.8</ele>
        <time>2022-04-30T12:20:42Z</time>
      </trkpt>
      <trkpt lat="49.50989" lon="1.09404">
        <ele>145.5</ele>
        <time>2022-04-30T12:20:43Z</time>
      </trkpt>
      <trkpt lat="49.50984" lon="1.09405">
        <ele>145.3</ele>
        <time>2022-04-30T12:20:44Z</time>
      </trkpt>
      <trkpt lat="49.50979" lon="1.09405">
        <ele>145.2</ele>
        <time>2022-04-30T12:20:45Z</time>
      </trkpt>
      <trkpt lat="49.50973" lon="1.09404">
        <ele>145</ele>
        <time>2022-04-30T12:20:46Z</time>
      </trkpt>
      <trkpt lat="49.50968" lon="1.09401">
        <ele>144.8</ele>
        <time>2022-04-30T12:20:47Z</time>
      </trkpt>
      <trkpt lat="49.50963" lon="1.09401">
        <ele>144.7</ele>
        <time>2022-04-30T12:20:48Z</time>
      </trkpt>
      <trkpt lat="49.50956" lon="1.09401">
        <ele>144.5</ele>
        <time>2022-04-30T12:20:49Z</time>
      </trkpt>
      <trkpt lat="49.50949" lon="1.09404">
        <ele>144.3</ele>
        <time>2022-04-30T12:20:50Z</time>
      </trkpt>
      <trkpt lat="49.50944" lon="1.09405">
        <ele>144.2</ele>
        <time>2022-04-30T12:20:51Z</time>
      </trkpt>
      <trkpt lat="49.50938" lon="1.09406">
        <ele>144.1</ele>
        <time>2022-04-30T12:20:52Z</time>
      </trkpt>
      <trkpt lat="49.5093" lon="1.09408">
        <ele>143.9</ele>
        <time>2022-04-30T12:20:53Z</time>
      </trkpt>
      <trkpt lat="49.50923" lon="1.0941">
        <ele>143.8</ele>
        <time>2022-04-30T12:20:54Z</time>
      </trkpt>
      <trkpt lat="49.50917" lon="1.09413">
        <ele>143.8</ele>
        <time>2022-04-30T12:20:55Z</time>
      </trkpt>
      <trkpt lat="49.5091" lon="1.09417">
        <ele>143.8</ele>
        <time>2022-04-30T12:20:56Z</time>
      </trkpt>
      <trkpt lat="49.50903" lon="1.09418">
        <ele>143.9</ele>
        <time>2022-04-30T12:20:57Z</time>
      </trkpt>
      <trkpt lat="49.50897" lon="1.09421">
        <ele>144</ele>
        <time>2022-04-30T12:20:58Z</time>
      </trkpt>
      <trkpt lat="49.50891" lon="1.09422">
        <ele>144.2</ele>
        <time>2022-04-30T12:20:59Z</time>
      </trkpt>
      <trkpt lat="49.50885" lon="1.09424">
        <ele>144.3</ele>
        <time>2022-04-30T12:21:00Z</time>
      </trkpt>
      <trkpt lat="49.50881" lon="1.09424">
        <ele>144.3</ele>
        <time>2022-04-30T12:21:01Z</time>
      </trkpt>
      <trkpt lat="49.50876" lon="1.09425">
        <ele>144.3</ele>
        <time>2022-04-30T12:21:02Z</time>
      </trkpt>
      <trkpt lat="49.50872" lon="1.09426">
        <ele>144.3</ele>
        <time>2022-04-30T12:21:03Z</time>
      </trkpt>
      <trkpt lat="49.50867" lon="1.09428">
        <ele>144.2</ele>
        <time>2022-04-30T12:21:04Z</time>
      </trkpt>
      <trkpt lat="49.50864" lon="1.09429">
        <ele>144.2</ele>
        <time>2022-04-30T12:21:05Z</time>
      </trkpt>
      <trkpt lat="49.5086" lon="1.0943">
        <ele>144.2</ele>
        <time>2022-04-30T12:21:06Z</time>
      </trkpt>
      <trkpt lat="49.50858" lon="1.0943">
        <ele>144.1</ele>
        <time>2022-04-30T12:21:07Z</time>
      </trkpt>
      <trkpt lat="49.50854" lon="1.09431">
        <ele>144.1</ele>
        <time>2022-04-30T12:21:08Z</time>
      </trkpt>
      <trkpt lat="49.50851" lon="1.09431">
        <ele>144</ele>
        <time>2022-04-30T12:21:09Z</time>
      </trkpt>
      <trkpt lat="49.50847" lon="1.09433">
        <ele>143.9</ele>
        <time>2022-04-30T12:21:10Z</time>
      </trkpt>
      <trkpt lat="49.50843" lon="1.09432">
        <ele>143.8</ele>
        <time>2022-04-30T12:21:11Z</time>
      </trkpt>
      <trkpt lat="49.50838" lon="1.09429">
        <ele>143.6</ele>
        <time>2022-04-30T12:21:12Z</time>
      </trkpt>
      <trkpt lat="49.50832" lon="1.09426">
        <ele>143.5</ele>
        <time>2022-04-30T12:21:13Z</time>
      </trkpt>
      <trkpt lat="49.50828" lon="1.09424">
        <ele>143.3</ele>
        <time>2022-04-30T12:21:14Z</time>
      </trkpt>
      <trkpt lat="49.50824" lon="1.09422">
        <ele>143.2</ele>
        <time>2022-04-30T12:21:15Z</time>
      </trkpt>
      <trkpt lat="49.5082" lon="1.09422">
        <ele>143</ele>
        <time>2022-04-30T12:21:16Z</time>
      </trkpt>
      <trkpt lat="49.50815" lon="1.09423">
        <ele>142.9</ele>
        <time>2022-04-30T12:21:17Z</time>
      </trkpt>
      <trkpt lat="49.5081" lon="1.09424">
        <ele>142.7</ele>
        <time>2022-04-30T12:21:18Z</time>
      </trkpt>
      <trkpt lat="49.50804" lon="1.09424">
        <ele>142.5</ele>
        <time>2022-04-30T12:21:19Z</time>
      </trkpt>
      <trkpt lat="49.508" lon="1.09424">
        <ele>142.4</ele>
        <time>2022-04-30T12:21:20Z</time>
      </trkpt>
      <trkpt lat="49.50795" lon="1.09423">
        <ele>142.3</ele>
        <time>2022-04-30T12:21:21Z</time>
      </trkpt>
      <trkpt lat="49.5079" lon="1.09422">
        <ele>142.1</ele>
        <time>2022-04-30T12:21:22Z</time>
      </trkpt>
      <trkpt lat="49.50784" lon="1.09422">
        <ele>142</ele>
        <time>2022-04-30T12:21:23Z</time>
      </trkpt>
      <trkpt lat="49.50778" lon="1.09424">
        <ele>141.8</ele>
        <time>2022-04-30T12:21:24Z</time>
      </trkpt>
      <trkpt lat="49.50774" lon="1.09426">
        <ele>141.8</ele>
        <time>2022-04-30T12:21:25Z</time>
      </trkpt>
      <trkpt lat="49.50769" lon="1.09429">
        <ele>141.7</ele>
        <time>2022-04-30T12:21:26Z</time>
      </trkpt>
      <trkpt lat="49.50764" lon="1.09431">
        <ele>141.7</ele>
        <time>2022-04-30T12:21:27Z</time>
      </trkpt>
      <trkpt lat="49.5076" lon="1.09433">
        <ele>141.7</ele>
        <time>2022-04-30T12:21:28Z</time>
      </trkpt>
      <trkpt lat="49.50753" lon="1.09435">
        <ele>141.7</ele>
        <time>2022-04-30T12:21:29Z</time>
      </trkpt>
      <trkpt lat="49.50746" lon="1.09437">
        <ele>141.9</ele>
        <time>2022-04-30T12:21:30Z</time>
      </trkpt>
      <trkpt lat="49.50741" lon="1.09441">
        <ele>142.1</ele>
        <time>2022-04-30T12:21:31Z</time>
      </trkpt>
      <trkpt lat="49.50736" lon="1.09444">
        <ele>142.2</ele>
        <time>2022-04-30T12:21:32Z</time>
      </trkpt>
      <trkpt lat="49.50731" lon="1.09446">
        <ele>142.4</ele>
        <time>2022-04-30T12:21:33Z</time>
      </trkpt>
      <trkpt lat="49.50726" lon="1.09449">
        <ele>142.6</ele>
        <time>2022-04-30T12:21:34Z</time>
      </trkpt>
      <trkpt lat="49.50721" lon="1.0945">
        <ele>142.8</ele>
        <time>2022-04-30T12:21:35Z</time>
      </trkpt>
      <trkpt lat="49.50717" lon="1.09452">
        <ele>142.9</ele>
        <time>2022-04-30T12:21:36Z</time>
      </trkpt>
      <trkpt lat="49.50711" lon="1.09453">
        <ele>143</ele>
        <time>2022-04-30T12:21:37Z</time>
      </trkpt>
      <trkpt lat="49.50706" lon="1.09454">
        <ele>143.1</ele>
        <time>2022-04-30T12:21:38Z</time>
      </trkpt>
      <trkpt lat="49.50702" lon="1.09455">
        <ele>143.1</ele>
        <time>2022-04-30T12:21:39Z</time>
      </trkpt>
      <trkpt lat="49.50699" lon="1.09456">
        <ele>143.2</ele>
        <time>2022-04-30T12:21:40Z</time>
      </trkpt>
      <trkpt lat="49.50696" lon="1.09457">
        <ele>143.2</ele>
        <time>2022-04-30T12:21:41Z</time>
      </trkpt>
      <trkpt lat="49.50693" lon="1.09458">
        <ele>143.2</ele>
        <time>2022-04-30T12:21:42Z</time>
      </trkpt>
      <trkpt lat="49.50692" lon="1.09459">
        <ele>143.2</ele>
        <time>2022-04-30T12:21:43Z</time>
      </trkpt>
      <trkpt lat="49.50683" lon="1.0946">
        <ele>143.2</ele>
        <time>2022-04-30T12:21:44Z</time>
      </trkpt>
      <trkpt lat="49.50679" lon="1.09459">
        <ele>143</ele>
        <time>2022-04-30T12:21:45Z</time>
      </trkpt>
      <trkpt lat="49.50678" lon="1.09458">
        <ele>143.8</ele>
        <time>2022-04-30T12:21:46Z</time>
      </trkpt>
      <trkpt lat="49.50676" lon="1.09456">
        <ele>144</ele>
        <time>2022-04-30T12:21:47Z</time>
      </trkpt>
      <trkpt lat="49.50675" lon="1.09454">
        <ele>144.1</ele>
        <time>2022-04-30T12:21:48Z</time>
      </trkpt>
      <trkpt lat="49.50675" lon="1.09452">
        <ele>144.2</ele>
        <time>2022-04-30T12:21:49Z</time>
      </trkpt>
      <trkpt lat="49.50673" lon="1.09451">
        <ele>144.3</ele>
        <time>2022-04-30T12:21:50Z</time>
      </trkpt>
      <trkpt lat="49.50671" lon="1.09447">
        <ele>144.6</ele>
        <time>2022-04-30T12:21:51Z</time>
      </trkpt>
      <trkpt lat="49.5067" lon="1.09445">
        <ele>144.6</ele>
        <time>2022-04-30T12:21:52Z</time>
      </trkpt>
      <trkpt lat="49.5067" lon="1.09443">
        <ele>144.8</ele>
        <time>2022-04-30T12:21:53Z</time>
      </trkpt>
      <trkpt lat="49.50669" lon="1.09442">
        <ele>144.8</ele>
        <time>2022-04-30T12:21:54Z</time>
      </trkpt>
      <trkpt lat="49.50668" lon="1.09441">
        <ele>144.9</ele>
        <time>2022-04-30T12:21:55Z</time>
      </trkpt>
      <trkpt lat="49.50667" lon="1.09437">
        <ele>145.1</ele>
        <time>2022-04-30T12:21:56Z</time>
      </trkpt>
      <trkpt lat="49.50667" lon="1.09435">
        <ele>145.1</ele>
        <time>2022-04-30T12:21:57Z</time>
      </trkpt>
      <trkpt lat="49.50667" lon="1.09431">
        <ele>145.3</ele>
        <time>2022-04-30T12:21:58Z</time>
      </trkpt>
      <trkpt lat="49.50667" lon="1.0943">
        <ele>145.3</ele>
        <time>2022-04-30T12:21:59Z</time>
      </trkpt>
      <trkpt lat="49.50665" lon="1.09424">
        <ele>145.6</ele>
        <time>2022-04-30T12:22:00Z</time>
      </trkpt>
      <trkpt lat="49.50663" lon="1.09422">
        <ele>145.7</ele>
        <time>2022-04-30T12:22:01Z</time>
      </trkpt>
      <trkpt lat="49.50662" lon="1.09418">
        <ele>145.8</ele>
        <time>2022-04-30T12:22:02Z</time>
      </trkpt>
      <trkpt lat="49.50661" lon="1.09413">
        <ele>146</ele>
        <time>2022-04-30T12:22:03Z</time>
      </trkpt>
      <trkpt lat="49.5066" lon="1.09408">
        <ele>146.2</ele>
        <time>2022-04-30T12:22:04Z</time>
      </trkpt>
      <trkpt lat="49.50659" lon="1.09401">
        <ele>146.3</ele>
        <time>2022-04-30T12:22:05Z</time>
      </trkpt>
      <trkpt lat="49.50657" lon="1.09394">
        <ele>146.5</ele>
        <time>2022-04-30T12:22:06Z</time>
      </trkpt>
      <trkpt lat="49.50656" lon="1.09387">
        <ele>146.7</ele>
        <time>2022-04-30T12:22:07Z</time>
      </trkpt>
      <trkpt lat="49.50654" lon="1.0938">
        <ele>146.9</ele>
        <time>2022-04-30T12:22:08Z</time>
      </trkpt>
      <trkpt lat="49.50653" lon="1.09374">
        <ele>147</ele>
        <time>2022-04-30T12:22:09Z</time>
      </trkpt>
      <trkpt lat="49.50652" lon="1.09369">
        <ele>147.1</ele>
        <time>2022-04-30T12:22:10Z</time>
      </trkpt>
      <trkpt lat="49.50651" lon="1.09364">
        <ele>147.2</ele>
        <time>2022-04-30T12:22:11Z</time>
      </trkpt>
      <trkpt lat="49.5065" lon="1.09358">
        <ele>147.3</ele>
        <time>2022-04-30T12:22:12Z</time>
      </trkpt>
      <trkpt lat="49.50649" lon="1.09353">
        <ele>147.4</ele>
        <time>2022-04-30T12:22:13Z</time>
      </trkpt>
      <trkpt lat="49.50647" lon="1.09345">
        <ele>147.5</ele>
        <time>2022-04-30T12:22:14Z</time>
      </trkpt>
      <trkpt lat="49.50645" lon="1.09339">
        <ele>147.5</ele>
        <time>2022-04-30T12:22:15Z</time>
      </trkpt>
      <trkpt lat="49.50643" lon="1.09332">
        <ele>147.6</ele>
        <time>2022-04-30T12:22:16Z</time>
      </trkpt>
      <trkpt lat="49.50643" lon="1.09325">
        <ele>147.7</ele>
        <time>2022-04-30T12:22:17Z</time>
      </trkpt>
      <trkpt lat="49.50639" lon="1.09311">
        <ele>147.8</ele>
        <time>2022-04-30T12:22:18Z</time>
      </trkpt>
      <trkpt lat="49.50637" lon="1.09305">
        <ele>147.9</ele>
        <time>2022-04-30T12:22:19Z</time>
      </trkpt>
      <trkpt lat="49.50635" lon="1.093">
        <ele>148</ele>
        <time>2022-04-30T12:22:20Z</time>
      </trkpt>
      <trkpt lat="49.50634" lon="1.09298">
        <ele>148</ele>
        <time>2022-04-30T12:22:21Z</time>
      </trkpt>
      <trkpt lat="49.50634" lon="1.09295">
        <ele>148</ele>
        <time>2022-04-30T12:22:22Z</time>
      </trkpt>
      <trkpt lat="49.50633" lon="1.09292">
        <ele>148.1</ele>
        <time>2022-04-30T12:22:23Z</time>
      </trkpt>
      <trkpt lat="49.50629" lon="1.09277">
        <ele>148.2</ele>
        <time>2022-04-30T12:22:24Z</time>
      </trkpt>
      <trkpt lat="49.50628" lon="1.09275">
        <ele>148.3</ele>
        <time>2022-04-30T12:22:26Z</time>
      </trkpt>
      <trkpt lat="49.50627" lon="1.09273">
        <ele>148.3</ele>
        <time>2022-04-30T12:22:27Z</time>
      </trkpt>
      <trkpt lat="49.50626" lon="1.09271">
        <ele>148.3</ele>
        <time>2022-04-30T12:22:28Z</time>
      </trkpt>
      <trkpt lat="49.50625" lon="1.09266">
        <ele>148.4</ele>
        <time>2022-04-30T12:22:29Z</time>
      </trkpt>
      <trkpt lat="49.50624" lon="1.09264">
        <ele>148.4</ele>
        <time>2022-04-30T12:22:30Z</time>
      </trkpt>
      <trkpt lat="49.50623" lon="1.09258">
        <ele>148.4</ele>
        <time>2022-04-30T12:22:31Z</time>
      </trkpt>
      <trkpt lat="49.50622" lon="1.09252">
        <ele>148.5</ele>
        <time>2022-04-30T12:22:33Z</time>
      </trkpt>
      <trkpt lat="49.50622" lon="1.09247">
        <ele>148.5</ele>
        <time>2022-04-30T12:22:35Z</time>
      </trkpt>
      <trkpt lat="49.50618" lon="1.09209">
        <ele>148.8</ele>
        <time>2022-04-30T12:22:39Z</time>
      </trkpt>
      <trkpt lat="49.50614" lon="1.09182">
        <ele>148.7</ele>
        <time>2022-04-30T12:22:41Z</time>
      </trkpt>
      <trkpt lat="49.50613" lon="1.09171">
        <ele>148.7</ele>
        <time>2022-04-30T12:22:42Z</time>
      </trkpt>
      <trkpt lat="49.50611" lon="1.09158">
        <ele>148.7</ele>
        <time>2022-04-30T12:22:43Z</time>
      </trkpt>
      <trkpt lat="49.5061" lon="1.09148">
        <ele>148.6</ele>
        <time>2022-04-30T12:22:44Z</time>
      </trkpt>
      <trkpt lat="49.50609" lon="1.09138">
        <ele>148.6</ele>
        <time>2022-04-30T12:22:46Z</time>
      </trkpt>
      <trkpt lat="49.50609" lon="1.09128">
        <ele>148.6</ele>
        <time>2022-04-30T12:22:47Z</time>
      </trkpt>
      <trkpt lat="49.5061" lon="1.09122">
        <ele>148.5</ele>
        <time>2022-04-30T12:22:48Z</time>
      </trkpt>
      <trkpt lat="49.50611" lon="1.09116">
        <ele>148.5</ele>
        <time>2022-04-30T12:22:49Z</time>
      </trkpt>
      <trkpt lat="49.50613" lon="1.09107">
        <ele>148.5</ele>
        <time>2022-04-30T12:22:51Z</time>
      </trkpt>
      <trkpt lat="49.50616" lon="1.09098">
        <ele>148.4</ele>
        <time>2022-04-30T12:22:52Z</time>
      </trkpt>
      <trkpt lat="49.50618" lon="1.09091">
        <ele>148.4</ele>
        <time>2022-04-30T12:22:53Z</time>
      </trkpt>
      <trkpt lat="49.5062" lon="1.09085">
        <ele>148.4</ele>
        <time>2022-04-30T12:22:54Z</time>
      </trkpt>
      <trkpt lat="49.50623" lon="1.09078">
        <ele>148.4</ele>
        <time>2022-04-30T12:22:55Z</time>
      </trkpt>
      <trkpt lat="49.50625" lon="1.0907">
        <ele>148.3</ele>
        <time>2022-04-30T12:22:56Z</time>
      </trkpt>
      <trkpt lat="49.50627" lon="1.09062">
        <ele>148.3</ele>
        <time>2022-04-30T12:22:57Z</time>
      </trkpt>
      <trkpt lat="49.50631" lon="1.09054">
        <ele>148.2</ele>
        <time>2022-04-30T12:22:58Z</time>
      </trkpt>
      <trkpt lat="49.50635" lon="1.09046">
        <ele>148.1</ele>
        <time>2022-04-30T12:22:59Z</time>
      </trkpt>
      <trkpt lat="49.50637" lon="1.0904">
        <ele>148</ele>
        <time>2022-04-30T12:23:01Z</time>
      </trkpt>
      <trkpt lat="49.50643" lon="1.09029">
        <ele>147.8</ele>
        <time>2022-04-30T12:23:02Z</time>
      </trkpt>
      <trkpt lat="49.50645" lon="1.09023">
        <ele>147.7</ele>
        <time>2022-04-30T12:23:03Z</time>
      </trkpt>
      <trkpt lat="49.50648" lon="1.09017">
        <ele>147.5</ele>
        <time>2022-04-30T12:23:04Z</time>
      </trkpt>
      <trkpt lat="49.50651" lon="1.0901">
        <ele>147.4</ele>
        <time>2022-04-30T12:23:05Z</time>
      </trkpt>
      <trkpt lat="49.50654" lon="1.09004">
        <ele>147.2</ele>
        <time>2022-04-30T12:23:06Z</time>
      </trkpt>
      <trkpt lat="49.50658" lon="1.08995">
        <ele>147</ele>
        <time>2022-04-30T12:23:07Z</time>
      </trkpt>
      <trkpt lat="49.50665" lon="1.08979">
        <ele>146.6</ele>
        <time>2022-04-30T12:23:08Z</time>
      </trkpt>
      <trkpt lat="49.50668" lon="1.08973">
        <ele>146.5</ele>
        <time>2022-04-30T12:23:09Z</time>
      </trkpt>
      <trkpt lat="49.50671" lon="1.08967">
        <ele>146.3</ele>
        <time>2022-04-30T12:23:10Z</time>
      </trkpt>
      <trkpt lat="49.50673" lon="1.08962">
        <ele>146.2</ele>
        <time>2022-04-30T12:23:11Z</time>
      </trkpt>
      <trkpt lat="49.50675" lon="1.08957">
        <ele>146.1</ele>
        <time>2022-04-30T12:23:12Z</time>
      </trkpt>
      <trkpt lat="49.50678" lon="1.08951">
        <ele>146.1</ele>
        <time>2022-04-30T12:23:13Z</time>
      </trkpt>
      <trkpt lat="49.50681" lon="1.08944">
        <ele>146</ele>
        <time>2022-04-30T12:23:14Z</time>
      </trkpt>
      <trkpt lat="49.50684" lon="1.08938">
        <ele>146</ele>
        <time>2022-04-30T12:23:15Z</time>
      </trkpt>
      <trkpt lat="49.50686" lon="1.08932">
        <ele>145.9</ele>
        <time>2022-04-30T12:23:16Z</time>
      </trkpt>
      <trkpt lat="49.50689" lon="1.08925">
        <ele>145.9</ele>
        <time>2022-04-30T12:23:17Z</time>
      </trkpt>
      <trkpt lat="49.50693" lon="1.08913">
        <ele>145.9</ele>
        <time>2022-04-30T12:23:18Z</time>
      </trkpt>
      <trkpt lat="49.50695" lon="1.08906">
        <ele>145.9</ele>
        <time>2022-04-30T12:23:19Z</time>
      </trkpt>
      <trkpt lat="49.50698" lon="1.089">
        <ele>145.9</ele>
        <time>2022-04-30T12:23:20Z</time>
      </trkpt>
      <trkpt lat="49.507" lon="1.08894">
        <ele>145.9</ele>
        <time>2022-04-30T12:23:21Z</time>
      </trkpt>
      <trkpt lat="49.50702" lon="1.08886">
        <ele>146</ele>
        <time>2022-04-30T12:23:22Z</time>
      </trkpt>
      <trkpt lat="49.50703" lon="1.0888">
        <ele>146</ele>
        <time>2022-04-30T12:23:23Z</time>
      </trkpt>
      <trkpt lat="49.50706" lon="1.08874">
        <ele>146</ele>
        <time>2022-04-30T12:23:24Z</time>
      </trkpt>
      <trkpt lat="49.50709" lon="1.08868">
        <ele>146</ele>
        <time>2022-04-30T12:23:25Z</time>
      </trkpt>
      <trkpt lat="49.50711" lon="1.08862">
        <ele>146</ele>
        <time>2022-04-30T12:23:26Z</time>
      </trkpt>
      <trkpt lat="49.50714" lon="1.08855">
        <ele>146</ele>
        <time>2022-04-30T12:23:27Z</time>
      </trkpt>
      <trkpt lat="49.50716" lon="1.08849">
        <ele>146</ele>
        <time>2022-04-30T12:23:28Z</time>
      </trkpt>
      <trkpt lat="49.50719" lon="1.08843">
        <ele>146</ele>
        <time>2022-04-30T12:23:29Z</time>
      </trkpt>
      <trkpt lat="49.50721" lon="1.08837">
        <ele>145.9</ele>
        <time>2022-04-30T12:23:30Z</time>
      </trkpt>
      <trkpt lat="49.50725" lon="1.08829">
        <ele>145.8</ele>
        <time>2022-04-30T12:23:31Z</time>
      </trkpt>
      <trkpt lat="49.50729" lon="1.08821">
        <ele>145.8</ele>
        <time>2022-04-30T12:23:32Z</time>
      </trkpt>
      <trkpt lat="49.50732" lon="1.08815">
        <ele>145.7</ele>
        <time>2022-04-30T12:23:33Z</time>
      </trkpt>
      <trkpt lat="49.50736" lon="1.08809">
        <ele>145.6</ele>
        <time>2022-04-30T12:23:34Z</time>
      </trkpt>
      <trkpt lat="49.50741" lon="1.08804">
        <ele>145.5</ele>
        <time>2022-04-30T12:23:35Z</time>
      </trkpt>
      <trkpt lat="49.50743" lon="1.088">
        <ele>145.4</ele>
        <time>2022-04-30T12:23:36Z</time>
      </trkpt>
      <trkpt lat="49.50748" lon="1.08795">
        <ele>145.3</ele>
        <time>2022-04-30T12:23:38Z</time>
      </trkpt>
      <trkpt lat="49.50751" lon="1.08793">
        <ele>145.2</ele>
        <time>2022-04-30T12:23:39Z</time>
      </trkpt>
      <trkpt lat="49.50761" lon="1.08788">
        <ele>144.7</ele>
        <time>2022-04-30T12:23:40Z</time>
      </trkpt>
      <trkpt lat="49.50767" lon="1.08786">
        <ele>144.4</ele>
        <time>2022-04-30T12:23:41Z</time>
      </trkpt>
      <trkpt lat="49.50774" lon="1.08785">
        <ele>144</ele>
        <time>2022-04-30T12:23:42Z</time>
      </trkpt>
      <trkpt lat="49.50781" lon="1.08782">
        <ele>143.6</ele>
        <time>2022-04-30T12:23:43Z</time>
      </trkpt>
      <trkpt lat="49.5079" lon="1.08775">
        <ele>143</ele>
        <time>2022-04-30T12:23:44Z</time>
      </trkpt>
      <trkpt lat="49.50797" lon="1.08767">
        <ele>142.7</ele>
        <time>2022-04-30T12:23:45Z</time>
      </trkpt>
      <trkpt lat="49.50805" lon="1.08756">
        <ele>142.5</ele>
        <time>2022-04-30T12:23:46Z</time>
      </trkpt>
      <trkpt lat="49.50807" lon="1.08747">
        <ele>142.4</ele>
        <time>2022-04-30T12:23:47Z</time>
      </trkpt>
      <trkpt lat="49.50808" lon="1.08739">
        <ele>142.5</ele>
        <time>2022-04-30T12:23:48Z</time>
      </trkpt>
      <trkpt lat="49.50806" lon="1.08732">
        <ele>142.6</ele>
        <time>2022-04-30T12:23:49Z</time>
      </trkpt>
      <trkpt lat="49.50803" lon="1.08724">
        <ele>142.7</ele>
        <time>2022-04-30T12:23:51Z</time>
      </trkpt>
      <trkpt lat="49.50799" lon="1.08715">
        <ele>142.9</ele>
        <time>2022-04-30T12:23:52Z</time>
      </trkpt>
      <trkpt lat="49.50796" lon="1.08708">
        <ele>143.1</ele>
        <time>2022-04-30T12:23:53Z</time>
      </trkpt>
      <trkpt lat="49.50794" lon="1.08702">
        <ele>143.2</ele>
        <time>2022-04-30T12:23:54Z</time>
      </trkpt>
      <trkpt lat="49.50792" lon="1.08695">
        <ele>143.3</ele>
        <time>2022-04-30T12:23:55Z</time>
      </trkpt>
      <trkpt lat="49.50791" lon="1.08687">
        <ele>143.4</ele>
        <time>2022-04-30T12:23:57Z</time>
      </trkpt>
      <trkpt lat="49.50789" lon="1.08678">
        <ele>143.5</ele>
        <time>2022-04-30T12:23:58Z</time>
      </trkpt>
      <trkpt lat="49.50787" lon="1.08669">
        <ele>143.5</ele>
        <time>2022-04-30T12:23:59Z</time>
      </trkpt>
      <trkpt lat="49.50785" lon="1.08662">
        <ele>143.5</ele>
        <time>2022-04-30T12:24:00Z</time>
      </trkpt>
      <trkpt lat="49.50784" lon="1.08657">
        <ele>143.5</ele>
        <time>2022-04-30T12:24:01Z</time>
      </trkpt>
      <trkpt lat="49.50783" lon="1.08649">
        <ele>143.5</ele>
        <time>2022-04-30T12:24:02Z</time>
      </trkpt>
      <trkpt lat="49.50782" lon="1.08638">
        <ele>143.5</ele>
        <time>2022-04-30T12:24:04Z</time>
      </trkpt>
      <trkpt lat="49.50782" lon="1.08632">
        <ele>143.5</ele>
        <time>2022-04-30T12:24:05Z</time>
      </trkpt>
      <trkpt lat="49.50781" lon="1.08623">
        <ele>143.4</ele>
        <time>2022-04-30T12:24:06Z</time>
      </trkpt>
      <trkpt lat="49.50782" lon="1.08616">
        <ele>143.4</ele>
        <time>2022-04-30T12:24:07Z</time>
      </trkpt>
      <trkpt lat="49.50783" lon="1.0861">
        <ele>143.3</ele>
        <time>2022-04-30T12:24:08Z</time>
      </trkpt>
      <trkpt lat="49.50784" lon="1.086">
        <ele>143.2</ele>
        <time>2022-04-30T12:24:10Z</time>
      </trkpt>
      <trkpt lat="49.50784" lon="1.08595">
        <ele>143.1</ele>
        <time>2022-04-30T12:24:11Z</time>
      </trkpt>
      <trkpt lat="49.50784" lon="1.08589">
        <ele>143</ele>
        <time>2022-04-30T12:24:12Z</time>
      </trkpt>
      <trkpt lat="49.50784" lon="1.08582">
        <ele>142.9</ele>
        <time>2022-04-30T12:24:13Z</time>
      </trkpt>
      <trkpt lat="49.50784" lon="1.08575">
        <ele>142.7</ele>
        <time>2022-04-30T12:24:14Z</time>
      </trkpt>
      <trkpt lat="49.50785" lon="1.08566">
        <ele>142.4</ele>
        <time>2022-04-30T12:24:15Z</time>
      </trkpt>
      <trkpt lat="49.50786" lon="1.08559">
        <ele>142.2</ele>
        <time>2022-04-30T12:24:16Z</time>
      </trkpt>
      <trkpt lat="49.50784" lon="1.08542">
        <ele>141.7</ele>
        <time>2022-04-30T12:24:18Z</time>
      </trkpt>
      <trkpt lat="49.50783" lon="1.08534">
        <ele>141.4</ele>
        <time>2022-04-30T12:24:19Z</time>
      </trkpt>
      <trkpt lat="49.50781" lon="1.08518">
        <ele>140.7</ele>
        <time>2022-04-30T12:24:20Z</time>
      </trkpt>
      <trkpt lat="49.50778" lon="1.08508">
        <ele>140.3</ele>
        <time>2022-04-30T12:24:21Z</time>
      </trkpt>
      <trkpt lat="49.50776" lon="1.08498">
        <ele>139.8</ele>
        <time>2022-04-30T12:24:22Z</time>
      </trkpt>
      <trkpt lat="49.50775" lon="1.08487">
        <ele>139.4</ele>
        <time>2022-04-30T12:24:23Z</time>
      </trkpt>
      <trkpt lat="49.50774" lon="1.08477">
        <ele>139.2</ele>
        <time>2022-04-30T12:24:24Z</time>
      </trkpt>
      <trkpt lat="49.50772" lon="1.08467">
        <ele>139</ele>
        <time>2022-04-30T12:24:25Z</time>
      </trkpt>
      <trkpt lat="49.50771" lon="1.08458">
        <ele>138.8</ele>
        <time>2022-04-30T12:24:26Z</time>
      </trkpt>
      <trkpt lat="49.50769" lon="1.0845">
        <ele>138.7</ele>
        <time>2022-04-30T12:24:27Z</time>
      </trkpt>
      <trkpt lat="49.50768" lon="1.08442">
        <ele>138.7</ele>
        <time>2022-04-30T12:24:28Z</time>
      </trkpt>
      <trkpt lat="49.50766" lon="1.08439">
        <ele>138.7</ele>
        <time>2022-04-30T12:24:30Z</time>
      </trkpt>
      <trkpt lat="49.50765" lon="1.08432">
        <ele>138.7</ele>
        <time>2022-04-30T12:24:31Z</time>
      </trkpt>
      <trkpt lat="49.50764" lon="1.08427">
        <ele>138.7</ele>
        <time>2022-04-30T12:24:32Z</time>
      </trkpt>
      <trkpt lat="49.50764" lon="1.08426">
        <ele>138.6</ele>
        <time>2022-04-30T12:24:33Z</time>
      </trkpt>
      <trkpt lat="49.50763" lon="1.0842">
        <ele>138.6</ele>
        <time>2022-04-30T12:24:34Z</time>
      </trkpt>
      <trkpt lat="49.50762" lon="1.08419">
        <ele>138.6</ele>
        <time>2022-04-30T12:24:35Z</time>
      </trkpt>
      <trkpt lat="49.50762" lon="1.08411">
        <ele>138.6</ele>
        <time>2022-04-30T12:24:37Z</time>
      </trkpt>
      <trkpt lat="49.50762" lon="1.08409">
        <ele>138.5</ele>
        <time>2022-04-30T12:24:38Z</time>
      </trkpt>
      <trkpt lat="49.50762" lon="1.08407">
        <ele>138.5</ele>
        <time>2022-04-30T12:24:39Z</time>
      </trkpt>
      <trkpt lat="49.50761" lon="1.08405">
        <ele>138.5</ele>
        <time>2022-04-30T12:24:40Z</time>
      </trkpt>
      <trkpt lat="49.5076" lon="1.08403">
        <ele>138.5</ele>
        <time>2022-04-30T12:24:41Z</time>
      </trkpt>
      <trkpt lat="49.50759" lon="1.08401">
        <ele>138.5</ele>
        <time>2022-04-30T12:24:42Z</time>
      </trkpt>
      <trkpt lat="49.50759" lon="1.084">
        <ele>138.4</ele>
        <time>2022-04-30T12:24:43Z</time>
      </trkpt>
      <trkpt lat="49.50759" lon="1.08398">
        <ele>138.4</ele>
        <time>2022-04-30T12:24:44Z</time>
      </trkpt>
      <trkpt lat="49.50758" lon="1.08397">
        <ele>138.4</ele>
        <time>2022-04-30T12:24:45Z</time>
      </trkpt>
      <trkpt lat="49.50758" lon="1.08396">
        <ele>138.4</ele>
        <time>2022-04-30T12:24:46Z</time>
      </trkpt>
      <trkpt lat="49.50757" lon="1.08394">
        <ele>138.4</ele>
        <time>2022-04-30T12:24:47Z</time>
      </trkpt>
      <trkpt lat="49.50757" lon="1.08393">
        <ele>138.3</ele>
        <time>2022-04-30T12:24:48Z</time>
      </trkpt>
      <trkpt lat="49.50756" lon="1.08392">
        <ele>138.3</ele>
        <time>2022-04-30T12:24:49Z</time>
      </trkpt>
      <trkpt lat="49.50756" lon="1.0839">
        <ele>138.3</ele>
        <time>2022-04-30T12:24:50Z</time>
      </trkpt>
      <trkpt lat="49.50756" lon="1.08389">
        <ele>138.3</ele>
        <time>2022-04-30T12:25:01Z</time>
      </trkpt>
      <trkpt lat="49.50755" lon="1.08388">
        <ele>138.2</ele>
        <time>2022-04-30T12:25:02Z</time>
      </trkpt>
      <trkpt lat="49.50755" lon="1.08386">
        <ele>138.2</ele>
        <time>2022-04-30T12:25:03Z</time>
      </trkpt>
      <trkpt lat="49.5075" lon="1.08368">
        <ele>137.7</ele>
        <time>2022-04-30T12:25:04Z</time>
      </trkpt>
      <trkpt lat="49.50748" lon="1.08349">
        <ele>137.3</ele>
        <time>2022-04-30T12:25:05Z</time>
      </trkpt>
      <trkpt lat="49.5075" lon="1.08341">
        <ele>137.2</ele>
        <time>2022-04-30T12:25:06Z</time>
      </trkpt>
      <trkpt lat="49.5075" lon="1.08333">
        <ele>137</ele>
        <time>2022-04-30T12:25:07Z</time>
      </trkpt>
      <trkpt lat="49.5075" lon="1.08328">
        <ele>137</ele>
        <time>2022-04-30T12:25:08Z</time>
      </trkpt>
      <trkpt lat="49.5075" lon="1.08323">
        <ele>136.9</ele>
        <time>2022-04-30T12:25:09Z</time>
      </trkpt>
      <trkpt lat="49.50748" lon="1.08319">
        <ele>136.8</ele>
        <time>2022-04-30T12:25:10Z</time>
      </trkpt>
      <trkpt lat="49.50746" lon="1.08317">
        <ele>136.9</ele>
        <time>2022-04-30T12:25:11Z</time>
      </trkpt>
      <trkpt lat="49.50742" lon="1.08316">
        <ele>137</ele>
        <time>2022-04-30T12:25:12Z</time>
      </trkpt>
      <trkpt lat="49.50739" lon="1.08315">
        <ele>137.1</ele>
        <time>2022-04-30T12:25:13Z</time>
      </trkpt>
      <trkpt lat="49.50737" lon="1.08314">
        <ele>137.2</ele>
        <time>2022-04-30T12:25:14Z</time>
      </trkpt>
      <trkpt lat="49.50734" lon="1.08313">
        <ele>137.3</ele>
        <time>2022-04-30T12:25:15Z</time>
      </trkpt>
      <trkpt lat="49.50731" lon="1.08312">
        <ele>137.4</ele>
        <time>2022-04-30T12:25:16Z</time>
      </trkpt>
      <trkpt lat="49.50727" lon="1.08309">
        <ele>137.7</ele>
        <time>2022-04-30T12:25:17Z</time>
      </trkpt>
      <trkpt lat="49.50722" lon="1.08306">
        <ele>138.1</ele>
        <time>2022-04-30T12:25:18Z</time>
      </trkpt>
      <trkpt lat="49.5072" lon="1.08303">
        <ele>138.4</ele>
        <time>2022-04-30T12:25:19Z</time>
      </trkpt>
      <trkpt lat="49.50715" lon="1.08297">
        <ele>139.1</ele>
        <time>2022-04-30T12:25:20Z</time>
      </trkpt>
      <trkpt lat="49.50713" lon="1.08294">
        <ele>139.4</ele>
        <time>2022-04-30T12:25:21Z</time>
      </trkpt>
      <trkpt lat="49.5071" lon="1.08291">
        <ele>139.9</ele>
        <time>2022-04-30T12:25:22Z</time>
      </trkpt>
      <trkpt lat="49.50709" lon="1.08291">
        <ele>140</ele>
        <time>2022-04-30T12:25:23Z</time>
      </trkpt>
      <trkpt lat="49.50706" lon="1.08289">
        <ele>140.5</ele>
        <time>2022-04-30T12:25:24Z</time>
      </trkpt>
      <trkpt lat="49.50705" lon="1.08288">
        <ele>140.6</ele>
        <time>2022-04-30T12:25:25Z</time>
      </trkpt>
      <trkpt lat="49.50704" lon="1.08288">
        <ele>140.8</ele>
        <time>2022-04-30T12:25:26Z</time>
      </trkpt>
      <trkpt lat="49.50702" lon="1.08289">
        <ele>141.1</ele>
        <time>2022-04-30T12:25:27Z</time>
      </trkpt>
      <trkpt lat="49.50699" lon="1.0829">
        <ele>141.6</ele>
        <time>2022-04-30T12:25:28Z</time>
      </trkpt>
      <trkpt lat="49.50695" lon="1.08291">
        <ele>142.1</ele>
        <time>2022-04-30T12:25:29Z</time>
      </trkpt>
      <trkpt lat="49.50694" lon="1.08292">
        <ele>142.3</ele>
        <time>2022-04-30T12:25:30Z</time>
      </trkpt>
      <trkpt lat="49.5069" lon="1.08293">
        <ele>142.6</ele>
        <time>2022-04-30T12:25:31Z</time>
      </trkpt>
      <trkpt lat="49.50686" lon="1.08295">
        <ele>142.7</ele>
        <time>2022-04-30T12:25:32Z</time>
      </trkpt>
      <trkpt lat="49.50685" lon="1.08296">
        <ele>142.7</ele>
        <time>2022-04-30T12:25:33Z</time>
      </trkpt>
      <trkpt lat="49.50682" lon="1.08295">
        <ele>142.7</ele>
        <time>2022-04-30T12:25:34Z</time>
      </trkpt>
      <trkpt lat="49.50681" lon="1.08295">
        <ele>142.7</ele>
        <time>2022-04-30T12:25:35Z</time>
      </trkpt>
      <trkpt lat="49.5068" lon="1.08294">
        <ele>142.7</ele>
        <time>2022-04-30T12:25:36Z</time>
      </trkpt>
      <trkpt lat="49.50678" lon="1.08293">
        <ele>142.7</ele>
        <time>2022-04-30T12:25:37Z</time>
      </trkpt>
      <trkpt lat="49.50675" lon="1.08292">
        <ele>142.7</ele>
        <time>2022-04-30T12:25:38Z</time>
      </trkpt>
      <trkpt lat="49.50674" lon="1.08291">
        <ele>142.7</ele>
        <time>2022-04-30T12:25:39Z</time>
      </trkpt>
      <trkpt lat="49.50671" lon="1.08288">
        <ele>142.7</ele>
        <time>2022-04-30T12:25:40Z</time>
      </trkpt>
      <trkpt lat="49.50669" lon="1.08288">
        <ele>142.7</ele>
        <time>2022-04-30T12:25:41Z</time>
      </trkpt>
      <trkpt lat="49.50667" lon="1.08287">
        <ele>142.7</ele>
        <time>2022-04-30T12:25:42Z</time>
      </trkpt>
      <trkpt lat="49.50664" lon="1.08285">
        <ele>142.7</ele>
        <time>2022-04-30T12:25:43Z</time>
      </trkpt>
      <trkpt lat="49.50661" lon="1.08283">
        <ele>142.7</ele>
        <time>2022-04-30T12:25:44Z</time>
      </trkpt>
      <trkpt lat="49.50659" lon="1.08283">
        <ele>142.7</ele>
        <time>2022-04-30T12:25:45Z</time>
      </trkpt>
      <trkpt lat="49.50656" lon="1.0828">
        <ele>142.7</ele>
        <time>2022-04-30T12:25:46Z</time>
      </trkpt>
      <trkpt lat="49.50655" lon="1.08279">
        <ele>142.7</ele>
        <time>2022-04-30T12:25:47Z</time>
      </trkpt>
      <trkpt lat="49.50652" lon="1.08277">
        <ele>142.6</ele>
        <time>2022-04-30T12:25:48Z</time>
      </trkpt>
      <trkpt lat="49.50649" lon="1.08276">
        <ele>142.6</ele>
        <time>2022-04-30T12:25:49Z</time>
      </trkpt>
      <trkpt lat="49.50648" lon="1.08276">
        <ele>142.6</ele>
        <time>2022-04-30T12:25:50Z</time>
      </trkpt>
      <trkpt lat="49.50646" lon="1.08275">
        <ele>142.6</ele>
        <time>2022-04-30T12:25:51Z</time>
      </trkpt>
      <trkpt lat="49.50645" lon="1.08274">
        <ele>142.6</ele>
        <time>2022-04-30T12:25:52Z</time>
      </trkpt>
      <trkpt lat="49.50643" lon="1.08273">
        <ele>142.5</ele>
        <time>2022-04-30T12:25:53Z</time>
      </trkpt>
      <trkpt lat="49.50642" lon="1.08273">
        <ele>142.5</ele>
        <time>2022-04-30T12:25:54Z</time>
      </trkpt>
      <trkpt lat="49.50639" lon="1.08271">
        <ele>142.5</ele>
        <time>2022-04-30T12:25:55Z</time>
      </trkpt>
      <trkpt lat="49.50638" lon="1.0827">
        <ele>142.4</ele>
        <time>2022-04-30T12:25:56Z</time>
      </trkpt>
      <trkpt lat="49.50634" lon="1.08268">
        <ele>142.4</ele>
        <time>2022-04-30T12:25:57Z</time>
      </trkpt>
      <trkpt lat="49.50633" lon="1.08268">
        <ele>142.3</ele>
        <time>2022-04-30T12:25:58Z</time>
      </trkpt>
      <trkpt lat="49.5063" lon="1.08266">
        <ele>142.3</ele>
        <time>2022-04-30T12:25:59Z</time>
      </trkpt>
      <trkpt lat="49.50628" lon="1.08264">
        <ele>142.3</ele>
        <time>2022-04-30T12:26:00Z</time>
      </trkpt>
      <trkpt lat="49.50625" lon="1.08263">
        <ele>142.2</ele>
        <time>2022-04-30T12:26:01Z</time>
      </trkpt>
      <trkpt lat="49.50622" lon="1.08262">
        <ele>142.1</ele>
        <time>2022-04-30T12:26:02Z</time>
      </trkpt>
      <trkpt lat="49.50617" lon="1.08261">
        <ele>142</ele>
        <time>2022-04-30T12:26:03Z</time>
      </trkpt>
      <trkpt lat="49.50613" lon="1.0826">
        <ele>141.9</ele>
        <time>2022-04-30T12:26:04Z</time>
      </trkpt>
      <trkpt lat="49.5061" lon="1.08262">
        <ele>141.9</ele>
        <time>2022-04-30T12:26:05Z</time>
      </trkpt>
      <trkpt lat="49.50608" lon="1.08262">
        <ele>141.8</ele>
        <time>2022-04-30T12:26:06Z</time>
      </trkpt>
      <trkpt lat="49.50605" lon="1.08263">
        <ele>141.7</ele>
        <time>2022-04-30T12:26:07Z</time>
      </trkpt>
      <trkpt lat="49.50604" lon="1.08263">
        <ele>141.7</ele>
        <time>2022-04-30T12:26:08Z</time>
      </trkpt>
      <trkpt lat="49.50601" lon="1.08264">
        <ele>141.6</ele>
        <time>2022-04-30T12:26:09Z</time>
      </trkpt>
      <trkpt lat="49.506" lon="1.08265">
        <ele>141.6</ele>
        <time>2022-04-30T12:26:10Z</time>
      </trkpt>
      <trkpt lat="49.50598" lon="1.08266">
        <ele>141.6</ele>
        <time>2022-04-30T12:26:11Z</time>
      </trkpt>
      <trkpt lat="49.50597" lon="1.08267">
        <ele>141.5</ele>
        <time>2022-04-30T12:26:12Z</time>
      </trkpt>
      <trkpt lat="49.50595" lon="1.0827">
        <ele>141.5</ele>
        <time>2022-04-30T12:26:13Z</time>
      </trkpt>
      <trkpt lat="49.5059" lon="1.08275">
        <ele>141.3</ele>
        <time>2022-04-30T12:26:15Z</time>
      </trkpt>
      <trkpt lat="49.50583" lon="1.08282">
        <ele>141</ele>
        <time>2022-04-30T12:26:17Z</time>
      </trkpt>
      <trkpt lat="49.5058" lon="1.08285">
        <ele>140.9</ele>
        <time>2022-04-30T12:26:18Z</time>
      </trkpt>
      <trkpt lat="49.50577" lon="1.08288">
        <ele>140.8</ele>
        <time>2022-04-30T12:26:19Z</time>
      </trkpt>
      <trkpt lat="49.50574" lon="1.08292">
        <ele>140.7</ele>
        <time>2022-04-30T12:26:20Z</time>
      </trkpt>
      <trkpt lat="49.50571" lon="1.08295">
        <ele>140.6</ele>
        <time>2022-04-30T12:26:21Z</time>
      </trkpt>
      <trkpt lat="49.50566" lon="1.08302">
        <ele>140.3</ele>
        <time>2022-04-30T12:26:23Z</time>
      </trkpt>
      <trkpt lat="49.50565" lon="1.08304">
        <ele>140.3</ele>
        <time>2022-04-30T12:26:24Z</time>
      </trkpt>
      <trkpt lat="49.50565" lon="1.08306">
        <ele>140.2</ele>
        <time>2022-04-30T12:26:25Z</time>
      </trkpt>
      <trkpt lat="49.50563" lon="1.08309">
        <ele>140.1</ele>
        <time>2022-04-30T12:26:26Z</time>
      </trkpt>
      <trkpt lat="49.50562" lon="1.08311">
        <ele>140.1</ele>
        <time>2022-04-30T12:26:27Z</time>
      </trkpt>
      <trkpt lat="49.50559" lon="1.08315">
        <ele>139.9</ele>
        <time>2022-04-30T12:26:28Z</time>
      </trkpt>
      <trkpt lat="49.50557" lon="1.08317">
        <ele>139.8</ele>
        <time>2022-04-30T12:26:29Z</time>
      </trkpt>
      <trkpt lat="49.50555" lon="1.0832">
        <ele>139.7</ele>
        <time>2022-04-30T12:26:30Z</time>
      </trkpt>
      <trkpt lat="49.50554" lon="1.08325">
        <ele>139.5</ele>
        <time>2022-04-30T12:26:31Z</time>
      </trkpt>
      <trkpt lat="49.50554" lon="1.08328">
        <ele>139.5</ele>
        <time>2022-04-30T12:26:32Z</time>
      </trkpt>
      <trkpt lat="49.50554" lon="1.0833">
        <ele>139.4</ele>
        <time>2022-04-30T12:26:33Z</time>
      </trkpt>
      <trkpt lat="49.50555" lon="1.08331">
        <ele>139.4</ele>
        <time>2022-04-30T12:26:34Z</time>
      </trkpt>
      <trkpt lat="49.50555" lon="1.0833">
        <ele>139.4</ele>
        <time>2022-04-30T12:26:35Z</time>
      </trkpt>
      <trkpt lat="49.50555" lon="1.08327">
        <ele>139.3</ele>
        <time>2022-04-30T12:26:36Z</time>
      </trkpt>
      <trkpt lat="49.50556" lon="1.08324">
        <ele>139.2</ele>
        <time>2022-04-30T12:26:37Z</time>
      </trkpt>
      <trkpt lat="49.50558" lon="1.08319">
        <ele>139</ele>
        <time>2022-04-30T12:26:38Z</time>
      </trkpt>
      <trkpt lat="49.50558" lon="1.08317">
        <ele>139</ele>
        <time>2022-04-30T12:26:39Z</time>
      </trkpt>
      <trkpt lat="49.5056" lon="1.08312">
        <ele>138.8</ele>
        <time>2022-04-30T12:26:40Z</time>
      </trkpt>
      <trkpt lat="49.5056" lon="1.0831">
        <ele>138.8</ele>
        <time>2022-04-30T12:26:41Z</time>
      </trkpt>
      <trkpt lat="49.5056" lon="1.08306">
        <ele>138.6</ele>
        <time>2022-04-30T12:26:42Z</time>
      </trkpt>
      <trkpt lat="49.50561" lon="1.08304">
        <ele>138.6</ele>
        <time>2022-04-30T12:26:43Z</time>
      </trkpt>
      <trkpt lat="49.50562" lon="1.083">
        <ele>138.5</ele>
        <time>2022-04-30T12:26:44Z</time>
      </trkpt>
      <trkpt lat="49.50562" lon="1.08299">
        <ele>138.4</ele>
        <time>2022-04-30T12:26:45Z</time>
      </trkpt>
      <trkpt lat="49.50564" lon="1.08295">
        <ele>138.3</ele>
        <time>2022-04-30T12:26:46Z</time>
      </trkpt>
      <trkpt lat="49.50564" lon="1.08294">
        <ele>138.2</ele>
        <time>2022-04-30T12:26:47Z</time>
      </trkpt>
      <trkpt lat="49.50567" lon="1.0829">
        <ele>138.1</ele>
        <time>2022-04-30T12:26:48Z</time>
      </trkpt>
      <trkpt lat="49.50568" lon="1.08289">
        <ele>138</ele>
        <time>2022-04-30T12:26:49Z</time>
      </trkpt>
      <trkpt lat="49.50571" lon="1.08285">
        <ele>137.8</ele>
        <time>2022-04-30T12:26:50Z</time>
      </trkpt>
      <trkpt lat="49.50574" lon="1.0828">
        <ele>137.6</ele>
        <time>2022-04-30T12:26:51Z</time>
      </trkpt>
      <trkpt lat="49.50577" lon="1.08278">
        <ele>137.4</ele>
        <time>2022-04-30T12:26:52Z</time>
      </trkpt>
      <trkpt lat="49.5058" lon="1.08275">
        <ele>137.8</ele>
        <time>2022-04-30T12:26:53Z</time>
      </trkpt>
      <trkpt lat="49.50581" lon="1.08274">
        <ele>137.9</ele>
        <time>2022-04-30T12:26:54Z</time>
      </trkpt>
      <trkpt lat="49.50586" lon="1.08275">
        <ele>138.3</ele>
        <time>2022-04-30T12:26:55Z</time>
      </trkpt>
      <trkpt lat="49.50589" lon="1.08275">
        <ele>138.5</ele>
        <time>2022-04-30T12:26:56Z</time>
      </trkpt>
      <trkpt lat="49.50592" lon="1.08276">
        <ele>138.7</ele>
        <time>2022-04-30T12:26:57Z</time>
      </trkpt>
      <trkpt lat="49.50593" lon="1.08276">
        <ele>138.8</ele>
        <time>2022-04-30T12:26:58Z</time>
      </trkpt>
      <trkpt lat="49.50594" lon="1.08276">
        <ele>138.9</ele>
        <time>2022-04-30T12:26:59Z</time>
      </trkpt>
      <trkpt lat="49.50594" lon="1.08277">
        <ele>138.9</ele>
        <time>2022-04-30T12:27:00Z</time>
      </trkpt>
      <trkpt lat="49.50595" lon="1.08277">
        <ele>138.9</ele>
        <time>2022-04-30T12:27:01Z</time>
      </trkpt>
      <trkpt lat="49.50595" lon="1.08277">
        <ele>139</ele>
        <time>2022-04-30T12:27:02Z</time>
      </trkpt>
      <trkpt lat="49.50595" lon="1.08277">
        <ele>139</ele>
        <time>2022-04-30T12:27:03Z</time>
      </trkpt>
      <trkpt lat="49.50595" lon="1.08277">
        <ele>139</ele>
        <time>2022-04-30T12:27:04Z</time>
      </trkpt>
      <trkpt lat="49.50598" lon="1.08271">
        <ele>139.3</ele>
        <time>2022-04-30T12:27:28Z</time>
      </trkpt>
      <trkpt lat="49.506" lon="1.08267">
        <ele>139.5</ele>
        <time>2022-04-30T12:27:29Z</time>
      </trkpt>
      <trkpt lat="49.50603" lon="1.08264">
        <ele>139.7</ele>
        <time>2022-04-30T12:27:30Z</time>
      </trkpt>
      <trkpt lat="49.50604" lon="1.08264">
        <ele>139.8</ele>
        <time>2022-04-30T12:27:31Z</time>
      </trkpt>
      <trkpt lat="49.50606" lon="1.08263">
        <ele>140</ele>
        <time>2022-04-30T12:27:32Z</time>
      </trkpt>
      <trkpt lat="49.50609" lon="1.0826">
        <ele>140.2</ele>
        <time>2022-04-30T12:27:33Z</time>
      </trkpt>
      <trkpt lat="49.5061" lon="1.0826">
        <ele>140.2</ele>
        <time>2022-04-30T12:27:34Z</time>
      </trkpt>
      <trkpt lat="49.50613" lon="1.08259">
        <ele>140.5</ele>
        <time>2022-04-30T12:27:35Z</time>
      </trkpt>
      <trkpt lat="49.50614" lon="1.08259">
        <ele>140.5</ele>
        <time>2022-04-30T12:27:36Z</time>
      </trkpt>
      <trkpt lat="49.50618" lon="1.08258">
        <ele>140.7</ele>
        <time>2022-04-30T12:27:37Z</time>
      </trkpt>
      <trkpt lat="49.50619" lon="1.08258">
        <ele>140.8</ele>
        <time>2022-04-30T12:27:38Z</time>
      </trkpt>
      <trkpt lat="49.50623" lon="1.08259">
        <ele>141</ele>
        <time>2022-04-30T12:27:39Z</time>
      </trkpt>
      <trkpt lat="49.50628" lon="1.0826">
        <ele>141.2</ele>
        <time>2022-04-30T12:27:40Z</time>
      </trkpt>
      <trkpt lat="49.50633" lon="1.08261">
        <ele>141.5</ele>
        <time>2022-04-30T12:27:41Z</time>
      </trkpt>
      <trkpt lat="49.50638" lon="1.08262">
        <ele>141.7</ele>
        <time>2022-04-30T12:27:42Z</time>
      </trkpt>
      <trkpt lat="49.50641" lon="1.08264">
        <ele>141.8</ele>
        <time>2022-04-30T12:27:43Z</time>
      </trkpt>
      <trkpt lat="49.50644" lon="1.08265">
        <ele>141.9</ele>
        <time>2022-04-30T12:27:44Z</time>
      </trkpt>
      <trkpt lat="49.50648" lon="1.08268">
        <ele>142.1</ele>
        <time>2022-04-30T12:27:45Z</time>
      </trkpt>
      <trkpt lat="49.50652" lon="1.08271">
        <ele>142.2</ele>
        <time>2022-04-30T12:27:46Z</time>
      </trkpt>
      <trkpt lat="49.50657" lon="1.08273">
        <ele>142.4</ele>
        <time>2022-04-30T12:27:47Z</time>
      </trkpt>
      <trkpt lat="49.50661" lon="1.08274">
        <ele>142.5</ele>
        <time>2022-04-30T12:27:48Z</time>
      </trkpt>
      <trkpt lat="49.50665" lon="1.08274">
        <ele>142.6</ele>
        <time>2022-04-30T12:27:49Z</time>
      </trkpt>
      <trkpt lat="49.50668" lon="1.08274">
        <ele>142.6</ele>
        <time>2022-04-30T12:27:50Z</time>
      </trkpt>
      <trkpt lat="49.50672" lon="1.08275">
        <ele>142.7</ele>
        <time>2022-04-30T12:27:51Z</time>
      </trkpt>
      <trkpt lat="49.50676" lon="1.08274">
        <ele>142.7</ele>
        <time>2022-04-30T12:27:52Z</time>
      </trkpt>
      <trkpt lat="49.5068" lon="1.08273">
        <ele>142.7</ele>
        <time>2022-04-30T12:27:53Z</time>
      </trkpt>
      <trkpt lat="49.50686" lon="1.08267">
        <ele>144.3</ele>
        <time>2022-04-30T12:27:54Z</time>
      </trkpt>
      <trkpt lat="49.5069" lon="1.08261">
        <ele>144.9</ele>
        <time>2022-04-30T12:27:55Z</time>
      </trkpt>
      <trkpt lat="49.50692" lon="1.08255">
        <ele>145.3</ele>
        <time>2022-04-30T12:27:56Z</time>
      </trkpt>
      <trkpt lat="49.50694" lon="1.08251">
        <ele>145.7</ele>
        <time>2022-04-30T12:27:57Z</time>
      </trkpt>
      <trkpt lat="49.50695" lon="1.08247">
        <ele>145.9</ele>
        <time>2022-04-30T12:27:58Z</time>
      </trkpt>
      <trkpt lat="49.50696" lon="1.08243">
        <ele>146.2</ele>
        <time>2022-04-30T12:27:59Z</time>
      </trkpt>
      <trkpt lat="49.50697" lon="1.08237">
        <ele>146.5</ele>
        <time>2022-04-30T12:28:00Z</time>
      </trkpt>
      <trkpt lat="49.50698" lon="1.08236">
        <ele>146.6</ele>
        <time>2022-04-30T12:28:01Z</time>
      </trkpt>
      <trkpt lat="49.50697" lon="1.08233">
        <ele>146.7</ele>
        <time>2022-04-30T12:28:02Z</time>
      </trkpt>
      <trkpt lat="49.50697" lon="1.08231">
        <ele>146.8</ele>
        <time>2022-04-30T12:28:03Z</time>
      </trkpt>
      <trkpt lat="49.50696" lon="1.0823">
        <ele>146.9</ele>
        <time>2022-04-30T12:28:04Z</time>
      </trkpt>
      <trkpt lat="49.50696" lon="1.08229">
        <ele>147</ele>
        <time>2022-04-30T12:28:05Z</time>
      </trkpt>
      <trkpt lat="49.50695" lon="1.08227">
        <ele>147</ele>
        <time>2022-04-30T12:28:06Z</time>
      </trkpt>
      <trkpt lat="49.50695" lon="1.08225">
        <ele>147.1</ele>
        <time>2022-04-30T12:28:07Z</time>
      </trkpt>
      <trkpt lat="49.50695" lon="1.08224">
        <ele>147.2</ele>
        <time>2022-04-30T12:28:08Z</time>
      </trkpt>
      <trkpt lat="49.50695" lon="1.08223">
        <ele>147.2</ele>
        <time>2022-04-30T12:28:09Z</time>
      </trkpt>
      <trkpt lat="49.50695" lon="1.08222">
        <ele>147.3</ele>
        <time>2022-04-30T12:28:10Z</time>
      </trkpt>
      <trkpt lat="49.50694" lon="1.08213">
        <ele>147.6</ele>
        <time>2022-04-30T12:28:11Z</time>
      </trkpt>
      <trkpt lat="49.50693" lon="1.08207">
        <ele>147.8</ele>
        <time>2022-04-30T12:28:12Z</time>
      </trkpt>
      <trkpt lat="49.50692" lon="1.08201">
        <ele>148</ele>
        <time>2022-04-30T12:28:13Z</time>
      </trkpt>
      <trkpt lat="49.5069" lon="1.08197">
        <ele>148.2</ele>
        <time>2022-04-30T12:28:14Z</time>
      </trkpt>
      <trkpt lat="49.50686" lon="1.08191">
        <ele>148.5</ele>
        <time>2022-04-30T12:28:15Z</time>
      </trkpt>
      <trkpt lat="49.50682" lon="1.08184">
        <ele>148.7</ele>
        <time>2022-04-30T12:28:16Z</time>
      </trkpt>
      <trkpt lat="49.50678" lon="1.08177">
        <ele>148.9</ele>
        <time>2022-04-30T12:28:17Z</time>
      </trkpt>
      <trkpt lat="49.50676" lon="1.08173">
        <ele>149</ele>
        <time>2022-04-30T12:28:18Z</time>
      </trkpt>
      <trkpt lat="49.50675" lon="1.08171">
        <ele>149.1</ele>
        <time>2022-04-30T12:28:19Z</time>
      </trkpt>
      <trkpt lat="49.50675" lon="1.08169">
        <ele>149.1</ele>
        <time>2022-04-30T12:28:20Z</time>
      </trkpt>
      <trkpt lat="49.50674" lon="1.08168">
        <ele>149.1</ele>
        <time>2022-04-30T12:28:21Z</time>
      </trkpt>
      <trkpt lat="49.50674" lon="1.08167">
        <ele>149.2</ele>
        <time>2022-04-30T12:28:22Z</time>
      </trkpt>
      <trkpt lat="49.50674" lon="1.08166">
        <ele>149.2</ele>
        <time>2022-04-30T12:28:23Z</time>
      </trkpt>
      <trkpt lat="49.50673" lon="1.08166">
        <ele>149.2</ele>
        <time>2022-04-30T12:28:24Z</time>
      </trkpt>
      <trkpt lat="49.50673" lon="1.08165">
        <ele>149.2</ele>
        <time>2022-04-30T12:28:25Z</time>
      </trkpt>
      <trkpt lat="49.50673" lon="1.08164">
        <ele>149.2</ele>
        <time>2022-04-30T12:28:26Z</time>
      </trkpt>
      <trkpt lat="49.50672" lon="1.08163">
        <ele>149.3</ele>
        <time>2022-04-30T12:28:27Z</time>
      </trkpt>
      <trkpt lat="49.50672" lon="1.08162">
        <ele>149.3</ele>
        <time>2022-04-30T12:28:28Z</time>
      </trkpt>
      <trkpt lat="49.50672" lon="1.08161">
        <ele>149.3</ele>
        <time>2022-04-30T12:28:29Z</time>
      </trkpt>
      <trkpt lat="49.50671" lon="1.0816">
        <ele>149.3</ele>
        <time>2022-04-30T12:28:30Z</time>
      </trkpt>
      <trkpt lat="49.50669" lon="1.08152">
        <ele>149.5</ele>
        <time>2022-04-30T12:28:31Z</time>
      </trkpt>
      <trkpt lat="49.50666" lon="1.08143">
        <ele>149.7</ele>
        <time>2022-04-30T12:28:32Z</time>
      </trkpt>
      <trkpt lat="49.50664" lon="1.08137">
        <ele>149.8</ele>
        <time>2022-04-30T12:28:33Z</time>
      </trkpt>
      <trkpt lat="49.50663" lon="1.08133">
        <ele>149.8</ele>
        <time>2022-04-30T12:28:34Z</time>
      </trkpt>
      <trkpt lat="49.50661" lon="1.08129">
        <ele>149.9</ele>
        <time>2022-04-30T12:28:35Z</time>
      </trkpt>
      <trkpt lat="49.5066" lon="1.08124">
        <ele>150</ele>
        <time>2022-04-30T12:28:36Z</time>
      </trkpt>
      <trkpt lat="49.5066" lon="1.08122">
        <ele>150</ele>
        <time>2022-04-30T12:28:37Z</time>
      </trkpt>
      <trkpt lat="49.50659" lon="1.08118">
        <ele>150.1</ele>
        <time>2022-04-30T12:28:38Z</time>
      </trkpt>
      <trkpt lat="49.50659" lon="1.08117">
        <ele>150.1</ele>
        <time>2022-04-30T12:28:39Z</time>
      </trkpt>
      <trkpt lat="49.50659" lon="1.08114">
        <ele>150.1</ele>
        <time>2022-04-30T12:28:40Z</time>
      </trkpt>
      <trkpt lat="49.50658" lon="1.08112">
        <ele>150.2</ele>
        <time>2022-04-30T12:28:41Z</time>
      </trkpt>
      <trkpt lat="49.50657" lon="1.08107">
        <ele>150.2</ele>
        <time>2022-04-30T12:28:42Z</time>
      </trkpt>
      <trkpt lat="49.50657" lon="1.08105">
        <ele>150.2</ele>
        <time>2022-04-30T12:28:43Z</time>
      </trkpt>
      <trkpt lat="49.50656" lon="1.08099">
        <ele>150.3</ele>
        <time>2022-04-30T12:28:44Z</time>
      </trkpt>
      <trkpt lat="49.50649" lon="1.08068">
        <ele>150.6</ele>
        <time>2022-04-30T12:28:45Z</time>
      </trkpt>
      <trkpt lat="49.50647" lon="1.08058">
        <ele>150.7</ele>
        <time>2022-04-30T12:28:46Z</time>
      </trkpt>
      <trkpt lat="49.50644" lon="1.08041">
        <ele>150.8</ele>
        <time>2022-04-30T12:28:47Z</time>
      </trkpt>
      <trkpt lat="49.50641" lon="1.0803">
        <ele>150.8</ele>
        <time>2022-04-30T12:28:48Z</time>
      </trkpt>
      <trkpt lat="49.50638" lon="1.08023">
        <ele>150.7</ele>
        <time>2022-04-30T12:28:49Z</time>
      </trkpt>
      <trkpt lat="49.50637" lon="1.08019">
        <ele>150.7</ele>
        <time>2022-04-30T12:28:50Z</time>
      </trkpt>
      <trkpt lat="49.50635" lon="1.08015">
        <ele>150.7</ele>
        <time>2022-04-30T12:28:51Z</time>
      </trkpt>
      <trkpt lat="49.50633" lon="1.08012">
        <ele>150.7</ele>
        <time>2022-04-30T12:28:52Z</time>
      </trkpt>
      <trkpt lat="49.50632" lon="1.08006">
        <ele>150.6</ele>
        <time>2022-04-30T12:28:53Z</time>
      </trkpt>
      <trkpt lat="49.50629" lon="1.08003">
        <ele>150.6</ele>
        <time>2022-04-30T12:28:54Z</time>
      </trkpt>
      <trkpt lat="49.50626" lon="1.08002">
        <ele>150.5</ele>
        <time>2022-04-30T12:28:55Z</time>
      </trkpt>
      <trkpt lat="49.50624" lon="1.07999">
        <ele>150.5</ele>
        <time>2022-04-30T12:28:56Z</time>
      </trkpt>
      <trkpt lat="49.50623" lon="1.07994">
        <ele>150.4</ele>
        <time>2022-04-30T12:28:57Z</time>
      </trkpt>
      <trkpt lat="49.50622" lon="1.07988">
        <ele>150.4</ele>
        <time>2022-04-30T12:28:58Z</time>
      </trkpt>
      <trkpt lat="49.50622" lon="1.07976">
        <ele>150.3</ele>
        <time>2022-04-30T12:28:59Z</time>
      </trkpt>
      <trkpt lat="49.50621" lon="1.07965">
        <ele>150.2</ele>
        <time>2022-04-30T12:29:00Z</time>
      </trkpt>
      <trkpt lat="49.5062" lon="1.07957">
        <ele>150.2</ele>
        <time>2022-04-30T12:29:01Z</time>
      </trkpt>
      <trkpt lat="49.5062" lon="1.07948">
        <ele>150.1</ele>
        <time>2022-04-30T12:29:02Z</time>
      </trkpt>
      <trkpt lat="49.50621" lon="1.07938">
        <ele>150.1</ele>
        <time>2022-04-30T12:29:03Z</time>
      </trkpt>
      <trkpt lat="49.50622" lon="1.07931">
        <ele>150.2</ele>
        <time>2022-04-30T12:29:04Z</time>
      </trkpt>
      <trkpt lat="49.50621" lon="1.07925">
        <ele>150.2</ele>
        <time>2022-04-30T12:29:05Z</time>
      </trkpt>
      <trkpt lat="49.50622" lon="1.0792">
        <ele>150.2</ele>
        <time>2022-04-30T12:29:06Z</time>
      </trkpt>
      <trkpt lat="49.50623" lon="1.07915">
        <ele>150.3</ele>
        <time>2022-04-30T12:29:07Z</time>
      </trkpt>
      <trkpt lat="49.50624" lon="1.07908">
        <ele>150.3</ele>
        <time>2022-04-30T12:29:08Z</time>
      </trkpt>
      <trkpt lat="49.50626" lon="1.07901">
        <ele>150.4</ele>
        <time>2022-04-30T12:29:09Z</time>
      </trkpt>
      <trkpt lat="49.50628" lon="1.07894">
        <ele>150.4</ele>
        <time>2022-04-30T12:29:10Z</time>
      </trkpt>
      <trkpt lat="49.5063" lon="1.07888">
        <ele>150.5</ele>
        <time>2022-04-30T12:29:11Z</time>
      </trkpt>
      <trkpt lat="49.50632" lon="1.07883">
        <ele>150.5</ele>
        <time>2022-04-30T12:29:12Z</time>
      </trkpt>
      <trkpt lat="49.50634" lon="1.07879">
        <ele>150.5</ele>
        <time>2022-04-30T12:29:13Z</time>
      </trkpt>
      <trkpt lat="49.50637" lon="1.07876">
        <ele>150.6</ele>
        <time>2022-04-30T12:29:14Z</time>
      </trkpt>
      <trkpt lat="49.5064" lon="1.07872">
        <ele>150.6</ele>
        <time>2022-04-30T12:29:15Z</time>
      </trkpt>
      <trkpt lat="49.50642" lon="1.0787">
        <ele>150.6</ele>
        <time>2022-04-30T12:29:16Z</time>
      </trkpt>
      <trkpt lat="49.50643" lon="1.07867">
        <ele>150.6</ele>
        <time>2022-04-30T12:29:17Z</time>
      </trkpt>
      <trkpt lat="49.50645" lon="1.07862">
        <ele>150.5</ele>
        <time>2022-04-30T12:29:18Z</time>
      </trkpt>
      <trkpt lat="49.50646" lon="1.07856">
        <ele>150.5</ele>
        <time>2022-04-30T12:29:19Z</time>
      </trkpt>
      <trkpt lat="49.50646" lon="1.0785">
        <ele>150.4</ele>
        <time>2022-04-30T12:29:20Z</time>
      </trkpt>
      <trkpt lat="49.50646" lon="1.07843">
        <ele>150.3</ele>
        <time>2022-04-30T12:29:21Z</time>
      </trkpt>
      <trkpt lat="49.50645" lon="1.07837">
        <ele>150.2</ele>
        <time>2022-04-30T12:29:22Z</time>
      </trkpt>
      <trkpt lat="49.50644" lon="1.07831">
        <ele>150.1</ele>
        <time>2022-04-30T12:29:23Z</time>
      </trkpt>
      <trkpt lat="49.50643" lon="1.07823">
        <ele>150</ele>
        <time>2022-04-30T12:29:24Z</time>
      </trkpt>
      <trkpt lat="49.50641" lon="1.07815">
        <ele>149.8</ele>
        <time>2022-04-30T12:29:25Z</time>
      </trkpt>
      <trkpt lat="49.50638" lon="1.07806">
        <ele>149.6</ele>
        <time>2022-04-30T12:29:26Z</time>
      </trkpt>
      <trkpt lat="49.50634" lon="1.07802">
        <ele>149.3</ele>
        <time>2022-04-30T12:29:27Z</time>
      </trkpt>
      <trkpt lat="49.5063" lon="1.07796">
        <ele>149.1</ele>
        <time>2022-04-30T12:29:28Z</time>
      </trkpt>
      <trkpt lat="49.50626" lon="1.07792">
        <ele>148.8</ele>
        <time>2022-04-30T12:29:29Z</time>
      </trkpt>
      <trkpt lat="49.50622" lon="1.07788">
        <ele>148.6</ele>
        <time>2022-04-30T12:29:30Z</time>
      </trkpt>
      <trkpt lat="49.5062" lon="1.07784">
        <ele>148.4</ele>
        <time>2022-04-30T12:29:31Z</time>
      </trkpt>
      <trkpt lat="49.50618" lon="1.07777">
        <ele>148.1</ele>
        <time>2022-04-30T12:29:32Z</time>
      </trkpt>
      <trkpt lat="49.50616" lon="1.07769">
        <ele>147.8</ele>
        <time>2022-04-30T12:29:33Z</time>
      </trkpt>
      <trkpt lat="49.50614" lon="1.07764">
        <ele>147.6</ele>
        <time>2022-04-30T12:29:34Z</time>
      </trkpt>
      <trkpt lat="49.50611" lon="1.0776">
        <ele>147.3</ele>
        <time>2022-04-30T12:29:35Z</time>
      </trkpt>
      <trkpt lat="49.50604" lon="1.07757">
        <ele>146.7</ele>
        <time>2022-04-30T12:29:36Z</time>
      </trkpt>
      <trkpt lat="49.50598" lon="1.07753">
        <ele>146.2</ele>
        <time>2022-04-30T12:29:37Z</time>
      </trkpt>
      <trkpt lat="49.50592" lon="1.07749">
        <ele>145.6</ele>
        <time>2022-04-30T12:29:38Z</time>
      </trkpt>
      <trkpt lat="49.50588" lon="1.07741">
        <ele>144.9</ele>
        <time>2022-04-30T12:29:39Z</time>
      </trkpt>
      <trkpt lat="49.50586" lon="1.07733">
        <ele>144.2</ele>
        <time>2022-04-30T12:29:40Z</time>
      </trkpt>
      <trkpt lat="49.50584" lon="1.07726">
        <ele>143.5</ele>
        <time>2022-04-30T12:29:41Z</time>
      </trkpt>
      <trkpt lat="49.5058" lon="1.07719">
        <ele>142.8</ele>
        <time>2022-04-30T12:29:42Z</time>
      </trkpt>
      <trkpt lat="49.50575" lon="1.07712">
        <ele>142.2</ele>
        <time>2022-04-30T12:29:43Z</time>
      </trkpt>
      <trkpt lat="49.50568" lon="1.07707">
        <ele>141.8</ele>
        <time>2022-04-30T12:29:44Z</time>
      </trkpt>
      <trkpt lat="49.50564" lon="1.077">
        <ele>141.8</ele>
        <time>2022-04-30T12:29:45Z</time>
      </trkpt>
      <trkpt lat="49.50558" lon="1.07694">
        <ele>142</ele>
        <time>2022-04-30T12:29:46Z</time>
      </trkpt>
      <trkpt lat="49.50553" lon="1.07687">
        <ele>142.4</ele>
        <time>2022-04-30T12:29:47Z</time>
      </trkpt>
      <trkpt lat="49.50551" lon="1.07679">
        <ele>142.9</ele>
        <time>2022-04-30T12:29:48Z</time>
      </trkpt>
      <trkpt lat="49.5055" lon="1.07669">
        <ele>143.5</ele>
        <time>2022-04-30T12:29:49Z</time>
      </trkpt>
      <trkpt lat="49.50549" lon="1.07662">
        <ele>143.9</ele>
        <time>2022-04-30T12:29:50Z</time>
      </trkpt>
      <trkpt lat="49.50547" lon="1.07656">
        <ele>144.3</ele>
        <time>2022-04-30T12:29:51Z</time>
      </trkpt>
      <trkpt lat="49.50547" lon="1.07653">
        <ele>144.4</ele>
        <time>2022-04-30T12:29:52Z</time>
      </trkpt>
      <trkpt lat="49.50548" lon="1.07651">
        <ele>144.5</ele>
        <time>2022-04-30T12:29:53Z</time>
      </trkpt>
      <trkpt lat="49.50547" lon="1.07646">
        <ele>144.6</ele>
        <time>2022-04-30T12:29:54Z</time>
      </trkpt>
      <trkpt lat="49.50546" lon="1.07641">
        <ele>144.8</ele>
        <time>2022-04-30T12:29:55Z</time>
      </trkpt>
      <trkpt lat="49.50546" lon="1.07636">
        <ele>144.9</ele>
        <time>2022-04-30T12:29:56Z</time>
      </trkpt>
      <trkpt lat="49.50546" lon="1.0763">
        <ele>145</ele>
        <time>2022-04-30T12:29:57Z</time>
      </trkpt>
      <trkpt lat="49.50545" lon="1.07625">
        <ele>145</ele>
        <time>2022-04-30T12:29:58Z</time>
      </trkpt>
      <trkpt lat="49.50543" lon="1.07622">
        <ele>145</ele>
        <time>2022-04-30T12:29:59Z</time>
      </trkpt>
      <trkpt lat="49.50538" lon="1.07618">
        <ele>145</ele>
        <time>2022-04-30T12:30:00Z</time>
      </trkpt>
      <trkpt lat="49.50534" lon="1.07614">
        <ele>145</ele>
        <time>2022-04-30T12:30:01Z</time>
      </trkpt>
      <trkpt lat="49.5053" lon="1.07611">
        <ele>145</ele>
        <time>2022-04-30T12:30:02Z</time>
      </trkpt>
      <trkpt lat="49.50527" lon="1.07608">
        <ele>144.9</ele>
        <time>2022-04-30T12:30:03Z</time>
      </trkpt>
      <trkpt lat="49.50523" lon="1.07606">
        <ele>144.9</ele>
        <time>2022-04-30T12:30:04Z</time>
      </trkpt>
      <trkpt lat="49.5052" lon="1.07602">
        <ele>144.8</ele>
        <time>2022-04-30T12:30:05Z</time>
      </trkpt>
      <trkpt lat="49.50517" lon="1.07599">
        <ele>144.8</ele>
        <time>2022-04-30T12:30:06Z</time>
      </trkpt>
      <trkpt lat="49.50515" lon="1.07595">
        <ele>144.7</ele>
        <time>2022-04-30T12:30:07Z</time>
      </trkpt>
      <trkpt lat="49.50515" lon="1.07594">
        <ele>144.7</ele>
        <time>2022-04-30T12:30:08Z</time>
      </trkpt>
      <trkpt lat="49.50513" lon="1.07589">
        <ele>144.7</ele>
        <time>2022-04-30T12:30:09Z</time>
      </trkpt>
      <trkpt lat="49.5051" lon="1.07585">
        <ele>144.6</ele>
        <time>2022-04-30T12:30:10Z</time>
      </trkpt>
      <trkpt lat="49.50508" lon="1.07583">
        <ele>144.5</ele>
        <time>2022-04-30T12:30:11Z</time>
      </trkpt>
      <trkpt lat="49.50504" lon="1.0758">
        <ele>144.5</ele>
        <time>2022-04-30T12:30:12Z</time>
      </trkpt>
      <trkpt lat="49.50501" lon="1.07576">
        <ele>144.4</ele>
        <time>2022-04-30T12:30:13Z</time>
      </trkpt>
      <trkpt lat="49.50499" lon="1.07569">
        <ele>144.3</ele>
        <time>2022-04-30T12:30:14Z</time>
      </trkpt>
      <trkpt lat="49.50496" lon="1.07565">
        <ele>144.2</ele>
        <time>2022-04-30T12:30:15Z</time>
      </trkpt>
      <trkpt lat="49.50493" lon="1.07561">
        <ele>144.2</ele>
        <time>2022-04-30T12:30:16Z</time>
      </trkpt>
      <trkpt lat="49.5049" lon="1.07556">
        <ele>144.1</ele>
        <time>2022-04-30T12:30:17Z</time>
      </trkpt>
      <trkpt lat="49.50487" lon="1.07548">
        <ele>143.9</ele>
        <time>2022-04-30T12:30:18Z</time>
      </trkpt>
      <trkpt lat="49.50483" lon="1.07542">
        <ele>143.8</ele>
        <time>2022-04-30T12:30:19Z</time>
      </trkpt>
      <trkpt lat="49.50479" lon="1.07538">
        <ele>143.6</ele>
        <time>2022-04-30T12:30:20Z</time>
      </trkpt>
      <trkpt lat="49.50474" lon="1.07532">
        <ele>143.4</ele>
        <time>2022-04-30T12:30:21Z</time>
      </trkpt>
      <trkpt lat="49.50471" lon="1.07527">
        <ele>143.1</ele>
        <time>2022-04-30T12:30:22Z</time>
      </trkpt>
      <trkpt lat="49.50469" lon="1.07523">
        <ele>143</ele>
        <time>2022-04-30T12:30:23Z</time>
      </trkpt>
      <trkpt lat="49.50466" lon="1.07521">
        <ele>142.8</ele>
        <time>2022-04-30T12:30:24Z</time>
      </trkpt>
      <trkpt lat="49.50465" lon="1.0752">
        <ele>142.7</ele>
        <time>2022-04-30T12:30:25Z</time>
      </trkpt>
      <trkpt lat="49.50464" lon="1.07519">
        <ele>142.7</ele>
        <time>2022-04-30T12:30:26Z</time>
      </trkpt>
      <trkpt lat="49.50464" lon="1.07518">
        <ele>142.7</ele>
        <time>2022-04-30T12:30:27Z</time>
      </trkpt>
      <trkpt lat="49.50463" lon="1.07518">
        <ele>142.6</ele>
        <time>2022-04-30T12:30:28Z</time>
      </trkpt>
      <trkpt lat="49.50463" lon="1.07517">
        <ele>142.6</ele>
        <time>2022-04-30T12:30:29Z</time>
      </trkpt>
      <trkpt lat="49.50463" lon="1.07517">
        <ele>142.6</ele>
        <time>2022-04-30T12:30:30Z</time>
      </trkpt>
      <trkpt lat="49.50462" lon="1.07516">
        <ele>142.5</ele>
        <time>2022-04-30T12:30:31Z</time>
      </trkpt>
      <trkpt lat="49.5046" lon="1.07514">
        <ele>142.4</ele>
        <time>2022-04-30T12:30:32Z</time>
      </trkpt>
      <trkpt lat="49.50457" lon="1.0751">
        <ele>142.1</ele>
        <time>2022-04-30T12:30:33Z</time>
      </trkpt>
      <trkpt lat="49.50454" lon="1.07508">
        <ele>142</ele>
        <time>2022-04-30T12:30:34Z</time>
      </trkpt>
      <trkpt lat="49.50451" lon="1.07505">
        <ele>141.8</ele>
        <time>2022-04-30T12:30:35Z</time>
      </trkpt>
      <trkpt lat="49.50449" lon="1.07503">
        <ele>141.6</ele>
        <time>2022-04-30T12:30:36Z</time>
      </trkpt>
      <trkpt lat="49.50446" lon="1.07499">
        <ele>141.3</ele>
        <time>2022-04-30T12:30:37Z</time>
      </trkpt>
      <trkpt lat="49.50442" lon="1.07495">
        <ele>141</ele>
        <time>2022-04-30T12:30:38Z</time>
      </trkpt>
      <trkpt lat="49.50423" lon="1.07478">
        <ele>138.9</ele>
        <time>2022-04-30T12:30:39Z</time>
      </trkpt>
      <trkpt lat="49.50418" lon="1.07473">
        <ele>138</ele>
        <time>2022-04-30T12:30:40Z</time>
      </trkpt>
      <trkpt lat="49.50408" lon="1.07463">
        <ele>136.2</ele>
        <time>2022-04-30T12:30:41Z</time>
      </trkpt>
      <trkpt lat="49.50402" lon="1.07457">
        <ele>134.8</ele>
        <time>2022-04-30T12:30:42Z</time>
      </trkpt>
      <trkpt lat="49.50397" lon="1.07452">
        <ele>133.7</ele>
        <time>2022-04-30T12:30:43Z</time>
      </trkpt>
      <trkpt lat="49.50392" lon="1.07447">
        <ele>132.7</ele>
        <time>2022-04-30T12:30:44Z</time>
      </trkpt>
      <trkpt lat="49.50385" lon="1.07443">
        <ele>131.6</ele>
        <time>2022-04-30T12:30:45Z</time>
      </trkpt>
      <trkpt lat="49.50379" lon="1.07435">
        <ele>130.8</ele>
        <time>2022-04-30T12:30:46Z</time>
      </trkpt>
      <trkpt lat="49.50375" lon="1.07428">
        <ele>130.4</ele>
        <time>2022-04-30T12:30:47Z</time>
      </trkpt>
      <trkpt lat="49.50371" lon="1.07419">
        <ele>129.9</ele>
        <time>2022-04-30T12:30:48Z</time>
      </trkpt>
      <trkpt lat="49.50368" lon="1.07412">
        <ele>129.7</ele>
        <time>2022-04-30T12:30:49Z</time>
      </trkpt>
      <trkpt lat="49.50366" lon="1.07408">
        <ele>129.6</ele>
        <time>2022-04-30T12:30:50Z</time>
      </trkpt>
      <trkpt lat="49.50363" lon="1.07406">
        <ele>129.5</ele>
        <time>2022-04-30T12:30:51Z</time>
      </trkpt>
      <trkpt lat="49.50362" lon="1.07406">
        <ele>129.5</ele>
        <time>2022-04-30T12:30:52Z</time>
      </trkpt>
      <trkpt lat="49.50359" lon="1.07404">
        <ele>129.6</ele>
        <time>2022-04-30T12:30:53Z</time>
      </trkpt>
      <trkpt lat="49.50358" lon="1.07403">
        <ele>129.6</ele>
        <time>2022-04-30T12:30:54Z</time>
      </trkpt>
      <trkpt lat="49.50357" lon="1.07399">
        <ele>129.6</ele>
        <time>2022-04-30T12:30:55Z</time>
      </trkpt>
      <trkpt lat="49.50355" lon="1.07395">
        <ele>129.7</ele>
        <time>2022-04-30T12:30:56Z</time>
      </trkpt>
      <trkpt lat="49.50353" lon="1.07392">
        <ele>129.8</ele>
        <time>2022-04-30T12:30:57Z</time>
      </trkpt>
      <trkpt lat="49.50349" lon="1.07389">
        <ele>130</ele>
        <time>2022-04-30T12:30:58Z</time>
      </trkpt>
      <trkpt lat="49.50348" lon="1.07388">
        <ele>130.1</ele>
        <time>2022-04-30T12:30:59Z</time>
      </trkpt>
      <trkpt lat="49.50345" lon="1.07385">
        <ele>130.3</ele>
        <time>2022-04-30T12:31:00Z</time>
      </trkpt>
      <trkpt lat="49.50344" lon="1.07385">
        <ele>130.3</ele>
        <time>2022-04-30T12:31:01Z</time>
      </trkpt>
      <trkpt lat="49.50342" lon="1.07382">
        <ele>130.5</ele>
        <time>2022-04-30T12:31:02Z</time>
      </trkpt>
      <trkpt lat="49.50339" lon="1.07378">
        <ele>130.8</ele>
        <time>2022-04-30T12:31:03Z</time>
      </trkpt>
      <trkpt lat="49.50336" lon="1.07374">
        <ele>131.1</ele>
        <time>2022-04-30T12:31:04Z</time>
      </trkpt>
      <trkpt lat="49.50334" lon="1.07371">
        <ele>131.3</ele>
        <time>2022-04-30T12:31:05Z</time>
      </trkpt>
      <trkpt lat="49.50329" lon="1.07366">
        <ele>131.8</ele>
        <time>2022-04-30T12:31:06Z</time>
      </trkpt>
      <trkpt lat="49.50325" lon="1.07363">
        <ele>132.1</ele>
        <time>2022-04-30T12:31:07Z</time>
      </trkpt>
      <trkpt lat="49.50322" lon="1.07359">
        <ele>132.4</ele>
        <time>2022-04-30T12:31:08Z</time>
      </trkpt>
      <trkpt lat="49.5032" lon="1.07357">
        <ele>132.7</ele>
        <time>2022-04-30T12:31:09Z</time>
      </trkpt>
      <trkpt lat="49.50317" lon="1.07354">
        <ele>133</ele>
        <time>2022-04-30T12:31:10Z</time>
      </trkpt>
      <trkpt lat="49.50316" lon="1.07353">
        <ele>133.1</ele>
        <time>2022-04-30T12:31:11Z</time>
      </trkpt>
      <trkpt lat="49.50312" lon="1.07349">
        <ele>133.6</ele>
        <time>2022-04-30T12:31:12Z</time>
      </trkpt>
      <trkpt lat="49.5031" lon="1.07347">
        <ele>133.9</ele>
        <time>2022-04-30T12:31:13Z</time>
      </trkpt>
      <trkpt lat="49.50307" lon="1.07345">
        <ele>134.2</ele>
        <time>2022-04-30T12:31:14Z</time>
      </trkpt>
      <trkpt lat="49.50304" lon="1.07343">
        <ele>134.5</ele>
        <time>2022-04-30T12:31:15Z</time>
      </trkpt>
      <trkpt lat="49.50301" lon="1.07342">
        <ele>134.9</ele>
        <time>2022-04-30T12:31:16Z</time>
      </trkpt>
      <trkpt lat="49.50298" lon="1.0734">
        <ele>135.2</ele>
        <time>2022-04-30T12:31:17Z</time>
      </trkpt>
      <trkpt lat="49.50295" lon="1.07336">
        <ele>135.6</ele>
        <time>2022-04-30T12:31:18Z</time>
      </trkpt>
      <trkpt lat="49.50294" lon="1.07335">
        <ele>135.7</ele>
        <time>2022-04-30T12:31:19Z</time>
      </trkpt>
      <trkpt lat="49.50291" lon="1.07334">
        <ele>136</ele>
        <time>2022-04-30T12:31:20Z</time>
      </trkpt>
      <trkpt lat="49.50287" lon="1.07333">
        <ele>136.4</ele>
        <time>2022-04-30T12:31:21Z</time>
      </trkpt>
      <trkpt lat="49.50285" lon="1.07332">
        <ele>136.5</ele>
        <time>2022-04-30T12:31:22Z</time>
      </trkpt>
      <trkpt lat="49.50285" lon="1.07331">
        <ele>136.6</ele>
        <time>2022-04-30T12:31:23Z</time>
      </trkpt>
      <trkpt lat="49.50284" lon="1.07331">
        <ele>136.6</ele>
        <time>2022-04-30T12:31:24Z</time>
      </trkpt>
      <trkpt lat="49.50284" lon="1.07331">
        <ele>136.6</ele>
        <time>2022-04-30T12:31:25Z</time>
      </trkpt>
      <trkpt lat="49.50284" lon="1.07331">
        <ele>136.6</ele>
        <time>2022-04-30T12:31:26Z</time>
      </trkpt>
      <trkpt lat="49.50284" lon="1.07331">
        <ele>136.6</ele>
        <time>2022-04-30T12:31:27Z</time>
      </trkpt>
      <trkpt lat="49.50281" lon="1.07329">
        <ele>136.9</ele>
        <time>2022-04-30T12:31:28Z</time>
      </trkpt>
      <trkpt lat="49.50277" lon="1.07326">
        <ele>137.3</ele>
        <time>2022-04-30T12:31:29Z</time>
      </trkpt>
      <trkpt lat="49.50274" lon="1.07323">
        <ele>137.5</ele>
        <time>2022-04-30T12:31:30Z</time>
      </trkpt>
      <trkpt lat="49.50274" lon="1.07322">
        <ele>137.6</ele>
        <time>2022-04-30T12:31:31Z</time>
      </trkpt>
      <trkpt lat="49.50272" lon="1.0732">
        <ele>137.7</ele>
        <time>2022-04-30T12:31:32Z</time>
      </trkpt>
      <trkpt lat="49.50271" lon="1.07319">
        <ele>137.8</ele>
        <time>2022-04-30T12:31:33Z</time>
      </trkpt>
      <trkpt lat="49.5027" lon="1.07317">
        <ele>137.9</ele>
        <time>2022-04-30T12:31:34Z</time>
      </trkpt>
      <trkpt lat="49.50269" lon="1.07316">
        <ele>138</ele>
        <time>2022-04-30T12:31:35Z</time>
      </trkpt>
      <trkpt lat="49.50268" lon="1.07315">
        <ele>138.1</ele>
        <time>2022-04-30T12:31:36Z</time>
      </trkpt>
      <trkpt lat="49.50266" lon="1.07314">
        <ele>138.2</ele>
        <time>2022-04-30T12:31:37Z</time>
      </trkpt>
      <trkpt lat="49.50265" lon="1.07313">
        <ele>138.3</ele>
        <time>2022-04-30T12:31:38Z</time>
      </trkpt>
      <trkpt lat="49.50263" lon="1.07312">
        <ele>138.3</ele>
        <time>2022-04-30T12:31:39Z</time>
      </trkpt>
      <trkpt lat="49.5026" lon="1.07311">
        <ele>138.5</ele>
        <time>2022-04-30T12:31:40Z</time>
      </trkpt>
      <trkpt lat="49.50259" lon="1.0731">
        <ele>138.5</ele>
        <time>2022-04-30T12:31:41Z</time>
      </trkpt>
      <trkpt lat="49.50256" lon="1.07308">
        <ele>138.7</ele>
        <time>2022-04-30T12:31:42Z</time>
      </trkpt>
      <trkpt lat="49.50255" lon="1.07308">
        <ele>138.7</ele>
        <time>2022-04-30T12:31:43Z</time>
      </trkpt>
      <trkpt lat="49.50251" lon="1.07306">
        <ele>138.8</ele>
        <time>2022-04-30T12:31:44Z</time>
      </trkpt>
      <trkpt lat="49.50249" lon="1.07305">
        <ele>138.8</ele>
        <time>2022-04-30T12:31:45Z</time>
      </trkpt>
      <trkpt lat="49.50246" lon="1.07303">
        <ele>138.9</ele>
        <time>2022-04-30T12:31:46Z</time>
      </trkpt>
      <trkpt lat="49.50242" lon="1.07301">
        <ele>138.9</ele>
        <time>2022-04-30T12:31:47Z</time>
      </trkpt>
      <trkpt lat="49.5024" lon="1.073">
        <ele>139</ele>
        <time>2022-04-30T12:31:48Z</time>
      </trkpt>
      <trkpt lat="49.50236" lon="1.07298">
        <ele>139</ele>
        <time>2022-04-30T12:31:49Z</time>
      </trkpt>
      <trkpt lat="49.50235" lon="1.07297">
        <ele>139.1</ele>
        <time>2022-04-30T12:31:50Z</time>
      </trkpt>
      <trkpt lat="49.50232" lon="1.07296">
        <ele>139.1</ele>
        <time>2022-04-30T12:31:51Z</time>
      </trkpt>
      <trkpt lat="49.50228" lon="1.07293">
        <ele>139.2</ele>
        <time>2022-04-30T12:31:52Z</time>
      </trkpt>
      <trkpt lat="49.50227" lon="1.07292">
        <ele>139.3</ele>
        <time>2022-04-30T12:31:53Z</time>
      </trkpt>
      <trkpt lat="49.50224" lon="1.07289">
        <ele>139.4</ele>
        <time>2022-04-30T12:31:54Z</time>
      </trkpt>
      <trkpt lat="49.50221" lon="1.07286">
        <ele>139.5</ele>
        <time>2022-04-30T12:31:55Z</time>
      </trkpt>
      <trkpt lat="49.50218" lon="1.07283">
        <ele>139.6</ele>
        <time>2022-04-30T12:31:56Z</time>
      </trkpt>
      <trkpt lat="49.50215" lon="1.07281">
        <ele>139.8</ele>
        <time>2022-04-30T12:31:57Z</time>
      </trkpt>
      <trkpt lat="49.50211" lon="1.07278">
        <ele>139.9</ele>
        <time>2022-04-30T12:31:58Z</time>
      </trkpt>
      <trkpt lat="49.50208" lon="1.07276">
        <ele>140</ele>
        <time>2022-04-30T12:31:59Z</time>
      </trkpt>
      <trkpt lat="49.50206" lon="1.07273">
        <ele>140.1</ele>
        <time>2022-04-30T12:32:00Z</time>
      </trkpt>
      <trkpt lat="49.50203" lon="1.07271">
        <ele>140.2</ele>
        <time>2022-04-30T12:32:01Z</time>
      </trkpt>
      <trkpt lat="49.502" lon="1.07268">
        <ele>140.2</ele>
        <time>2022-04-30T12:32:02Z</time>
      </trkpt>
      <trkpt lat="49.50198" lon="1.07266">
        <ele>140.3</ele>
        <time>2022-04-30T12:32:03Z</time>
      </trkpt>
      <trkpt lat="49.50195" lon="1.07264">
        <ele>140.3</ele>
        <time>2022-04-30T12:32:04Z</time>
      </trkpt>
      <trkpt lat="49.50192" lon="1.0726">
        <ele>140.4</ele>
        <time>2022-04-30T12:32:05Z</time>
      </trkpt>
      <trkpt lat="49.50189" lon="1.07257">
        <ele>140.4</ele>
        <time>2022-04-30T12:32:06Z</time>
      </trkpt>
      <trkpt lat="49.50187" lon="1.07254">
        <ele>140.4</ele>
        <time>2022-04-30T12:32:07Z</time>
      </trkpt>
      <trkpt lat="49.50185" lon="1.0725">
        <ele>140.5</ele>
        <time>2022-04-30T12:32:08Z</time>
      </trkpt>
      <trkpt lat="49.50182" lon="1.07247">
        <ele>140.5</ele>
        <time>2022-04-30T12:32:09Z</time>
      </trkpt>
      <trkpt lat="49.5018" lon="1.07243">
        <ele>140.5</ele>
        <time>2022-04-30T12:32:10Z</time>
      </trkpt>
      <trkpt lat="49.50178" lon="1.0724">
        <ele>140.5</ele>
        <time>2022-04-30T12:32:11Z</time>
      </trkpt>
      <trkpt lat="49.50175" lon="1.07236">
        <ele>140.6</ele>
        <time>2022-04-30T12:32:12Z</time>
      </trkpt>
      <trkpt lat="49.50173" lon="1.07233">
        <ele>140.6</ele>
        <time>2022-04-30T12:32:13Z</time>
      </trkpt>
      <trkpt lat="49.50171" lon="1.07229">
        <ele>140.6</ele>
        <time>2022-04-30T12:32:14Z</time>
      </trkpt>
      <trkpt lat="49.50169" lon="1.07226">
        <ele>140.6</ele>
        <time>2022-04-30T12:32:15Z</time>
      </trkpt>
      <trkpt lat="49.50168" lon="1.07223">
        <ele>140.6</ele>
        <time>2022-04-30T12:32:16Z</time>
      </trkpt>
      <trkpt lat="49.50166" lon="1.0722">
        <ele>140.6</ele>
        <time>2022-04-30T12:32:17Z</time>
      </trkpt>
      <trkpt lat="49.50164" lon="1.07216">
        <ele>140.6</ele>
        <time>2022-04-30T12:32:18Z</time>
      </trkpt>
      <trkpt lat="49.50162" lon="1.07212">
        <ele>140.6</ele>
        <time>2022-04-30T12:32:19Z</time>
      </trkpt>
      <trkpt lat="49.5016" lon="1.07208">
        <ele>140.6</ele>
        <time>2022-04-30T12:32:20Z</time>
      </trkpt>
      <trkpt lat="49.50158" lon="1.07204">
        <ele>140.6</ele>
        <time>2022-04-30T12:32:21Z</time>
      </trkpt>
      <trkpt lat="49.50155" lon="1.072">
        <ele>140.6</ele>
        <time>2022-04-30T12:32:22Z</time>
      </trkpt>
      <trkpt lat="49.50153" lon="1.07196">
        <ele>140.6</ele>
        <time>2022-04-30T12:32:23Z</time>
      </trkpt>
      <trkpt lat="49.50151" lon="1.07192">
        <ele>140.6</ele>
        <time>2022-04-30T12:32:24Z</time>
      </trkpt>
      <trkpt lat="49.50149" lon="1.07189">
        <ele>140.6</ele>
        <time>2022-04-30T12:32:25Z</time>
      </trkpt>
      <trkpt lat="49.50147" lon="1.07185">
        <ele>140.5</ele>
        <time>2022-04-30T12:32:26Z</time>
      </trkpt>
      <trkpt lat="49.50145" lon="1.07181">
        <ele>140.5</ele>
        <time>2022-04-30T12:32:27Z</time>
      </trkpt>
      <trkpt lat="49.50142" lon="1.07175">
        <ele>140.5</ele>
        <time>2022-04-30T12:32:28Z</time>
      </trkpt>
      <trkpt lat="49.50135" lon="1.07159">
        <ele>140.4</ele>
        <time>2022-04-30T12:32:29Z</time>
      </trkpt>
      <trkpt lat="49.50131" lon="1.07149">
        <ele>140.3</ele>
        <time>2022-04-30T12:32:30Z</time>
      </trkpt>
      <trkpt lat="49.50126" lon="1.07144">
        <ele>140.2</ele>
        <time>2022-04-30T12:32:31Z</time>
      </trkpt>
      <trkpt lat="49.50124" lon="1.07138">
        <ele>140.2</ele>
        <time>2022-04-30T12:32:32Z</time>
      </trkpt>
      <trkpt lat="49.50122" lon="1.07134">
        <ele>140.1</ele>
        <time>2022-04-30T12:32:33Z</time>
      </trkpt>
      <trkpt lat="49.50119" lon="1.07127">
        <ele>140.1</ele>
        <time>2022-04-30T12:32:34Z</time>
      </trkpt>
      <trkpt lat="49.50116" lon="1.07122">
        <ele>140</ele>
        <time>2022-04-30T12:32:35Z</time>
      </trkpt>
      <trkpt lat="49.50113" lon="1.07118">
        <ele>140</ele>
        <time>2022-04-30T12:32:36Z</time>
      </trkpt>
      <trkpt lat="49.5011" lon="1.07114">
        <ele>139.9</ele>
        <time>2022-04-30T12:32:37Z</time>
      </trkpt>
      <trkpt lat="49.50108" lon="1.0711">
        <ele>139.9</ele>
        <time>2022-04-30T12:32:38Z</time>
      </trkpt>
      <trkpt lat="49.50104" lon="1.07106">
        <ele>139.8</ele>
        <time>2022-04-30T12:32:39Z</time>
      </trkpt>
      <trkpt lat="49.50101" lon="1.07103">
        <ele>139.7</ele>
        <time>2022-04-30T12:32:40Z</time>
      </trkpt>
      <trkpt lat="49.50098" lon="1.07099">
        <ele>139.6</ele>
        <time>2022-04-30T12:32:41Z</time>
      </trkpt>
      <trkpt lat="49.50094" lon="1.07094">
        <ele>139.4</ele>
        <time>2022-04-30T12:32:42Z</time>
      </trkpt>
      <trkpt lat="49.50091" lon="1.07087">
        <ele>139.2</ele>
        <time>2022-04-30T12:32:43Z</time>
      </trkpt>
      <trkpt lat="49.50089" lon="1.07081">
        <ele>139.1</ele>
        <time>2022-04-30T12:32:44Z</time>
      </trkpt>
      <trkpt lat="49.50086" lon="1.07075">
        <ele>138.9</ele>
        <time>2022-04-30T12:32:45Z</time>
      </trkpt>
      <trkpt lat="49.50084" lon="1.0707">
        <ele>138.8</ele>
        <time>2022-04-30T12:32:46Z</time>
      </trkpt>
      <trkpt lat="49.50082" lon="1.07064">
        <ele>138.6</ele>
        <time>2022-04-30T12:32:47Z</time>
      </trkpt>
      <trkpt lat="49.50079" lon="1.07059">
        <ele>138.5</ele>
        <time>2022-04-30T12:32:48Z</time>
      </trkpt>
      <trkpt lat="49.50077" lon="1.07054">
        <ele>138.4</ele>
        <time>2022-04-30T12:32:49Z</time>
      </trkpt>
      <trkpt lat="49.50075" lon="1.07047">
        <ele>138.3</ele>
        <time>2022-04-30T12:32:50Z</time>
      </trkpt>
      <trkpt lat="49.50072" lon="1.0704">
        <ele>138.1</ele>
        <time>2022-04-30T12:32:51Z</time>
      </trkpt>
      <trkpt lat="49.50069" lon="1.07033">
        <ele>138</ele>
        <time>2022-04-30T12:32:52Z</time>
      </trkpt>
      <trkpt lat="49.50066" lon="1.07027">
        <ele>138</ele>
        <time>2022-04-30T12:32:53Z</time>
      </trkpt>
      <trkpt lat="49.50062" lon="1.0702">
        <ele>137.9</ele>
        <time>2022-04-30T12:32:54Z</time>
      </trkpt>
      <trkpt lat="49.50059" lon="1.07014">
        <ele>137.8</ele>
        <time>2022-04-30T12:32:55Z</time>
      </trkpt>
      <trkpt lat="49.50056" lon="1.07007">
        <ele>137.8</ele>
        <time>2022-04-30T12:32:56Z</time>
      </trkpt>
      <trkpt lat="49.50052" lon="1.06998">
        <ele>137.8</ele>
        <time>2022-04-30T12:32:57Z</time>
      </trkpt>
      <trkpt lat="49.5005" lon="1.06991">
        <ele>137.8</ele>
        <time>2022-04-30T12:32:58Z</time>
      </trkpt>
      <trkpt lat="49.50049" lon="1.06985">
        <ele>137.8</ele>
        <time>2022-04-30T12:32:59Z</time>
      </trkpt>
      <trkpt lat="49.50048" lon="1.0698">
        <ele>137.8</ele>
        <time>2022-04-30T12:33:00Z</time>
      </trkpt>
      <trkpt lat="49.50044" lon="1.06975">
        <ele>137.8</ele>
        <time>2022-04-30T12:33:01Z</time>
      </trkpt>
      <trkpt lat="49.5004" lon="1.06968">
        <ele>137.8</ele>
        <time>2022-04-30T12:33:02Z</time>
      </trkpt>
      <trkpt lat="49.50038" lon="1.06962">
        <ele>137.7</ele>
        <time>2022-04-30T12:33:03Z</time>
      </trkpt>
      <trkpt lat="49.50035" lon="1.06953">
        <ele>137.7</ele>
        <time>2022-04-30T12:33:04Z</time>
      </trkpt>
      <trkpt lat="49.50032" lon="1.06947">
        <ele>137.7</ele>
        <time>2022-04-30T12:33:05Z</time>
      </trkpt>
      <trkpt lat="49.50028" lon="1.06941">
        <ele>137.7</ele>
        <time>2022-04-30T12:33:06Z</time>
      </trkpt>
      <trkpt lat="49.50026" lon="1.06936">
        <ele>137.7</ele>
        <time>2022-04-30T12:33:07Z</time>
      </trkpt>
      <trkpt lat="49.50023" lon="1.06929">
        <ele>137.7</ele>
        <time>2022-04-30T12:33:08Z</time>
      </trkpt>
      <trkpt lat="49.50022" lon="1.06922">
        <ele>137.7</ele>
        <time>2022-04-30T12:33:09Z</time>
      </trkpt>
      <trkpt lat="49.5002" lon="1.06918">
        <ele>137.7</ele>
        <time>2022-04-30T12:33:10Z</time>
      </trkpt>
      <trkpt lat="49.50018" lon="1.06915">
        <ele>137.7</ele>
        <time>2022-04-30T12:33:11Z</time>
      </trkpt>
      <trkpt lat="49.50016" lon="1.0691">
        <ele>137.8</ele>
        <time>2022-04-30T12:33:12Z</time>
      </trkpt>
      <trkpt lat="49.50014" lon="1.06904">
        <ele>137.8</ele>
        <time>2022-04-30T12:33:13Z</time>
      </trkpt>
      <trkpt lat="49.50013" lon="1.06898">
        <ele>137.8</ele>
        <time>2022-04-30T12:33:14Z</time>
      </trkpt>
      <trkpt lat="49.50012" lon="1.06893">
        <ele>137.9</ele>
        <time>2022-04-30T12:33:15Z</time>
      </trkpt>
      <trkpt lat="49.50011" lon="1.06888">
        <ele>137.9</ele>
        <time>2022-04-30T12:33:16Z</time>
      </trkpt>
      <trkpt lat="49.50009" lon="1.06882">
        <ele>138</ele>
        <time>2022-04-30T12:33:17Z</time>
      </trkpt>
      <trkpt lat="49.50007" lon="1.06877">
        <ele>138.1</ele>
        <time>2022-04-30T12:33:18Z</time>
      </trkpt>
      <trkpt lat="49.50005" lon="1.06872">
        <ele>138.2</ele>
        <time>2022-04-30T12:33:19Z</time>
      </trkpt>
      <trkpt lat="49.50004" lon="1.06866">
        <ele>138.3</ele>
        <time>2022-04-30T12:33:20Z</time>
      </trkpt>
      <trkpt lat="49.50001" lon="1.06861">
        <ele>138.5</ele>
        <time>2022-04-30T12:33:21Z</time>
      </trkpt>
      <trkpt lat="49.49998" lon="1.06855">
        <ele>138.7</ele>
        <time>2022-04-30T12:33:22Z</time>
      </trkpt>
      <trkpt lat="49.49997" lon="1.0685">
        <ele>138.8</ele>
        <time>2022-04-30T12:33:23Z</time>
      </trkpt>
      <trkpt lat="49.49995" lon="1.06845">
        <ele>138.9</ele>
        <time>2022-04-30T12:33:24Z</time>
      </trkpt>
      <trkpt lat="49.49995" lon="1.06844">
        <ele>139</ele>
        <time>2022-04-30T12:33:25Z</time>
      </trkpt>
      <trkpt lat="49.49994" lon="1.06839">
        <ele>139.1</ele>
        <time>2022-04-30T12:33:26Z</time>
      </trkpt>
      <trkpt lat="49.49993" lon="1.06833">
        <ele>139.3</ele>
        <time>2022-04-30T12:33:27Z</time>
      </trkpt>
      <trkpt lat="49.49991" lon="1.06827">
        <ele>139.5</ele>
        <time>2022-04-30T12:33:28Z</time>
      </trkpt>
      <trkpt lat="49.49988" lon="1.0682">
        <ele>139.7</ele>
        <time>2022-04-30T12:33:29Z</time>
      </trkpt>
      <trkpt lat="49.49984" lon="1.06812">
        <ele>140</ele>
        <time>2022-04-30T12:33:30Z</time>
      </trkpt>
      <trkpt lat="49.49981" lon="1.06805">
        <ele>140.2</ele>
        <time>2022-04-30T12:33:31Z</time>
      </trkpt>
      <trkpt lat="49.49978" lon="1.068">
        <ele>140.3</ele>
        <time>2022-04-30T12:33:32Z</time>
      </trkpt>
      <trkpt lat="49.49975" lon="1.06796">
        <ele>140.4</ele>
        <time>2022-04-30T12:33:33Z</time>
      </trkpt>
      <trkpt lat="49.49972" lon="1.06791">
        <ele>140.6</ele>
        <time>2022-04-30T12:33:34Z</time>
      </trkpt>
      <trkpt lat="49.49971" lon="1.06785">
        <ele>140.7</ele>
        <time>2022-04-30T12:33:35Z</time>
      </trkpt>
      <trkpt lat="49.4997" lon="1.06779">
        <ele>140.8</ele>
        <time>2022-04-30T12:33:36Z</time>
      </trkpt>
      <trkpt lat="49.49968" lon="1.06773">
        <ele>140.9</ele>
        <time>2022-04-30T12:33:37Z</time>
      </trkpt>
      <trkpt lat="49.49968" lon="1.06769">
        <ele>141</ele>
        <time>2022-04-30T12:33:38Z</time>
      </trkpt>
      <trkpt lat="49.49967" lon="1.06768">
        <ele>141</ele>
        <time>2022-04-30T12:33:39Z</time>
      </trkpt>
      <trkpt lat="49.49966" lon="1.06763">
        <ele>141.1</ele>
        <time>2022-04-30T12:33:40Z</time>
      </trkpt>
      <trkpt lat="49.49965" lon="1.0676">
        <ele>141.2</ele>
        <time>2022-04-30T12:33:41Z</time>
      </trkpt>
      <trkpt lat="49.49963" lon="1.06754">
        <ele>141.3</ele>
        <time>2022-04-30T12:33:42Z</time>
      </trkpt>
      <trkpt lat="49.49962" lon="1.06748">
        <ele>141.5</ele>
        <time>2022-04-30T12:33:43Z</time>
      </trkpt>
      <trkpt lat="49.4996" lon="1.06743">
        <ele>141.6</ele>
        <time>2022-04-30T12:33:44Z</time>
      </trkpt>
      <trkpt lat="49.49958" lon="1.06738">
        <ele>141.7</ele>
        <time>2022-04-30T12:33:45Z</time>
      </trkpt>
      <trkpt lat="49.49957" lon="1.06734">
        <ele>141.8</ele>
        <time>2022-04-30T12:33:46Z</time>
      </trkpt>
      <trkpt lat="49.49955" lon="1.06729">
        <ele>142</ele>
        <time>2022-04-30T12:33:47Z</time>
      </trkpt>
      <trkpt lat="49.49953" lon="1.06724">
        <ele>142.1</ele>
        <time>2022-04-30T12:33:48Z</time>
      </trkpt>
      <trkpt lat="49.49952" lon="1.0672">
        <ele>142.2</ele>
        <time>2022-04-30T12:33:49Z</time>
      </trkpt>
      <trkpt lat="49.49951" lon="1.06716">
        <ele>142.3</ele>
        <time>2022-04-30T12:33:50Z</time>
      </trkpt>
      <trkpt lat="49.4995" lon="1.06711">
        <ele>142.4</ele>
        <time>2022-04-30T12:33:51Z</time>
      </trkpt>
      <trkpt lat="49.49948" lon="1.06707">
        <ele>142.5</ele>
        <time>2022-04-30T12:33:52Z</time>
      </trkpt>
      <trkpt lat="49.49947" lon="1.06702">
        <ele>142.6</ele>
        <time>2022-04-30T12:33:53Z</time>
      </trkpt>
      <trkpt lat="49.49945" lon="1.06695">
        <ele>142.7</ele>
        <time>2022-04-30T12:33:54Z</time>
      </trkpt>
      <trkpt lat="49.49943" lon="1.06689">
        <ele>142.8</ele>
        <time>2022-04-30T12:33:55Z</time>
      </trkpt>
      <trkpt lat="49.4994" lon="1.06683">
        <ele>142.9</ele>
        <time>2022-04-30T12:33:56Z</time>
      </trkpt>
      <trkpt lat="49.49937" lon="1.06676">
        <ele>143</ele>
        <time>2022-04-30T12:33:57Z</time>
      </trkpt>
      <trkpt lat="49.49934" lon="1.06671">
        <ele>143.1</ele>
        <time>2022-04-30T12:33:58Z</time>
      </trkpt>
      <trkpt lat="49.49932" lon="1.06665">
        <ele>143.1</ele>
        <time>2022-04-30T12:33:59Z</time>
      </trkpt>
      <trkpt lat="49.49929" lon="1.0666">
        <ele>143.2</ele>
        <time>2022-04-30T12:34:00Z</time>
      </trkpt>
      <trkpt lat="49.49926" lon="1.06655">
        <ele>143.2</ele>
        <time>2022-04-30T12:34:01Z</time>
      </trkpt>
      <trkpt lat="49.49924" lon="1.0665">
        <ele>143.2</ele>
        <time>2022-04-30T12:34:02Z</time>
      </trkpt>
      <trkpt lat="49.49921" lon="1.06646">
        <ele>143.2</ele>
        <time>2022-04-30T12:34:03Z</time>
      </trkpt>
      <trkpt lat="49.49918" lon="1.06642">
        <ele>143.2</ele>
        <time>2022-04-30T12:34:04Z</time>
      </trkpt>
      <trkpt lat="49.49915" lon="1.06638">
        <ele>143.1</ele>
        <time>2022-04-30T12:34:05Z</time>
      </trkpt>
      <trkpt lat="49.49912" lon="1.06634">
        <ele>143.1</ele>
        <time>2022-04-30T12:34:06Z</time>
      </trkpt>
      <trkpt lat="49.49909" lon="1.0663">
        <ele>143.1</ele>
        <time>2022-04-30T12:34:07Z</time>
      </trkpt>
      <trkpt lat="49.49906" lon="1.06626">
        <ele>143.1</ele>
        <time>2022-04-30T12:34:08Z</time>
      </trkpt>
      <trkpt lat="49.49903" lon="1.06621">
        <ele>143</ele>
        <time>2022-04-30T12:34:09Z</time>
      </trkpt>
      <trkpt lat="49.49899" lon="1.06616">
        <ele>143</ele>
        <time>2022-04-30T12:34:10Z</time>
      </trkpt>
      <trkpt lat="49.49896" lon="1.06613">
        <ele>143</ele>
        <time>2022-04-30T12:34:11Z</time>
      </trkpt>
      <trkpt lat="49.49894" lon="1.06609">
        <ele>142.9</ele>
        <time>2022-04-30T12:34:12Z</time>
      </trkpt>
      <trkpt lat="49.49892" lon="1.06606">
        <ele>142.9</ele>
        <time>2022-04-30T12:34:13Z</time>
      </trkpt>
      <trkpt lat="49.49881" lon="1.06583">
        <ele>142.7</ele>
        <time>2022-04-30T12:34:14Z</time>
      </trkpt>
      <trkpt lat="49.49878" lon="1.06578">
        <ele>142.7</ele>
        <time>2022-04-30T12:34:15Z</time>
      </trkpt>
      <trkpt lat="49.49873" lon="1.06569">
        <ele>142.6</ele>
        <time>2022-04-30T12:34:16Z</time>
      </trkpt>
      <trkpt lat="49.49869" lon="1.06563">
        <ele>142.5</ele>
        <time>2022-04-30T12:34:17Z</time>
      </trkpt>
      <trkpt lat="49.49865" lon="1.06559">
        <ele>142.5</ele>
        <time>2022-04-30T12:34:18Z</time>
      </trkpt>
      <trkpt lat="49.4986" lon="1.06554">
        <ele>142.4</ele>
        <time>2022-04-30T12:34:19Z</time>
      </trkpt>
      <trkpt lat="49.49856" lon="1.0655">
        <ele>142.4</ele>
        <time>2022-04-30T12:34:20Z</time>
      </trkpt>
      <trkpt lat="49.49852" lon="1.06547">
        <ele>142.4</ele>
        <time>2022-04-30T12:34:21Z</time>
      </trkpt>
      <trkpt lat="49.49849" lon="1.06542">
        <ele>142.3</ele>
        <time>2022-04-30T12:34:22Z</time>
      </trkpt>
      <trkpt lat="49.49845" lon="1.06538">
        <ele>142.3</ele>
        <time>2022-04-30T12:34:23Z</time>
      </trkpt>
      <trkpt lat="49.49841" lon="1.06535">
        <ele>142.3</ele>
        <time>2022-04-30T12:34:24Z</time>
      </trkpt>
      <trkpt lat="49.49838" lon="1.06533">
        <ele>142.2</ele>
        <time>2022-04-30T12:34:25Z</time>
      </trkpt>
      <trkpt lat="49.49836" lon="1.06529">
        <ele>142.2</ele>
        <time>2022-04-30T12:34:26Z</time>
      </trkpt>
      <trkpt lat="49.49835" lon="1.06524">
        <ele>142.2</ele>
        <time>2022-04-30T12:34:27Z</time>
      </trkpt>
      <trkpt lat="49.49835" lon="1.06519">
        <ele>142.2</ele>
        <time>2022-04-30T12:34:28Z</time>
      </trkpt>
      <trkpt lat="49.49833" lon="1.06514">
        <ele>142.2</ele>
        <time>2022-04-30T12:34:29Z</time>
      </trkpt>
      <trkpt lat="49.49832" lon="1.06509">
        <ele>142.2</ele>
        <time>2022-04-30T12:34:30Z</time>
      </trkpt>
      <trkpt lat="49.49828" lon="1.06506">
        <ele>142.2</ele>
        <time>2022-04-30T12:34:31Z</time>
      </trkpt>
      <trkpt lat="49.49824" lon="1.06501">
        <ele>142.1</ele>
        <time>2022-04-30T12:34:32Z</time>
      </trkpt>
      <trkpt lat="49.4982" lon="1.06498">
        <ele>142</ele>
        <time>2022-04-30T12:34:33Z</time>
      </trkpt>
      <trkpt lat="49.49815" lon="1.06496">
        <ele>141.9</ele>
        <time>2022-04-30T12:34:34Z</time>
      </trkpt>
      <trkpt lat="49.4981" lon="1.06495">
        <ele>141.8</ele>
        <time>2022-04-30T12:34:35Z</time>
      </trkpt>
      <trkpt lat="49.49804" lon="1.06494">
        <ele>141.7</ele>
        <time>2022-04-30T12:34:36Z</time>
      </trkpt>
      <trkpt lat="49.49799" lon="1.06494">
        <ele>141.5</ele>
        <time>2022-04-30T12:34:37Z</time>
      </trkpt>
      <trkpt lat="49.49793" lon="1.06494">
        <ele>141.3</ele>
        <time>2022-04-30T12:34:38Z</time>
      </trkpt>
      <trkpt lat="49.49786" lon="1.06492">
        <ele>141</ele>
        <time>2022-04-30T12:34:39Z</time>
      </trkpt>
      <trkpt lat="49.49779" lon="1.0649">
        <ele>140.7</ele>
        <time>2022-04-30T12:34:40Z</time>
      </trkpt>
      <trkpt lat="49.49773" lon="1.06487">
        <ele>140.5</ele>
        <time>2022-04-30T12:34:41Z</time>
      </trkpt>
      <trkpt lat="49.49768" lon="1.06484">
        <ele>140.2</ele>
        <time>2022-04-30T12:34:42Z</time>
      </trkpt>
      <trkpt lat="49.49762" lon="1.06483">
        <ele>140</ele>
        <time>2022-04-30T12:34:43Z</time>
      </trkpt>
      <trkpt lat="49.49756" lon="1.0648">
        <ele>139.7</ele>
        <time>2022-04-30T12:34:44Z</time>
      </trkpt>
      <trkpt lat="49.4975" lon="1.06479">
        <ele>139.4</ele>
        <time>2022-04-30T12:34:45Z</time>
      </trkpt>
      <trkpt lat="49.49745" lon="1.06477">
        <ele>139.2</ele>
        <time>2022-04-30T12:34:46Z</time>
      </trkpt>
      <trkpt lat="49.49739" lon="1.06475">
        <ele>138.9</ele>
        <time>2022-04-30T12:34:47Z</time>
      </trkpt>
      <trkpt lat="49.49733" lon="1.06474">
        <ele>138.6</ele>
        <time>2022-04-30T12:34:48Z</time>
      </trkpt>
      <trkpt lat="49.4972" lon="1.06472">
        <ele>137.9</ele>
        <time>2022-04-30T12:34:50Z</time>
      </trkpt>
      <trkpt lat="49.49714" lon="1.06473">
        <ele>137.5</ele>
        <time>2022-04-30T12:34:51Z</time>
      </trkpt>
      <trkpt lat="49.49708" lon="1.06474">
        <ele>137.1</ele>
        <time>2022-04-30T12:34:52Z</time>
      </trkpt>
      <trkpt lat="49.49702" lon="1.06474">
        <ele>136.7</ele>
        <time>2022-04-30T12:34:53Z</time>
      </trkpt>
      <trkpt lat="49.49694" lon="1.06474">
        <ele>136.2</ele>
        <time>2022-04-30T12:34:54Z</time>
      </trkpt>
      <trkpt lat="49.49687" lon="1.06472">
        <ele>135.6</ele>
        <time>2022-04-30T12:34:55Z</time>
      </trkpt>
      <trkpt lat="49.49679" lon="1.06471">
        <ele>135.1</ele>
        <time>2022-04-30T12:34:56Z</time>
      </trkpt>
      <trkpt lat="49.49672" lon="1.06471">
        <ele>134.6</ele>
        <time>2022-04-30T12:34:57Z</time>
      </trkpt>
      <trkpt lat="49.49665" lon="1.06469">
        <ele>134</ele>
        <time>2022-04-30T12:34:58Z</time>
      </trkpt>
      <trkpt lat="49.49658" lon="1.06468">
        <ele>133.5</ele>
        <time>2022-04-30T12:34:59Z</time>
      </trkpt>
      <trkpt lat="49.49651" lon="1.06466">
        <ele>132.9</ele>
        <time>2022-04-30T12:35:00Z</time>
      </trkpt>
      <trkpt lat="49.49646" lon="1.06466">
        <ele>132.5</ele>
        <time>2022-04-30T12:35:01Z</time>
      </trkpt>
      <trkpt lat="49.49642" lon="1.06466">
        <ele>132.2</ele>
        <time>2022-04-30T12:35:02Z</time>
      </trkpt>
      <trkpt lat="49.4964" lon="1.06466">
        <ele>132</ele>
        <time>2022-04-30T12:35:03Z</time>
      </trkpt>
      <trkpt lat="49.49636" lon="1.06467">
        <ele>131.7</ele>
        <time>2022-04-30T12:35:04Z</time>
      </trkpt>
      <trkpt lat="49.49633" lon="1.06467">
        <ele>131.4</ele>
        <time>2022-04-30T12:35:05Z</time>
      </trkpt>
      <trkpt lat="49.49632" lon="1.06466">
        <ele>131.2</ele>
        <time>2022-04-30T12:35:06Z</time>
      </trkpt>
      <trkpt lat="49.49629" lon="1.06465">
        <ele>131</ele>
        <time>2022-04-30T12:35:07Z</time>
      </trkpt>
      <trkpt lat="49.49626" lon="1.06465">
        <ele>130.6</ele>
        <time>2022-04-30T12:35:08Z</time>
      </trkpt>
      <trkpt lat="49.49622" lon="1.06466">
        <ele>130.2</ele>
        <time>2022-04-30T12:35:10Z</time>
      </trkpt>
      <trkpt lat="49.49621" lon="1.06467">
        <ele>130.1</ele>
        <time>2022-04-30T12:35:11Z</time>
      </trkpt>
      <trkpt lat="49.4962" lon="1.06466">
        <ele>129.9</ele>
        <time>2022-04-30T12:35:12Z</time>
      </trkpt>
      <trkpt lat="49.4962" lon="1.06466">
        <ele>129.9</ele>
        <time>2022-04-30T12:35:13Z</time>
      </trkpt>
      <trkpt lat="49.4962" lon="1.06465">
        <ele>129.8</ele>
        <time>2022-04-30T12:35:14Z</time>
      </trkpt>
      <trkpt lat="49.4962" lon="1.06465">
        <ele>129.8</ele>
        <time>2022-04-30T12:35:15Z</time>
      </trkpt>
      <trkpt lat="49.4962" lon="1.06465">
        <ele>129.8</ele>
        <time>2022-04-30T12:35:16Z</time>
      </trkpt>
      <trkpt lat="49.4962" lon="1.06465">
        <ele>129.8</ele>
        <time>2022-04-30T12:35:17Z</time>
      </trkpt>
      <trkpt lat="49.49621" lon="1.06465">
        <ele>129.8</ele>
        <time>2022-04-30T12:35:18Z</time>
      </trkpt>
      <trkpt lat="49.4962" lon="1.06465">
        <ele>129.7</ele>
        <time>2022-04-30T12:35:19Z</time>
      </trkpt>
      <trkpt lat="49.4962" lon="1.06465">
        <ele>129.7</ele>
        <time>2022-04-30T12:35:20Z</time>
      </trkpt>
      <trkpt lat="49.4962" lon="1.06465">
        <ele>129.7</ele>
        <time>2022-04-30T12:35:21Z</time>
      </trkpt>
      <trkpt lat="49.4962" lon="1.06465">
        <ele>129.7</ele>
        <time>2022-04-30T12:35:22Z</time>
      </trkpt>
      <trkpt lat="49.49616" lon="1.06467">
        <ele>129.1</ele>
        <time>2022-04-30T12:38:58Z</time>
      </trkpt>
      <trkpt lat="49.49614" lon="1.06467">
        <ele>128.8</ele>
        <time>2022-04-30T12:38:59Z</time>
      </trkpt>
      <trkpt lat="49.49613" lon="1.06468">
        <ele>128.7</ele>
        <time>2022-04-30T12:39:00Z</time>
      </trkpt>
      <trkpt lat="49.49612" lon="1.06467">
        <ele>128.6</ele>
        <time>2022-04-30T12:39:01Z</time>
      </trkpt>
      <trkpt lat="49.49612" lon="1.06467">
        <ele>128.5</ele>
        <time>2022-04-30T12:39:02Z</time>
      </trkpt>
      <trkpt lat="49.49612" lon="1.06466">
        <ele>128.4</ele>
        <time>2022-04-30T12:39:03Z</time>
      </trkpt>
      <trkpt lat="49.49611" lon="1.06466">
        <ele>128.4</ele>
        <time>2022-04-30T12:39:04Z</time>
      </trkpt>
      <trkpt lat="49.49611" lon="1.06465">
        <ele>128.3</ele>
        <time>2022-04-30T12:39:05Z</time>
      </trkpt>
      <trkpt lat="49.49611" lon="1.06465">
        <ele>128.3</ele>
        <time>2022-04-30T12:39:06Z</time>
      </trkpt>
      <trkpt lat="49.49611" lon="1.06465">
        <ele>128.3</ele>
        <time>2022-04-30T12:39:07Z</time>
      </trkpt>
      <trkpt lat="49.49611" lon="1.06465">
        <ele>128.3</ele>
        <time>2022-04-30T12:39:08Z</time>
      </trkpt>
      <trkpt lat="49.49611" lon="1.06465">
        <ele>128.3</ele>
        <time>2022-04-30T12:39:09Z</time>
      </trkpt>
      <trkpt lat="49.49611" lon="1.06465">
        <ele>128.3</ele>
        <time>2022-04-30T12:39:10Z</time>
      </trkpt>
      <trkpt lat="49.49611" lon="1.06465">
        <ele>128.3</ele>
        <time>2022-04-30T12:39:11Z</time>
      </trkpt>
      <trkpt lat="49.49612" lon="1.06465">
        <ele>128.3</ele>
        <time>2022-04-30T12:39:12Z</time>
      </trkpt>
      <trkpt lat="49.49612" lon="1.06465">
        <ele>128.3</ele>
        <time>2022-04-30T12:39:13Z</time>
      </trkpt>
      <trkpt lat="49.49612" lon="1.06465">
        <ele>128.3</ele>
        <time>2022-04-30T12:39:14Z</time>
      </trkpt>
      <trkpt lat="49.49612" lon="1.06465">
        <ele>128.3</ele>
        <time>2022-04-30T12:39:15Z</time>
      </trkpt>
      <trkpt lat="49.49612" lon="1.06465">
        <ele>128.3</ele>
        <time>2022-04-30T12:39:16Z</time>
      </trkpt>
      <trkpt lat="49.49614" lon="1.06464">
        <ele>127.8</ele>
        <time>2022-04-30T12:39:26Z</time>
      </trkpt>
      <trkpt lat="49.49615" lon="1.06464">
        <ele>127.8</ele>
        <time>2022-04-30T12:39:27Z</time>
      </trkpt>
      <trkpt lat="49.49615" lon="1.06463">
        <ele>127.7</ele>
        <time>2022-04-30T12:39:28Z</time>
      </trkpt>
      <trkpt lat="49.49615" lon="1.06463">
        <ele>127.7</ele>
        <time>2022-04-30T12:39:29Z</time>
      </trkpt>
      <trkpt lat="49.49615" lon="1.06463">
        <ele>127.7</ele>
        <time>2022-04-30T12:39:30Z</time>
      </trkpt>
      <trkpt lat="49.49615" lon="1.06464">
        <ele>127.7</ele>
        <time>2022-04-30T12:39:31Z</time>
      </trkpt>
      <trkpt lat="49.49615" lon="1.06464">
        <ele>127.6</ele>
        <time>2022-04-30T12:39:32Z</time>
      </trkpt>
      <trkpt lat="49.49615" lon="1.06464">
        <ele>127.6</ele>
        <time>2022-04-30T12:39:33Z</time>
      </trkpt>
      <trkpt lat="49.49615" lon="1.06465">
        <ele>127.6</ele>
        <time>2022-04-30T12:39:34Z</time>
      </trkpt>
      <trkpt lat="49.49615" lon="1.06465">
        <ele>127.5</ele>
        <time>2022-04-30T12:39:35Z</time>
      </trkpt>
      <trkpt lat="49.49615" lon="1.06466">
        <ele>127.5</ele>
        <time>2022-04-30T12:39:36Z</time>
      </trkpt>
      <trkpt lat="49.49614" lon="1.06466">
        <ele>127.3</ele>
        <time>2022-04-30T12:39:37Z</time>
      </trkpt>
      <trkpt lat="49.49613" lon="1.06468">
        <ele>127.2</ele>
        <time>2022-04-30T12:39:38Z</time>
      </trkpt>
      <trkpt lat="49.49612" lon="1.0647">
        <ele>126.8</ele>
        <time>2022-04-30T12:39:39Z</time>
      </trkpt>
      <trkpt lat="49.49611" lon="1.06471">
        <ele>126.6</ele>
        <time>2022-04-30T12:39:40Z</time>
      </trkpt>
      <trkpt lat="49.49611" lon="1.06472">
        <ele>126.4</ele>
        <time>2022-04-30T12:39:41Z</time>
      </trkpt>
      <trkpt lat="49.4961" lon="1.06473">
        <ele>126.3</ele>
        <time>2022-04-30T12:39:42Z</time>
      </trkpt>
      <trkpt lat="49.4961" lon="1.06474">
        <ele>126.2</ele>
        <time>2022-04-30T12:39:43Z</time>
      </trkpt>
      <trkpt lat="49.4961" lon="1.06474">
        <ele>126.2</ele>
        <time>2022-04-30T12:39:44Z</time>
      </trkpt>
      <trkpt lat="49.4961" lon="1.06473">
        <ele>126.2</ele>
        <time>2022-04-30T12:39:45Z</time>
      </trkpt>
      <trkpt lat="49.4961" lon="1.06473">
        <ele>126.2</ele>
        <time>2022-04-30T12:39:46Z</time>
      </trkpt>
      <trkpt lat="49.4961" lon="1.06473">
        <ele>126.1</ele>
        <time>2022-04-30T12:39:47Z</time>
      </trkpt>
      <trkpt lat="49.49609" lon="1.06473">
        <ele>126.1</ele>
        <time>2022-04-30T12:39:48Z</time>
      </trkpt>
      <trkpt lat="49.49609" lon="1.06473">
        <ele>126.1</ele>
        <time>2022-04-30T12:39:49Z</time>
      </trkpt>
      <trkpt lat="49.49609" lon="1.06473">
        <ele>126.1</ele>
        <time>2022-04-30T12:39:50Z</time>
      </trkpt>
      <trkpt lat="49.49609" lon="1.06473">
        <ele>126.1</ele>
        <time>2022-04-30T12:39:51Z</time>
      </trkpt>
      <trkpt lat="49.49609" lon="1.06475">
        <ele>125.9</ele>
        <time>2022-04-30T12:39:52Z</time>
      </trkpt>
      <trkpt lat="49.49609" lon="1.06477">
        <ele>125.6</ele>
        <time>2022-04-30T12:39:53Z</time>
      </trkpt>
      <trkpt lat="49.4961" lon="1.06478">
        <ele>125.6</ele>
        <time>2022-04-30T12:39:54Z</time>
      </trkpt>
      <trkpt lat="49.4961" lon="1.06477">
        <ele>125.5</ele>
        <time>2022-04-30T12:39:55Z</time>
      </trkpt>
      <trkpt lat="49.4961" lon="1.06477">
        <ele>125.4</ele>
        <time>2022-04-30T12:39:56Z</time>
      </trkpt>
      <trkpt lat="49.4961" lon="1.06477">
        <ele>125.4</ele>
        <time>2022-04-30T12:39:57Z</time>
      </trkpt>
      <trkpt lat="49.4961" lon="1.06476">
        <ele>125.3</ele>
        <time>2022-04-30T12:39:58Z</time>
      </trkpt>
      <trkpt lat="49.4961" lon="1.06476">
        <ele>125.3</ele>
        <time>2022-04-30T12:39:59Z</time>
      </trkpt>
      <trkpt lat="49.4961" lon="1.06476">
        <ele>125.3</ele>
        <time>2022-04-30T12:40:00Z</time>
      </trkpt>
      <trkpt lat="49.4961" lon="1.06476">
        <ele>125.3</ele>
        <time>2022-04-30T12:40:01Z</time>
      </trkpt>
      <trkpt lat="49.4961" lon="1.06476">
        <ele>125.2</ele>
        <time>2022-04-30T12:40:02Z</time>
      </trkpt>
      <trkpt lat="49.4961" lon="1.06476">
        <ele>125.2</ele>
        <time>2022-04-30T12:40:03Z</time>
      </trkpt>
      <trkpt lat="49.4961" lon="1.06476">
        <ele>125.2</ele>
        <time>2022-04-30T12:40:04Z</time>
      </trkpt>
      <trkpt lat="49.4961" lon="1.06476">
        <ele>125.2</ele>
        <time>2022-04-30T12:40:05Z</time>
      </trkpt>
      <trkpt lat="49.4961" lon="1.06476">
        <ele>125.2</ele>
        <time>2022-04-30T12:40:06Z</time>
      </trkpt>
      <trkpt lat="49.4961" lon="1.06476">
        <ele>125.2</ele>
        <time>2022-04-30T12:40:07Z</time>
      </trkpt>
      <trkpt lat="49.4961" lon="1.06476">
        <ele>125.2</ele>
        <time>2022-04-30T12:40:08Z</time>
      </trkpt>
      <trkpt lat="49.49611" lon="1.06485">
        <ele>124</ele>
        <time>2022-04-30T12:40:28Z</time>
      </trkpt>
      <trkpt lat="49.49612" lon="1.06488">
        <ele>123.5</ele>
        <time>2022-04-30T12:40:29Z</time>
      </trkpt>
      <trkpt lat="49.49613" lon="1.06489">
        <ele>123.4</ele>
        <time>2022-04-30T12:40:30Z</time>
      </trkpt>
      <trkpt lat="49.49613" lon="1.06489">
        <ele>123.3</ele>
        <time>2022-04-30T12:40:31Z</time>
      </trkpt>
      <trkpt lat="49.49613" lon="1.06488">
        <ele>123.3</ele>
        <time>2022-04-30T12:40:32Z</time>
      </trkpt>
      <trkpt lat="49.49613" lon="1.06488">
        <ele>123.2</ele>
        <time>2022-04-30T12:40:33Z</time>
      </trkpt>
      <trkpt lat="49.49613" lon="1.06488">
        <ele>123.2</ele>
        <time>2022-04-30T12:40:34Z</time>
      </trkpt>
      <trkpt lat="49.49613" lon="1.06488">
        <ele>123.2</ele>
        <time>2022-04-30T12:40:35Z</time>
      </trkpt>
      <trkpt lat="49.49613" lon="1.06488">
        <ele>123.2</ele>
        <time>2022-04-30T12:40:36Z</time>
      </trkpt>
      <trkpt lat="49.49613" lon="1.06488">
        <ele>123.2</ele>
        <time>2022-04-30T12:40:37Z</time>
      </trkpt>
      <trkpt lat="49.49613" lon="1.06488">
        <ele>123.2</ele>
        <time>2022-04-30T12:40:38Z</time>
      </trkpt>
      <trkpt lat="49.49613" lon="1.06488">
        <ele>123.2</ele>
        <time>2022-04-30T12:40:39Z</time>
      </trkpt>
      <trkpt lat="49.49613" lon="1.06488">
        <ele>123.2</ele>
        <time>2022-04-30T12:40:40Z</time>
      </trkpt>
      <trkpt lat="49.49613" lon="1.06488">
        <ele>123.2</ele>
        <time>2022-04-30T12:40:41Z</time>
      </trkpt>
      <trkpt lat="49.49613" lon="1.06488">
        <ele>123.2</ele>
        <time>2022-04-30T12:40:42Z</time>
      </trkpt>
      <trkpt lat="49.49613" lon="1.06488">
        <ele>123.2</ele>
        <time>2022-04-30T12:40:43Z</time>
      </trkpt>
      <trkpt lat="49.49613" lon="1.06479">
        <ele>122</ele>
        <time>2022-04-30T12:41:15Z</time>
      </trkpt>
      <trkpt lat="49.49613" lon="1.06474">
        <ele>121.3</ele>
        <time>2022-04-30T12:41:16Z</time>
      </trkpt>
      <trkpt lat="49.49613" lon="1.06471">
        <ele>121</ele>
        <time>2022-04-30T12:41:17Z</time>
      </trkpt>
      <trkpt lat="49.49613" lon="1.0647">
        <ele>120.8</ele>
        <time>2022-04-30T12:41:18Z</time>
      </trkpt>
      <trkpt lat="49.49613" lon="1.0647">
        <ele>120.7</ele>
        <time>2022-04-30T12:41:19Z</time>
      </trkpt>
      <trkpt lat="49.49613" lon="1.0647">
        <ele>120.7</ele>
        <time>2022-04-30T12:41:20Z</time>
      </trkpt>
      <trkpt lat="49.49613" lon="1.0647">
        <ele>120.7</ele>
        <time>2022-04-30T12:41:21Z</time>
      </trkpt>
      <trkpt lat="49.49613" lon="1.0647">
        <ele>120.7</ele>
        <time>2022-04-30T12:41:22Z</time>
      </trkpt>
      <trkpt lat="49.49613" lon="1.0647">
        <ele>120.7</ele>
        <time>2022-04-30T12:41:23Z</time>
      </trkpt>
      <trkpt lat="49.49613" lon="1.0647">
        <ele>120.7</ele>
        <time>2022-04-30T12:41:24Z</time>
      </trkpt>
      <trkpt lat="49.49613" lon="1.0647">
        <ele>120.7</ele>
        <time>2022-04-30T12:41:25Z</time>
      </trkpt>
      <trkpt lat="49.49613" lon="1.0647">
        <ele>120.7</ele>
        <time>2022-04-30T12:41:26Z</time>
      </trkpt>
      <trkpt lat="49.49613" lon="1.0647">
        <ele>120.7</ele>
        <time>2022-04-30T12:41:27Z</time>
      </trkpt>
      <trkpt lat="49.49613" lon="1.0647">
        <ele>120.7</ele>
        <time>2022-04-30T12:41:28Z</time>
      </trkpt>
      <trkpt lat="49.49613" lon="1.0647">
        <ele>120.7</ele>
        <time>2022-04-30T12:41:29Z</time>
      </trkpt>
      <trkpt lat="49.49615" lon="1.06466">
        <ele>120</ele>
        <time>2022-04-30T12:42:47Z</time>
      </trkpt>
      <trkpt lat="49.49615" lon="1.06464">
        <ele>119.8</ele>
        <time>2022-04-30T12:42:48Z</time>
      </trkpt>
      <trkpt lat="49.49615" lon="1.06464">
        <ele>119.7</ele>
        <time>2022-04-30T12:42:49Z</time>
      </trkpt>
      <trkpt lat="49.49615" lon="1.06464">
        <ele>119.7</ele>
        <time>2022-04-30T12:42:50Z</time>
      </trkpt>
      <trkpt lat="49.49615" lon="1.06464">
        <ele>119.7</ele>
        <time>2022-04-30T12:42:51Z</time>
      </trkpt>
      <trkpt lat="49.49615" lon="1.06464">
        <ele>119.7</ele>
        <time>2022-04-30T12:42:52Z</time>
      </trkpt>
      <trkpt lat="49.49615" lon="1.06464">
        <ele>119.6</ele>
        <time>2022-04-30T12:42:53Z</time>
      </trkpt>
      <trkpt lat="49.49615" lon="1.06464">
        <ele>119.6</ele>
        <time>2022-04-30T12:42:54Z</time>
      </trkpt>
      <trkpt lat="49.49615" lon="1.06464">
        <ele>119.6</ele>
        <time>2022-04-30T12:42:55Z</time>
      </trkpt>
      <trkpt lat="49.49615" lon="1.06464">
        <ele>119.6</ele>
        <time>2022-04-30T12:42:56Z</time>
      </trkpt>
      <trkpt lat="49.49615" lon="1.06464">
        <ele>119.6</ele>
        <time>2022-04-30T12:42:57Z</time>
      </trkpt>
      <trkpt lat="49.49615" lon="1.06464">
        <ele>119.6</ele>
        <time>2022-04-30T12:42:58Z</time>
      </trkpt>
      <trkpt lat="49.49615" lon="1.06464">
        <ele>119.6</ele>
        <time>2022-04-30T12:42:59Z</time>
      </trkpt>
      <trkpt lat="49.49615" lon="1.06464">
        <ele>119.6</ele>
        <time>2022-04-30T12:43:00Z</time>
      </trkpt>
      <trkpt lat="49.49609" lon="1.06471">
        <ele>118.1</ele>
        <time>2022-04-30T12:47:08Z</time>
      </trkpt>
      <trkpt lat="49.49609" lon="1.06472">
        <ele>117.9</ele>
        <time>2022-04-30T12:47:09Z</time>
      </trkpt>
      <trkpt lat="49.49609" lon="1.06472">
        <ele>117.9</ele>
        <time>2022-04-30T12:47:10Z</time>
      </trkpt>
      <trkpt lat="49.49609" lon="1.06472">
        <ele>117.8</ele>
        <time>2022-04-30T12:47:11Z</time>
      </trkpt>
      <trkpt lat="49.49609" lon="1.06471">
        <ele>117.8</ele>
        <time>2022-04-30T12:47:12Z</time>
      </trkpt>
      <trkpt lat="49.49609" lon="1.06471">
        <ele>117.8</ele>
        <time>2022-04-30T12:47:13Z</time>
      </trkpt>
      <trkpt lat="49.49609" lon="1.06471">
        <ele>117.7</ele>
        <time>2022-04-30T12:47:14Z</time>
      </trkpt>
      <trkpt lat="49.49609" lon="1.06471">
        <ele>117.6</ele>
        <time>2022-04-30T12:47:15Z</time>
      </trkpt>
      <trkpt lat="49.4961" lon="1.0647">
        <ele>117.6</ele>
        <time>2022-04-30T12:47:16Z</time>
      </trkpt>
      <trkpt lat="49.4961" lon="1.0647">
        <ele>117.5</ele>
        <time>2022-04-30T12:47:17Z</time>
      </trkpt>
      <trkpt lat="49.4961" lon="1.0647">
        <ele>117.5</ele>
        <time>2022-04-30T12:47:18Z</time>
      </trkpt>
      <trkpt lat="49.4961" lon="1.0647">
        <ele>117.5</ele>
        <time>2022-04-30T12:47:19Z</time>
      </trkpt>
      <trkpt lat="49.4961" lon="1.0647">
        <ele>117.4</ele>
        <time>2022-04-30T12:47:20Z</time>
      </trkpt>
      <trkpt lat="49.4961" lon="1.0647">
        <ele>117.4</ele>
        <time>2022-04-30T12:47:21Z</time>
      </trkpt>
      <trkpt lat="49.4961" lon="1.0647">
        <ele>117.4</ele>
        <time>2022-04-30T12:47:22Z</time>
      </trkpt>
      <trkpt lat="49.4961" lon="1.0647">
        <ele>117.4</ele>
        <time>2022-04-30T12:47:23Z</time>
      </trkpt>
      <trkpt lat="49.4961" lon="1.06469">
        <ele>117.3</ele>
        <time>2022-04-30T12:47:24Z</time>
      </trkpt>
      <trkpt lat="49.4961" lon="1.06469">
        <ele>117.3</ele>
        <time>2022-04-30T12:47:25Z</time>
      </trkpt>
      <trkpt lat="49.4961" lon="1.06469">
        <ele>117.2</ele>
        <time>2022-04-30T12:47:26Z</time>
      </trkpt>
      <trkpt lat="49.4961" lon="1.06469">
        <ele>117.2</ele>
        <time>2022-04-30T12:47:27Z</time>
      </trkpt>
      <trkpt lat="49.49609" lon="1.06469">
        <ele>117.1</ele>
        <time>2022-04-30T12:47:28Z</time>
      </trkpt>
      <trkpt lat="49.49609" lon="1.06468">
        <ele>117</ele>
        <time>2022-04-30T12:47:29Z</time>
      </trkpt>
      <trkpt lat="49.49609" lon="1.06467">
        <ele>116.8</ele>
        <time>2022-04-30T12:47:30Z</time>
      </trkpt>
      <trkpt lat="49.49609" lon="1.06466">
        <ele>116.7</ele>
        <time>2022-04-30T12:47:31Z</time>
      </trkpt>
      <trkpt lat="49.49609" lon="1.06465">
        <ele>116.6</ele>
        <time>2022-04-30T12:47:32Z</time>
      </trkpt>
      <trkpt lat="49.49609" lon="1.06464">
        <ele>116.4</ele>
        <time>2022-04-30T12:47:33Z</time>
      </trkpt>
      <trkpt lat="49.49609" lon="1.06464">
        <ele>116.4</ele>
        <time>2022-04-30T12:47:34Z</time>
      </trkpt>
      <trkpt lat="49.49609" lon="1.06464">
        <ele>116.3</ele>
        <time>2022-04-30T12:47:35Z</time>
      </trkpt>
      <trkpt lat="49.49609" lon="1.06464">
        <ele>116.3</ele>
        <time>2022-04-30T12:47:36Z</time>
      </trkpt>
      <trkpt lat="49.49609" lon="1.06464">
        <ele>116.3</ele>
        <time>2022-04-30T12:47:37Z</time>
      </trkpt>
      <trkpt lat="49.49609" lon="1.06464">
        <ele>116.3</ele>
        <time>2022-04-30T12:47:38Z</time>
      </trkpt>
      <trkpt lat="49.49609" lon="1.06464">
        <ele>116.3</ele>
        <time>2022-04-30T12:47:39Z</time>
      </trkpt>
      <trkpt lat="49.49609" lon="1.06464">
        <ele>116.3</ele>
        <time>2022-04-30T12:47:40Z</time>
      </trkpt>
      <trkpt lat="49.49609" lon="1.06464">
        <ele>116.3</ele>
        <time>2022-04-30T12:47:41Z</time>
      </trkpt>
      <trkpt lat="49.49609" lon="1.06464">
        <ele>116.3</ele>
        <time>2022-04-30T12:47:42Z</time>
      </trkpt>
      <trkpt lat="49.49609" lon="1.06464">
        <ele>116.2</ele>
        <time>2022-04-30T12:47:43Z</time>
      </trkpt>
      <trkpt lat="49.49603" lon="1.06477">
        <ele>114</ele>
        <time>2022-04-30T12:48:03Z</time>
      </trkpt>
      <trkpt lat="49.49602" lon="1.06478">
        <ele>113.6</ele>
        <time>2022-04-30T12:48:04Z</time>
      </trkpt>
      <trkpt lat="49.49601" lon="1.06478">
        <ele>113.3</ele>
        <time>2022-04-30T12:48:05Z</time>
      </trkpt>
      <trkpt lat="49.49599" lon="1.06479">
        <ele>113.1</ele>
        <time>2022-04-30T12:48:06Z</time>
      </trkpt>
      <trkpt lat="49.49598" lon="1.06479">
        <ele>112.9</ele>
        <time>2022-04-30T12:48:07Z</time>
      </trkpt>
      <trkpt lat="49.49598" lon="1.0648">
        <ele>112.7</ele>
        <time>2022-04-30T12:48:08Z</time>
      </trkpt>
      <trkpt lat="49.49597" lon="1.0648">
        <ele>112.6</ele>
        <time>2022-04-30T12:48:09Z</time>
      </trkpt>
      <trkpt lat="49.49597" lon="1.0648">
        <ele>112.6</ele>
        <time>2022-04-30T12:48:10Z</time>
      </trkpt>
      <trkpt lat="49.49597" lon="1.0648">
        <ele>112.6</ele>
        <time>2022-04-30T12:48:11Z</time>
      </trkpt>
      <trkpt lat="49.49597" lon="1.0648">
        <ele>112.5</ele>
        <time>2022-04-30T12:48:12Z</time>
      </trkpt>
      <trkpt lat="49.49597" lon="1.0648">
        <ele>112.5</ele>
        <time>2022-04-30T12:48:13Z</time>
      </trkpt>
      <trkpt lat="49.49597" lon="1.06481">
        <ele>112.5</ele>
        <time>2022-04-30T12:48:14Z</time>
      </trkpt>
      <trkpt lat="49.49597" lon="1.06481">
        <ele>112.5</ele>
        <time>2022-04-30T12:48:15Z</time>
      </trkpt>
      <trkpt lat="49.49597" lon="1.06481">
        <ele>112.4</ele>
        <time>2022-04-30T12:48:16Z</time>
      </trkpt>
      <trkpt lat="49.49597" lon="1.06481">
        <ele>112.4</ele>
        <time>2022-04-30T12:48:17Z</time>
      </trkpt>
      <trkpt lat="49.49597" lon="1.06481">
        <ele>112.4</ele>
        <time>2022-04-30T12:48:18Z</time>
      </trkpt>
      <trkpt lat="49.49597" lon="1.06481">
        <ele>112.4</ele>
        <time>2022-04-30T12:48:19Z</time>
      </trkpt>
      <trkpt lat="49.49597" lon="1.06481">
        <ele>112.4</ele>
        <time>2022-04-30T12:48:20Z</time>
      </trkpt>
      <trkpt lat="49.49597" lon="1.06481">
        <ele>112.4</ele>
        <time>2022-04-30T12:48:21Z</time>
      </trkpt>
      <trkpt lat="49.49597" lon="1.06481">
        <ele>112.4</ele>
        <time>2022-04-30T12:48:22Z</time>
      </trkpt>
      <trkpt lat="49.49597" lon="1.06481">
        <ele>112.4</ele>
        <time>2022-04-30T12:48:23Z</time>
      </trkpt>
      <trkpt lat="49.49597" lon="1.06481">
        <ele>112.4</ele>
        <time>2022-04-30T12:48:24Z</time>
      </trkpt>
      <trkpt lat="49.49597" lon="1.06481">
        <ele>112.4</ele>
        <time>2022-04-30T12:48:25Z</time>
      </trkpt>
      <trkpt lat="49.49594" lon="1.06481">
        <ele>111.8</ele>
        <time>2022-04-30T12:48:29Z</time>
      </trkpt>
      <trkpt lat="49.49593" lon="1.0648">
        <ele>111.5</ele>
        <time>2022-04-30T12:48:30Z</time>
      </trkpt>
      <trkpt lat="49.49592" lon="1.06479">
        <ele>111.1</ele>
        <time>2022-04-30T12:48:31Z</time>
      </trkpt>
      <trkpt lat="49.49588" lon="1.06478">
        <ele>110.4</ele>
        <time>2022-04-30T12:48:32Z</time>
      </trkpt>
      <trkpt lat="49.49588" lon="1.06478">
        <ele>110.2</ele>
        <time>2022-04-30T12:48:33Z</time>
      </trkpt>
      <trkpt lat="49.49585" lon="1.06478">
        <ele>109.6</ele>
        <time>2022-04-30T12:48:34Z</time>
      </trkpt>
      <trkpt lat="49.49581" lon="1.06478">
        <ele>108.8</ele>
        <time>2022-04-30T12:48:35Z</time>
      </trkpt>
      <trkpt lat="49.49577" lon="1.06479">
        <ele>108</ele>
        <time>2022-04-30T12:48:36Z</time>
      </trkpt>
      <trkpt lat="49.49574" lon="1.06479">
        <ele>107.4</ele>
        <time>2022-04-30T12:48:37Z</time>
      </trkpt>
      <trkpt lat="49.49571" lon="1.0648">
        <ele>106.7</ele>
        <time>2022-04-30T12:48:38Z</time>
      </trkpt>
      <trkpt lat="49.4957" lon="1.0648">
        <ele>106.5</ele>
        <time>2022-04-30T12:48:39Z</time>
      </trkpt>
      <trkpt lat="49.49567" lon="1.0648">
        <ele>105.9</ele>
        <time>2022-04-30T12:48:40Z</time>
      </trkpt>
      <trkpt lat="49.49566" lon="1.0648">
        <ele>105.7</ele>
        <time>2022-04-30T12:48:41Z</time>
      </trkpt>
      <trkpt lat="49.49564" lon="1.0648">
        <ele>105.4</ele>
        <time>2022-04-30T12:48:42Z</time>
      </trkpt>
      <trkpt lat="49.49562" lon="1.06481">
        <ele>105.1</ele>
        <time>2022-04-30T12:48:43Z</time>
      </trkpt>
      <trkpt lat="49.49561" lon="1.06481">
        <ele>104.8</ele>
        <time>2022-04-30T12:48:44Z</time>
      </trkpt>
      <trkpt lat="49.4956" lon="1.06481">
        <ele>104.6</ele>
        <time>2022-04-30T12:48:45Z</time>
      </trkpt>
      <trkpt lat="49.49559" lon="1.06482">
        <ele>104.5</ele>
        <time>2022-04-30T12:48:46Z</time>
      </trkpt>
      <trkpt lat="49.49558" lon="1.06482">
        <ele>104.2</ele>
        <time>2022-04-30T12:48:47Z</time>
      </trkpt>
      <trkpt lat="49.49557" lon="1.06482">
        <ele>104.2</ele>
        <time>2022-04-30T12:48:48Z</time>
      </trkpt>
      <trkpt lat="49.49557" lon="1.06482">
        <ele>104.1</ele>
        <time>2022-04-30T12:48:49Z</time>
      </trkpt>
      <trkpt lat="49.49557" lon="1.06482">
        <ele>104</ele>
        <time>2022-04-30T12:48:50Z</time>
      </trkpt>
      <trkpt lat="49.49556" lon="1.06482">
        <ele>104</ele>
        <time>2022-04-30T12:48:51Z</time>
      </trkpt>
      <trkpt lat="49.49556" lon="1.06482">
        <ele>103.9</ele>
        <time>2022-04-30T12:48:52Z</time>
      </trkpt>
      <trkpt lat="49.49556" lon="1.06482">
        <ele>103.8</ele>
        <time>2022-04-30T12:48:53Z</time>
      </trkpt>
      <trkpt lat="49.49555" lon="1.06482">
        <ele>103.7</ele>
        <time>2022-04-30T12:48:54Z</time>
      </trkpt>
      <trkpt lat="49.49555" lon="1.06482">
        <ele>103.7</ele>
        <time>2022-04-30T12:48:55Z</time>
      </trkpt>
      <trkpt lat="49.49552" lon="1.06481">
        <ele>103</ele>
        <time>2022-04-30T12:48:56Z</time>
      </trkpt>
      <trkpt lat="49.49551" lon="1.0648">
        <ele>102.9</ele>
        <time>2022-04-30T12:48:57Z</time>
      </trkpt>
      <trkpt lat="49.49549" lon="1.0648">
        <ele>102.6</ele>
        <time>2022-04-30T12:48:58Z</time>
      </trkpt>
      <trkpt lat="49.49548" lon="1.06479">
        <ele>102.3</ele>
        <time>2022-04-30T12:48:59Z</time>
      </trkpt>
      <trkpt lat="49.49546" lon="1.06478">
        <ele>102</ele>
        <time>2022-04-30T12:49:00Z</time>
      </trkpt>
      <trkpt lat="49.49545" lon="1.06477">
        <ele>101.7</ele>
        <time>2022-04-30T12:49:01Z</time>
      </trkpt>
      <trkpt lat="49.49543" lon="1.06477">
        <ele>101.4</ele>
        <time>2022-04-30T12:49:02Z</time>
      </trkpt>
      <trkpt lat="49.49542" lon="1.06476">
        <ele>101.1</ele>
        <time>2022-04-30T12:49:03Z</time>
      </trkpt>
      <trkpt lat="49.4954" lon="1.06476">
        <ele>100.8</ele>
        <time>2022-04-30T12:49:04Z</time>
      </trkpt>
      <trkpt lat="49.49539" lon="1.06475">
        <ele>100.7</ele>
        <time>2022-04-30T12:49:05Z</time>
      </trkpt>
      <trkpt lat="49.49538" lon="1.06475">
        <ele>100.5</ele>
        <time>2022-04-30T12:49:06Z</time>
      </trkpt>
      <trkpt lat="49.49536" lon="1.06474">
        <ele>100.2</ele>
        <time>2022-04-30T12:49:07Z</time>
      </trkpt>
      <trkpt lat="49.49535" lon="1.06474">
        <ele>100</ele>
        <time>2022-04-30T12:49:08Z</time>
      </trkpt>
      <trkpt lat="49.49534" lon="1.06474">
        <ele>99.9</ele>
        <time>2022-04-30T12:49:09Z</time>
      </trkpt>
      <trkpt lat="49.49532" lon="1.06474">
        <ele>99.5</ele>
        <time>2022-04-30T12:49:10Z</time>
      </trkpt>
      <trkpt lat="49.49531" lon="1.06474">
        <ele>99.4</ele>
        <time>2022-04-30T12:49:11Z</time>
      </trkpt>
      <trkpt lat="49.4953" lon="1.06474">
        <ele>99.2</ele>
        <time>2022-04-30T12:49:12Z</time>
      </trkpt>
      <trkpt lat="49.49526" lon="1.06474">
        <ele>98.6</ele>
        <time>2022-04-30T12:49:13Z</time>
      </trkpt>
      <trkpt lat="49.49524" lon="1.06474">
        <ele>98.3</ele>
        <time>2022-04-30T12:49:14Z</time>
      </trkpt>
      <trkpt lat="49.4952" lon="1.06475">
        <ele>97.7</ele>
        <time>2022-04-30T12:49:15Z</time>
      </trkpt>
      <trkpt lat="49.49517" lon="1.06475">
        <ele>97.2</ele>
        <time>2022-04-30T12:49:16Z</time>
      </trkpt>
      <trkpt lat="49.49514" lon="1.06474">
        <ele>96.7</ele>
        <time>2022-04-30T12:49:17Z</time>
      </trkpt>
      <trkpt lat="49.49502" lon="1.06472">
        <ele>94.8</ele>
        <time>2022-04-30T12:49:18Z</time>
      </trkpt>
      <trkpt lat="49.49492" lon="1.0647">
        <ele>93.3</ele>
        <time>2022-04-30T12:49:19Z</time>
      </trkpt>
      <trkpt lat="49.49482" lon="1.06468">
        <ele>91.8</ele>
        <time>2022-04-30T12:49:20Z</time>
      </trkpt>
      <trkpt lat="49.49476" lon="1.06464">
        <ele>91.1</ele>
        <time>2022-04-30T12:49:21Z</time>
      </trkpt>
      <trkpt lat="49.49471" lon="1.0646">
        <ele>90.5</ele>
        <time>2022-04-30T12:49:22Z</time>
      </trkpt>
      <trkpt lat="49.49469" lon="1.06458">
        <ele>90.1</ele>
        <time>2022-04-30T12:49:23Z</time>
      </trkpt>
      <trkpt lat="49.49468" lon="1.06457">
        <ele>90</ele>
        <time>2022-04-30T12:49:24Z</time>
      </trkpt>
      <trkpt lat="49.49465" lon="1.06457">
        <ele>89.6</ele>
        <time>2022-04-30T12:49:25Z</time>
      </trkpt>
      <trkpt lat="49.49464" lon="1.06458">
        <ele>89.5</ele>
        <time>2022-04-30T12:49:26Z</time>
      </trkpt>
      <trkpt lat="49.49459" lon="1.06457">
        <ele>89</ele>
        <time>2022-04-30T12:49:27Z</time>
      </trkpt>
      <trkpt lat="49.49458" lon="1.06457">
        <ele>88.8</ele>
        <time>2022-04-30T12:49:28Z</time>
      </trkpt>
      <trkpt lat="49.49454" lon="1.06457">
        <ele>88.4</ele>
        <time>2022-04-30T12:49:29Z</time>
      </trkpt>
      <trkpt lat="49.49453" lon="1.06457">
        <ele>88.3</ele>
        <time>2022-04-30T12:49:30Z</time>
      </trkpt>
      <trkpt lat="49.49449" lon="1.06458">
        <ele>87.9</ele>
        <time>2022-04-30T12:49:31Z</time>
      </trkpt>
      <trkpt lat="49.49446" lon="1.06458">
        <ele>87.6</ele>
        <time>2022-04-30T12:49:32Z</time>
      </trkpt>
      <trkpt lat="49.49444" lon="1.06458">
        <ele>87.3</ele>
        <time>2022-04-30T12:49:33Z</time>
      </trkpt>
      <trkpt lat="49.49441" lon="1.06457">
        <ele>87</ele>
        <time>2022-04-30T12:49:34Z</time>
      </trkpt>
      <trkpt lat="49.49438" lon="1.06457">
        <ele>86.6</ele>
        <time>2022-04-30T12:49:35Z</time>
      </trkpt>
      <trkpt lat="49.49434" lon="1.06457">
        <ele>86.1</ele>
        <time>2022-04-30T12:49:36Z</time>
      </trkpt>
      <trkpt lat="49.4943" lon="1.06457">
        <ele>85.5</ele>
        <time>2022-04-30T12:49:37Z</time>
      </trkpt>
      <trkpt lat="49.49424" lon="1.06456">
        <ele>84.8</ele>
        <time>2022-04-30T12:49:38Z</time>
      </trkpt>
      <trkpt lat="49.49421" lon="1.06455">
        <ele>84.3</ele>
        <time>2022-04-30T12:49:39Z</time>
      </trkpt>
      <trkpt lat="49.49417" lon="1.06454">
        <ele>83.8</ele>
        <time>2022-04-30T12:49:40Z</time>
      </trkpt>
      <trkpt lat="49.49414" lon="1.06454">
        <ele>83.3</ele>
        <time>2022-04-30T12:49:41Z</time>
      </trkpt>
      <trkpt lat="49.4941" lon="1.06452">
        <ele>82.7</ele>
        <time>2022-04-30T12:49:42Z</time>
      </trkpt>
      <trkpt lat="49.49408" lon="1.06451">
        <ele>82.5</ele>
        <time>2022-04-30T12:49:43Z</time>
      </trkpt>
      <trkpt lat="49.49404" lon="1.06449">
        <ele>81.9</ele>
        <time>2022-04-30T12:49:44Z</time>
      </trkpt>
      <trkpt lat="49.494" lon="1.06446">
        <ele>81.4</ele>
        <time>2022-04-30T12:49:45Z</time>
      </trkpt>
      <trkpt lat="49.49395" lon="1.06445">
        <ele>80.7</ele>
        <time>2022-04-30T12:49:46Z</time>
      </trkpt>
      <trkpt lat="49.49391" lon="1.06443">
        <ele>80.1</ele>
        <time>2022-04-30T12:49:47Z</time>
      </trkpt>
      <trkpt lat="49.49388" lon="1.06442">
        <ele>79.6</ele>
        <time>2022-04-30T12:49:48Z</time>
      </trkpt>
      <trkpt lat="49.49384" lon="1.0644">
        <ele>79</ele>
        <time>2022-04-30T12:49:49Z</time>
      </trkpt>
      <trkpt lat="49.49379" lon="1.06438">
        <ele>78.3</ele>
        <time>2022-04-30T12:49:50Z</time>
      </trkpt>
      <trkpt lat="49.49375" lon="1.06437">
        <ele>77.7</ele>
        <time>2022-04-30T12:49:51Z</time>
      </trkpt>
      <trkpt lat="49.49372" lon="1.06437">
        <ele>77.2</ele>
        <time>2022-04-30T12:49:52Z</time>
      </trkpt>
      <trkpt lat="49.49369" lon="1.06436">
        <ele>76.7</ele>
        <time>2022-04-30T12:49:53Z</time>
      </trkpt>
      <trkpt lat="49.49368" lon="1.06436">
        <ele>76.6</ele>
        <time>2022-04-30T12:49:54Z</time>
      </trkpt>
      <trkpt lat="49.49365" lon="1.06435">
        <ele>76.1</ele>
        <time>2022-04-30T12:49:55Z</time>
      </trkpt>
      <trkpt lat="49.49362" lon="1.06434">
        <ele>75.6</ele>
        <time>2022-04-30T12:49:56Z</time>
      </trkpt>
      <trkpt lat="49.49359" lon="1.06434">
        <ele>75.2</ele>
        <time>2022-04-30T12:49:57Z</time>
      </trkpt>
      <trkpt lat="49.49355" lon="1.06432">
        <ele>74.7</ele>
        <time>2022-04-30T12:49:58Z</time>
      </trkpt>
      <trkpt lat="49.49352" lon="1.06431">
        <ele>74.1</ele>
        <time>2022-04-30T12:49:59Z</time>
      </trkpt>
      <trkpt lat="49.49347" lon="1.06428">
        <ele>73.4</ele>
        <time>2022-04-30T12:50:00Z</time>
      </trkpt>
      <trkpt lat="49.49343" lon="1.06426">
        <ele>72.8</ele>
        <time>2022-04-30T12:50:01Z</time>
      </trkpt>
      <trkpt lat="49.4934" lon="1.06425">
        <ele>72.3</ele>
        <time>2022-04-30T12:50:02Z</time>
      </trkpt>
      <trkpt lat="49.49336" lon="1.06424">
        <ele>71.8</ele>
        <time>2022-04-30T12:50:03Z</time>
      </trkpt>
      <trkpt lat="49.49333" lon="1.06421">
        <ele>71.2</ele>
        <time>2022-04-30T12:50:04Z</time>
      </trkpt>
      <trkpt lat="49.4933" lon="1.0642">
        <ele>70.7</ele>
        <time>2022-04-30T12:50:05Z</time>
      </trkpt>
      <trkpt lat="49.49327" lon="1.06418">
        <ele>70.3</ele>
        <time>2022-04-30T12:50:06Z</time>
      </trkpt>
      <trkpt lat="49.49323" lon="1.06416">
        <ele>69.6</ele>
        <time>2022-04-30T12:50:07Z</time>
      </trkpt>
      <trkpt lat="49.4932" lon="1.06414">
        <ele>69.1</ele>
        <time>2022-04-30T12:50:08Z</time>
      </trkpt>
      <trkpt lat="49.49317" lon="1.06412">
        <ele>68.6</ele>
        <time>2022-04-30T12:50:09Z</time>
      </trkpt>
      <trkpt lat="49.49313" lon="1.06411">
        <ele>68</ele>
        <time>2022-04-30T12:50:10Z</time>
      </trkpt>
      <trkpt lat="49.49308" lon="1.0641">
        <ele>67.3</ele>
        <time>2022-04-30T12:50:11Z</time>
      </trkpt>
      <trkpt lat="49.49303" lon="1.06408">
        <ele>66.5</ele>
        <time>2022-04-30T12:50:12Z</time>
      </trkpt>
      <trkpt lat="49.49299" lon="1.06406">
        <ele>65.7</ele>
        <time>2022-04-30T12:50:13Z</time>
      </trkpt>
      <trkpt lat="49.49294" lon="1.06403">
        <ele>65</ele>
        <time>2022-04-30T12:50:14Z</time>
      </trkpt>
      <trkpt lat="49.49292" lon="1.064">
        <ele>64.5</ele>
        <time>2022-04-30T12:50:15Z</time>
      </trkpt>
      <trkpt lat="49.49289" lon="1.06394">
        <ele>63.8</ele>
        <time>2022-04-30T12:50:16Z</time>
      </trkpt>
      <trkpt lat="49.49287" lon="1.06392">
        <ele>63.5</ele>
        <time>2022-04-30T12:50:17Z</time>
      </trkpt>
      <trkpt lat="49.49284" lon="1.0639">
        <ele>63</ele>
        <time>2022-04-30T12:50:18Z</time>
      </trkpt>
      <trkpt lat="49.49281" lon="1.06387">
        <ele>62.5</ele>
        <time>2022-04-30T12:50:19Z</time>
      </trkpt>
      <trkpt lat="49.49277" lon="1.06383">
        <ele>61.9</ele>
        <time>2022-04-30T12:50:20Z</time>
      </trkpt>
      <trkpt lat="49.49276" lon="1.06383">
        <ele>61.7</ele>
        <time>2022-04-30T12:50:21Z</time>
      </trkpt>
      <trkpt lat="49.49276" lon="1.06382">
        <ele>61.6</ele>
        <time>2022-04-30T12:50:22Z</time>
      </trkpt>
      <trkpt lat="49.49274" lon="1.06381">
        <ele>61.3</ele>
        <time>2022-04-30T12:50:23Z</time>
      </trkpt>
      <trkpt lat="49.49271" lon="1.06378">
        <ele>60.6</ele>
        <time>2022-04-30T12:50:24Z</time>
      </trkpt>
      <trkpt lat="49.4927" lon="1.06377">
        <ele>60.4</ele>
        <time>2022-04-30T12:50:25Z</time>
      </trkpt>
      <trkpt lat="49.49265" lon="1.06378">
        <ele>59.7</ele>
        <time>2022-04-30T12:50:26Z</time>
      </trkpt>
      <trkpt lat="49.49262" lon="1.06378">
        <ele>59.1</ele>
        <time>2022-04-30T12:50:27Z</time>
      </trkpt>
      <trkpt lat="49.49256" lon="1.06379">
        <ele>58.2</ele>
        <time>2022-04-30T12:50:28Z</time>
      </trkpt>
      <trkpt lat="49.4925" lon="1.0638">
        <ele>57.2</ele>
        <time>2022-04-30T12:50:29Z</time>
      </trkpt>
      <trkpt lat="49.49244" lon="1.06379">
        <ele>56.3</ele>
        <time>2022-04-30T12:50:30Z</time>
      </trkpt>
      <trkpt lat="49.49237" lon="1.06375">
        <ele>55.3</ele>
        <time>2022-04-30T12:50:31Z</time>
      </trkpt>
      <trkpt lat="49.49232" lon="1.06372">
        <ele>54.7</ele>
        <time>2022-04-30T12:50:32Z</time>
      </trkpt>
      <trkpt lat="49.49228" lon="1.06369">
        <ele>54.1</ele>
        <time>2022-04-30T12:50:33Z</time>
      </trkpt>
      <trkpt lat="49.49223" lon="1.0636">
        <ele>53.3</ele>
        <time>2022-04-30T12:50:34Z</time>
      </trkpt>
      <trkpt lat="49.49219" lon="1.06357">
        <ele>52.8</ele>
        <time>2022-04-30T12:50:35Z</time>
      </trkpt>
      <trkpt lat="49.49215" lon="1.06355">
        <ele>52.2</ele>
        <time>2022-04-30T12:50:36Z</time>
      </trkpt>
      <trkpt lat="49.49212" lon="1.06354">
        <ele>51.8</ele>
        <time>2022-04-30T12:50:37Z</time>
      </trkpt>
      <trkpt lat="49.49209" lon="1.06351">
        <ele>51.4</ele>
        <time>2022-04-30T12:50:38Z</time>
      </trkpt>
      <trkpt lat="49.49199" lon="1.06349">
        <ele>50.4</ele>
        <time>2022-04-30T12:50:39Z</time>
      </trkpt>
      <trkpt lat="49.49196" lon="1.0635">
        <ele>50.2</ele>
        <time>2022-04-30T12:50:40Z</time>
      </trkpt>
      <trkpt lat="49.49193" lon="1.06349">
        <ele>49.8</ele>
        <time>2022-04-30T12:50:41Z</time>
      </trkpt>
      <trkpt lat="49.49189" lon="1.06347">
        <ele>49.4</ele>
        <time>2022-04-30T12:50:42Z</time>
      </trkpt>
      <trkpt lat="49.49182" lon="1.06343">
        <ele>48.8</ele>
        <time>2022-04-30T12:50:43Z</time>
      </trkpt>
      <trkpt lat="49.49175" lon="1.06335">
        <ele>48</ele>
        <time>2022-04-30T12:50:44Z</time>
      </trkpt>
      <trkpt lat="49.49173" lon="1.06333">
        <ele>47.8</ele>
        <time>2022-04-30T12:50:45Z</time>
      </trkpt>
      <trkpt lat="49.49172" lon="1.06332">
        <ele>47.7</ele>
        <time>2022-04-30T12:50:46Z</time>
      </trkpt>
      <trkpt lat="49.49167" lon="1.06333">
        <ele>47.3</ele>
        <time>2022-04-30T12:50:47Z</time>
      </trkpt>
      <trkpt lat="49.49164" lon="1.06333">
        <ele>47</ele>
        <time>2022-04-30T12:50:48Z</time>
      </trkpt>
      <trkpt lat="49.49157" lon="1.06336">
        <ele>46.5</ele>
        <time>2022-04-30T12:50:49Z</time>
      </trkpt>
      <trkpt lat="49.49159" lon="1.0634">
        <ele>46.2</ele>
        <time>2022-04-30T12:50:50Z</time>
      </trkpt>
      <trkpt lat="49.4916" lon="1.06342">
        <ele>46.1</ele>
        <time>2022-04-30T12:50:51Z</time>
      </trkpt>
      <trkpt lat="49.49158" lon="1.06348">
        <ele>45.8</ele>
        <time>2022-04-30T12:50:52Z</time>
      </trkpt>
      <trkpt lat="49.49157" lon="1.0635">
        <ele>43.9</ele>
        <time>2022-04-30T12:50:53Z</time>
      </trkpt>
      <trkpt lat="49.49156" lon="1.06356">
        <ele>43.7</ele>
        <time>2022-04-30T12:50:54Z</time>
      </trkpt>
      <trkpt lat="49.49155" lon="1.06361">
        <ele>43.5</ele>
        <time>2022-04-30T12:50:55Z</time>
      </trkpt>
      <trkpt lat="49.49154" lon="1.06366">
        <ele>43.3</ele>
        <time>2022-04-30T12:50:56Z</time>
      </trkpt>
      <trkpt lat="49.49154" lon="1.06368">
        <ele>43.2</ele>
        <time>2022-04-30T12:50:57Z</time>
      </trkpt>
      <trkpt lat="49.49153" lon="1.0637">
        <ele>43.2</ele>
        <time>2022-04-30T12:50:58Z</time>
      </trkpt>
      <trkpt lat="49.49153" lon="1.06369">
        <ele>43.1</ele>
        <time>2022-04-30T12:50:59Z</time>
      </trkpt>
      <trkpt lat="49.49153" lon="1.06369">
        <ele>43.1</ele>
        <time>2022-04-30T12:51:00Z</time>
      </trkpt>
      <trkpt lat="49.49152" lon="1.06368">
        <ele>43.1</ele>
        <time>2022-04-30T12:51:01Z</time>
      </trkpt>
      <trkpt lat="49.49152" lon="1.06368">
        <ele>43.1</ele>
        <time>2022-04-30T12:51:02Z</time>
      </trkpt>
      <trkpt lat="49.49152" lon="1.06367">
        <ele>43.1</ele>
        <time>2022-04-30T12:51:03Z</time>
      </trkpt>
      <trkpt lat="49.49152" lon="1.06367">
        <ele>43.1</ele>
        <time>2022-04-30T12:51:04Z</time>
      </trkpt>
      <trkpt lat="49.49152" lon="1.06366">
        <ele>43</ele>
        <time>2022-04-30T12:54:52Z</time>
      </trkpt>
      <trkpt lat="49.49151" lon="1.06366">
        <ele>43</ele>
        <time>2022-04-30T12:54:53Z</time>
      </trkpt>
      <trkpt lat="49.49151" lon="1.06365">
        <ele>43</ele>
        <time>2022-04-30T12:54:54Z</time>
      </trkpt>
      <trkpt lat="49.49151" lon="1.06365">
        <ele>43</ele>
        <time>2022-04-30T12:54:55Z</time>
      </trkpt>
      <trkpt lat="49.49151" lon="1.06364">
        <ele>43</ele>
        <time>2022-04-30T12:54:56Z</time>
      </trkpt>
      <trkpt lat="49.4915" lon="1.06364">
        <ele>42.9</ele>
        <time>2022-04-30T12:54:57Z</time>
      </trkpt>
      <trkpt lat="49.4915" lon="1.06364">
        <ele>42.9</ele>
        <time>2022-04-30T12:54:58Z</time>
      </trkpt>
      <trkpt lat="49.4915" lon="1.06363">
        <ele>42.9</ele>
        <time>2022-04-30T12:54:59Z</time>
      </trkpt>
      <trkpt lat="49.4915" lon="1.06363">
        <ele>42.9</ele>
        <time>2022-04-30T12:55:00Z</time>
      </trkpt>
      <trkpt lat="49.4915" lon="1.06362">
        <ele>42.9</ele>
        <time>2022-04-30T12:55:01Z</time>
      </trkpt>
      <trkpt lat="49.49149" lon="1.06362">
        <ele>42.8</ele>
        <time>2022-04-30T12:55:02Z</time>
      </trkpt>
      <trkpt lat="49.49149" lon="1.06361">
        <ele>42.8</ele>
        <time>2022-04-30T12:55:03Z</time>
      </trkpt>
      <trkpt lat="49.49149" lon="1.06361">
        <ele>42.8</ele>
        <time>2022-04-30T12:55:04Z</time>
      </trkpt>
      <trkpt lat="49.49149" lon="1.0636">
        <ele>42.8</ele>
        <time>2022-04-30T12:55:05Z</time>
      </trkpt>
      <trkpt lat="49.49149" lon="1.0636">
        <ele>42.8</ele>
        <time>2022-04-30T12:57:40Z</time>
      </trkpt>
      <trkpt lat="49.49148" lon="1.06359">
        <ele>42.7</ele>
        <time>2022-04-30T12:57:41Z</time>
      </trkpt>
      <trkpt lat="49.49148" lon="1.06359">
        <ele>42.7</ele>
        <time>2022-04-30T12:57:42Z</time>
      </trkpt>
      <trkpt lat="49.49148" lon="1.06358">
        <ele>42.7</ele>
        <time>2022-04-30T12:57:43Z</time>
      </trkpt>
      <trkpt lat="49.49146" lon="1.06354">
        <ele>42.6</ele>
        <time>2022-04-30T12:57:44Z</time>
      </trkpt>
      <trkpt lat="49.49146" lon="1.06352">
        <ele>42.6</ele>
        <time>2022-04-30T12:57:45Z</time>
      </trkpt>
      <trkpt lat="49.49144" lon="1.06349">
        <ele>42.5</ele>
        <time>2022-04-30T12:57:46Z</time>
      </trkpt>
      <trkpt lat="49.49144" lon="1.06347">
        <ele>42.5</ele>
        <time>2022-04-30T12:57:47Z</time>
      </trkpt>
      <trkpt lat="49.49143" lon="1.06346">
        <ele>42.5</ele>
        <time>2022-04-30T12:57:48Z</time>
      </trkpt>
      <trkpt lat="49.49142" lon="1.06342">
        <ele>42.5</ele>
        <time>2022-04-30T12:57:49Z</time>
      </trkpt>
      <trkpt lat="49.49138" lon="1.06335">
        <ele>42.4</ele>
        <time>2022-04-30T12:57:50Z</time>
      </trkpt>
      <trkpt lat="49.49136" lon="1.06332">
        <ele>42.4</ele>
        <time>2022-04-30T12:57:51Z</time>
      </trkpt>
      <trkpt lat="49.49135" lon="1.0633">
        <ele>42.3</ele>
        <time>2022-04-30T12:57:52Z</time>
      </trkpt>
      <trkpt lat="49.49133" lon="1.06327">
        <ele>42.3</ele>
        <time>2022-04-30T12:57:53Z</time>
      </trkpt>
      <trkpt lat="49.4913" lon="1.06325">
        <ele>42.3</ele>
        <time>2022-04-30T12:57:54Z</time>
      </trkpt>
      <trkpt lat="49.49125" lon="1.06321">
        <ele>42.2</ele>
        <time>2022-04-30T12:57:55Z</time>
      </trkpt>
      <trkpt lat="49.49122" lon="1.06317">
        <ele>42.1</ele>
        <time>2022-04-30T12:57:56Z</time>
      </trkpt>
      <trkpt lat="49.49121" lon="1.06315">
        <ele>42.1</ele>
        <time>2022-04-30T12:57:57Z</time>
      </trkpt>
      <trkpt lat="49.49119" lon="1.06311">
        <ele>42</ele>
        <time>2022-04-30T12:57:58Z</time>
      </trkpt>
      <trkpt lat="49.49116" lon="1.06307">
        <ele>42</ele>
        <time>2022-04-30T12:57:59Z</time>
      </trkpt>
      <trkpt lat="49.49111" lon="1.06301">
        <ele>41.9</ele>
        <time>2022-04-30T12:58:00Z</time>
      </trkpt>
      <trkpt lat="49.49108" lon="1.06298">
        <ele>41.8</ele>
        <time>2022-04-30T12:58:01Z</time>
      </trkpt>
      <trkpt lat="49.49106" lon="1.06297">
        <ele>41.8</ele>
        <time>2022-04-30T12:58:02Z</time>
      </trkpt>
      <trkpt lat="49.49104" lon="1.06294">
        <ele>41.8</ele>
        <time>2022-04-30T12:58:03Z</time>
      </trkpt>
      <trkpt lat="49.49101" lon="1.06293">
        <ele>41.6</ele>
        <time>2022-04-30T12:58:04Z</time>
      </trkpt>
      <trkpt lat="49.49094" lon="1.06296">
        <ele>41.9</ele>
        <time>2022-04-30T12:58:05Z</time>
      </trkpt>
      <trkpt lat="49.49092" lon="1.06298">
        <ele>42</ele>
        <time>2022-04-30T12:58:06Z</time>
      </trkpt>
      <trkpt lat="49.4909" lon="1.06301">
        <ele>42.1</ele>
        <time>2022-04-30T12:58:07Z</time>
      </trkpt>
      <trkpt lat="49.49088" lon="1.06304">
        <ele>42.2</ele>
        <time>2022-04-30T12:58:08Z</time>
      </trkpt>
      <trkpt lat="49.49085" lon="1.06307">
        <ele>42.3</ele>
        <time>2022-04-30T12:58:09Z</time>
      </trkpt>
      <trkpt lat="49.49081" lon="1.06314">
        <ele>42.6</ele>
        <time>2022-04-30T12:58:10Z</time>
      </trkpt>
      <trkpt lat="49.4908" lon="1.06318">
        <ele>42.7</ele>
        <time>2022-04-30T12:58:11Z</time>
      </trkpt>
      <trkpt lat="49.49077" lon="1.06322">
        <ele>42.8</ele>
        <time>2022-04-30T12:58:12Z</time>
      </trkpt>
      <trkpt lat="49.49075" lon="1.06326">
        <ele>43</ele>
        <time>2022-04-30T12:58:13Z</time>
      </trkpt>
      <trkpt lat="49.49073" lon="1.0633">
        <ele>43.2</ele>
        <time>2022-04-30T12:58:14Z</time>
      </trkpt>
      <trkpt lat="49.4907" lon="1.06339">
        <ele>43.5</ele>
        <time>2022-04-30T12:58:15Z</time>
      </trkpt>
      <trkpt lat="49.49068" lon="1.06343">
        <ele>43.7</ele>
        <time>2022-04-30T12:58:16Z</time>
      </trkpt>
      <trkpt lat="49.49067" lon="1.06345">
        <ele>43.8</ele>
        <time>2022-04-30T12:58:17Z</time>
      </trkpt>
      <trkpt lat="49.49065" lon="1.06349">
        <ele>44</ele>
        <time>2022-04-30T12:58:18Z</time>
      </trkpt>
      <trkpt lat="49.49064" lon="1.06354">
        <ele>44.3</ele>
        <time>2022-04-30T12:58:19Z</time>
      </trkpt>
      <trkpt lat="49.49063" lon="1.0636">
        <ele>44.7</ele>
        <time>2022-04-30T12:58:20Z</time>
      </trkpt>
      <trkpt lat="49.49064" lon="1.06361">
        <ele>44.7</ele>
        <time>2022-04-30T12:58:21Z</time>
      </trkpt>
      <trkpt lat="49.49065" lon="1.06363">
        <ele>44.8</ele>
        <time>2022-04-30T12:58:22Z</time>
      </trkpt>
      <trkpt lat="49.49068" lon="1.06365">
        <ele>44.9</ele>
        <time>2022-04-30T12:58:23Z</time>
      </trkpt>
      <trkpt lat="49.49069" lon="1.06366">
        <ele>44.9</ele>
        <time>2022-04-30T12:58:24Z</time>
      </trkpt>
      <trkpt lat="49.49073" lon="1.06369">
        <ele>45</ele>
        <time>2022-04-30T12:58:25Z</time>
      </trkpt>
      <trkpt lat="49.49074" lon="1.06371">
        <ele>45</ele>
        <time>2022-04-30T12:58:26Z</time>
      </trkpt>
      <trkpt lat="49.49076" lon="1.06373">
        <ele>45.1</ele>
        <time>2022-04-30T12:58:27Z</time>
      </trkpt>
      <trkpt lat="49.49077" lon="1.06373">
        <ele>45.1</ele>
        <time>2022-04-30T12:58:28Z</time>
      </trkpt>
      <trkpt lat="49.49079" lon="1.06374">
        <ele>45.2</ele>
        <time>2022-04-30T12:58:29Z</time>
      </trkpt>
      <trkpt lat="49.49082" lon="1.06375">
        <ele>45.2</ele>
        <time>2022-04-30T12:58:30Z</time>
      </trkpt>
      <trkpt lat="49.49084" lon="1.06376">
        <ele>45.3</ele>
        <time>2022-04-30T12:58:31Z</time>
      </trkpt>
      <trkpt lat="49.49085" lon="1.06377">
        <ele>45.3</ele>
        <time>2022-04-30T12:58:32Z</time>
      </trkpt>
      <trkpt lat="49.49089" lon="1.0638">
        <ele>45.4</ele>
        <time>2022-04-30T12:58:33Z</time>
      </trkpt>
      <trkpt lat="49.4909" lon="1.06381">
        <ele>45.4</ele>
        <time>2022-04-30T12:58:34Z</time>
      </trkpt>
      <trkpt lat="49.49093" lon="1.06385">
        <ele>45.5</ele>
        <time>2022-04-30T12:58:35Z</time>
      </trkpt>
      <trkpt lat="49.49095" lon="1.06388">
        <ele>45.6</ele>
        <time>2022-04-30T12:58:36Z</time>
      </trkpt>
      <trkpt lat="49.49095" lon="1.06389">
        <ele>45.6</ele>
        <time>2022-04-30T12:58:37Z</time>
      </trkpt>
      <trkpt lat="49.49096" lon="1.0639">
        <ele>45.6</ele>
        <time>2022-04-30T12:58:38Z</time>
      </trkpt>
      <trkpt lat="49.49098" lon="1.06394">
        <ele>45.7</ele>
        <time>2022-04-30T12:58:39Z</time>
      </trkpt>
      <trkpt lat="49.49099" lon="1.06395">
        <ele>45.7</ele>
        <time>2022-04-30T12:58:40Z</time>
      </trkpt>
      <trkpt lat="49.49102" lon="1.06397">
        <ele>45.8</ele>
        <time>2022-04-30T12:58:41Z</time>
      </trkpt>
      <trkpt lat="49.49102" lon="1.06398">
        <ele>45.8</ele>
        <time>2022-04-30T12:58:42Z</time>
      </trkpt>
      <trkpt lat="49.49103" lon="1.06401">
        <ele>45.8</ele>
        <time>2022-04-30T12:58:43Z</time>
      </trkpt>
      <trkpt lat="49.49104" lon="1.06403">
        <ele>45.9</ele>
        <time>2022-04-30T12:58:44Z</time>
      </trkpt>
      <trkpt lat="49.49106" lon="1.06407">
        <ele>45.9</ele>
        <time>2022-04-30T12:58:45Z</time>
      </trkpt>
      <trkpt lat="49.49106" lon="1.06408">
        <ele>46</ele>
        <time>2022-04-30T12:58:46Z</time>
      </trkpt>
      <trkpt lat="49.49108" lon="1.0641">
        <ele>46</ele>
        <time>2022-04-30T12:58:47Z</time>
      </trkpt>
      <trkpt lat="49.4911" lon="1.06414">
        <ele>46.1</ele>
        <time>2022-04-30T12:58:48Z</time>
      </trkpt>
      <trkpt lat="49.49111" lon="1.06415">
        <ele>46.1</ele>
        <time>2022-04-30T12:58:49Z</time>
      </trkpt>
      <trkpt lat="49.49114" lon="1.06418">
        <ele>46.2</ele>
        <time>2022-04-30T12:58:50Z</time>
      </trkpt>
      <trkpt lat="49.49115" lon="1.06419">
        <ele>46.2</ele>
        <time>2022-04-30T12:58:51Z</time>
      </trkpt>
      <trkpt lat="49.49116" lon="1.06421">
        <ele>46.2</ele>
        <time>2022-04-30T12:58:52Z</time>
      </trkpt>
      <trkpt lat="49.49117" lon="1.06423">
        <ele>46.3</ele>
        <time>2022-04-30T12:58:53Z</time>
      </trkpt>
      <trkpt lat="49.49118" lon="1.06425">
        <ele>46.3</ele>
        <time>2022-04-30T12:58:54Z</time>
      </trkpt>
      <trkpt lat="49.49121" lon="1.06429">
        <ele>46.4</ele>
        <time>2022-04-30T12:58:55Z</time>
      </trkpt>
      <trkpt lat="49.49121" lon="1.0643">
        <ele>46.4</ele>
        <time>2022-04-30T12:58:56Z</time>
      </trkpt>
      <trkpt lat="49.49121" lon="1.06431">
        <ele>46.5</ele>
        <time>2022-04-30T12:58:57Z</time>
      </trkpt>
      <trkpt lat="49.49122" lon="1.06433">
        <ele>46.5</ele>
        <time>2022-04-30T12:58:58Z</time>
      </trkpt>
      <trkpt lat="49.49124" lon="1.06437">
        <ele>46.6</ele>
        <time>2022-04-30T12:58:59Z</time>
      </trkpt>
      <trkpt lat="49.49124" lon="1.06438">
        <ele>46.6</ele>
        <time>2022-04-30T12:59:00Z</time>
      </trkpt>
      <trkpt lat="49.49125" lon="1.06439">
        <ele>46.6</ele>
        <time>2022-04-30T12:59:01Z</time>
      </trkpt>
      <trkpt lat="49.49126" lon="1.0644">
        <ele>46.7</ele>
        <time>2022-04-30T12:59:02Z</time>
      </trkpt>
      <trkpt lat="49.49127" lon="1.0644">
        <ele>46.7</ele>
        <time>2022-04-30T12:59:03Z</time>
      </trkpt>
      <trkpt lat="49.49128" lon="1.06441">
        <ele>46.7</ele>
        <time>2022-04-30T12:59:04Z</time>
      </trkpt>
      <trkpt lat="49.49131" lon="1.06442">
        <ele>46.8</ele>
        <time>2022-04-30T12:59:05Z</time>
      </trkpt>
      <trkpt lat="49.49132" lon="1.06443">
        <ele>46.9</ele>
        <time>2022-04-30T12:59:06Z</time>
      </trkpt>
      <trkpt lat="49.49134" lon="1.06445">
        <ele>46.9</ele>
        <time>2022-04-30T12:59:07Z</time>
      </trkpt>
      <trkpt lat="49.49136" lon="1.06445">
        <ele>47</ele>
        <time>2022-04-30T12:59:08Z</time>
      </trkpt>
      <trkpt lat="49.49138" lon="1.06446">
        <ele>47</ele>
        <time>2022-04-30T12:59:09Z</time>
      </trkpt>
      <trkpt lat="49.49139" lon="1.06447">
        <ele>47.1</ele>
        <time>2022-04-30T12:59:10Z</time>
      </trkpt>
      <trkpt lat="49.49141" lon="1.06447">
        <ele>47.2</ele>
        <time>2022-04-30T12:59:11Z</time>
      </trkpt>
      <trkpt lat="49.49143" lon="1.06449">
        <ele>47.3</ele>
        <time>2022-04-30T12:59:12Z</time>
      </trkpt>
      <trkpt lat="49.49144" lon="1.06449">
        <ele>47.3</ele>
        <time>2022-04-30T12:59:13Z</time>
      </trkpt>
      <trkpt lat="49.49145" lon="1.0645">
        <ele>47.3</ele>
        <time>2022-04-30T12:59:14Z</time>
      </trkpt>
      <trkpt lat="49.49147" lon="1.06452">
        <ele>47.4</ele>
        <time>2022-04-30T12:59:15Z</time>
      </trkpt>
      <trkpt lat="49.49148" lon="1.06451">
        <ele>47.5</ele>
        <time>2022-04-30T12:59:16Z</time>
      </trkpt>
      <trkpt lat="49.49148" lon="1.0645">
        <ele>47.5</ele>
        <time>2022-04-30T12:59:17Z</time>
      </trkpt>
      <trkpt lat="49.49148" lon="1.06449">
        <ele>47.5</ele>
        <time>2022-04-30T12:59:18Z</time>
      </trkpt>
      <trkpt lat="49.49148" lon="1.06449">
        <ele>47.5</ele>
        <time>2022-04-30T12:59:19Z</time>
      </trkpt>
      <trkpt lat="49.49148" lon="1.06449">
        <ele>47.5</ele>
        <time>2022-04-30T12:59:20Z</time>
      </trkpt>
      <trkpt lat="49.49148" lon="1.06449">
        <ele>47.5</ele>
        <time>2022-04-30T12:59:21Z</time>
      </trkpt>
      <trkpt lat="49.49148" lon="1.06449">
        <ele>47.5</ele>
        <time>2022-04-30T12:59:22Z</time>
      </trkpt>
      <trkpt lat="49.49148" lon="1.06449">
        <ele>47.5</ele>
        <time>2022-04-30T12:59:23Z</time>
      </trkpt>
      <trkpt lat="49.49148" lon="1.06449">
        <ele>47.5</ele>
        <time>2022-04-30T12:59:24Z</time>
      </trkpt>
      <trkpt lat="49.49148" lon="1.06449">
        <ele>47.5</ele>
        <time>2022-04-30T12:59:25Z</time>
      </trkpt>
      <trkpt lat="49.49151" lon="1.06463">
        <ele>47.9</ele>
        <time>2022-04-30T13:00:24Z</time>
      </trkpt>
      <trkpt lat="49.49151" lon="1.06464">
        <ele>47.9</ele>
        <time>2022-04-30T13:00:25Z</time>
      </trkpt>
      <trkpt lat="49.49151" lon="1.06464">
        <ele>47.9</ele>
        <time>2022-04-30T13:00:26Z</time>
      </trkpt>
      <trkpt lat="49.49151" lon="1.06462">
        <ele>48</ele>
        <time>2022-04-30T13:00:27Z</time>
      </trkpt>
      <trkpt lat="49.49151" lon="1.06461">
        <ele>48</ele>
        <time>2022-04-30T13:00:28Z</time>
      </trkpt>
      <trkpt lat="49.49151" lon="1.0646">
        <ele>48</ele>
        <time>2022-04-30T13:00:29Z</time>
      </trkpt>
      <trkpt lat="49.49151" lon="1.0646">
        <ele>48</ele>
        <time>2022-04-30T13:00:30Z</time>
      </trkpt>
      <trkpt lat="49.49151" lon="1.06459">
        <ele>48.1</ele>
        <time>2022-04-30T13:00:31Z</time>
      </trkpt>
      <trkpt lat="49.49151" lon="1.06459">
        <ele>48.1</ele>
        <time>2022-04-30T13:00:32Z</time>
      </trkpt>
      <trkpt lat="49.49151" lon="1.06459">
        <ele>48.1</ele>
        <time>2022-04-30T13:00:33Z</time>
      </trkpt>
      <trkpt lat="49.49151" lon="1.06459">
        <ele>48.1</ele>
        <time>2022-04-30T13:00:34Z</time>
      </trkpt>
      <trkpt lat="49.49151" lon="1.06459">
        <ele>48.1</ele>
        <time>2022-04-30T13:00:35Z</time>
      </trkpt>
      <trkpt lat="49.49147" lon="1.0645">
        <ele>48.4</ele>
        <time>2022-04-30T13:02:24Z</time>
      </trkpt>
      <trkpt lat="49.49146" lon="1.0645">
        <ele>48.4</ele>
        <time>2022-04-30T13:02:25Z</time>
      </trkpt>
      <trkpt lat="49.49145" lon="1.06451">
        <ele>48.5</ele>
        <time>2022-04-30T13:02:26Z</time>
      </trkpt>
      <trkpt lat="49.49144" lon="1.06451">
        <ele>48.5</ele>
        <time>2022-04-30T13:02:27Z</time>
      </trkpt>
      <trkpt lat="49.49144" lon="1.06452">
        <ele>48.5</ele>
        <time>2022-04-30T13:02:28Z</time>
      </trkpt>
      <trkpt lat="49.49144" lon="1.06452">
        <ele>48.5</ele>
        <time>2022-04-30T13:02:29Z</time>
      </trkpt>
      <trkpt lat="49.49144" lon="1.06453">
        <ele>48.5</ele>
        <time>2022-04-30T13:02:30Z</time>
      </trkpt>
      <trkpt lat="49.49144" lon="1.06453">
        <ele>48.5</ele>
        <time>2022-04-30T13:02:31Z</time>
      </trkpt>
      <trkpt lat="49.49144" lon="1.06453">
        <ele>48.6</ele>
        <time>2022-04-30T13:02:32Z</time>
      </trkpt>
      <trkpt lat="49.49144" lon="1.06453">
        <ele>48.6</ele>
        <time>2022-04-30T13:02:33Z</time>
      </trkpt>
      <trkpt lat="49.49144" lon="1.06453">
        <ele>48.6</ele>
        <time>2022-04-30T13:02:34Z</time>
      </trkpt>
      <trkpt lat="49.49144" lon="1.06453">
        <ele>48.6</ele>
        <time>2022-04-30T13:02:35Z</time>
      </trkpt>
      <trkpt lat="49.49144" lon="1.06453">
        <ele>48.6</ele>
        <time>2022-04-30T13:02:36Z</time>
      </trkpt>
      <trkpt lat="49.49146" lon="1.06456">
        <ele>48.7</ele>
        <time>2022-04-30T13:03:49Z</time>
      </trkpt>
      <trkpt lat="49.49148" lon="1.06459">
        <ele>48.8</ele>
        <time>2022-04-30T13:03:50Z</time>
      </trkpt>
      <trkpt lat="49.49148" lon="1.0646">
        <ele>48.8</ele>
        <time>2022-04-30T13:03:51Z</time>
      </trkpt>
      <trkpt lat="49.49149" lon="1.0646">
        <ele>48.9</ele>
        <time>2022-04-30T13:03:52Z</time>
      </trkpt>
      <trkpt lat="49.49148" lon="1.0646">
        <ele>48.9</ele>
        <time>2022-04-30T13:03:53Z</time>
      </trkpt>
      <trkpt lat="49.49148" lon="1.06459">
        <ele>48.9</ele>
        <time>2022-04-30T13:03:54Z</time>
      </trkpt>
      <trkpt lat="49.49149" lon="1.06459">
        <ele>48.9</ele>
        <time>2022-04-30T13:03:55Z</time>
      </trkpt>
      <trkpt lat="49.49149" lon="1.06459">
        <ele>48.9</ele>
        <time>2022-04-30T13:03:56Z</time>
      </trkpt>
      <trkpt lat="49.49149" lon="1.06459">
        <ele>48.9</ele>
        <time>2022-04-30T13:03:57Z</time>
      </trkpt>
      <trkpt lat="49.49149" lon="1.06459">
        <ele>48.9</ele>
        <time>2022-04-30T13:03:58Z</time>
      </trkpt>
      <trkpt lat="49.49149" lon="1.06459">
        <ele>48.9</ele>
        <time>2022-04-30T13:03:59Z</time>
      </trkpt>
      <trkpt lat="49.49149" lon="1.06459">
        <ele>48.9</ele>
        <time>2022-04-30T13:04:00Z</time>
      </trkpt>
      <trkpt lat="49.49149" lon="1.06459">
        <ele>48.9</ele>
        <time>2022-04-30T13:04:01Z</time>
      </trkpt>
      <trkpt lat="49.49149" lon="1.06459">
        <ele>48.9</ele>
        <time>2022-04-30T13:04:02Z</time>
      </trkpt>
      <trkpt lat="49.49149" lon="1.06459">
        <ele>48.9</ele>
        <time>2022-04-30T13:04:03Z</time>
      </trkpt>
      <trkpt lat="49.49149" lon="1.06459">
        <ele>48.9</ele>
        <time>2022-04-30T13:04:04Z</time>
      </trkpt>
      <trkpt lat="49.49152" lon="1.06458">
        <ele>49.1</ele>
        <time>2022-04-30T13:05:07Z</time>
      </trkpt>
      <trkpt lat="49.49153" lon="1.0646">
        <ele>49.1</ele>
        <time>2022-04-30T13:05:08Z</time>
      </trkpt>
      <trkpt lat="49.49153" lon="1.0646">
        <ele>49.1</ele>
        <time>2022-04-30T13:05:09Z</time>
      </trkpt>
      <trkpt lat="49.49153" lon="1.0646">
        <ele>49.1</ele>
        <time>2022-04-30T13:05:10Z</time>
      </trkpt>
      <trkpt lat="49.49153" lon="1.0646">
        <ele>49.1</ele>
        <time>2022-04-30T13:05:11Z</time>
      </trkpt>
      <trkpt lat="49.49153" lon="1.06459">
        <ele>49.2</ele>
        <time>2022-04-30T13:05:12Z</time>
      </trkpt>
      <trkpt lat="49.49153" lon="1.06459">
        <ele>49.2</ele>
        <time>2022-04-30T13:05:13Z</time>
      </trkpt>
      <trkpt lat="49.49153" lon="1.06458">
        <ele>49.2</ele>
        <time>2022-04-30T13:05:14Z</time>
      </trkpt>
      <trkpt lat="49.49152" lon="1.06457">
        <ele>49.2</ele>
        <time>2022-04-30T13:05:15Z</time>
      </trkpt>
      <trkpt lat="49.49152" lon="1.06457">
        <ele>49.2</ele>
        <time>2022-04-30T13:05:16Z</time>
      </trkpt>
      <trkpt lat="49.49152" lon="1.06457">
        <ele>49.2</ele>
        <time>2022-04-30T13:05:17Z</time>
      </trkpt>
      <trkpt lat="49.49152" lon="1.06457">
        <ele>49.3</ele>
        <time>2022-04-30T13:05:18Z</time>
      </trkpt>
      <trkpt lat="49.49152" lon="1.06458">
        <ele>49.3</ele>
        <time>2022-04-30T13:05:19Z</time>
      </trkpt>
      <trkpt lat="49.49151" lon="1.06458">
        <ele>49.3</ele>
        <time>2022-04-30T13:05:20Z</time>
      </trkpt>
      <trkpt lat="49.49151" lon="1.06459">
        <ele>49.3</ele>
        <time>2022-04-30T13:05:21Z</time>
      </trkpt>
      <trkpt lat="49.49151" lon="1.06459">
        <ele>49.3</ele>
        <time>2022-04-30T13:05:22Z</time>
      </trkpt>
      <trkpt lat="49.49151" lon="1.06458">
        <ele>49.4</ele>
        <time>2022-04-30T13:05:23Z</time>
      </trkpt>
      <trkpt lat="49.4915" lon="1.06458">
        <ele>49.4</ele>
        <time>2022-04-30T13:05:24Z</time>
      </trkpt>
      <trkpt lat="49.4915" lon="1.06459">
        <ele>49.4</ele>
        <time>2022-04-30T13:05:26Z</time>
      </trkpt>
      <trkpt lat="49.4915" lon="1.06458">
        <ele>49.4</ele>
        <time>2022-04-30T13:05:27Z</time>
      </trkpt>
      <trkpt lat="49.4915" lon="1.06458">
        <ele>49.4</ele>
        <time>2022-04-30T13:05:28Z</time>
      </trkpt>
      <trkpt lat="49.4915" lon="1.06458">
        <ele>49.4</ele>
        <time>2022-04-30T13:05:29Z</time>
      </trkpt>
      <trkpt lat="49.4915" lon="1.06457">
        <ele>49.5</ele>
        <time>2022-04-30T13:05:30Z</time>
      </trkpt>
      <trkpt lat="49.4915" lon="1.06457">
        <ele>49.5</ele>
        <time>2022-04-30T13:05:31Z</time>
      </trkpt>
      <trkpt lat="49.49149" lon="1.06458">
        <ele>49.5</ele>
        <time>2022-04-30T13:05:33Z</time>
      </trkpt>
      <trkpt lat="49.49149" lon="1.06459">
        <ele>49.5</ele>
        <time>2022-04-30T13:05:34Z</time>
      </trkpt>
      <trkpt lat="49.4915" lon="1.06459">
        <ele>49.5</ele>
        <time>2022-04-30T13:05:35Z</time>
      </trkpt>
      <trkpt lat="49.4915" lon="1.06459">
        <ele>49.6</ele>
        <time>2022-04-30T13:05:36Z</time>
      </trkpt>
      <trkpt lat="49.4915" lon="1.06459">
        <ele>49.6</ele>
        <time>2022-04-30T13:05:37Z</time>
      </trkpt>
      <trkpt lat="49.4915" lon="1.0646">
        <ele>49.6</ele>
        <time>2022-04-30T13:05:38Z</time>
      </trkpt>
      <trkpt lat="49.4915" lon="1.0646">
        <ele>49.6</ele>
        <time>2022-04-30T13:05:39Z</time>
      </trkpt>
      <trkpt lat="49.4915" lon="1.0646">
        <ele>49.6</ele>
        <time>2022-04-30T13:05:40Z</time>
      </trkpt>
      <trkpt lat="49.4915" lon="1.0646">
        <ele>49.6</ele>
        <time>2022-04-30T13:05:41Z</time>
      </trkpt>
      <trkpt lat="49.4915" lon="1.0646">
        <ele>49.6</ele>
        <time>2022-04-30T13:05:42Z</time>
      </trkpt>
      <trkpt lat="49.4915" lon="1.0646">
        <ele>49.6</ele>
        <time>2022-04-30T13:05:43Z</time>
      </trkpt>
      <trkpt lat="49.4915" lon="1.0646">
        <ele>49.6</ele>
        <time>2022-04-30T13:05:44Z</time>
      </trkpt>
      <trkpt lat="49.4915" lon="1.0646">
        <ele>49.6</ele>
        <time>2022-04-30T13:05:45Z</time>
      </trkpt>
      <trkpt lat="49.49151" lon="1.0646">
        <ele>49.6</ele>
        <time>2022-04-30T13:07:50Z</time>
      </trkpt>
      <trkpt lat="49.4915" lon="1.0646">
        <ele>49.7</ele>
        <time>2022-04-30T13:07:51Z</time>
      </trkpt>
      <trkpt lat="49.4915" lon="1.0646">
        <ele>49.7</ele>
        <time>2022-04-30T13:07:52Z</time>
      </trkpt>
      <trkpt lat="49.4915" lon="1.0646">
        <ele>49.7</ele>
        <time>2022-04-30T13:07:53Z</time>
      </trkpt>
      <trkpt lat="49.4915" lon="1.0646">
        <ele>49.7</ele>
        <time>2022-04-30T13:07:54Z</time>
      </trkpt>
      <trkpt lat="49.4915" lon="1.0646">
        <ele>49.7</ele>
        <time>2022-04-30T13:07:55Z</time>
      </trkpt>
      <trkpt lat="49.4915" lon="1.0646">
        <ele>49.7</ele>
        <time>2022-04-30T13:07:56Z</time>
      </trkpt>
      <trkpt lat="49.4915" lon="1.0646">
        <ele>49.7</ele>
        <time>2022-04-30T13:07:57Z</time>
      </trkpt>
      <trkpt lat="49.4915" lon="1.0646">
        <ele>49.7</ele>
        <time>2022-04-30T13:07:58Z</time>
      </trkpt>
      <trkpt lat="49.4915" lon="1.0646">
        <ele>49.7</ele>
        <time>2022-04-30T13:07:59Z</time>
      </trkpt>
      <trkpt lat="49.4915" lon="1.0646">
        <ele>49.7</ele>
        <time>2022-04-30T13:08:00Z</time>
      </trkpt>
      <trkpt lat="49.4915" lon="1.06459">
        <ele>49.7</ele>
        <time>2022-04-30T13:08:01Z</time>
      </trkpt>
      <trkpt lat="49.4915" lon="1.06459">
        <ele>49.7</ele>
        <time>2022-04-30T13:08:02Z</time>
      </trkpt>
      <trkpt lat="49.4915" lon="1.06459">
        <ele>49.7</ele>
        <time>2022-04-30T13:08:03Z</time>
      </trkpt>
      <trkpt lat="49.4915" lon="1.06459">
        <ele>49.7</ele>
        <time>2022-04-30T13:08:04Z</time>
      </trkpt>
      <trkpt lat="49.4915" lon="1.0646">
        <ele>49.7</ele>
        <time>2022-04-30T13:08:05Z</time>
      </trkpt>
      <trkpt lat="49.49151" lon="1.0646">
        <ele>49.8</ele>
        <time>2022-04-30T13:08:06Z</time>
      </trkpt>
      <trkpt lat="49.49151" lon="1.0646">
        <ele>49.8</ele>
        <time>2022-04-30T13:08:07Z</time>
      </trkpt>
      <trkpt lat="49.49151" lon="1.06461">
        <ele>49.8</ele>
        <time>2022-04-30T13:08:08Z</time>
      </trkpt>
      <trkpt lat="49.49152" lon="1.06461">
        <ele>49.8</ele>
        <time>2022-04-30T13:08:09Z</time>
      </trkpt>
      <trkpt lat="49.49152" lon="1.06462">
        <ele>49.9</ele>
        <time>2022-04-30T13:08:10Z</time>
      </trkpt>
      <trkpt lat="49.49152" lon="1.06463">
        <ele>49.9</ele>
        <time>2022-04-30T13:08:11Z</time>
      </trkpt>
      <trkpt lat="49.49152" lon="1.06462">
        <ele>49.9</ele>
        <time>2022-04-30T13:08:12Z</time>
      </trkpt>
      <trkpt lat="49.49152" lon="1.06461">
        <ele>50</ele>
        <time>2022-04-30T13:08:13Z</time>
      </trkpt>
      <trkpt lat="49.49152" lon="1.0646">
        <ele>50</ele>
        <time>2022-04-30T13:08:14Z</time>
      </trkpt>
      <trkpt lat="49.49152" lon="1.0646">
        <ele>50</ele>
        <time>2022-04-30T13:08:15Z</time>
      </trkpt>
      <trkpt lat="49.49152" lon="1.0646">
        <ele>50</ele>
        <time>2022-04-30T13:08:16Z</time>
      </trkpt>
      <trkpt lat="49.49152" lon="1.06459">
        <ele>50</ele>
        <time>2022-04-30T13:08:17Z</time>
      </trkpt>
      <trkpt lat="49.49152" lon="1.06459">
        <ele>50</ele>
        <time>2022-04-30T13:08:18Z</time>
      </trkpt>
      <trkpt lat="49.49151" lon="1.06459">
        <ele>50</ele>
        <time>2022-04-30T13:08:19Z</time>
      </trkpt>
      <trkpt lat="49.49151" lon="1.06459">
        <ele>50</ele>
        <time>2022-04-30T13:08:20Z</time>
      </trkpt>
      <trkpt lat="49.49151" lon="1.06459">
        <ele>50</ele>
        <time>2022-04-30T13:08:21Z</time>
      </trkpt>
      <trkpt lat="49.49151" lon="1.06459">
        <ele>50</ele>
        <time>2022-04-30T13:08:22Z</time>
      </trkpt>
      <trkpt lat="49.49151" lon="1.06459">
        <ele>50</ele>
        <time>2022-04-30T13:08:23Z</time>
      </trkpt>
      <trkpt lat="49.49151" lon="1.06459">
        <ele>50</ele>
        <time>2022-04-30T13:08:24Z</time>
      </trkpt>
      <trkpt lat="49.49151" lon="1.06459">
        <ele>50</ele>
        <time>2022-04-30T13:08:25Z</time>
      </trkpt>
      <trkpt lat="49.49151" lon="1.06459">
        <ele>50</ele>
        <time>2022-04-30T13:08:26Z</time>
      </trkpt>
      <trkpt lat="49.49151" lon="1.06459">
        <ele>50</ele>
        <time>2022-04-30T13:08:27Z</time>
      </trkpt>
      <trkpt lat="49.49151" lon="1.06459">
        <ele>50</ele>
        <time>2022-04-30T13:08:28Z</time>
      </trkpt>
      <trkpt lat="49.49151" lon="1.06459">
        <ele>50</ele>
        <time>2022-04-30T13:08:29Z</time>
      </trkpt>
      <trkpt lat="49.49151" lon="1.06459">
        <ele>50</ele>
        <time>2022-04-30T13:08:30Z</time>
      </trkpt>
      <trkpt lat="49.49151" lon="1.06459">
        <ele>50</ele>
        <time>2022-04-30T13:08:31Z</time>
      </trkpt>
      <trkpt lat="49.49151" lon="1.06459">
        <ele>50</ele>
        <time>2022-04-30T13:08:32Z</time>
      </trkpt>
      <trkpt lat="49.49151" lon="1.06459">
        <ele>50</ele>
        <time>2022-04-30T13:08:33Z</time>
      </trkpt>
      <trkpt lat="49.49151" lon="1.06459">
        <ele>50</ele>
        <time>2022-04-30T13:08:34Z</time>
      </trkpt>
      <trkpt lat="49.49151" lon="1.06459">
        <ele>50</ele>
        <time>2022-04-30T13:08:35Z</time>
      </trkpt>
      <trkpt lat="49.49151" lon="1.06459">
        <ele>50</ele>
        <time>2022-04-30T13:08:36Z</time>
      </trkpt>
      <trkpt lat="49.49151" lon="1.06459">
        <ele>50</ele>
        <time>2022-04-30T13:08:37Z</time>
      </trkpt>
      <trkpt lat="49.49151" lon="1.06459">
        <ele>50</ele>
        <time>2022-04-30T13:08:38Z</time>
      </trkpt>
      <trkpt lat="49.49151" lon="1.06459">
        <ele>50</ele>
        <time>2022-04-30T13:08:39Z</time>
      </trkpt>
      <trkpt lat="49.49151" lon="1.06459">
        <ele>50</ele>
        <time>2022-04-30T13:08:40Z</time>
      </trkpt>
      <trkpt lat="49.49151" lon="1.06459">
        <ele>50</ele>
        <time>2022-04-30T13:08:41Z</time>
      </trkpt>
      <trkpt lat="49.49151" lon="1.06459">
        <ele>50</ele>
        <time>2022-04-30T13:08:42Z</time>
      </trkpt>
      <trkpt lat="49.49151" lon="1.06459">
        <ele>50</ele>
        <time>2022-04-30T13:08:43Z</time>
      </trkpt>
      <trkpt lat="49.49151" lon="1.06459">
        <ele>50</ele>
        <time>2022-04-30T13:08:44Z</time>
      </trkpt>
      <trkpt lat="49.49151" lon="1.06459">
        <ele>50</ele>
        <time>2022-04-30T13:08:45Z</time>
      </trkpt>
      <trkpt lat="49.49151" lon="1.06459">
        <ele>50</ele>
        <time>2022-04-30T13:08:46Z</time>
      </trkpt>
      <trkpt lat="49.49151" lon="1.06459">
        <ele>50</ele>
        <time>2022-04-30T13:08:47Z</time>
      </trkpt>
      <trkpt lat="49.49151" lon="1.06459">
        <ele>50</ele>
        <time>2022-04-30T13:08:48Z</time>
      </trkpt>
      <trkpt lat="49.49151" lon="1.06459">
        <ele>50</ele>
        <time>2022-04-30T13:08:49Z</time>
      </trkpt>
      <trkpt lat="49.49151" lon="1.06459">
        <ele>50</ele>
        <time>2022-04-30T13:08:50Z</time>
      </trkpt>
      <trkpt lat="49.49151" lon="1.06459">
        <ele>50</ele>
        <time>2022-04-30T13:08:51Z</time>
      </trkpt>
      <trkpt lat="49.49151" lon="1.06459">
        <ele>50</ele>
        <time>2022-04-30T13:08:52Z</time>
      </trkpt>
      <trkpt lat="49.49151" lon="1.06459">
        <ele>50</ele>
        <time>2022-04-30T13:08:53Z</time>
      </trkpt>
      <trkpt lat="49.49151" lon="1.06459">
        <ele>50</ele>
        <time>2022-04-30T13:08:54Z</time>
      </trkpt>
      <trkpt lat="49.49151" lon="1.06459">
        <ele>50</ele>
        <time>2022-04-30T13:08:55Z</time>
      </trkpt>
      <trkpt lat="49.49151" lon="1.06459">
        <ele>50</ele>
        <time>2022-04-30T13:08:56Z</time>
      </trkpt>
      <trkpt lat="49.49151" lon="1.06459">
        <ele>50</ele>
        <time>2022-04-30T13:08:57Z</time>
      </trkpt>
      <trkpt lat="49.49151" lon="1.06459">
        <ele>50</ele>
        <time>2022-04-30T13:08:58Z</time>
      </trkpt>
      <trkpt lat="49.49151" lon="1.06459">
        <ele>50</ele>
        <time>2022-04-30T13:08:59Z</time>
      </trkpt>
      <trkpt lat="49.49151" lon="1.06459">
        <ele>50</ele>
        <time>2022-04-30T13:09:00Z</time>
      </trkpt>
      <trkpt lat="49.4915" lon="1.06458">
        <ele>50.1</ele>
        <time>2022-04-30T13:09:01Z</time>
      </trkpt>
      <trkpt lat="49.49149" lon="1.06457">
        <ele>50.2</ele>
        <time>2022-04-30T13:09:02Z</time>
      </trkpt>
      <trkpt lat="49.49148" lon="1.06457">
        <ele>50.2</ele>
        <time>2022-04-30T13:09:03Z</time>
      </trkpt>
      <trkpt lat="49.49148" lon="1.06457">
        <ele>50.2</ele>
        <time>2022-04-30T13:09:04Z</time>
      </trkpt>
      <trkpt lat="49.49147" lon="1.06457">
        <ele>50.2</ele>
        <time>2022-04-30T13:09:05Z</time>
      </trkpt>
      <trkpt lat="49.49147" lon="1.06457">
        <ele>50.2</ele>
        <time>2022-04-30T13:09:06Z</time>
      </trkpt>
      <trkpt lat="49.49148" lon="1.06457">
        <ele>50.3</ele>
        <time>2022-04-30T13:09:07Z</time>
      </trkpt>
      <trkpt lat="49.49148" lon="1.06457">
        <ele>50.3</ele>
        <time>2022-04-30T13:09:08Z</time>
      </trkpt>
      <trkpt lat="49.49148" lon="1.06457">
        <ele>50.3</ele>
        <time>2022-04-30T13:09:09Z</time>
      </trkpt>
      <trkpt lat="49.49148" lon="1.06457">
        <ele>50.3</ele>
        <time>2022-04-30T13:09:10Z</time>
      </trkpt>
      <trkpt lat="49.49148" lon="1.06458">
        <ele>50.3</ele>
        <time>2022-04-30T13:09:11Z</time>
      </trkpt>
      <trkpt lat="49.49148" lon="1.06458">
        <ele>50.3</ele>
        <time>2022-04-30T13:09:12Z</time>
      </trkpt>
      <trkpt lat="49.49148" lon="1.06458">
        <ele>50.3</ele>
        <time>2022-04-30T13:09:13Z</time>
      </trkpt>
      <trkpt lat="49.49148" lon="1.06459">
        <ele>50.3</ele>
        <time>2022-04-30T13:09:14Z</time>
      </trkpt>
      <trkpt lat="49.49148" lon="1.06459">
        <ele>50.3</ele>
        <time>2022-04-30T13:09:15Z</time>
      </trkpt>
      <trkpt lat="49.49149" lon="1.06459">
        <ele>50.4</ele>
        <time>2022-04-30T13:09:16Z</time>
      </trkpt>
      <trkpt lat="49.49149" lon="1.06458">
        <ele>50.4</ele>
        <time>2022-04-30T13:09:17Z</time>
      </trkpt>
      <trkpt lat="49.49149" lon="1.06458">
        <ele>50.4</ele>
        <time>2022-04-30T13:09:18Z</time>
      </trkpt>
      <trkpt lat="49.4915" lon="1.06458">
        <ele>50.4</ele>
        <time>2022-04-30T13:09:19Z</time>
      </trkpt>
      <trkpt lat="49.4915" lon="1.06458">
        <ele>50.4</ele>
        <time>2022-04-30T13:09:20Z</time>
      </trkpt>
      <trkpt lat="49.4915" lon="1.06458">
        <ele>50.5</ele>
        <time>2022-04-30T13:09:21Z</time>
      </trkpt>
      <trkpt lat="49.4915" lon="1.06458">
        <ele>50.5</ele>
        <time>2022-04-30T13:09:22Z</time>
      </trkpt>
      <trkpt lat="49.49151" lon="1.06458">
        <ele>50.5</ele>
        <time>2022-04-30T13:09:23Z</time>
      </trkpt>
      <trkpt lat="49.49151" lon="1.06459">
        <ele>50.5</ele>
        <time>2022-04-30T13:09:24Z</time>
      </trkpt>
      <trkpt lat="49.49151" lon="1.0646">
        <ele>50.5</ele>
        <time>2022-04-30T13:09:25Z</time>
      </trkpt>
      <trkpt lat="49.49151" lon="1.0646">
        <ele>50.6</ele>
        <time>2022-04-30T13:09:26Z</time>
      </trkpt>
      <trkpt lat="49.49152" lon="1.06461">
        <ele>50.6</ele>
        <time>2022-04-30T13:09:27Z</time>
      </trkpt>
      <trkpt lat="49.49152" lon="1.06462">
        <ele>50.6</ele>
        <time>2022-04-30T13:09:28Z</time>
      </trkpt>
      <trkpt lat="49.49152" lon="1.06463">
        <ele>50.7</ele>
        <time>2022-04-30T13:09:29Z</time>
      </trkpt>
      <trkpt lat="49.49152" lon="1.06464">
        <ele>50.7</ele>
        <time>2022-04-30T13:09:30Z</time>
      </trkpt>
      <trkpt lat="49.49152" lon="1.06464">
        <ele>50.7</ele>
        <time>2022-04-30T13:09:31Z</time>
      </trkpt>
      <trkpt lat="49.49152" lon="1.06464">
        <ele>50.7</ele>
        <time>2022-04-30T13:09:32Z</time>
      </trkpt>
      <trkpt lat="49.49152" lon="1.06463">
        <ele>50.7</ele>
        <time>2022-04-30T13:09:33Z</time>
      </trkpt>
      <trkpt lat="49.49152" lon="1.06463">
        <ele>50.7</ele>
        <time>2022-04-30T13:09:34Z</time>
      </trkpt>
      <trkpt lat="49.49151" lon="1.06462">
        <ele>50.8</ele>
        <time>2022-04-30T13:09:35Z</time>
      </trkpt>
      <trkpt lat="49.49151" lon="1.0646">
        <ele>50.8</ele>
        <time>2022-04-30T13:09:36Z</time>
      </trkpt>
      <trkpt lat="49.4915" lon="1.06459">
        <ele>50.9</ele>
        <time>2022-04-30T13:09:37Z</time>
      </trkpt>
      <trkpt lat="49.49149" lon="1.06457">
        <ele>51</ele>
        <time>2022-04-30T13:09:38Z</time>
      </trkpt>
      <trkpt lat="49.49148" lon="1.06456">
        <ele>51</ele>
        <time>2022-04-30T13:09:39Z</time>
      </trkpt>
      <trkpt lat="49.49148" lon="1.06455">
        <ele>51.1</ele>
        <time>2022-04-30T13:09:40Z</time>
      </trkpt>
      <trkpt lat="49.49147" lon="1.06455">
        <ele>51.1</ele>
        <time>2022-04-30T13:09:41Z</time>
      </trkpt>
      <trkpt lat="49.49147" lon="1.06454">
        <ele>51.1</ele>
        <time>2022-04-30T13:09:42Z</time>
      </trkpt>
      <trkpt lat="49.49146" lon="1.06454">
        <ele>51.2</ele>
        <time>2022-04-30T13:09:43Z</time>
      </trkpt>
      <trkpt lat="49.49146" lon="1.06454">
        <ele>51.2</ele>
        <time>2022-04-30T13:09:44Z</time>
      </trkpt>
      <trkpt lat="49.49146" lon="1.06453">
        <ele>51.2</ele>
        <time>2022-04-30T13:09:45Z</time>
      </trkpt>
      <trkpt lat="49.49145" lon="1.06453">
        <ele>51.2</ele>
        <time>2022-04-30T13:09:46Z</time>
      </trkpt>
      <trkpt lat="49.49145" lon="1.06453">
        <ele>51.2</ele>
        <time>2022-04-30T13:09:47Z</time>
      </trkpt>
      <trkpt lat="49.49145" lon="1.06453">
        <ele>51.2</ele>
        <time>2022-04-30T13:09:48Z</time>
      </trkpt>
      <trkpt lat="49.49145" lon="1.06453">
        <ele>51.2</ele>
        <time>2022-04-30T13:09:49Z</time>
      </trkpt>
      <trkpt lat="49.49144" lon="1.06453">
        <ele>51.3</ele>
        <time>2022-04-30T13:09:50Z</time>
      </trkpt>
      <trkpt lat="49.49144" lon="1.06453">
        <ele>51.3</ele>
        <time>2022-04-30T13:09:51Z</time>
      </trkpt>
      <trkpt lat="49.49144" lon="1.06454">
        <ele>51.3</ele>
        <time>2022-04-30T13:09:52Z</time>
      </trkpt>
      <trkpt lat="49.49144" lon="1.06454">
        <ele>51.3</ele>
        <time>2022-04-30T13:09:53Z</time>
      </trkpt>
      <trkpt lat="49.49144" lon="1.06454">
        <ele>51.3</ele>
        <time>2022-04-30T13:09:54Z</time>
      </trkpt>
      <trkpt lat="49.49144" lon="1.06454">
        <ele>51.3</ele>
        <time>2022-04-30T13:09:55Z</time>
      </trkpt>
      <trkpt lat="49.49143" lon="1.06454">
        <ele>51.3</ele>
        <time>2022-04-30T13:09:56Z</time>
      </trkpt>
      <trkpt lat="49.49143" lon="1.06454">
        <ele>51.3</ele>
        <time>2022-04-30T13:09:57Z</time>
      </trkpt>
      <trkpt lat="49.49143" lon="1.06453">
        <ele>51.3</ele>
        <time>2022-04-30T13:09:58Z</time>
      </trkpt>
      <trkpt lat="49.49143" lon="1.06453">
        <ele>51.3</ele>
        <time>2022-04-30T13:09:59Z</time>
      </trkpt>
      <trkpt lat="49.49143" lon="1.06453">
        <ele>51.3</ele>
        <time>2022-04-30T13:10:00Z</time>
      </trkpt>
      <trkpt lat="49.49143" lon="1.06453">
        <ele>51.3</ele>
        <time>2022-04-30T13:10:01Z</time>
      </trkpt>
      <trkpt lat="49.49143" lon="1.06453">
        <ele>51.3</ele>
        <time>2022-04-30T13:10:02Z</time>
      </trkpt>
      <trkpt lat="49.49143" lon="1.06453">
        <ele>51.3</ele>
        <time>2022-04-30T13:10:03Z</time>
      </trkpt>
      <trkpt lat="49.49143" lon="1.06453">
        <ele>51.3</ele>
        <time>2022-04-30T13:10:04Z</time>
      </trkpt>
      <trkpt lat="49.49144" lon="1.06453">
        <ele>51.4</ele>
        <time>2022-04-30T13:10:05Z</time>
      </trkpt>
      <trkpt lat="49.49144" lon="1.06453">
        <ele>51.4</ele>
        <time>2022-04-30T13:10:06Z</time>
      </trkpt>
      <trkpt lat="49.49144" lon="1.06453">
        <ele>51.4</ele>
        <time>2022-04-30T13:10:07Z</time>
      </trkpt>
      <trkpt lat="49.49144" lon="1.06453">
        <ele>51.4</ele>
        <time>2022-04-30T13:10:08Z</time>
      </trkpt>
      <trkpt lat="49.49144" lon="1.06453">
        <ele>51.4</ele>
        <time>2022-04-30T13:10:09Z</time>
      </trkpt>
      <trkpt lat="49.49144" lon="1.06453">
        <ele>51.4</ele>
        <time>2022-04-30T13:10:10Z</time>
      </trkpt>
      <trkpt lat="49.49144" lon="1.06454">
        <ele>51.4</ele>
        <time>2022-04-30T13:10:11Z</time>
      </trkpt>
      <trkpt lat="49.49144" lon="1.06455">
        <ele>51.4</ele>
        <time>2022-04-30T13:10:12Z</time>
      </trkpt>
      <trkpt lat="49.49144" lon="1.06455">
        <ele>51.4</ele>
        <time>2022-04-30T13:10:13Z</time>
      </trkpt>
      <trkpt lat="49.49144" lon="1.06456">
        <ele>51.5</ele>
        <time>2022-04-30T13:10:14Z</time>
      </trkpt>
      <trkpt lat="49.49144" lon="1.06456">
        <ele>51.5</ele>
        <time>2022-04-30T13:10:15Z</time>
      </trkpt>
      <trkpt lat="49.49144" lon="1.06456">
        <ele>51.5</ele>
        <time>2022-04-30T13:10:16Z</time>
      </trkpt>
      <trkpt lat="49.49144" lon="1.06456">
        <ele>51.5</ele>
        <time>2022-04-30T13:10:17Z</time>
      </trkpt>
      <trkpt lat="49.49144" lon="1.06457">
        <ele>51.5</ele>
        <time>2022-04-30T13:10:18Z</time>
      </trkpt>
      <trkpt lat="49.49144" lon="1.06457">
        <ele>51.5</ele>
        <time>2022-04-30T13:10:19Z</time>
      </trkpt>
      <trkpt lat="49.49144" lon="1.06457">
        <ele>51.5</ele>
        <time>2022-04-30T13:10:20Z</time>
      </trkpt>
      <trkpt lat="49.49144" lon="1.06456">
        <ele>51.5</ele>
        <time>2022-04-30T13:10:21Z</time>
      </trkpt>
      <trkpt lat="49.49144" lon="1.06456">
        <ele>51.5</ele>
        <time>2022-04-30T13:10:22Z</time>
      </trkpt>
      <trkpt lat="49.49144" lon="1.06455">
        <ele>51.6</ele>
        <time>2022-04-30T13:10:23Z</time>
      </trkpt>
      <trkpt lat="49.49145" lon="1.06455">
        <ele>51.6</ele>
        <time>2022-04-30T13:10:24Z</time>
      </trkpt>
      <trkpt lat="49.49145" lon="1.06454">
        <ele>51.6</ele>
        <time>2022-04-30T13:10:25Z</time>
      </trkpt>
      <trkpt lat="49.49145" lon="1.06453">
        <ele>51.6</ele>
        <time>2022-04-30T13:10:26Z</time>
      </trkpt>
      <trkpt lat="49.49145" lon="1.06453">
        <ele>51.7</ele>
        <time>2022-04-30T13:10:27Z</time>
      </trkpt>
      <trkpt lat="49.49146" lon="1.06453">
        <ele>51.7</ele>
        <time>2022-04-30T13:10:28Z</time>
      </trkpt>
      <trkpt lat="49.49146" lon="1.06453">
        <ele>51.7</ele>
        <time>2022-04-30T13:10:29Z</time>
      </trkpt>
      <trkpt lat="49.49146" lon="1.06453">
        <ele>51.7</ele>
        <time>2022-04-30T13:10:30Z</time>
      </trkpt>
      <trkpt lat="49.49146" lon="1.06453">
        <ele>51.7</ele>
        <time>2022-04-30T13:10:31Z</time>
      </trkpt>
      <trkpt lat="49.49146" lon="1.06453">
        <ele>51.7</ele>
        <time>2022-04-30T13:10:32Z</time>
      </trkpt>
      <trkpt lat="49.49146" lon="1.06453">
        <ele>51.7</ele>
        <time>2022-04-30T13:10:33Z</time>
      </trkpt>
      <trkpt lat="49.49147" lon="1.06453">
        <ele>51.7</ele>
        <time>2022-04-30T13:10:34Z</time>
      </trkpt>
      <trkpt lat="49.49147" lon="1.06453">
        <ele>51.7</ele>
        <time>2022-04-30T13:10:35Z</time>
      </trkpt>
      <trkpt lat="49.49147" lon="1.06454">
        <ele>51.8</ele>
        <time>2022-04-30T13:10:36Z</time>
      </trkpt>
      <trkpt lat="49.49147" lon="1.06455">
        <ele>51.8</ele>
        <time>2022-04-30T13:10:37Z</time>
      </trkpt>
      <trkpt lat="49.49147" lon="1.06455">
        <ele>51.8</ele>
        <time>2022-04-30T13:10:38Z</time>
      </trkpt>
      <trkpt lat="49.49148" lon="1.06455">
        <ele>51.8</ele>
        <time>2022-04-30T13:10:39Z</time>
      </trkpt>
      <trkpt lat="49.49148" lon="1.06455">
        <ele>51.8</ele>
        <time>2022-04-30T13:10:40Z</time>
      </trkpt>
      <trkpt lat="49.49147" lon="1.06455">
        <ele>51.8</ele>
        <time>2022-04-30T13:10:41Z</time>
      </trkpt>
      <trkpt lat="49.49148" lon="1.06455">
        <ele>51.8</ele>
        <time>2022-04-30T13:10:42Z</time>
      </trkpt>
      <trkpt lat="49.49148" lon="1.06455">
        <ele>51.8</ele>
        <time>2022-04-30T13:10:43Z</time>
      </trkpt>
      <trkpt lat="49.49148" lon="1.06455">
        <ele>51.8</ele>
        <time>2022-04-30T13:10:44Z</time>
      </trkpt>
      <trkpt lat="49.49148" lon="1.06455">
        <ele>51.9</ele>
        <time>2022-04-30T13:10:45Z</time>
      </trkpt>
      <trkpt lat="49.49148" lon="1.06454">
        <ele>51.9</ele>
        <time>2022-04-30T13:10:46Z</time>
      </trkpt>
      <trkpt lat="49.49147" lon="1.06454">
        <ele>51.9</ele>
        <time>2022-04-30T13:10:47Z</time>
      </trkpt>
      <trkpt lat="49.49147" lon="1.06453">
        <ele>51.9</ele>
        <time>2022-04-30T13:10:48Z</time>
      </trkpt>
      <trkpt lat="49.49147" lon="1.06453">
        <ele>51.9</ele>
        <time>2022-04-30T13:10:49Z</time>
      </trkpt>
      <trkpt lat="49.49147" lon="1.06452">
        <ele>52</ele>
        <time>2022-04-30T13:10:50Z</time>
      </trkpt>
      <trkpt lat="49.49147" lon="1.06452">
        <ele>52</ele>
        <time>2022-04-30T13:10:51Z</time>
      </trkpt>
      <trkpt lat="49.49146" lon="1.06452">
        <ele>52</ele>
        <time>2022-04-30T13:10:52Z</time>
      </trkpt>
      <trkpt lat="49.49146" lon="1.06452">
        <ele>52</ele>
        <time>2022-04-30T13:10:53Z</time>
      </trkpt>
      <trkpt lat="49.49146" lon="1.06452">
        <ele>52</ele>
        <time>2022-04-30T13:10:54Z</time>
      </trkpt>
      <trkpt lat="49.49146" lon="1.06452">
        <ele>52</ele>
        <time>2022-04-30T13:10:55Z</time>
      </trkpt>
      <trkpt lat="49.49146" lon="1.06452">
        <ele>52</ele>
        <time>2022-04-30T13:10:56Z</time>
      </trkpt>
      <trkpt lat="49.49146" lon="1.06452">
        <ele>52</ele>
        <time>2022-04-30T13:10:57Z</time>
      </trkpt>
      <trkpt lat="49.49146" lon="1.06452">
        <ele>52</ele>
        <time>2022-04-30T13:10:58Z</time>
      </trkpt>
    </trkseg>
  </trk>
</gpx>